<?xml version="1.0" encoding="UTF-8" standalone="no" ?>
<gpx xmlns="http://www.topografix.com/GPX/1/1" xmlns:xsi="http://www.w3.org/2001/XMLSchema-instance" xsi:schemaLocation="http://www.topografix.com/GPX/1/1 http://www.topografix.com/GPX/1/1/gpx.xsd" version="1.1" creator="VisuGPX - https://www.visugpx.com">
  <metadata>
    <name>MB. Sortie du 20/06/2019</name>
    <desc><![CDATA[Sortie VTT du jeudi 20 juin 2019]]></desc>
  </metadata>
  <trk>
    <name><![CDATA[Pornichet Cyclisme]]></name>
    <trkseg>
      <trkpt lat="47.26405" lon="-2.31554">
        <ele>30.200000762939</ele>
        <time>2019-06-20T07:29:29.000Z</time>
      </trkpt>
      <trkpt lat="47.26405" lon="-2.31573">
        <ele>30.200000762939</ele>
        <time>2019-06-20T07:29:33.000Z</time>
      </trkpt>
      <trkpt lat="47.26405" lon="-2.31579">
        <ele>30.200000762939</ele>
        <time>2019-06-20T07:29:34.000Z</time>
      </trkpt>
      <trkpt lat="47.26406" lon="-2.31616">
        <ele>30.200000762939</ele>
        <time>2019-06-20T07:29:40.000Z</time>
      </trkpt>
      <trkpt lat="47.26407" lon="-2.31657">
        <ele>30.200000762939</ele>
        <time>2019-06-20T07:29:47.000Z</time>
      </trkpt>
      <trkpt lat="47.26405" lon="-2.3166">
        <ele>30.200000762939</ele>
        <time>2019-06-20T07:29:48.000Z</time>
      </trkpt>
      <trkpt lat="47.26401" lon="-2.31664">
        <ele>30.200000762939</ele>
        <time>2019-06-20T07:29:50.000Z</time>
      </trkpt>
      <trkpt lat="47.26392" lon="-2.3167">
        <ele>30.200000762939</ele>
        <time>2019-06-20T07:29:52.000Z</time>
      </trkpt>
      <trkpt lat="47.26384" lon="-2.31675">
        <ele>30.200000762939</ele>
        <time>2019-06-20T07:29:54.000Z</time>
      </trkpt>
      <trkpt lat="47.2638" lon="-2.31679">
        <ele>29.799999237061</ele>
        <time>2019-06-20T07:29:55.000Z</time>
      </trkpt>
      <trkpt lat="47.26375" lon="-2.31682">
        <ele>29.60000038147</ele>
        <time>2019-06-20T07:29:56.000Z</time>
      </trkpt>
      <trkpt lat="47.26371" lon="-2.31685">
        <ele>29.39999961853</ele>
        <time>2019-06-20T07:29:57.000Z</time>
      </trkpt>
      <trkpt lat="47.26366" lon="-2.31688">
        <ele>29</ele>
        <time>2019-06-20T07:29:58.000Z</time>
      </trkpt>
      <trkpt lat="47.26361" lon="-2.31691">
        <ele>28.799999237061</ele>
        <time>2019-06-20T07:29:59.000Z</time>
      </trkpt>
      <trkpt lat="47.26324" lon="-2.31707">
        <ele>28.799999237061</ele>
        <time>2019-06-20T07:30:05.000Z</time>
      </trkpt>
      <trkpt lat="47.26307" lon="-2.31713">
        <ele>28.39999961853</ele>
        <time>2019-06-20T07:30:08.000Z</time>
      </trkpt>
      <trkpt lat="47.26302" lon="-2.31711">
        <ele>27.799999237061</ele>
        <time>2019-06-20T07:30:09.000Z</time>
      </trkpt>
      <trkpt lat="47.26298" lon="-2.31708">
        <ele>27.39999961853</ele>
        <time>2019-06-20T07:30:10.000Z</time>
      </trkpt>
      <trkpt lat="47.26295" lon="-2.31705">
        <ele>27</ele>
        <time>2019-06-20T07:30:11.000Z</time>
      </trkpt>
      <trkpt lat="47.26292" lon="-2.31701">
        <ele>26.39999961853</ele>
        <time>2019-06-20T07:30:12.000Z</time>
      </trkpt>
      <trkpt lat="47.26289" lon="-2.31696">
        <ele>26.39999961853</ele>
        <time>2019-06-20T07:30:13.000Z</time>
      </trkpt>
      <trkpt lat="47.2628" lon="-2.31676">
        <ele>26.39999961853</ele>
        <time>2019-06-20T07:30:17.000Z</time>
      </trkpt>
      <trkpt lat="47.26278" lon="-2.31671">
        <ele>26.39999961853</ele>
        <time>2019-06-20T07:30:18.000Z</time>
      </trkpt>
      <trkpt lat="47.26267" lon="-2.31645">
        <ele>26.39999961853</ele>
        <time>2019-06-20T07:30:23.000Z</time>
      </trkpt>
      <trkpt lat="47.26261" lon="-2.31632">
        <ele>26.39999961853</ele>
        <time>2019-06-20T07:30:25.000Z</time>
      </trkpt>
      <trkpt lat="47.26247" lon="-2.31615">
        <ele>26.39999961853</ele>
        <time>2019-06-20T07:30:28.000Z</time>
      </trkpt>
      <trkpt lat="47.26237" lon="-2.31607">
        <ele>26.39999961853</ele>
        <time>2019-06-20T07:30:30.000Z</time>
      </trkpt>
      <trkpt lat="47.26227" lon="-2.31601">
        <ele>26.39999961853</ele>
        <time>2019-06-20T07:30:32.000Z</time>
      </trkpt>
      <trkpt lat="47.26221" lon="-2.31599">
        <ele>26.39999961853</ele>
        <time>2019-06-20T07:30:33.000Z</time>
      </trkpt>
      <trkpt lat="47.26196" lon="-2.31599">
        <ele>26.39999961853</ele>
        <time>2019-06-20T07:30:37.000Z</time>
      </trkpt>
      <trkpt lat="47.26181" lon="-2.31602">
        <ele>26.39999961853</ele>
        <time>2019-06-20T07:30:40.000Z</time>
      </trkpt>
      <trkpt lat="47.26165" lon="-2.31606">
        <ele>26.39999961853</ele>
        <time>2019-06-20T07:30:43.000Z</time>
      </trkpt>
      <trkpt lat="47.26123" lon="-2.31615">
        <ele>26.39999961853</ele>
        <time>2019-06-20T07:30:51.000Z</time>
      </trkpt>
      <trkpt lat="47.26118" lon="-2.31615">
        <ele>26.39999961853</ele>
        <time>2019-06-20T07:30:52.000Z</time>
      </trkpt>
      <trkpt lat="47.26103" lon="-2.31609">
        <ele>26.39999961853</ele>
        <time>2019-06-20T07:30:55.000Z</time>
      </trkpt>
      <trkpt lat="47.26096" lon="-2.31599">
        <ele>26.39999961853</ele>
        <time>2019-06-20T07:30:57.000Z</time>
      </trkpt>
      <trkpt lat="47.2609" lon="-2.31589">
        <ele>26.39999961853</ele>
        <time>2019-06-20T07:30:59.000Z</time>
      </trkpt>
      <trkpt lat="47.26086" lon="-2.31583">
        <ele>26.39999961853</ele>
        <time>2019-06-20T07:31:01.000Z</time>
      </trkpt>
      <trkpt lat="47.26084" lon="-2.31581">
        <ele>26.39999961853</ele>
        <time>2019-06-20T07:31:02.000Z</time>
      </trkpt>
      <trkpt lat="47.26074" lon="-2.31572">
        <ele>26.39999961853</ele>
        <time>2019-06-20T07:31:06.000Z</time>
      </trkpt>
      <trkpt lat="47.26065" lon="-2.31551">
        <ele>26.39999961853</ele>
        <time>2019-06-20T07:31:10.000Z</time>
      </trkpt>
      <trkpt lat="47.2606" lon="-2.3154">
        <ele>26.39999961853</ele>
        <time>2019-06-20T07:31:12.000Z</time>
      </trkpt>
      <trkpt lat="47.26054" lon="-2.31529">
        <ele>26.39999961853</ele>
        <time>2019-06-20T07:31:14.000Z</time>
      </trkpt>
      <trkpt lat="47.2605" lon="-2.31523">
        <ele>26.39999961853</ele>
        <time>2019-06-20T07:31:15.000Z</time>
      </trkpt>
      <trkpt lat="47.26044" lon="-2.31512">
        <ele>26.39999961853</ele>
        <time>2019-06-20T07:31:17.000Z</time>
      </trkpt>
      <trkpt lat="47.26036" lon="-2.31511">
        <ele>26.39999961853</ele>
        <time>2019-06-20T07:31:19.000Z</time>
      </trkpt>
      <trkpt lat="47.26029" lon="-2.31524">
        <ele>26.39999961853</ele>
        <time>2019-06-20T07:31:22.000Z</time>
      </trkpt>
      <trkpt lat="47.26021" lon="-2.31546">
        <ele>26.39999961853</ele>
        <time>2019-06-20T07:31:26.000Z</time>
      </trkpt>
      <trkpt lat="47.26018" lon="-2.31552">
        <ele>26.39999961853</ele>
        <time>2019-06-20T07:31:27.000Z</time>
      </trkpt>
      <trkpt lat="47.26015" lon="-2.31556">
        <ele>26.39999961853</ele>
        <time>2019-06-20T07:31:28.000Z</time>
      </trkpt>
      <trkpt lat="47.26008" lon="-2.31558">
        <ele>26.39999961853</ele>
        <time>2019-06-20T07:31:30.000Z</time>
      </trkpt>
      <trkpt lat="47.25998" lon="-2.31545">
        <ele>26.39999961853</ele>
        <time>2019-06-20T07:31:33.000Z</time>
      </trkpt>
      <trkpt lat="47.25978" lon="-2.3151">
        <ele>26.39999961853</ele>
        <time>2019-06-20T07:31:39.000Z</time>
      </trkpt>
      <trkpt lat="47.25973" lon="-2.31497">
        <ele>26.39999961853</ele>
        <time>2019-06-20T07:31:41.000Z</time>
      </trkpt>
      <trkpt lat="47.25968" lon="-2.31485">
        <ele>26.39999961853</ele>
        <time>2019-06-20T07:31:43.000Z</time>
      </trkpt>
      <trkpt lat="47.25964" lon="-2.3148">
        <ele>26.39999961853</ele>
        <time>2019-06-20T07:31:44.000Z</time>
      </trkpt>
      <trkpt lat="47.25944" lon="-2.3146">
        <ele>26.39999961853</ele>
        <time>2019-06-20T07:31:49.000Z</time>
      </trkpt>
      <trkpt lat="47.25935" lon="-2.31455">
        <ele>26.39999961853</ele>
        <time>2019-06-20T07:31:51.000Z</time>
      </trkpt>
      <trkpt lat="47.25926" lon="-2.31457">
        <ele>26.39999961853</ele>
        <time>2019-06-20T07:31:53.000Z</time>
      </trkpt>
      <trkpt lat="47.2592" lon="-2.31473">
        <ele>26.39999961853</ele>
        <time>2019-06-20T07:31:56.000Z</time>
      </trkpt>
      <trkpt lat="47.25911" lon="-2.31496">
        <ele>26.799999237061</ele>
        <time>2019-06-20T07:32:01.000Z</time>
      </trkpt>
      <trkpt lat="47.25909" lon="-2.31499">
        <ele>27.200000762939</ele>
        <time>2019-06-20T07:32:02.000Z</time>
      </trkpt>
      <trkpt lat="47.25909" lon="-2.31501">
        <ele>27.60000038147</ele>
        <time>2019-06-20T07:32:03.000Z</time>
      </trkpt>
      <trkpt lat="47.25909" lon="-2.31503">
        <ele>28.39999961853</ele>
        <time>2019-06-20T07:32:04.000Z</time>
      </trkpt>
      <trkpt lat="47.25909" lon="-2.31504">
        <ele>28.39999961853</ele>
        <time>2019-06-20T07:32:05.000Z</time>
      </trkpt>
      <trkpt lat="47.25908" lon="-2.31507">
        <ele>28.39999961853</ele>
        <time>2019-06-20T07:32:07.000Z</time>
      </trkpt>
      <trkpt lat="47.25905" lon="-2.31512">
        <ele>28.39999961853</ele>
        <time>2019-06-20T07:32:09.000Z</time>
      </trkpt>
      <trkpt lat="47.259" lon="-2.31518">
        <ele>28.39999961853</ele>
        <time>2019-06-20T07:32:11.000Z</time>
      </trkpt>
      <trkpt lat="47.2589" lon="-2.31544">
        <ele>28.39999961853</ele>
        <time>2019-06-20T07:32:16.000Z</time>
      </trkpt>
      <trkpt lat="47.25886" lon="-2.31555">
        <ele>28.39999961853</ele>
        <time>2019-06-20T07:32:18.000Z</time>
      </trkpt>
      <trkpt lat="47.25874" lon="-2.31574">
        <ele>28.39999961853</ele>
        <time>2019-06-20T07:32:22.000Z</time>
      </trkpt>
      <trkpt lat="47.2587" lon="-2.31578">
        <ele>28.39999961853</ele>
        <time>2019-06-20T07:32:23.000Z</time>
      </trkpt>
      <trkpt lat="47.25867" lon="-2.31582">
        <ele>28.799999237061</ele>
        <time>2019-06-20T07:32:24.000Z</time>
      </trkpt>
      <trkpt lat="47.25864" lon="-2.31586">
        <ele>29.200000762939</ele>
        <time>2019-06-20T07:32:25.000Z</time>
      </trkpt>
      <trkpt lat="47.2586" lon="-2.31589">
        <ele>29.799999237061</ele>
        <time>2019-06-20T07:32:26.000Z</time>
      </trkpt>
      <trkpt lat="47.25857" lon="-2.31593">
        <ele>30.200000762939</ele>
        <time>2019-06-20T07:32:27.000Z</time>
      </trkpt>
      <trkpt lat="47.25854" lon="-2.31597">
        <ele>30.60000038147</ele>
        <time>2019-06-20T07:32:28.000Z</time>
      </trkpt>
      <trkpt lat="47.2585" lon="-2.316">
        <ele>30.60000038147</ele>
        <time>2019-06-20T07:32:29.000Z</time>
      </trkpt>
      <trkpt lat="47.25843" lon="-2.31604">
        <ele>30.60000038147</ele>
        <time>2019-06-20T07:32:31.000Z</time>
      </trkpt>
      <trkpt lat="47.25832" lon="-2.31612">
        <ele>30.60000038147</ele>
        <time>2019-06-20T07:32:34.000Z</time>
      </trkpt>
      <trkpt lat="47.25829" lon="-2.31616">
        <ele>30.60000038147</ele>
        <time>2019-06-20T07:32:35.000Z</time>
      </trkpt>
      <trkpt lat="47.25819" lon="-2.31624">
        <ele>31.39999961853</ele>
        <time>2019-06-20T07:32:36.000Z</time>
      </trkpt>
      <trkpt lat="47.25815" lon="-2.31627">
        <ele>31.799999237061</ele>
        <time>2019-06-20T07:32:39.000Z</time>
      </trkpt>
      <trkpt lat="47.25811" lon="-2.3163">
        <ele>32.200000762939</ele>
        <time>2019-06-20T07:32:40.000Z</time>
      </trkpt>
      <trkpt lat="47.25807" lon="-2.31633">
        <ele>32.599998474121</ele>
        <time>2019-06-20T07:32:41.000Z</time>
      </trkpt>
      <trkpt lat="47.25775" lon="-2.31659">
        <ele>32.599998474121</ele>
        <time>2019-06-20T07:32:48.000Z</time>
      </trkpt>
      <trkpt lat="47.25737" lon="-2.3169">
        <ele>32.599998474121</ele>
        <time>2019-06-20T07:32:55.000Z</time>
      </trkpt>
      <trkpt lat="47.2573" lon="-2.31693">
        <ele>32.599998474121</ele>
        <time>2019-06-20T07:32:56.000Z</time>
      </trkpt>
      <trkpt lat="47.25718" lon="-2.31693">
        <ele>32.599998474121</ele>
        <time>2019-06-20T07:32:58.000Z</time>
      </trkpt>
      <trkpt lat="47.25713" lon="-2.31691">
        <ele>32.200000762939</ele>
        <time>2019-06-20T07:32:59.000Z</time>
      </trkpt>
      <trkpt lat="47.25707" lon="-2.31687">
        <ele>31.799999237061</ele>
        <time>2019-06-20T07:33:00.000Z</time>
      </trkpt>
      <trkpt lat="47.25702" lon="-2.31684">
        <ele>31.39999961853</ele>
        <time>2019-06-20T07:33:01.000Z</time>
      </trkpt>
      <trkpt lat="47.25697" lon="-2.31681">
        <ele>31</ele>
        <time>2019-06-20T07:33:02.000Z</time>
      </trkpt>
      <trkpt lat="47.25692" lon="-2.31679">
        <ele>30.60000038147</ele>
        <time>2019-06-20T07:33:03.000Z</time>
      </trkpt>
      <trkpt lat="47.25673" lon="-2.31674">
        <ele>30.60000038147</ele>
        <time>2019-06-20T07:33:07.000Z</time>
      </trkpt>
      <trkpt lat="47.25669" lon="-2.31676">
        <ele>30.60000038147</ele>
        <time>2019-06-20T07:33:08.000Z</time>
      </trkpt>
      <trkpt lat="47.25657" lon="-2.31683">
        <ele>31</ele>
        <time>2019-06-20T07:33:11.000Z</time>
      </trkpt>
      <trkpt lat="47.25653" lon="-2.31686">
        <ele>31.39999961853</ele>
        <time>2019-06-20T07:33:12.000Z</time>
      </trkpt>
      <trkpt lat="47.2565" lon="-2.31691">
        <ele>31.799999237061</ele>
        <time>2019-06-20T07:33:13.000Z</time>
      </trkpt>
      <trkpt lat="47.25647" lon="-2.31696">
        <ele>32.200000762939</ele>
        <time>2019-06-20T07:33:14.000Z</time>
      </trkpt>
      <trkpt lat="47.25644" lon="-2.317">
        <ele>32.599998474121</ele>
        <time>2019-06-20T07:33:15.000Z</time>
      </trkpt>
      <trkpt lat="47.25638" lon="-2.31706">
        <ele>32.599998474121</ele>
        <time>2019-06-20T07:33:17.000Z</time>
      </trkpt>
      <trkpt lat="47.25635" lon="-2.3171">
        <ele>32.599998474121</ele>
        <time>2019-06-20T07:33:18.000Z</time>
      </trkpt>
      <trkpt lat="47.25625" lon="-2.31734">
        <ele>33.200000762939</ele>
        <time>2019-06-20T07:33:23.000Z</time>
      </trkpt>
      <trkpt lat="47.25623" lon="-2.31739">
        <ele>33.599998474121</ele>
        <time>2019-06-20T07:33:24.000Z</time>
      </trkpt>
      <trkpt lat="47.25621" lon="-2.31745">
        <ele>34.200000762939</ele>
        <time>2019-06-20T07:33:25.000Z</time>
      </trkpt>
      <trkpt lat="47.25619" lon="-2.3175">
        <ele>34.599998474121</ele>
        <time>2019-06-20T07:33:26.000Z</time>
      </trkpt>
      <trkpt lat="47.25616" lon="-2.31755">
        <ele>35</ele>
        <time>2019-06-20T07:33:27.000Z</time>
      </trkpt>
      <trkpt lat="47.25612" lon="-2.31758">
        <ele>35</ele>
        <time>2019-06-20T07:33:28.000Z</time>
      </trkpt>
      <trkpt lat="47.25592" lon="-2.31764">
        <ele>35</ele>
        <time>2019-06-20T07:33:32.000Z</time>
      </trkpt>
      <trkpt lat="47.25578" lon="-2.31771">
        <ele>35</ele>
        <time>2019-06-20T07:33:35.000Z</time>
      </trkpt>
      <trkpt lat="47.25574" lon="-2.31774">
        <ele>35</ele>
        <time>2019-06-20T07:33:36.000Z</time>
      </trkpt>
      <trkpt lat="47.2557" lon="-2.31777">
        <ele>35</ele>
        <time>2019-06-20T07:33:37.000Z</time>
      </trkpt>
      <trkpt lat="47.25566" lon="-2.31787">
        <ele>35</ele>
        <time>2019-06-20T07:33:39.000Z</time>
      </trkpt>
      <trkpt lat="47.2556" lon="-2.31799">
        <ele>35.599998474121</ele>
        <time>2019-06-20T07:33:42.000Z</time>
      </trkpt>
      <trkpt lat="47.25556" lon="-2.318">
        <ele>36.400001525879</ele>
        <time>2019-06-20T07:33:43.000Z</time>
      </trkpt>
      <trkpt lat="47.25552" lon="-2.31799">
        <ele>37</ele>
        <time>2019-06-20T07:33:44.000Z</time>
      </trkpt>
      <trkpt lat="47.25549" lon="-2.318">
        <ele>37.400001525879</ele>
        <time>2019-06-20T07:33:45.000Z</time>
      </trkpt>
      <trkpt lat="47.25542" lon="-2.31803">
        <ele>37.400001525879</ele>
        <time>2019-06-20T07:33:47.000Z</time>
      </trkpt>
      <trkpt lat="47.25536" lon="-2.31805">
        <ele>37.400001525879</ele>
        <time>2019-06-20T07:33:49.000Z</time>
      </trkpt>
      <trkpt lat="47.25523" lon="-2.31815">
        <ele>37.400001525879</ele>
        <time>2019-06-20T07:33:54.000Z</time>
      </trkpt>
      <trkpt lat="47.25515" lon="-2.31826">
        <ele>37.400001525879</ele>
        <time>2019-06-20T07:34:00.000Z</time>
      </trkpt>
      <trkpt lat="47.25515" lon="-2.31826">
        <ele>37.400001525879</ele>
        <time>2019-06-20T07:34:02.000Z</time>
      </trkpt>
      <trkpt lat="47.25512" lon="-2.31827">
        <ele>39.400001525879</ele>
        <time>2019-06-20T07:41:01.000Z</time>
      </trkpt>
      <trkpt lat="47.25512" lon="-2.31828">
        <ele>39.400001525879</ele>
        <time>2019-06-20T07:41:02.000Z</time>
      </trkpt>
      <trkpt lat="47.25503" lon="-2.31826">
        <ele>39.400001525879</ele>
        <time>2019-06-20T07:41:07.000Z</time>
      </trkpt>
      <trkpt lat="47.25489" lon="-2.31829">
        <ele>39.400001525879</ele>
        <time>2019-06-20T07:41:11.000Z</time>
      </trkpt>
      <trkpt lat="47.25471" lon="-2.3184">
        <ele>39.400001525879</ele>
        <time>2019-06-20T07:41:16.000Z</time>
      </trkpt>
      <trkpt lat="47.25468" lon="-2.31844">
        <ele>39.400001525879</ele>
        <time>2019-06-20T07:41:17.000Z</time>
      </trkpt>
      <trkpt lat="47.25455" lon="-2.31838">
        <ele>39.400001525879</ele>
        <time>2019-06-20T07:41:20.000Z</time>
      </trkpt>
      <trkpt lat="47.25451" lon="-2.31825">
        <ele>39.400001525879</ele>
        <time>2019-06-20T07:41:22.000Z</time>
      </trkpt>
      <trkpt lat="47.2545" lon="-2.31819">
        <ele>39.400001525879</ele>
        <time>2019-06-20T07:41:23.000Z</time>
      </trkpt>
      <trkpt lat="47.25437" lon="-2.31765">
        <ele>39.400001525879</ele>
        <time>2019-06-20T07:41:31.000Z</time>
      </trkpt>
      <trkpt lat="47.25435" lon="-2.31759">
        <ele>39.400001525879</ele>
        <time>2019-06-20T07:41:32.000Z</time>
      </trkpt>
      <trkpt lat="47.25424" lon="-2.31722">
        <ele>39.400001525879</ele>
        <time>2019-06-20T07:41:38.000Z</time>
      </trkpt>
      <trkpt lat="47.25408" lon="-2.31683">
        <ele>39.400001525879</ele>
        <time>2019-06-20T07:41:45.000Z</time>
      </trkpt>
      <trkpt lat="47.25393" lon="-2.31647">
        <ele>39.400001525879</ele>
        <time>2019-06-20T07:41:52.000Z</time>
      </trkpt>
      <trkpt lat="47.25376" lon="-2.31617">
        <ele>39.400001525879</ele>
        <time>2019-06-20T07:41:59.000Z</time>
      </trkpt>
      <trkpt lat="47.25362" lon="-2.31593">
        <ele>39.400001525879</ele>
        <time>2019-06-20T07:42:05.000Z</time>
      </trkpt>
      <trkpt lat="47.25346" lon="-2.31567">
        <ele>39.799999237061</ele>
        <time>2019-06-20T07:42:11.000Z</time>
      </trkpt>
      <trkpt lat="47.25344" lon="-2.31563">
        <ele>40.200000762939</ele>
        <time>2019-06-20T07:42:12.000Z</time>
      </trkpt>
      <trkpt lat="47.25342" lon="-2.31558">
        <ele>40.599998474121</ele>
        <time>2019-06-20T07:42:13.000Z</time>
      </trkpt>
      <trkpt lat="47.2534" lon="-2.31553">
        <ele>41</ele>
        <time>2019-06-20T07:42:14.000Z</time>
      </trkpt>
      <trkpt lat="47.25338" lon="-2.31548">
        <ele>41.599998474121</ele>
        <time>2019-06-20T07:42:15.000Z</time>
      </trkpt>
      <trkpt lat="47.25333" lon="-2.31528">
        <ele>41.599998474121</ele>
        <time>2019-06-20T07:42:19.000Z</time>
      </trkpt>
      <trkpt lat="47.25324" lon="-2.31486">
        <ele>41.599998474121</ele>
        <time>2019-06-20T07:42:27.000Z</time>
      </trkpt>
      <trkpt lat="47.25324" lon="-2.3148">
        <ele>41.599998474121</ele>
        <time>2019-06-20T07:42:28.000Z</time>
      </trkpt>
      <trkpt lat="47.25321" lon="-2.31452">
        <ele>42</ele>
        <time>2019-06-20T07:42:33.000Z</time>
      </trkpt>
      <trkpt lat="47.2532" lon="-2.31446">
        <ele>42.400001525879</ele>
        <time>2019-06-20T07:42:34.000Z</time>
      </trkpt>
      <trkpt lat="47.25319" lon="-2.3144">
        <ele>42.799999237061</ele>
        <time>2019-06-20T07:42:35.000Z</time>
      </trkpt>
      <trkpt lat="47.25318" lon="-2.31434">
        <ele>43.200000762939</ele>
        <time>2019-06-20T07:42:36.000Z</time>
      </trkpt>
      <trkpt lat="47.25317" lon="-2.31429">
        <ele>43.799999237061</ele>
        <time>2019-06-20T07:42:37.000Z</time>
      </trkpt>
      <trkpt lat="47.2532" lon="-2.31412">
        <ele>43.799999237061</ele>
        <time>2019-06-20T07:42:40.000Z</time>
      </trkpt>
      <trkpt lat="47.25322" lon="-2.31407">
        <ele>43.799999237061</ele>
        <time>2019-06-20T07:42:41.000Z</time>
      </trkpt>
      <trkpt lat="47.25329" lon="-2.3139">
        <ele>43.799999237061</ele>
        <time>2019-06-20T07:42:44.000Z</time>
      </trkpt>
      <trkpt lat="47.25331" lon="-2.31384">
        <ele>43.799999237061</ele>
        <time>2019-06-20T07:42:45.000Z</time>
      </trkpt>
      <trkpt lat="47.25337" lon="-2.3134">
        <ele>43.799999237061</ele>
        <time>2019-06-20T07:42:51.000Z</time>
      </trkpt>
      <trkpt lat="47.2534" lon="-2.31316">
        <ele>43.400001525879</ele>
        <time>2019-06-20T07:42:54.000Z</time>
      </trkpt>
      <trkpt lat="47.25341" lon="-2.31308">
        <ele>43</ele>
        <time>2019-06-20T07:42:55.000Z</time>
      </trkpt>
      <trkpt lat="47.25342" lon="-2.31298">
        <ele>42.400001525879</ele>
        <time>2019-06-20T07:42:56.000Z</time>
      </trkpt>
      <trkpt lat="47.25343" lon="-2.31289">
        <ele>42</ele>
        <time>2019-06-20T07:42:57.000Z</time>
      </trkpt>
      <trkpt lat="47.25343" lon="-2.3128">
        <ele>41.599998474121</ele>
        <time>2019-06-20T07:42:58.000Z</time>
      </trkpt>
      <trkpt lat="47.25344" lon="-2.3127">
        <ele>41.599998474121</ele>
        <time>2019-06-20T07:42:59.000Z</time>
      </trkpt>
      <trkpt lat="47.25345" lon="-2.3124">
        <ele>41.200000762939</ele>
        <time>2019-06-20T07:43:02.000Z</time>
      </trkpt>
      <trkpt lat="47.25345" lon="-2.3123">
        <ele>40.799999237061</ele>
        <time>2019-06-20T07:43:03.000Z</time>
      </trkpt>
      <trkpt lat="47.25345" lon="-2.3122">
        <ele>40.400001525879</ele>
        <time>2019-06-20T07:43:04.000Z</time>
      </trkpt>
      <trkpt lat="47.25345" lon="-2.31209">
        <ele>40</ele>
        <time>2019-06-20T07:43:05.000Z</time>
      </trkpt>
      <trkpt lat="47.25344" lon="-2.31199">
        <ele>39.599998474121</ele>
        <time>2019-06-20T07:43:06.000Z</time>
      </trkpt>
      <trkpt lat="47.25339" lon="-2.3116">
        <ele>39.599998474121</ele>
        <time>2019-06-20T07:43:10.000Z</time>
      </trkpt>
      <trkpt lat="47.25335" lon="-2.31153">
        <ele>39.599998474121</ele>
        <time>2019-06-20T07:43:11.000Z</time>
      </trkpt>
      <trkpt lat="47.25332" lon="-2.31147">
        <ele>39.200000762939</ele>
        <time>2019-06-20T07:43:12.000Z</time>
      </trkpt>
      <trkpt lat="47.25328" lon="-2.31141">
        <ele>38.799999237061</ele>
        <time>2019-06-20T07:43:13.000Z</time>
      </trkpt>
      <trkpt lat="47.25326" lon="-2.31134">
        <ele>38.400001525879</ele>
        <time>2019-06-20T07:43:14.000Z</time>
      </trkpt>
      <trkpt lat="47.25324" lon="-2.31128">
        <ele>38</ele>
        <time>2019-06-20T07:43:15.000Z</time>
      </trkpt>
      <trkpt lat="47.25324" lon="-2.3112">
        <ele>37.599998474121</ele>
        <time>2019-06-20T07:43:16.000Z</time>
      </trkpt>
      <trkpt lat="47.25324" lon="-2.31106">
        <ele>37.599998474121</ele>
        <time>2019-06-20T07:43:18.000Z</time>
      </trkpt>
      <trkpt lat="47.25324" lon="-2.311">
        <ele>37.599998474121</ele>
        <time>2019-06-20T07:43:19.000Z</time>
      </trkpt>
      <trkpt lat="47.25323" lon="-2.31083">
        <ele>37.599998474121</ele>
        <time>2019-06-20T07:43:23.000Z</time>
      </trkpt>
      <trkpt lat="47.25323" lon="-2.31078">
        <ele>37.599998474121</ele>
        <time>2019-06-20T07:43:26.000Z</time>
      </trkpt>
      <trkpt lat="47.25324" lon="-2.31077">
        <ele>37.599998474121</ele>
        <time>2019-06-20T07:43:27.000Z</time>
      </trkpt>
      <trkpt lat="47.25335" lon="-2.31073">
        <ele>37.599998474121</ele>
        <time>2019-06-20T07:43:31.000Z</time>
      </trkpt>
      <trkpt lat="47.25338" lon="-2.31072">
        <ele>37.599998474121</ele>
        <time>2019-06-20T07:43:32.000Z</time>
      </trkpt>
      <trkpt lat="47.25355" lon="-2.31067">
        <ele>38</ele>
        <time>2019-06-20T07:43:36.000Z</time>
      </trkpt>
      <trkpt lat="47.25359" lon="-2.31067">
        <ele>38.599998474121</ele>
        <time>2019-06-20T07:43:37.000Z</time>
      </trkpt>
      <trkpt lat="47.25364" lon="-2.31067">
        <ele>39</ele>
        <time>2019-06-20T07:43:38.000Z</time>
      </trkpt>
      <trkpt lat="47.2537" lon="-2.31066">
        <ele>39.400001525879</ele>
        <time>2019-06-20T07:43:39.000Z</time>
      </trkpt>
      <trkpt lat="47.25375" lon="-2.31066">
        <ele>39.799999237061</ele>
        <time>2019-06-20T07:43:40.000Z</time>
      </trkpt>
      <trkpt lat="47.25391" lon="-2.31064">
        <ele>39.799999237061</ele>
        <time>2019-06-20T07:43:43.000Z</time>
      </trkpt>
      <trkpt lat="47.25421" lon="-2.31057">
        <ele>39.799999237061</ele>
        <time>2019-06-20T07:43:49.000Z</time>
      </trkpt>
      <trkpt lat="47.25448" lon="-2.31049">
        <ele>39.799999237061</ele>
        <time>2019-06-20T07:43:55.000Z</time>
      </trkpt>
      <trkpt lat="47.25472" lon="-2.31038">
        <ele>39.799999237061</ele>
        <time>2019-06-20T07:44:00.000Z</time>
      </trkpt>
      <trkpt lat="47.25476" lon="-2.31034">
        <ele>39.799999237061</ele>
        <time>2019-06-20T07:44:01.000Z</time>
      </trkpt>
      <trkpt lat="47.25485" lon="-2.31028">
        <ele>39.799999237061</ele>
        <time>2019-06-20T07:44:03.000Z</time>
      </trkpt>
      <trkpt lat="47.25497" lon="-2.31025">
        <ele>39.799999237061</ele>
        <time>2019-06-20T07:44:06.000Z</time>
      </trkpt>
      <trkpt lat="47.25504" lon="-2.31027">
        <ele>39.400001525879</ele>
        <time>2019-06-20T07:44:09.000Z</time>
      </trkpt>
      <trkpt lat="47.25506" lon="-2.31027">
        <ele>39</ele>
        <time>2019-06-20T07:44:10.000Z</time>
      </trkpt>
      <trkpt lat="47.25508" lon="-2.31027">
        <ele>38.599998474121</ele>
        <time>2019-06-20T07:44:11.000Z</time>
      </trkpt>
      <trkpt lat="47.25509" lon="-2.31028">
        <ele>38</ele>
        <time>2019-06-20T07:44:12.000Z</time>
      </trkpt>
      <trkpt lat="47.25511" lon="-2.31029">
        <ele>37.599998474121</ele>
        <time>2019-06-20T07:44:13.000Z</time>
      </trkpt>
      <trkpt lat="47.25516" lon="-2.3103">
        <ele>37.599998474121</ele>
        <time>2019-06-20T07:44:17.000Z</time>
      </trkpt>
      <trkpt lat="47.25517" lon="-2.31027">
        <ele>37.599998474121</ele>
        <time>2019-06-20T07:44:19.000Z</time>
      </trkpt>
      <trkpt lat="47.25516" lon="-2.31022">
        <ele>37.599998474121</ele>
        <time>2019-06-20T07:44:21.000Z</time>
      </trkpt>
      <trkpt lat="47.25512" lon="-2.31008">
        <ele>37.599998474121</ele>
        <time>2019-06-20T07:44:27.000Z</time>
      </trkpt>
      <trkpt lat="47.25511" lon="-2.31003">
        <ele>37.599998474121</ele>
        <time>2019-06-20T07:44:29.000Z</time>
      </trkpt>
      <trkpt lat="47.25513" lon="-2.30995">
        <ele>37.599998474121</ele>
        <time>2019-06-20T07:44:32.000Z</time>
      </trkpt>
      <trkpt lat="47.25515" lon="-2.30994">
        <ele>37.599998474121</ele>
        <time>2019-06-20T07:44:33.000Z</time>
      </trkpt>
      <trkpt lat="47.25516" lon="-2.30992">
        <ele>37.599998474121</ele>
        <time>2019-06-20T07:44:35.000Z</time>
      </trkpt>
      <trkpt lat="47.25516" lon="-2.30989">
        <ele>37.599998474121</ele>
        <time>2019-06-20T07:44:46.000Z</time>
      </trkpt>
      <trkpt lat="47.25518" lon="-2.3098">
        <ele>37.599998474121</ele>
        <time>2019-06-20T07:44:49.000Z</time>
      </trkpt>
      <trkpt lat="47.25521" lon="-2.30961">
        <ele>38</ele>
        <time>2019-06-20T07:44:54.000Z</time>
      </trkpt>
      <trkpt lat="47.25522" lon="-2.30955">
        <ele>38.400001525879</ele>
        <time>2019-06-20T07:44:55.000Z</time>
      </trkpt>
      <trkpt lat="47.25523" lon="-2.30949">
        <ele>38.799999237061</ele>
        <time>2019-06-20T07:44:56.000Z</time>
      </trkpt>
      <trkpt lat="47.25524" lon="-2.30944">
        <ele>39.200000762939</ele>
        <time>2019-06-20T07:44:57.000Z</time>
      </trkpt>
      <trkpt lat="47.25525" lon="-2.30938">
        <ele>39.599998474121</ele>
        <time>2019-06-20T07:44:58.000Z</time>
      </trkpt>
      <trkpt lat="47.25532" lon="-2.30924">
        <ele>39.599998474121</ele>
        <time>2019-06-20T07:45:01.000Z</time>
      </trkpt>
      <trkpt lat="47.25549" lon="-2.30915">
        <ele>39.599998474121</ele>
        <time>2019-06-20T07:45:05.000Z</time>
      </trkpt>
      <trkpt lat="47.25558" lon="-2.30914">
        <ele>39.599998474121</ele>
        <time>2019-06-20T07:45:07.000Z</time>
      </trkpt>
      <trkpt lat="47.25579" lon="-2.30912">
        <ele>39.599998474121</ele>
        <time>2019-06-20T07:45:12.000Z</time>
      </trkpt>
      <trkpt lat="47.25592" lon="-2.30896">
        <ele>39.599998474121</ele>
        <time>2019-06-20T07:45:16.000Z</time>
      </trkpt>
      <trkpt lat="47.25599" lon="-2.30876">
        <ele>39.599998474121</ele>
        <time>2019-06-20T07:45:20.000Z</time>
      </trkpt>
      <trkpt lat="47.256" lon="-2.3087">
        <ele>39.599998474121</ele>
        <time>2019-06-20T07:45:21.000Z</time>
      </trkpt>
      <trkpt lat="47.25604" lon="-2.30819">
        <ele>39.599998474121</ele>
        <time>2019-06-20T07:45:29.000Z</time>
      </trkpt>
      <trkpt lat="47.25608" lon="-2.30774">
        <ele>39.599998474121</ele>
        <time>2019-06-20T07:45:36.000Z</time>
      </trkpt>
      <trkpt lat="47.25609" lon="-2.30756">
        <ele>39.599998474121</ele>
        <time>2019-06-20T07:45:39.000Z</time>
      </trkpt>
      <trkpt lat="47.25613" lon="-2.30731">
        <ele>39.599998474121</ele>
        <time>2019-06-20T07:45:43.000Z</time>
      </trkpt>
      <trkpt lat="47.25624" lon="-2.30696">
        <ele>39.599998474121</ele>
        <time>2019-06-20T07:45:49.000Z</time>
      </trkpt>
      <trkpt lat="47.25631" lon="-2.30681">
        <ele>39.599998474121</ele>
        <time>2019-06-20T07:45:54.000Z</time>
      </trkpt>
      <trkpt lat="47.25633" lon="-2.30681">
        <ele>39.599998474121</ele>
        <time>2019-06-20T07:45:56.000Z</time>
      </trkpt>
      <trkpt lat="47.25635" lon="-2.3068">
        <ele>39.599998474121</ele>
        <time>2019-06-20T07:45:58.000Z</time>
      </trkpt>
      <trkpt lat="47.25637" lon="-2.30678">
        <ele>39.599998474121</ele>
        <time>2019-06-20T07:46:00.000Z</time>
      </trkpt>
      <trkpt lat="47.25641" lon="-2.30671">
        <ele>39.599998474121</ele>
        <time>2019-06-20T07:46:04.000Z</time>
      </trkpt>
      <trkpt lat="47.25641" lon="-2.30668">
        <ele>39.599998474121</ele>
        <time>2019-06-20T07:46:05.000Z</time>
      </trkpt>
      <trkpt lat="47.25647" lon="-2.30644">
        <ele>39.599998474121</ele>
        <time>2019-06-20T07:46:11.000Z</time>
      </trkpt>
      <trkpt lat="47.25648" lon="-2.30633">
        <ele>39.599998474121</ele>
        <time>2019-06-20T07:46:16.000Z</time>
      </trkpt>
      <trkpt lat="47.25648" lon="-2.30631">
        <ele>39.599998474121</ele>
        <time>2019-06-20T07:46:17.000Z</time>
      </trkpt>
      <trkpt lat="47.2564" lon="-2.30619">
        <ele>39.599998474121</ele>
        <time>2019-06-20T07:46:20.000Z</time>
      </trkpt>
      <trkpt lat="47.25618" lon="-2.30593">
        <ele>39.599998474121</ele>
        <time>2019-06-20T07:46:27.000Z</time>
      </trkpt>
      <trkpt lat="47.25614" lon="-2.3059">
        <ele>39.599998474121</ele>
        <time>2019-06-20T07:46:28.000Z</time>
      </trkpt>
      <trkpt lat="47.25584" lon="-2.30572">
        <ele>39.599998474121</ele>
        <time>2019-06-20T07:46:35.000Z</time>
      </trkpt>
      <trkpt lat="47.25575" lon="-2.30568">
        <ele>39.599998474121</ele>
        <time>2019-06-20T07:46:37.000Z</time>
      </trkpt>
      <trkpt lat="47.25558" lon="-2.30563">
        <ele>39.599998474121</ele>
        <time>2019-06-20T07:46:41.000Z</time>
      </trkpt>
      <trkpt lat="47.25537" lon="-2.30564">
        <ele>39.599998474121</ele>
        <time>2019-06-20T07:46:48.000Z</time>
      </trkpt>
      <trkpt lat="47.25529" lon="-2.30566">
        <ele>39.599998474121</ele>
        <time>2019-06-20T07:46:54.000Z</time>
      </trkpt>
      <trkpt lat="47.25526" lon="-2.30557">
        <ele>39.599998474121</ele>
        <time>2019-06-20T07:46:58.000Z</time>
      </trkpt>
      <trkpt lat="47.25526" lon="-2.30553">
        <ele>39.599998474121</ele>
        <time>2019-06-20T07:46:59.000Z</time>
      </trkpt>
      <trkpt lat="47.25525" lon="-2.30522">
        <ele>40.200000762939</ele>
        <time>2019-06-20T07:47:05.000Z</time>
      </trkpt>
      <trkpt lat="47.25525" lon="-2.30516">
        <ele>40.599998474121</ele>
        <time>2019-06-20T07:47:06.000Z</time>
      </trkpt>
      <trkpt lat="47.25525" lon="-2.3051">
        <ele>41</ele>
        <time>2019-06-20T07:47:07.000Z</time>
      </trkpt>
      <trkpt lat="47.25525" lon="-2.30505">
        <ele>41.400001525879</ele>
        <time>2019-06-20T07:47:08.000Z</time>
      </trkpt>
      <trkpt lat="47.25524" lon="-2.30499">
        <ele>41.799999237061</ele>
        <time>2019-06-20T07:47:09.000Z</time>
      </trkpt>
      <trkpt lat="47.25523" lon="-2.30466">
        <ele>41.799999237061</ele>
        <time>2019-06-20T07:47:15.000Z</time>
      </trkpt>
      <trkpt lat="47.25522" lon="-2.30424">
        <ele>41.799999237061</ele>
        <time>2019-06-20T07:47:22.000Z</time>
      </trkpt>
      <trkpt lat="47.25523" lon="-2.30392">
        <ele>41.799999237061</ele>
        <time>2019-06-20T07:47:28.000Z</time>
      </trkpt>
      <trkpt lat="47.25535" lon="-2.30381">
        <ele>41.799999237061</ele>
        <time>2019-06-20T07:47:32.000Z</time>
      </trkpt>
      <trkpt lat="47.25568" lon="-2.30373">
        <ele>41.799999237061</ele>
        <time>2019-06-20T07:47:39.000Z</time>
      </trkpt>
      <trkpt lat="47.25591" lon="-2.30368">
        <ele>41.799999237061</ele>
        <time>2019-06-20T07:47:44.000Z</time>
      </trkpt>
      <trkpt lat="47.25616" lon="-2.30362">
        <ele>41.799999237061</ele>
        <time>2019-06-20T07:47:49.000Z</time>
      </trkpt>
      <trkpt lat="47.25622" lon="-2.3036">
        <ele>41.799999237061</ele>
        <time>2019-06-20T07:47:50.000Z</time>
      </trkpt>
      <trkpt lat="47.25631" lon="-2.30351">
        <ele>41.799999237061</ele>
        <time>2019-06-20T07:47:52.000Z</time>
      </trkpt>
      <trkpt lat="47.25632" lon="-2.30344">
        <ele>41.799999237061</ele>
        <time>2019-06-20T07:47:53.000Z</time>
      </trkpt>
      <trkpt lat="47.2563" lon="-2.30322">
        <ele>41.799999237061</ele>
        <time>2019-06-20T07:47:56.000Z</time>
      </trkpt>
      <trkpt lat="47.25629" lon="-2.30315">
        <ele>41.799999237061</ele>
        <time>2019-06-20T07:47:57.000Z</time>
      </trkpt>
      <trkpt lat="47.25625" lon="-2.3027">
        <ele>41.799999237061</ele>
        <time>2019-06-20T07:48:03.000Z</time>
      </trkpt>
      <trkpt lat="47.25623" lon="-2.30263">
        <ele>41.799999237061</ele>
        <time>2019-06-20T07:48:04.000Z</time>
      </trkpt>
      <trkpt lat="47.25618" lon="-2.30234">
        <ele>41.799999237061</ele>
        <time>2019-06-20T07:48:08.000Z</time>
      </trkpt>
      <trkpt lat="47.25614" lon="-2.30222">
        <ele>41.799999237061</ele>
        <time>2019-06-20T07:48:10.000Z</time>
      </trkpt>
      <trkpt lat="47.25604" lon="-2.30207">
        <ele>41.799999237061</ele>
        <time>2019-06-20T07:48:13.000Z</time>
      </trkpt>
      <trkpt lat="47.256" lon="-2.30203">
        <ele>41.799999237061</ele>
        <time>2019-06-20T07:48:14.000Z</time>
      </trkpt>
      <trkpt lat="47.25583" lon="-2.30188">
        <ele>41.799999237061</ele>
        <time>2019-06-20T07:48:18.000Z</time>
      </trkpt>
      <trkpt lat="47.25576" lon="-2.30183">
        <ele>41.799999237061</ele>
        <time>2019-06-20T07:48:20.000Z</time>
      </trkpt>
      <trkpt lat="47.25561" lon="-2.30182">
        <ele>41.799999237061</ele>
        <time>2019-06-20T07:48:23.000Z</time>
      </trkpt>
      <trkpt lat="47.25557" lon="-2.30182">
        <ele>41.799999237061</ele>
        <time>2019-06-20T07:48:24.000Z</time>
      </trkpt>
      <trkpt lat="47.25553" lon="-2.30185">
        <ele>41.799999237061</ele>
        <time>2019-06-20T07:48:25.000Z</time>
      </trkpt>
      <trkpt lat="47.25545" lon="-2.3019">
        <ele>41.799999237061</ele>
        <time>2019-06-20T07:48:27.000Z</time>
      </trkpt>
      <trkpt lat="47.25524" lon="-2.30197">
        <ele>41.799999237061</ele>
        <time>2019-06-20T07:48:32.000Z</time>
      </trkpt>
      <trkpt lat="47.25516" lon="-2.30197">
        <ele>41.799999237061</ele>
        <time>2019-06-20T07:48:34.000Z</time>
      </trkpt>
      <trkpt lat="47.25508" lon="-2.30201">
        <ele>41.799999237061</ele>
        <time>2019-06-20T07:48:36.000Z</time>
      </trkpt>
      <trkpt lat="47.25504" lon="-2.30204">
        <ele>42.200000762939</ele>
        <time>2019-06-20T07:48:37.000Z</time>
      </trkpt>
      <trkpt lat="47.255" lon="-2.30209">
        <ele>42.599998474121</ele>
        <time>2019-06-20T07:48:38.000Z</time>
      </trkpt>
      <trkpt lat="47.25496" lon="-2.30212">
        <ele>43</ele>
        <time>2019-06-20T07:48:39.000Z</time>
      </trkpt>
      <trkpt lat="47.25493" lon="-2.30217">
        <ele>43.400001525879</ele>
        <time>2019-06-20T07:48:40.000Z</time>
      </trkpt>
      <trkpt lat="47.25489" lon="-2.30222">
        <ele>43.799999237061</ele>
        <time>2019-06-20T07:48:41.000Z</time>
      </trkpt>
      <trkpt lat="47.25488" lon="-2.30229">
        <ele>43.799999237061</ele>
        <time>2019-06-20T07:48:42.000Z</time>
      </trkpt>
      <trkpt lat="47.25486" lon="-2.30235">
        <ele>43.799999237061</ele>
        <time>2019-06-20T07:48:43.000Z</time>
      </trkpt>
      <trkpt lat="47.25483" lon="-2.30246">
        <ele>43.799999237061</ele>
        <time>2019-06-20T07:48:46.000Z</time>
      </trkpt>
      <trkpt lat="47.2547" lon="-2.30242">
        <ele>43.799999237061</ele>
        <time>2019-06-20T07:48:49.000Z</time>
      </trkpt>
      <trkpt lat="47.25445" lon="-2.30237">
        <ele>43.799999237061</ele>
        <time>2019-06-20T07:48:55.000Z</time>
      </trkpt>
      <trkpt lat="47.25441" lon="-2.30235">
        <ele>44.599998474121</ele>
        <time>2019-06-20T07:48:56.000Z</time>
      </trkpt>
      <trkpt lat="47.25436" lon="-2.30233">
        <ele>45</ele>
        <time>2019-06-20T07:48:57.000Z</time>
      </trkpt>
      <trkpt lat="47.25431" lon="-2.30234">
        <ele>45.400001525879</ele>
        <time>2019-06-20T07:48:58.000Z</time>
      </trkpt>
      <trkpt lat="47.25424" lon="-2.30234">
        <ele>45.799999237061</ele>
        <time>2019-06-20T07:48:59.000Z</time>
      </trkpt>
      <trkpt lat="47.25405" lon="-2.30227">
        <ele>45.799999237061</ele>
        <time>2019-06-20T07:49:02.000Z</time>
      </trkpt>
      <trkpt lat="47.25399" lon="-2.30224">
        <ele>45.799999237061</ele>
        <time>2019-06-20T07:49:03.000Z</time>
      </trkpt>
      <trkpt lat="47.25395" lon="-2.30223">
        <ele>45.799999237061</ele>
        <time>2019-06-20T07:49:04.000Z</time>
      </trkpt>
      <trkpt lat="47.25381" lon="-2.30218">
        <ele>45.799999237061</ele>
        <time>2019-06-20T07:49:07.000Z</time>
      </trkpt>
      <trkpt lat="47.25376" lon="-2.30217">
        <ele>45.799999237061</ele>
        <time>2019-06-20T07:49:08.000Z</time>
      </trkpt>
      <trkpt lat="47.2535" lon="-2.30213">
        <ele>45.799999237061</ele>
        <time>2019-06-20T07:49:13.000Z</time>
      </trkpt>
      <trkpt lat="47.25325" lon="-2.30209">
        <ele>45.799999237061</ele>
        <time>2019-06-20T07:49:18.000Z</time>
      </trkpt>
      <trkpt lat="47.25315" lon="-2.30206">
        <ele>45.799999237061</ele>
        <time>2019-06-20T07:49:20.000Z</time>
      </trkpt>
      <trkpt lat="47.25311" lon="-2.30205">
        <ele>46.799999237061</ele>
        <time>2019-06-20T07:49:21.000Z</time>
      </trkpt>
      <trkpt lat="47.25309" lon="-2.30208">
        <ele>47.200000762939</ele>
        <time>2019-06-20T07:49:22.000Z</time>
      </trkpt>
      <trkpt lat="47.25307" lon="-2.30212">
        <ele>47.599998474121</ele>
        <time>2019-06-20T07:49:23.000Z</time>
      </trkpt>
      <trkpt lat="47.25305" lon="-2.30214">
        <ele>48.200000762939</ele>
        <time>2019-06-20T07:49:24.000Z</time>
      </trkpt>
      <trkpt lat="47.25299" lon="-2.3021">
        <ele>48.200000762939</ele>
        <time>2019-06-20T07:49:26.000Z</time>
      </trkpt>
      <trkpt lat="47.25295" lon="-2.30209">
        <ele>48.200000762939</ele>
        <time>2019-06-20T07:49:27.000Z</time>
      </trkpt>
      <trkpt lat="47.2527" lon="-2.30201">
        <ele>48.200000762939</ele>
        <time>2019-06-20T07:49:33.000Z</time>
      </trkpt>
      <trkpt lat="47.25244" lon="-2.30189">
        <ele>48.200000762939</ele>
        <time>2019-06-20T07:49:39.000Z</time>
      </trkpt>
      <trkpt lat="47.25235" lon="-2.30186">
        <ele>48.599998474121</ele>
        <time>2019-06-20T07:49:41.000Z</time>
      </trkpt>
      <trkpt lat="47.2523" lon="-2.30185">
        <ele>49</ele>
        <time>2019-06-20T07:49:42.000Z</time>
      </trkpt>
      <trkpt lat="47.25226" lon="-2.30183">
        <ele>49.400001525879</ele>
        <time>2019-06-20T07:49:43.000Z</time>
      </trkpt>
      <trkpt lat="47.25222" lon="-2.30179">
        <ele>49.799999237061</ele>
        <time>2019-06-20T07:49:44.000Z</time>
      </trkpt>
      <trkpt lat="47.25218" lon="-2.30174">
        <ele>50.200000762939</ele>
        <time>2019-06-20T07:49:45.000Z</time>
      </trkpt>
      <trkpt lat="47.25199" lon="-2.30156">
        <ele>50.599998474121</ele>
        <time>2019-06-20T07:49:49.000Z</time>
      </trkpt>
      <trkpt lat="47.25195" lon="-2.3015">
        <ele>51</ele>
        <time>2019-06-20T07:49:50.000Z</time>
      </trkpt>
      <trkpt lat="47.25192" lon="-2.30146">
        <ele>51.400001525879</ele>
        <time>2019-06-20T07:49:51.000Z</time>
      </trkpt>
      <trkpt lat="47.2519" lon="-2.30139">
        <ele>51.799999237061</ele>
        <time>2019-06-20T07:49:52.000Z</time>
      </trkpt>
      <trkpt lat="47.25187" lon="-2.30133">
        <ele>52.200000762939</ele>
        <time>2019-06-20T07:49:53.000Z</time>
      </trkpt>
      <trkpt lat="47.25181" lon="-2.30124">
        <ele>52.200000762939</ele>
        <time>2019-06-20T07:49:55.000Z</time>
      </trkpt>
      <trkpt lat="47.25176" lon="-2.30123">
        <ele>52.200000762939</ele>
        <time>2019-06-20T07:49:56.000Z</time>
      </trkpt>
      <trkpt lat="47.25167" lon="-2.30124">
        <ele>52.200000762939</ele>
        <time>2019-06-20T07:49:58.000Z</time>
      </trkpt>
      <trkpt lat="47.25157" lon="-2.30127">
        <ele>52.200000762939</ele>
        <time>2019-06-20T07:50:00.000Z</time>
      </trkpt>
      <trkpt lat="47.25153" lon="-2.30129">
        <ele>52.200000762939</ele>
        <time>2019-06-20T07:50:01.000Z</time>
      </trkpt>
      <trkpt lat="47.25145" lon="-2.30132">
        <ele>52.200000762939</ele>
        <time>2019-06-20T07:50:03.000Z</time>
      </trkpt>
      <trkpt lat="47.25125" lon="-2.30133">
        <ele>52.200000762939</ele>
        <time>2019-06-20T07:50:07.000Z</time>
      </trkpt>
      <trkpt lat="47.25115" lon="-2.30133">
        <ele>52.599998474121</ele>
        <time>2019-06-20T07:50:09.000Z</time>
      </trkpt>
      <trkpt lat="47.2511" lon="-2.30134">
        <ele>53</ele>
        <time>2019-06-20T07:50:10.000Z</time>
      </trkpt>
      <trkpt lat="47.25106" lon="-2.30135">
        <ele>53.799999237061</ele>
        <time>2019-06-20T07:50:11.000Z</time>
      </trkpt>
      <trkpt lat="47.251" lon="-2.30136">
        <ele>54.200000762939</ele>
        <time>2019-06-20T07:50:12.000Z</time>
      </trkpt>
      <trkpt lat="47.2509" lon="-2.30138">
        <ele>54.200000762939</ele>
        <time>2019-06-20T07:50:14.000Z</time>
      </trkpt>
      <trkpt lat="47.25085" lon="-2.30137">
        <ele>54.200000762939</ele>
        <time>2019-06-20T07:50:15.000Z</time>
      </trkpt>
      <trkpt lat="47.25067" lon="-2.30134">
        <ele>54.200000762939</ele>
        <time>2019-06-20T07:50:20.000Z</time>
      </trkpt>
      <trkpt lat="47.25066" lon="-2.30132">
        <ele>54.200000762939</ele>
        <time>2019-06-20T07:50:21.000Z</time>
      </trkpt>
      <trkpt lat="47.25067" lon="-2.30124">
        <ele>54.200000762939</ele>
        <time>2019-06-20T07:50:23.000Z</time>
      </trkpt>
      <trkpt lat="47.2507" lon="-2.3009">
        <ele>54.200000762939</ele>
        <time>2019-06-20T07:50:30.000Z</time>
      </trkpt>
      <trkpt lat="47.25073" lon="-2.30061">
        <ele>54.200000762939</ele>
        <time>2019-06-20T07:50:36.000Z</time>
      </trkpt>
      <trkpt lat="47.25072" lon="-2.30058">
        <ele>54.200000762939</ele>
        <time>2019-06-20T07:50:37.000Z</time>
      </trkpt>
      <trkpt lat="47.25068" lon="-2.30057">
        <ele>54.200000762939</ele>
        <time>2019-06-20T07:50:39.000Z</time>
      </trkpt>
      <trkpt lat="47.25055" lon="-2.30056">
        <ele>54.200000762939</ele>
        <time>2019-06-20T07:50:43.000Z</time>
      </trkpt>
      <trkpt lat="47.25052" lon="-2.30055">
        <ele>54.200000762939</ele>
        <time>2019-06-20T07:50:44.000Z</time>
      </trkpt>
      <trkpt lat="47.25025" lon="-2.30052">
        <ele>54.599998474121</ele>
        <time>2019-06-20T07:50:50.000Z</time>
      </trkpt>
      <trkpt lat="47.2502" lon="-2.30052">
        <ele>55</ele>
        <time>2019-06-20T07:50:51.000Z</time>
      </trkpt>
      <trkpt lat="47.25016" lon="-2.30051">
        <ele>55.400001525879</ele>
        <time>2019-06-20T07:50:52.000Z</time>
      </trkpt>
      <trkpt lat="47.25011" lon="-2.30052">
        <ele>55.799999237061</ele>
        <time>2019-06-20T07:50:53.000Z</time>
      </trkpt>
      <trkpt lat="47.25006" lon="-2.30052">
        <ele>56.200000762939</ele>
        <time>2019-06-20T07:50:54.000Z</time>
      </trkpt>
      <trkpt lat="47.24992" lon="-2.30052">
        <ele>56.200000762939</ele>
        <time>2019-06-20T07:50:57.000Z</time>
      </trkpt>
      <trkpt lat="47.24988" lon="-2.30054">
        <ele>56.200000762939</ele>
        <time>2019-06-20T07:50:58.000Z</time>
      </trkpt>
      <trkpt lat="47.24965" lon="-2.30055">
        <ele>56.200000762939</ele>
        <time>2019-06-20T07:51:03.000Z</time>
      </trkpt>
      <trkpt lat="47.2493" lon="-2.30056">
        <ele>56.200000762939</ele>
        <time>2019-06-20T07:51:10.000Z</time>
      </trkpt>
      <trkpt lat="47.24904" lon="-2.30054">
        <ele>56.200000762939</ele>
        <time>2019-06-20T07:51:16.000Z</time>
      </trkpt>
      <trkpt lat="47.24903" lon="-2.30034">
        <ele>56.200000762939</ele>
        <time>2019-06-20T07:51:19.000Z</time>
      </trkpt>
      <trkpt lat="47.24901" lon="-2.30019">
        <ele>56.200000762939</ele>
        <time>2019-06-20T07:51:21.000Z</time>
      </trkpt>
      <trkpt lat="47.24896" lon="-2.29997">
        <ele>56.200000762939</ele>
        <time>2019-06-20T07:51:24.000Z</time>
      </trkpt>
      <trkpt lat="47.24894" lon="-2.2999">
        <ele>56.200000762939</ele>
        <time>2019-06-20T07:51:25.000Z</time>
      </trkpt>
      <trkpt lat="47.24882" lon="-2.29946">
        <ele>56.200000762939</ele>
        <time>2019-06-20T07:51:31.000Z</time>
      </trkpt>
      <trkpt lat="47.24876" lon="-2.29917">
        <ele>56.599998474121</ele>
        <time>2019-06-20T07:51:35.000Z</time>
      </trkpt>
      <trkpt lat="47.24875" lon="-2.2991">
        <ele>57</ele>
        <time>2019-06-20T07:51:36.000Z</time>
      </trkpt>
      <trkpt lat="47.24875" lon="-2.29902">
        <ele>57.400001525879</ele>
        <time>2019-06-20T07:51:37.000Z</time>
      </trkpt>
      <trkpt lat="47.24875" lon="-2.29895">
        <ele>57.799999237061</ele>
        <time>2019-06-20T07:51:38.000Z</time>
      </trkpt>
      <trkpt lat="47.24874" lon="-2.29888">
        <ele>58.200000762939</ele>
        <time>2019-06-20T07:51:39.000Z</time>
      </trkpt>
      <trkpt lat="47.2487" lon="-2.29866">
        <ele>58.200000762939</ele>
        <time>2019-06-20T07:51:42.000Z</time>
      </trkpt>
      <trkpt lat="47.24867" lon="-2.29852">
        <ele>58.200000762939</ele>
        <time>2019-06-20T07:51:44.000Z</time>
      </trkpt>
      <trkpt lat="47.24862" lon="-2.29831">
        <ele>58.200000762939</ele>
        <time>2019-06-20T07:51:48.000Z</time>
      </trkpt>
      <trkpt lat="47.24853" lon="-2.29836">
        <ele>58.200000762939</ele>
        <time>2019-06-20T07:51:51.000Z</time>
      </trkpt>
      <trkpt lat="47.2485" lon="-2.29838">
        <ele>58.200000762939</ele>
        <time>2019-06-20T07:51:52.000Z</time>
      </trkpt>
      <trkpt lat="47.24842" lon="-2.29843">
        <ele>58.200000762939</ele>
        <time>2019-06-20T07:51:54.000Z</time>
      </trkpt>
      <trkpt lat="47.2483" lon="-2.29847">
        <ele>58.200000762939</ele>
        <time>2019-06-20T07:51:57.000Z</time>
      </trkpt>
      <trkpt lat="47.248" lon="-2.29856">
        <ele>58.200000762939</ele>
        <time>2019-06-20T07:52:03.000Z</time>
      </trkpt>
      <trkpt lat="47.24795" lon="-2.29859">
        <ele>58.200000762939</ele>
        <time>2019-06-20T07:52:04.000Z</time>
      </trkpt>
      <trkpt lat="47.24761" lon="-2.29884">
        <ele>58.200000762939</ele>
        <time>2019-06-20T07:52:12.000Z</time>
      </trkpt>
      <trkpt lat="47.24747" lon="-2.29902">
        <ele>58.200000762939</ele>
        <time>2019-06-20T07:52:16.000Z</time>
      </trkpt>
      <trkpt lat="47.24747" lon="-2.29909">
        <ele>58.200000762939</ele>
        <time>2019-06-20T07:52:17.000Z</time>
      </trkpt>
      <trkpt lat="47.24746" lon="-2.29954">
        <ele>58.200000762939</ele>
        <time>2019-06-20T07:52:23.000Z</time>
      </trkpt>
      <trkpt lat="47.24745" lon="-2.29962">
        <ele>57.799999237061</ele>
        <time>2019-06-20T07:52:24.000Z</time>
      </trkpt>
      <trkpt lat="47.24745" lon="-2.29969">
        <ele>57.400001525879</ele>
        <time>2019-06-20T07:52:25.000Z</time>
      </trkpt>
      <trkpt lat="47.24743" lon="-2.29976">
        <ele>57</ele>
        <time>2019-06-20T07:52:26.000Z</time>
      </trkpt>
      <trkpt lat="47.24741" lon="-2.29984">
        <ele>56.599998474121</ele>
        <time>2019-06-20T07:52:27.000Z</time>
      </trkpt>
      <trkpt lat="47.24738" lon="-2.29991">
        <ele>56.200000762939</ele>
        <time>2019-06-20T07:52:28.000Z</time>
      </trkpt>
      <trkpt lat="47.24735" lon="-2.29998">
        <ele>56.200000762939</ele>
        <time>2019-06-20T07:52:29.000Z</time>
      </trkpt>
      <trkpt lat="47.24722" lon="-2.30017">
        <ele>56.200000762939</ele>
        <time>2019-06-20T07:52:32.000Z</time>
      </trkpt>
      <trkpt lat="47.24692" lon="-2.30048">
        <ele>56.200000762939</ele>
        <time>2019-06-20T07:52:38.000Z</time>
      </trkpt>
      <trkpt lat="47.24656" lon="-2.30077">
        <ele>55.799999237061</ele>
        <time>2019-06-20T07:52:45.000Z</time>
      </trkpt>
      <trkpt lat="47.24655" lon="-2.30078">
        <ele>55.400001525879</ele>
        <time>2019-06-20T07:52:46.000Z</time>
      </trkpt>
      <trkpt lat="47.24653" lon="-2.3008">
        <ele>54.799999237061</ele>
        <time>2019-06-20T07:52:47.000Z</time>
      </trkpt>
      <trkpt lat="47.24651" lon="-2.30082">
        <ele>54.400001525879</ele>
        <time>2019-06-20T07:52:48.000Z</time>
      </trkpt>
      <trkpt lat="47.24649" lon="-2.30084">
        <ele>54</ele>
        <time>2019-06-20T07:52:49.000Z</time>
      </trkpt>
      <trkpt lat="47.24638" lon="-2.30095">
        <ele>54</ele>
        <time>2019-06-20T07:52:53.000Z</time>
      </trkpt>
      <trkpt lat="47.24618" lon="-2.30115">
        <ele>54</ele>
        <time>2019-06-20T07:52:58.000Z</time>
      </trkpt>
      <trkpt lat="47.24592" lon="-2.30144">
        <ele>54</ele>
        <time>2019-06-20T07:53:04.000Z</time>
      </trkpt>
      <trkpt lat="47.24588" lon="-2.30151">
        <ele>54</ele>
        <time>2019-06-20T07:53:05.000Z</time>
      </trkpt>
      <trkpt lat="47.24559" lon="-2.30195">
        <ele>54</ele>
        <time>2019-06-20T07:53:12.000Z</time>
      </trkpt>
      <trkpt lat="47.24531" lon="-2.30227">
        <ele>54</ele>
        <time>2019-06-20T07:53:18.000Z</time>
      </trkpt>
      <trkpt lat="47.24509" lon="-2.30247">
        <ele>53.599998474121</ele>
        <time>2019-06-20T07:53:22.000Z</time>
      </trkpt>
      <trkpt lat="47.24502" lon="-2.30251">
        <ele>53.200000762939</ele>
        <time>2019-06-20T07:53:23.000Z</time>
      </trkpt>
      <trkpt lat="47.24496" lon="-2.30255">
        <ele>52.599998474121</ele>
        <time>2019-06-20T07:53:24.000Z</time>
      </trkpt>
      <trkpt lat="47.24491" lon="-2.30261">
        <ele>52.200000762939</ele>
        <time>2019-06-20T07:53:25.000Z</time>
      </trkpt>
      <trkpt lat="47.24486" lon="-2.30267">
        <ele>51.799999237061</ele>
        <time>2019-06-20T07:53:26.000Z</time>
      </trkpt>
      <trkpt lat="47.24477" lon="-2.30282">
        <ele>51.799999237061</ele>
        <time>2019-06-20T07:53:28.000Z</time>
      </trkpt>
      <trkpt lat="47.24473" lon="-2.30291">
        <ele>50.799999237061</ele>
        <time>2019-06-20T07:53:29.000Z</time>
      </trkpt>
      <trkpt lat="47.2447" lon="-2.30301">
        <ele>50.400001525879</ele>
        <time>2019-06-20T07:53:30.000Z</time>
      </trkpt>
      <trkpt lat="47.24468" lon="-2.30312">
        <ele>50</ele>
        <time>2019-06-20T07:53:31.000Z</time>
      </trkpt>
      <trkpt lat="47.24466" lon="-2.30324">
        <ele>49.400001525879</ele>
        <time>2019-06-20T07:53:32.000Z</time>
      </trkpt>
      <trkpt lat="47.24464" lon="-2.30347">
        <ele>49.400001525879</ele>
        <time>2019-06-20T07:53:34.000Z</time>
      </trkpt>
      <trkpt lat="47.24462" lon="-2.30383">
        <ele>49</ele>
        <time>2019-06-20T07:53:37.000Z</time>
      </trkpt>
      <trkpt lat="47.24461" lon="-2.30395">
        <ele>48.599998474121</ele>
        <time>2019-06-20T07:53:38.000Z</time>
      </trkpt>
      <trkpt lat="47.2446" lon="-2.30406">
        <ele>48.200000762939</ele>
        <time>2019-06-20T07:53:39.000Z</time>
      </trkpt>
      <trkpt lat="47.2446" lon="-2.30417">
        <ele>47.799999237061</ele>
        <time>2019-06-20T07:53:40.000Z</time>
      </trkpt>
      <trkpt lat="47.24459" lon="-2.30429">
        <ele>47.200000762939</ele>
        <time>2019-06-20T07:53:41.000Z</time>
      </trkpt>
      <trkpt lat="47.2446" lon="-2.3044">
        <ele>46.799999237061</ele>
        <time>2019-06-20T07:53:42.000Z</time>
      </trkpt>
      <trkpt lat="47.2446" lon="-2.30451">
        <ele>46.200000762939</ele>
        <time>2019-06-20T07:53:43.000Z</time>
      </trkpt>
      <trkpt lat="47.24461" lon="-2.30461">
        <ele>45.599998474121</ele>
        <time>2019-06-20T07:53:44.000Z</time>
      </trkpt>
      <trkpt lat="47.24464" lon="-2.30469">
        <ele>45.200000762939</ele>
        <time>2019-06-20T07:53:45.000Z</time>
      </trkpt>
      <trkpt lat="47.24467" lon="-2.30477">
        <ele>44.599998474121</ele>
        <time>2019-06-20T07:53:46.000Z</time>
      </trkpt>
      <trkpt lat="47.24472" lon="-2.30483">
        <ele>44.200000762939</ele>
        <time>2019-06-20T07:53:47.000Z</time>
      </trkpt>
      <trkpt lat="47.24475" lon="-2.30491">
        <ele>43.599998474121</ele>
        <time>2019-06-20T07:53:48.000Z</time>
      </trkpt>
      <trkpt lat="47.24478" lon="-2.305">
        <ele>43.200000762939</ele>
        <time>2019-06-20T07:53:49.000Z</time>
      </trkpt>
      <trkpt lat="47.24476" lon="-2.30528">
        <ele>43.200000762939</ele>
        <time>2019-06-20T07:53:52.000Z</time>
      </trkpt>
      <trkpt lat="47.24467" lon="-2.30546">
        <ele>43.200000762939</ele>
        <time>2019-06-20T07:53:55.000Z</time>
      </trkpt>
      <trkpt lat="47.24458" lon="-2.30555">
        <ele>43.200000762939</ele>
        <time>2019-06-20T07:53:57.000Z</time>
      </trkpt>
      <trkpt lat="47.24444" lon="-2.30569">
        <ele>43.200000762939</ele>
        <time>2019-06-20T07:54:00.000Z</time>
      </trkpt>
      <trkpt lat="47.24438" lon="-2.30573">
        <ele>43.200000762939</ele>
        <time>2019-06-20T07:54:01.000Z</time>
      </trkpt>
      <trkpt lat="47.24422" lon="-2.30582">
        <ele>42.799999237061</ele>
        <time>2019-06-20T07:54:04.000Z</time>
      </trkpt>
      <trkpt lat="47.24416" lon="-2.30584">
        <ele>42.200000762939</ele>
        <time>2019-06-20T07:54:05.000Z</time>
      </trkpt>
      <trkpt lat="47.24411" lon="-2.30586">
        <ele>41.799999237061</ele>
        <time>2019-06-20T07:54:06.000Z</time>
      </trkpt>
      <trkpt lat="47.24406" lon="-2.30586">
        <ele>41.400001525879</ele>
        <time>2019-06-20T07:54:07.000Z</time>
      </trkpt>
      <trkpt lat="47.244" lon="-2.30583">
        <ele>41</ele>
        <time>2019-06-20T07:54:08.000Z</time>
      </trkpt>
      <trkpt lat="47.24384" lon="-2.30572">
        <ele>41</ele>
        <time>2019-06-20T07:54:11.000Z</time>
      </trkpt>
      <trkpt lat="47.24379" lon="-2.30567">
        <ele>41</ele>
        <time>2019-06-20T07:54:12.000Z</time>
      </trkpt>
      <trkpt lat="47.24375" lon="-2.30562">
        <ele>41</ele>
        <time>2019-06-20T07:54:13.000Z</time>
      </trkpt>
      <trkpt lat="47.2437" lon="-2.30549">
        <ele>40.400001525879</ele>
        <time>2019-06-20T07:54:15.000Z</time>
      </trkpt>
      <trkpt lat="47.24369" lon="-2.30541">
        <ele>40</ele>
        <time>2019-06-20T07:54:16.000Z</time>
      </trkpt>
      <trkpt lat="47.24369" lon="-2.30531">
        <ele>39.599998474121</ele>
        <time>2019-06-20T07:54:17.000Z</time>
      </trkpt>
      <trkpt lat="47.24368" lon="-2.30524">
        <ele>38.599998474121</ele>
        <time>2019-06-20T07:54:18.000Z</time>
      </trkpt>
      <trkpt lat="47.24367" lon="-2.30518">
        <ele>38.599998474121</ele>
        <time>2019-06-20T07:54:19.000Z</time>
      </trkpt>
      <trkpt lat="47.24367" lon="-2.30505">
        <ele>39</ele>
        <time>2019-06-20T07:54:21.000Z</time>
      </trkpt>
      <trkpt lat="47.24368" lon="-2.30499">
        <ele>39.400001525879</ele>
        <time>2019-06-20T07:54:22.000Z</time>
      </trkpt>
      <trkpt lat="47.24369" lon="-2.30493">
        <ele>40</ele>
        <time>2019-06-20T07:54:23.000Z</time>
      </trkpt>
      <trkpt lat="47.2437" lon="-2.30489">
        <ele>40.400001525879</ele>
        <time>2019-06-20T07:54:24.000Z</time>
      </trkpt>
      <trkpt lat="47.24372" lon="-2.30482">
        <ele>40.799999237061</ele>
        <time>2019-06-20T07:54:25.000Z</time>
      </trkpt>
      <trkpt lat="47.24374" lon="-2.30476">
        <ele>41.200000762939</ele>
        <time>2019-06-20T07:54:26.000Z</time>
      </trkpt>
      <trkpt lat="47.24374" lon="-2.30468">
        <ele>41.799999237061</ele>
        <time>2019-06-20T07:54:27.000Z</time>
      </trkpt>
      <trkpt lat="47.24375" lon="-2.30461">
        <ele>42.200000762939</ele>
        <time>2019-06-20T07:54:28.000Z</time>
      </trkpt>
      <trkpt lat="47.24376" lon="-2.30455">
        <ele>42.599998474121</ele>
        <time>2019-06-20T07:54:29.000Z</time>
      </trkpt>
      <trkpt lat="47.24375" lon="-2.3045">
        <ele>43.200000762939</ele>
        <time>2019-06-20T07:54:30.000Z</time>
      </trkpt>
      <trkpt lat="47.24372" lon="-2.30448">
        <ele>43.200000762939</ele>
        <time>2019-06-20T07:54:31.000Z</time>
      </trkpt>
      <trkpt lat="47.24366" lon="-2.30451">
        <ele>43.200000762939</ele>
        <time>2019-06-20T07:54:33.000Z</time>
      </trkpt>
      <trkpt lat="47.24359" lon="-2.30453">
        <ele>43.200000762939</ele>
        <time>2019-06-20T07:54:35.000Z</time>
      </trkpt>
      <trkpt lat="47.24351" lon="-2.30451">
        <ele>43.599998474121</ele>
        <time>2019-06-20T07:54:37.000Z</time>
      </trkpt>
      <trkpt lat="47.24346" lon="-2.30449">
        <ele>44</ele>
        <time>2019-06-20T07:54:38.000Z</time>
      </trkpt>
      <trkpt lat="47.24342" lon="-2.30447">
        <ele>44.400001525879</ele>
        <time>2019-06-20T07:54:39.000Z</time>
      </trkpt>
      <trkpt lat="47.24339" lon="-2.30445">
        <ele>44.799999237061</ele>
        <time>2019-06-20T07:54:40.000Z</time>
      </trkpt>
      <trkpt lat="47.24335" lon="-2.30443">
        <ele>45.200000762939</ele>
        <time>2019-06-20T07:54:41.000Z</time>
      </trkpt>
      <trkpt lat="47.24316" lon="-2.30431">
        <ele>45.200000762939</ele>
        <time>2019-06-20T07:54:45.000Z</time>
      </trkpt>
      <trkpt lat="47.24293" lon="-2.30417">
        <ele>45.200000762939</ele>
        <time>2019-06-20T07:54:51.000Z</time>
      </trkpt>
      <trkpt lat="47.24286" lon="-2.30408">
        <ele>45.200000762939</ele>
        <time>2019-06-20T07:54:53.000Z</time>
      </trkpt>
      <trkpt lat="47.24279" lon="-2.30399">
        <ele>45.200000762939</ele>
        <time>2019-06-20T07:54:55.000Z</time>
      </trkpt>
      <trkpt lat="47.24273" lon="-2.30388">
        <ele>45.200000762939</ele>
        <time>2019-06-20T07:54:57.000Z</time>
      </trkpt>
      <trkpt lat="47.24261" lon="-2.30371">
        <ele>45.599998474121</ele>
        <time>2019-06-20T07:55:00.000Z</time>
      </trkpt>
      <trkpt lat="47.24258" lon="-2.30365">
        <ele>46</ele>
        <time>2019-06-20T07:55:01.000Z</time>
      </trkpt>
      <trkpt lat="47.24255" lon="-2.30359">
        <ele>46.400001525879</ele>
        <time>2019-06-20T07:55:02.000Z</time>
      </trkpt>
      <trkpt lat="47.24252" lon="-2.30354">
        <ele>46.799999237061</ele>
        <time>2019-06-20T07:55:03.000Z</time>
      </trkpt>
      <trkpt lat="47.24249" lon="-2.3035">
        <ele>47.200000762939</ele>
        <time>2019-06-20T07:55:04.000Z</time>
      </trkpt>
      <trkpt lat="47.24246" lon="-2.30345">
        <ele>47.200000762939</ele>
        <time>2019-06-20T07:55:05.000Z</time>
      </trkpt>
      <trkpt lat="47.24235" lon="-2.30326">
        <ele>47.200000762939</ele>
        <time>2019-06-20T07:55:09.000Z</time>
      </trkpt>
      <trkpt lat="47.24232" lon="-2.30326">
        <ele>47.200000762939</ele>
        <time>2019-06-20T07:55:10.000Z</time>
      </trkpt>
      <trkpt lat="47.24214" lon="-2.30335">
        <ele>47.200000762939</ele>
        <time>2019-06-20T07:55:14.000Z</time>
      </trkpt>
      <trkpt lat="47.2421" lon="-2.30336">
        <ele>46.799999237061</ele>
        <time>2019-06-20T07:55:15.000Z</time>
      </trkpt>
      <trkpt lat="47.24207" lon="-2.30334">
        <ele>46.200000762939</ele>
        <time>2019-06-20T07:55:16.000Z</time>
      </trkpt>
      <trkpt lat="47.24205" lon="-2.30331">
        <ele>45.599998474121</ele>
        <time>2019-06-20T07:55:17.000Z</time>
      </trkpt>
      <trkpt lat="47.24203" lon="-2.30327">
        <ele>45</ele>
        <time>2019-06-20T07:55:18.000Z</time>
      </trkpt>
      <trkpt lat="47.24202" lon="-2.30322">
        <ele>44.400001525879</ele>
        <time>2019-06-20T07:55:19.000Z</time>
      </trkpt>
      <trkpt lat="47.24202" lon="-2.30315">
        <ele>44</ele>
        <time>2019-06-20T07:55:20.000Z</time>
      </trkpt>
      <trkpt lat="47.24201" lon="-2.30308">
        <ele>43.599998474121</ele>
        <time>2019-06-20T07:55:21.000Z</time>
      </trkpt>
      <trkpt lat="47.242" lon="-2.30299">
        <ele>43.200000762939</ele>
        <time>2019-06-20T07:55:22.000Z</time>
      </trkpt>
      <trkpt lat="47.24198" lon="-2.30288">
        <ele>42.799999237061</ele>
        <time>2019-06-20T07:55:23.000Z</time>
      </trkpt>
      <trkpt lat="47.24196" lon="-2.3028">
        <ele>42.200000762939</ele>
        <time>2019-06-20T07:55:24.000Z</time>
      </trkpt>
      <trkpt lat="47.24193" lon="-2.30263">
        <ele>42.200000762939</ele>
        <time>2019-06-20T07:55:26.000Z</time>
      </trkpt>
      <trkpt lat="47.2419" lon="-2.30243">
        <ele>42.200000762939</ele>
        <time>2019-06-20T07:55:29.000Z</time>
      </trkpt>
      <trkpt lat="47.24188" lon="-2.3024">
        <ele>42.200000762939</ele>
        <time>2019-06-20T07:55:30.000Z</time>
      </trkpt>
      <trkpt lat="47.24184" lon="-2.30242">
        <ele>42.200000762939</ele>
        <time>2019-06-20T07:55:31.000Z</time>
      </trkpt>
      <trkpt lat="47.24181" lon="-2.30245">
        <ele>42.200000762939</ele>
        <time>2019-06-20T07:55:32.000Z</time>
      </trkpt>
      <trkpt lat="47.24174" lon="-2.30247">
        <ele>42.200000762939</ele>
        <time>2019-06-20T07:55:34.000Z</time>
      </trkpt>
      <trkpt lat="47.24171" lon="-2.30245">
        <ele>42.200000762939</ele>
        <time>2019-06-20T07:55:35.000Z</time>
      </trkpt>
      <trkpt lat="47.24163" lon="-2.30235">
        <ele>42.200000762939</ele>
        <time>2019-06-20T07:55:38.000Z</time>
      </trkpt>
      <trkpt lat="47.24159" lon="-2.30226">
        <ele>42.200000762939</ele>
        <time>2019-06-20T07:55:40.000Z</time>
      </trkpt>
      <trkpt lat="47.2415" lon="-2.30201">
        <ele>42.200000762939</ele>
        <time>2019-06-20T07:55:45.000Z</time>
      </trkpt>
      <trkpt lat="47.24145" lon="-2.30193">
        <ele>42.200000762939</ele>
        <time>2019-06-20T07:55:47.000Z</time>
      </trkpt>
      <trkpt lat="47.24139" lon="-2.30181">
        <ele>42.599998474121</ele>
        <time>2019-06-20T07:55:50.000Z</time>
      </trkpt>
      <trkpt lat="47.24137" lon="-2.30177">
        <ele>43.200000762939</ele>
        <time>2019-06-20T07:55:51.000Z</time>
      </trkpt>
      <trkpt lat="47.24136" lon="-2.30173">
        <ele>43.599998474121</ele>
        <time>2019-06-20T07:55:52.000Z</time>
      </trkpt>
      <trkpt lat="47.24134" lon="-2.30171">
        <ele>44</ele>
        <time>2019-06-20T07:55:53.000Z</time>
      </trkpt>
      <trkpt lat="47.24133" lon="-2.3017">
        <ele>44.400001525879</ele>
        <time>2019-06-20T07:55:54.000Z</time>
      </trkpt>
      <trkpt lat="47.2413" lon="-2.30166">
        <ele>44.799999237061</ele>
        <time>2019-06-20T07:55:56.000Z</time>
      </trkpt>
      <trkpt lat="47.24129" lon="-2.30164">
        <ele>45.799999237061</ele>
        <time>2019-06-20T07:55:57.000Z</time>
      </trkpt>
      <trkpt lat="47.24128" lon="-2.30163">
        <ele>46.400001525879</ele>
        <time>2019-06-20T07:55:58.000Z</time>
      </trkpt>
      <trkpt lat="47.24127" lon="-2.30163">
        <ele>46.799999237061</ele>
        <time>2019-06-20T07:55:59.000Z</time>
      </trkpt>
      <trkpt lat="47.24121" lon="-2.30165">
        <ele>46.799999237061</ele>
        <time>2019-06-20T07:56:55.000Z</time>
      </trkpt>
      <trkpt lat="47.24118" lon="-2.30168">
        <ele>46.799999237061</ele>
        <time>2019-06-20T07:56:57.000Z</time>
      </trkpt>
      <trkpt lat="47.24117" lon="-2.30169">
        <ele>46.799999237061</ele>
        <time>2019-06-20T07:56:58.000Z</time>
      </trkpt>
      <trkpt lat="47.24112" lon="-2.30168">
        <ele>46.799999237061</ele>
        <time>2019-06-20T07:57:01.000Z</time>
      </trkpt>
      <trkpt lat="47.24106" lon="-2.30167">
        <ele>47.200000762939</ele>
        <time>2019-06-20T07:57:03.000Z</time>
      </trkpt>
      <trkpt lat="47.24103" lon="-2.30167">
        <ele>47.599998474121</ele>
        <time>2019-06-20T07:57:04.000Z</time>
      </trkpt>
      <trkpt lat="47.24101" lon="-2.30166">
        <ele>48</ele>
        <time>2019-06-20T07:57:05.000Z</time>
      </trkpt>
      <trkpt lat="47.24099" lon="-2.30166">
        <ele>48.400001525879</ele>
        <time>2019-06-20T07:57:06.000Z</time>
      </trkpt>
      <trkpt lat="47.24096" lon="-2.30167">
        <ele>49</ele>
        <time>2019-06-20T07:57:07.000Z</time>
      </trkpt>
      <trkpt lat="47.2409" lon="-2.30174">
        <ele>49</ele>
        <time>2019-06-20T07:57:09.000Z</time>
      </trkpt>
      <trkpt lat="47.24072" lon="-2.30182">
        <ele>49</ele>
        <time>2019-06-20T07:57:13.000Z</time>
      </trkpt>
      <trkpt lat="47.24051" lon="-2.30187">
        <ele>49</ele>
        <time>2019-06-20T07:57:18.000Z</time>
      </trkpt>
      <trkpt lat="47.24038" lon="-2.30187">
        <ele>49</ele>
        <time>2019-06-20T07:57:22.000Z</time>
      </trkpt>
      <trkpt lat="47.24027" lon="-2.30174">
        <ele>49</ele>
        <time>2019-06-20T07:57:27.000Z</time>
      </trkpt>
      <trkpt lat="47.24008" lon="-2.30157">
        <ele>49</ele>
        <time>2019-06-20T07:57:32.000Z</time>
      </trkpt>
      <trkpt lat="47.23992" lon="-2.30154">
        <ele>49</ele>
        <time>2019-06-20T07:57:36.000Z</time>
      </trkpt>
      <trkpt lat="47.2398" lon="-2.30148">
        <ele>49</ele>
        <time>2019-06-20T07:57:40.000Z</time>
      </trkpt>
      <trkpt lat="47.23957" lon="-2.30138">
        <ele>49</ele>
        <time>2019-06-20T07:57:46.000Z</time>
      </trkpt>
      <trkpt lat="47.23953" lon="-2.30135">
        <ele>49</ele>
        <time>2019-06-20T07:57:47.000Z</time>
      </trkpt>
      <trkpt lat="47.23942" lon="-2.30122">
        <ele>49</ele>
        <time>2019-06-20T07:57:50.000Z</time>
      </trkpt>
      <trkpt lat="47.23935" lon="-2.30119">
        <ele>48.400001525879</ele>
        <time>2019-06-20T07:57:52.000Z</time>
      </trkpt>
      <trkpt lat="47.23931" lon="-2.30116">
        <ele>48</ele>
        <time>2019-06-20T07:57:53.000Z</time>
      </trkpt>
      <trkpt lat="47.23926" lon="-2.30113">
        <ele>47.599998474121</ele>
        <time>2019-06-20T07:57:54.000Z</time>
      </trkpt>
      <trkpt lat="47.23921" lon="-2.3011">
        <ele>47.200000762939</ele>
        <time>2019-06-20T07:57:55.000Z</time>
      </trkpt>
      <trkpt lat="47.23918" lon="-2.30106">
        <ele>46.799999237061</ele>
        <time>2019-06-20T07:57:56.000Z</time>
      </trkpt>
      <trkpt lat="47.23915" lon="-2.30101">
        <ele>46.799999237061</ele>
        <time>2019-06-20T07:57:57.000Z</time>
      </trkpt>
      <trkpt lat="47.23909" lon="-2.30093">
        <ele>46.799999237061</ele>
        <time>2019-06-20T07:57:59.000Z</time>
      </trkpt>
      <trkpt lat="47.23904" lon="-2.30088">
        <ele>46.799999237061</ele>
        <time>2019-06-20T07:58:01.000Z</time>
      </trkpt>
      <trkpt lat="47.2389" lon="-2.30075">
        <ele>46.799999237061</ele>
        <time>2019-06-20T07:58:05.000Z</time>
      </trkpt>
      <trkpt lat="47.23884" lon="-2.30071">
        <ele>46.799999237061</ele>
        <time>2019-06-20T07:58:06.000Z</time>
      </trkpt>
      <trkpt lat="47.23858" lon="-2.30058">
        <ele>46.799999237061</ele>
        <time>2019-06-20T07:58:10.000Z</time>
      </trkpt>
      <trkpt lat="47.2385" lon="-2.30046">
        <ele>46.799999237061</ele>
        <time>2019-06-20T07:58:13.000Z</time>
      </trkpt>
      <trkpt lat="47.23849" lon="-2.3004">
        <ele>46.799999237061</ele>
        <time>2019-06-20T07:58:14.000Z</time>
      </trkpt>
      <trkpt lat="47.23844" lon="-2.30014">
        <ele>46.799999237061</ele>
        <time>2019-06-20T07:58:18.000Z</time>
      </trkpt>
      <trkpt lat="47.23841" lon="-2.30001">
        <ele>46.799999237061</ele>
        <time>2019-06-20T07:58:20.000Z</time>
      </trkpt>
      <trkpt lat="47.23839" lon="-2.29988">
        <ele>47.200000762939</ele>
        <time>2019-06-20T07:58:22.000Z</time>
      </trkpt>
      <trkpt lat="47.23838" lon="-2.29981">
        <ele>47.799999237061</ele>
        <time>2019-06-20T07:58:23.000Z</time>
      </trkpt>
      <trkpt lat="47.23837" lon="-2.29974">
        <ele>48.200000762939</ele>
        <time>2019-06-20T07:58:24.000Z</time>
      </trkpt>
      <trkpt lat="47.23836" lon="-2.29968">
        <ele>49</ele>
        <time>2019-06-20T07:58:25.000Z</time>
      </trkpt>
      <trkpt lat="47.23834" lon="-2.2996">
        <ele>49</ele>
        <time>2019-06-20T07:58:26.000Z</time>
      </trkpt>
      <trkpt lat="47.23826" lon="-2.29919">
        <ele>49.400001525879</ele>
        <time>2019-06-20T07:58:32.000Z</time>
      </trkpt>
      <trkpt lat="47.23824" lon="-2.29912">
        <ele>49.799999237061</ele>
        <time>2019-06-20T07:58:33.000Z</time>
      </trkpt>
      <trkpt lat="47.23823" lon="-2.29906">
        <ele>50.200000762939</ele>
        <time>2019-06-20T07:58:34.000Z</time>
      </trkpt>
      <trkpt lat="47.23822" lon="-2.29899">
        <ele>50.599998474121</ele>
        <time>2019-06-20T07:58:35.000Z</time>
      </trkpt>
      <trkpt lat="47.23821" lon="-2.29892">
        <ele>51</ele>
        <time>2019-06-20T07:58:36.000Z</time>
      </trkpt>
      <trkpt lat="47.23815" lon="-2.29857">
        <ele>51</ele>
        <time>2019-06-20T07:58:41.000Z</time>
      </trkpt>
      <trkpt lat="47.2381" lon="-2.29828">
        <ele>51</ele>
        <time>2019-06-20T07:58:45.000Z</time>
      </trkpt>
      <trkpt lat="47.2381" lon="-2.29812">
        <ele>51</ele>
        <time>2019-06-20T07:58:47.000Z</time>
      </trkpt>
      <trkpt lat="47.23811" lon="-2.29741">
        <ele>51</ele>
        <time>2019-06-20T07:58:56.000Z</time>
      </trkpt>
      <trkpt lat="47.2381" lon="-2.29715">
        <ele>51</ele>
        <time>2019-06-20T07:58:59.000Z</time>
      </trkpt>
      <trkpt lat="47.23811" lon="-2.29706">
        <ele>51</ele>
        <time>2019-06-20T07:59:00.000Z</time>
      </trkpt>
      <trkpt lat="47.23813" lon="-2.29698">
        <ele>51</ele>
        <time>2019-06-20T07:59:01.000Z</time>
      </trkpt>
      <trkpt lat="47.23814" lon="-2.29682">
        <ele>51</ele>
        <time>2019-06-20T07:59:03.000Z</time>
      </trkpt>
      <trkpt lat="47.23815" lon="-2.29666">
        <ele>51</ele>
        <time>2019-06-20T07:59:05.000Z</time>
      </trkpt>
      <trkpt lat="47.23815" lon="-2.29619">
        <ele>51</ele>
        <time>2019-06-20T07:59:11.000Z</time>
      </trkpt>
      <trkpt lat="47.23813" lon="-2.29596">
        <ele>51</ele>
        <time>2019-06-20T07:59:14.000Z</time>
      </trkpt>
      <trkpt lat="47.23815" lon="-2.29571">
        <ele>51</ele>
        <time>2019-06-20T07:59:17.000Z</time>
      </trkpt>
      <trkpt lat="47.23815" lon="-2.29549">
        <ele>51</ele>
        <time>2019-06-20T07:59:20.000Z</time>
      </trkpt>
      <trkpt lat="47.23814" lon="-2.29534">
        <ele>51</ele>
        <time>2019-06-20T07:59:22.000Z</time>
      </trkpt>
      <trkpt lat="47.23814" lon="-2.29527">
        <ele>51</ele>
        <time>2019-06-20T07:59:23.000Z</time>
      </trkpt>
      <trkpt lat="47.23815" lon="-2.29492">
        <ele>51</ele>
        <time>2019-06-20T07:59:27.000Z</time>
      </trkpt>
      <trkpt lat="47.23816" lon="-2.29474">
        <ele>51</ele>
        <time>2019-06-20T07:59:29.000Z</time>
      </trkpt>
      <trkpt lat="47.23818" lon="-2.29449">
        <ele>51</ele>
        <time>2019-06-20T07:59:32.000Z</time>
      </trkpt>
      <trkpt lat="47.23824" lon="-2.29424">
        <ele>51</ele>
        <time>2019-06-20T07:59:36.000Z</time>
      </trkpt>
      <trkpt lat="47.23827" lon="-2.29419">
        <ele>51</ele>
        <time>2019-06-20T07:59:37.000Z</time>
      </trkpt>
      <trkpt lat="47.23841" lon="-2.2939">
        <ele>51</ele>
        <time>2019-06-20T07:59:42.000Z</time>
      </trkpt>
      <trkpt lat="47.23861" lon="-2.29344">
        <ele>51</ele>
        <time>2019-06-20T07:59:49.000Z</time>
      </trkpt>
      <trkpt lat="47.23865" lon="-2.29338">
        <ele>51</ele>
        <time>2019-06-20T07:59:50.000Z</time>
      </trkpt>
      <trkpt lat="47.23873" lon="-2.29331">
        <ele>51</ele>
        <time>2019-06-20T07:59:52.000Z</time>
      </trkpt>
      <trkpt lat="47.23897" lon="-2.29332">
        <ele>51</ele>
        <time>2019-06-20T07:59:56.000Z</time>
      </trkpt>
      <trkpt lat="47.23902" lon="-2.29333">
        <ele>51</ele>
        <time>2019-06-20T07:59:57.000Z</time>
      </trkpt>
      <trkpt lat="47.23911" lon="-2.29342">
        <ele>51</ele>
        <time>2019-06-20T07:59:59.000Z</time>
      </trkpt>
      <trkpt lat="47.23932" lon="-2.29381">
        <ele>51</ele>
        <time>2019-06-20T08:00:05.000Z</time>
      </trkpt>
      <trkpt lat="47.23953" lon="-2.29419">
        <ele>51</ele>
        <time>2019-06-20T08:00:11.000Z</time>
      </trkpt>
      <trkpt lat="47.23976" lon="-2.29464">
        <ele>51</ele>
        <time>2019-06-20T08:00:18.000Z</time>
      </trkpt>
      <trkpt lat="47.23983" lon="-2.29476">
        <ele>51.400001525879</ele>
        <time>2019-06-20T08:00:20.000Z</time>
      </trkpt>
      <trkpt lat="47.23986" lon="-2.29482">
        <ele>51.799999237061</ele>
        <time>2019-06-20T08:00:21.000Z</time>
      </trkpt>
      <trkpt lat="47.23989" lon="-2.29488">
        <ele>52.200000762939</ele>
        <time>2019-06-20T08:00:22.000Z</time>
      </trkpt>
      <trkpt lat="47.23992" lon="-2.29494">
        <ele>52.599998474121</ele>
        <time>2019-06-20T08:00:23.000Z</time>
      </trkpt>
      <trkpt lat="47.23994" lon="-2.29501">
        <ele>53</ele>
        <time>2019-06-20T08:00:24.000Z</time>
      </trkpt>
      <trkpt lat="47.23996" lon="-2.29516">
        <ele>53</ele>
        <time>2019-06-20T08:00:26.000Z</time>
      </trkpt>
      <trkpt lat="47.23998" lon="-2.2954">
        <ele>53</ele>
        <time>2019-06-20T08:00:29.000Z</time>
      </trkpt>
      <trkpt lat="47.24" lon="-2.29563">
        <ele>53</ele>
        <time>2019-06-20T08:00:32.000Z</time>
      </trkpt>
      <trkpt lat="47.24001" lon="-2.29588">
        <ele>53</ele>
        <time>2019-06-20T08:00:35.000Z</time>
      </trkpt>
      <trkpt lat="47.24005" lon="-2.29629">
        <ele>53</ele>
        <time>2019-06-20T08:00:41.000Z</time>
      </trkpt>
      <trkpt lat="47.24011" lon="-2.29681">
        <ele>53</ele>
        <time>2019-06-20T08:00:48.000Z</time>
      </trkpt>
      <trkpt lat="47.24016" lon="-2.29734">
        <ele>53</ele>
        <time>2019-06-20T08:00:55.000Z</time>
      </trkpt>
      <trkpt lat="47.24017" lon="-2.2977">
        <ele>53</ele>
        <time>2019-06-20T08:01:00.000Z</time>
      </trkpt>
      <trkpt lat="47.24016" lon="-2.29787">
        <ele>53</ele>
        <time>2019-06-20T08:01:04.000Z</time>
      </trkpt>
      <trkpt lat="47.24016" lon="-2.29791">
        <ele>53</ele>
        <time>2019-06-20T08:01:07.000Z</time>
      </trkpt>
      <trkpt lat="47.24023" lon="-2.29799">
        <ele>53</ele>
        <time>2019-06-20T08:02:11.000Z</time>
      </trkpt>
      <trkpt lat="47.24028" lon="-2.29804">
        <ele>53</ele>
        <time>2019-06-20T08:02:16.000Z</time>
      </trkpt>
      <trkpt lat="47.24029" lon="-2.29806">
        <ele>53</ele>
        <time>2019-06-20T08:02:17.000Z</time>
      </trkpt>
      <trkpt lat="47.24032" lon="-2.29812">
        <ele>53</ele>
        <time>2019-06-20T08:02:21.000Z</time>
      </trkpt>
      <trkpt lat="47.24032" lon="-2.29818">
        <ele>53</ele>
        <time>2019-06-20T08:02:24.000Z</time>
      </trkpt>
      <trkpt lat="47.24031" lon="-2.29825">
        <ele>53</ele>
        <time>2019-06-20T08:02:27.000Z</time>
      </trkpt>
      <trkpt lat="47.24029" lon="-2.29843">
        <ele>53</ele>
        <time>2019-06-20T08:02:33.000Z</time>
      </trkpt>
      <trkpt lat="47.24029" lon="-2.2985">
        <ele>53</ele>
        <time>2019-06-20T08:02:35.000Z</time>
      </trkpt>
      <trkpt lat="47.24032" lon="-2.29862">
        <ele>53</ele>
        <time>2019-06-20T08:02:38.000Z</time>
      </trkpt>
      <trkpt lat="47.24032" lon="-2.29866">
        <ele>53</ele>
        <time>2019-06-20T08:02:39.000Z</time>
      </trkpt>
      <trkpt lat="47.24032" lon="-2.29873">
        <ele>53</ele>
        <time>2019-06-20T08:02:43.000Z</time>
      </trkpt>
      <trkpt lat="47.24033" lon="-2.29872">
        <ele>53</ele>
        <time>2019-06-20T08:02:45.000Z</time>
      </trkpt>
      <trkpt lat="47.24033" lon="-2.29866">
        <ele>53</ele>
        <time>2019-06-20T08:02:48.000Z</time>
      </trkpt>
      <trkpt lat="47.24033" lon="-2.29853">
        <ele>53</ele>
        <time>2019-06-20T08:02:52.000Z</time>
      </trkpt>
      <trkpt lat="47.24033" lon="-2.2985">
        <ele>53</ele>
        <time>2019-06-20T08:02:53.000Z</time>
      </trkpt>
      <trkpt lat="47.24036" lon="-2.29834">
        <ele>53</ele>
        <time>2019-06-20T08:02:58.000Z</time>
      </trkpt>
      <trkpt lat="47.24039" lon="-2.29832">
        <ele>53</ele>
        <time>2019-06-20T08:02:59.000Z</time>
      </trkpt>
      <trkpt lat="47.24048" lon="-2.29834">
        <ele>53</ele>
        <time>2019-06-20T08:03:03.000Z</time>
      </trkpt>
      <trkpt lat="47.24054" lon="-2.29839">
        <ele>53</ele>
        <time>2019-06-20T08:03:05.000Z</time>
      </trkpt>
      <trkpt lat="47.24064" lon="-2.29842">
        <ele>53</ele>
        <time>2019-06-20T08:03:07.000Z</time>
      </trkpt>
      <trkpt lat="47.24083" lon="-2.29847">
        <ele>53</ele>
        <time>2019-06-20T08:03:12.000Z</time>
      </trkpt>
      <trkpt lat="47.24099" lon="-2.29843">
        <ele>53</ele>
        <time>2019-06-20T08:03:16.000Z</time>
      </trkpt>
      <trkpt lat="47.24115" lon="-2.29834">
        <ele>53</ele>
        <time>2019-06-20T08:03:20.000Z</time>
      </trkpt>
      <trkpt lat="47.2412" lon="-2.29831">
        <ele>53</ele>
        <time>2019-06-20T08:03:21.000Z</time>
      </trkpt>
      <trkpt lat="47.24132" lon="-2.29832">
        <ele>53</ele>
        <time>2019-06-20T08:03:24.000Z</time>
      </trkpt>
      <trkpt lat="47.24149" lon="-2.29842">
        <ele>53</ele>
        <time>2019-06-20T08:03:29.000Z</time>
      </trkpt>
      <trkpt lat="47.24151" lon="-2.29844">
        <ele>53</ele>
        <time>2019-06-20T08:03:30.000Z</time>
      </trkpt>
      <trkpt lat="47.24157" lon="-2.29853">
        <ele>53</ele>
        <time>2019-06-20T08:03:33.000Z</time>
      </trkpt>
      <trkpt lat="47.24162" lon="-2.29862">
        <ele>53</ele>
        <time>2019-06-20T08:03:35.000Z</time>
      </trkpt>
      <trkpt lat="47.24172" lon="-2.29875">
        <ele>53</ele>
        <time>2019-06-20T08:03:38.000Z</time>
      </trkpt>
      <trkpt lat="47.24173" lon="-2.29898">
        <ele>53</ele>
        <time>2019-06-20T08:03:43.000Z</time>
      </trkpt>
      <trkpt lat="47.24172" lon="-2.29902">
        <ele>53</ele>
        <time>2019-06-20T08:03:44.000Z</time>
      </trkpt>
      <trkpt lat="47.24168" lon="-2.29921">
        <ele>53</ele>
        <time>2019-06-20T08:03:48.000Z</time>
      </trkpt>
      <trkpt lat="47.24163" lon="-2.29957">
        <ele>53</ele>
        <time>2019-06-20T08:03:54.000Z</time>
      </trkpt>
      <trkpt lat="47.24169" lon="-2.29971">
        <ele>53</ele>
        <time>2019-06-20T08:03:58.000Z</time>
      </trkpt>
      <trkpt lat="47.24172" lon="-2.29981">
        <ele>52.599998474121</ele>
        <time>2019-06-20T08:04:00.000Z</time>
      </trkpt>
      <trkpt lat="47.24174" lon="-2.29986">
        <ele>52.200000762939</ele>
        <time>2019-06-20T08:04:01.000Z</time>
      </trkpt>
      <trkpt lat="47.24175" lon="-2.29991">
        <ele>51.799999237061</ele>
        <time>2019-06-20T08:04:02.000Z</time>
      </trkpt>
      <trkpt lat="47.24176" lon="-2.29997">
        <ele>51.400001525879</ele>
        <time>2019-06-20T08:04:03.000Z</time>
      </trkpt>
      <trkpt lat="47.24177" lon="-2.30005">
        <ele>51</ele>
        <time>2019-06-20T08:04:04.000Z</time>
      </trkpt>
      <trkpt lat="47.24177" lon="-2.30012">
        <ele>50.599998474121</ele>
        <time>2019-06-20T08:04:05.000Z</time>
      </trkpt>
      <trkpt lat="47.24176" lon="-2.30018">
        <ele>50.200000762939</ele>
        <time>2019-06-20T08:04:06.000Z</time>
      </trkpt>
      <trkpt lat="47.24175" lon="-2.30022">
        <ele>49.799999237061</ele>
        <time>2019-06-20T08:04:07.000Z</time>
      </trkpt>
      <trkpt lat="47.24174" lon="-2.30025">
        <ele>49.200000762939</ele>
        <time>2019-06-20T08:04:08.000Z</time>
      </trkpt>
      <trkpt lat="47.24173" lon="-2.30027">
        <ele>48.799999237061</ele>
        <time>2019-06-20T08:04:09.000Z</time>
      </trkpt>
      <trkpt lat="47.24172" lon="-2.30027">
        <ele>48.799999237061</ele>
        <time>2019-06-20T08:04:10.000Z</time>
      </trkpt>
      <trkpt lat="47.24171" lon="-2.30027">
        <ele>48.799999237061</ele>
        <time>2019-06-20T08:04:11.000Z</time>
      </trkpt>
      <trkpt lat="47.24168" lon="-2.30025">
        <ele>48.799999237061</ele>
        <time>2019-06-20T08:04:13.000Z</time>
      </trkpt>
      <trkpt lat="47.24162" lon="-2.30021">
        <ele>48.799999237061</ele>
        <time>2019-06-20T08:04:15.000Z</time>
      </trkpt>
      <trkpt lat="47.24153" lon="-2.30024">
        <ele>48.799999237061</ele>
        <time>2019-06-20T08:04:19.000Z</time>
      </trkpt>
      <trkpt lat="47.24156" lon="-2.30041">
        <ele>48.799999237061</ele>
        <time>2019-06-20T08:04:23.000Z</time>
      </trkpt>
      <trkpt lat="47.24158" lon="-2.3005">
        <ele>48.799999237061</ele>
        <time>2019-06-20T08:04:26.000Z</time>
      </trkpt>
      <trkpt lat="47.24158" lon="-2.30056">
        <ele>48.799999237061</ele>
        <time>2019-06-20T08:04:28.000Z</time>
      </trkpt>
      <trkpt lat="47.24152" lon="-2.30084">
        <ele>48.799999237061</ele>
        <time>2019-06-20T08:04:33.000Z</time>
      </trkpt>
      <trkpt lat="47.24151" lon="-2.30097">
        <ele>48.400001525879</ele>
        <time>2019-06-20T08:04:35.000Z</time>
      </trkpt>
      <trkpt lat="47.2415" lon="-2.30103">
        <ele>48</ele>
        <time>2019-06-20T08:04:36.000Z</time>
      </trkpt>
      <trkpt lat="47.2415" lon="-2.30109">
        <ele>47.599998474121</ele>
        <time>2019-06-20T08:04:37.000Z</time>
      </trkpt>
      <trkpt lat="47.24149" lon="-2.30115">
        <ele>47</ele>
        <time>2019-06-20T08:04:38.000Z</time>
      </trkpt>
      <trkpt lat="47.24149" lon="-2.30118">
        <ele>46.599998474121</ele>
        <time>2019-06-20T08:04:39.000Z</time>
      </trkpt>
      <trkpt lat="47.24146" lon="-2.30132">
        <ele>46.599998474121</ele>
        <time>2019-06-20T08:04:42.000Z</time>
      </trkpt>
      <trkpt lat="47.24145" lon="-2.30137">
        <ele>46.599998474121</ele>
        <time>2019-06-20T08:04:43.000Z</time>
      </trkpt>
      <trkpt lat="47.24142" lon="-2.30147">
        <ele>46.599998474121</ele>
        <time>2019-06-20T08:04:46.000Z</time>
      </trkpt>
      <trkpt lat="47.24141" lon="-2.30149">
        <ele>46.200000762939</ele>
        <time>2019-06-20T08:04:47.000Z</time>
      </trkpt>
      <trkpt lat="47.24141" lon="-2.30149">
        <ele>45.799999237061</ele>
        <time>2019-06-20T08:04:48.000Z</time>
      </trkpt>
      <trkpt lat="47.24141" lon="-2.30147">
        <ele>45.400001525879</ele>
        <time>2019-06-20T08:04:49.000Z</time>
      </trkpt>
      <trkpt lat="47.24141" lon="-2.30144">
        <ele>45</ele>
        <time>2019-06-20T08:04:50.000Z</time>
      </trkpt>
      <trkpt lat="47.24141" lon="-2.3014">
        <ele>44.599998474121</ele>
        <time>2019-06-20T08:04:51.000Z</time>
      </trkpt>
      <trkpt lat="47.24141" lon="-2.30136">
        <ele>44.599998474121</ele>
        <time>2019-06-20T08:04:52.000Z</time>
      </trkpt>
      <trkpt lat="47.24145" lon="-2.30105">
        <ele>44.599998474121</ele>
        <time>2019-06-20T08:04:58.000Z</time>
      </trkpt>
      <trkpt lat="47.24146" lon="-2.30096">
        <ele>45</ele>
        <time>2019-06-20T08:05:00.000Z</time>
      </trkpt>
      <trkpt lat="47.24145" lon="-2.30092">
        <ele>45.400001525879</ele>
        <time>2019-06-20T08:05:01.000Z</time>
      </trkpt>
      <trkpt lat="47.24144" lon="-2.30088">
        <ele>45.799999237061</ele>
        <time>2019-06-20T08:05:02.000Z</time>
      </trkpt>
      <trkpt lat="47.24143" lon="-2.30084">
        <ele>46.200000762939</ele>
        <time>2019-06-20T08:05:03.000Z</time>
      </trkpt>
      <trkpt lat="47.24142" lon="-2.3008">
        <ele>46.599998474121</ele>
        <time>2019-06-20T08:05:04.000Z</time>
      </trkpt>
      <trkpt lat="47.2414" lon="-2.30063">
        <ele>47</ele>
        <time>2019-06-20T08:05:08.000Z</time>
      </trkpt>
      <trkpt lat="47.24139" lon="-2.30059">
        <ele>47.400001525879</ele>
        <time>2019-06-20T08:05:09.000Z</time>
      </trkpt>
      <trkpt lat="47.24139" lon="-2.30056">
        <ele>47.799999237061</ele>
        <time>2019-06-20T08:05:10.000Z</time>
      </trkpt>
      <trkpt lat="47.24139" lon="-2.30053">
        <ele>48.200000762939</ele>
        <time>2019-06-20T08:05:11.000Z</time>
      </trkpt>
      <trkpt lat="47.24138" lon="-2.30051">
        <ele>48.799999237061</ele>
        <time>2019-06-20T08:05:12.000Z</time>
      </trkpt>
      <trkpt lat="47.24137" lon="-2.30048">
        <ele>48.799999237061</ele>
        <time>2019-06-20T08:05:13.000Z</time>
      </trkpt>
      <trkpt lat="47.24137" lon="-2.30038">
        <ele>48.799999237061</ele>
        <time>2019-06-20T08:05:16.000Z</time>
      </trkpt>
      <trkpt lat="47.2414" lon="-2.30031">
        <ele>48.799999237061</ele>
        <time>2019-06-20T08:05:18.000Z</time>
      </trkpt>
      <trkpt lat="47.24144" lon="-2.30023">
        <ele>49.200000762939</ele>
        <time>2019-06-20T08:05:21.000Z</time>
      </trkpt>
      <trkpt lat="47.24147" lon="-2.30022">
        <ele>49.599998474121</ele>
        <time>2019-06-20T08:05:22.000Z</time>
      </trkpt>
      <trkpt lat="47.2415" lon="-2.30022">
        <ele>50</ele>
        <time>2019-06-20T08:05:23.000Z</time>
      </trkpt>
      <trkpt lat="47.24152" lon="-2.30023">
        <ele>50.799999237061</ele>
        <time>2019-06-20T08:05:24.000Z</time>
      </trkpt>
      <trkpt lat="47.24157" lon="-2.30032">
        <ele>50.799999237061</ele>
        <time>2019-06-20T08:05:28.000Z</time>
      </trkpt>
      <trkpt lat="47.24159" lon="-2.30032">
        <ele>50.799999237061</ele>
        <time>2019-06-20T08:05:29.000Z</time>
      </trkpt>
      <trkpt lat="47.24163" lon="-2.30034">
        <ele>50.799999237061</ele>
        <time>2019-06-20T08:05:31.000Z</time>
      </trkpt>
      <trkpt lat="47.24172" lon="-2.30034">
        <ele>50.799999237061</ele>
        <time>2019-06-20T08:05:35.000Z</time>
      </trkpt>
      <trkpt lat="47.24175" lon="-2.30028">
        <ele>50.400001525879</ele>
        <time>2019-06-20T08:05:37.000Z</time>
      </trkpt>
      <trkpt lat="47.24176" lon="-2.30025">
        <ele>50</ele>
        <time>2019-06-20T08:05:38.000Z</time>
      </trkpt>
      <trkpt lat="47.24176" lon="-2.30022">
        <ele>49.599998474121</ele>
        <time>2019-06-20T08:05:39.000Z</time>
      </trkpt>
      <trkpt lat="47.24177" lon="-2.3002">
        <ele>49</ele>
        <time>2019-06-20T08:05:40.000Z</time>
      </trkpt>
      <trkpt lat="47.24177" lon="-2.30018">
        <ele>48.599998474121</ele>
        <time>2019-06-20T08:05:41.000Z</time>
      </trkpt>
      <trkpt lat="47.24176" lon="-2.30017">
        <ele>48.599998474121</ele>
        <time>2019-06-20T08:05:42.000Z</time>
      </trkpt>
      <trkpt lat="47.24175" lon="-2.30013">
        <ele>48.599998474121</ele>
        <time>2019-06-20T08:05:44.000Z</time>
      </trkpt>
      <trkpt lat="47.24167" lon="-2.29997">
        <ele>48.599998474121</ele>
        <time>2019-06-20T08:05:50.000Z</time>
      </trkpt>
      <trkpt lat="47.24165" lon="-2.29994">
        <ele>49.200000762939</ele>
        <time>2019-06-20T08:05:51.000Z</time>
      </trkpt>
      <trkpt lat="47.24162" lon="-2.29992">
        <ele>49.599998474121</ele>
        <time>2019-06-20T08:05:52.000Z</time>
      </trkpt>
      <trkpt lat="47.2416" lon="-2.2999">
        <ele>50</ele>
        <time>2019-06-20T08:05:53.000Z</time>
      </trkpt>
      <trkpt lat="47.24158" lon="-2.2999">
        <ele>50.599998474121</ele>
        <time>2019-06-20T08:05:54.000Z</time>
      </trkpt>
      <trkpt lat="47.24155" lon="-2.29991">
        <ele>51</ele>
        <time>2019-06-20T08:05:55.000Z</time>
      </trkpt>
      <trkpt lat="47.24139" lon="-2.29991">
        <ele>51</ele>
        <time>2019-06-20T08:06:00.000Z</time>
      </trkpt>
      <trkpt lat="47.24121" lon="-2.29992">
        <ele>51</ele>
        <time>2019-06-20T08:06:06.000Z</time>
      </trkpt>
      <trkpt lat="47.24114" lon="-2.29991">
        <ele>51</ele>
        <time>2019-06-20T08:06:10.000Z</time>
      </trkpt>
      <trkpt lat="47.24107" lon="-2.29989">
        <ele>51</ele>
        <time>2019-06-20T08:06:15.000Z</time>
      </trkpt>
      <trkpt lat="47.24095" lon="-2.29985">
        <ele>51</ele>
        <time>2019-06-20T08:06:20.000Z</time>
      </trkpt>
      <trkpt lat="47.24091" lon="-2.29984">
        <ele>51</ele>
        <time>2019-06-20T08:06:21.000Z</time>
      </trkpt>
      <trkpt lat="47.24089" lon="-2.29982">
        <ele>51</ele>
        <time>2019-06-20T08:06:22.000Z</time>
      </trkpt>
      <trkpt lat="47.24082" lon="-2.29976">
        <ele>51</ele>
        <time>2019-06-20T08:06:25.000Z</time>
      </trkpt>
      <trkpt lat="47.24068" lon="-2.29965">
        <ele>51</ele>
        <time>2019-06-20T08:06:31.000Z</time>
      </trkpt>
      <trkpt lat="47.24057" lon="-2.29959">
        <ele>51</ele>
        <time>2019-06-20T08:06:36.000Z</time>
      </trkpt>
      <trkpt lat="47.24055" lon="-2.29959">
        <ele>51</ele>
        <time>2019-06-20T08:06:37.000Z</time>
      </trkpt>
      <trkpt lat="47.24048" lon="-2.2996">
        <ele>51</ele>
        <time>2019-06-20T08:06:41.000Z</time>
      </trkpt>
      <trkpt lat="47.24044" lon="-2.29957">
        <ele>51</ele>
        <time>2019-06-20T08:06:43.000Z</time>
      </trkpt>
      <trkpt lat="47.24034" lon="-2.29955">
        <ele>51</ele>
        <time>2019-06-20T08:06:48.000Z</time>
      </trkpt>
      <trkpt lat="47.24031" lon="-2.29953">
        <ele>51</ele>
        <time>2019-06-20T08:06:49.000Z</time>
      </trkpt>
      <trkpt lat="47.24028" lon="-2.29947">
        <ele>51</ele>
        <time>2019-06-20T08:06:51.000Z</time>
      </trkpt>
      <trkpt lat="47.24027" lon="-2.29933">
        <ele>51</ele>
        <time>2019-06-20T08:06:57.000Z</time>
      </trkpt>
      <trkpt lat="47.24028" lon="-2.29929">
        <ele>51</ele>
        <time>2019-06-20T08:07:03.000Z</time>
      </trkpt>
      <trkpt lat="47.2403" lon="-2.29922">
        <ele>51</ele>
        <time>2019-06-20T08:07:07.000Z</time>
      </trkpt>
      <trkpt lat="47.24031" lon="-2.29919">
        <ele>51</ele>
        <time>2019-06-20T08:07:10.000Z</time>
      </trkpt>
      <trkpt lat="47.24033" lon="-2.29917">
        <ele>51</ele>
        <time>2019-06-20T08:07:18.000Z</time>
      </trkpt>
      <trkpt lat="47.24034" lon="-2.29914">
        <ele>51</ele>
        <time>2019-06-20T08:07:19.000Z</time>
      </trkpt>
      <trkpt lat="47.24036" lon="-2.29909">
        <ele>51</ele>
        <time>2019-06-20T08:07:21.000Z</time>
      </trkpt>
      <trkpt lat="47.24041" lon="-2.29898">
        <ele>51</ele>
        <time>2019-06-20T08:07:24.000Z</time>
      </trkpt>
      <trkpt lat="47.24043" lon="-2.29893">
        <ele>51</ele>
        <time>2019-06-20T08:07:25.000Z</time>
      </trkpt>
      <trkpt lat="47.24046" lon="-2.29874">
        <ele>51</ele>
        <time>2019-06-20T08:07:29.000Z</time>
      </trkpt>
      <trkpt lat="47.24051" lon="-2.29853">
        <ele>51</ele>
        <time>2019-06-20T08:07:34.000Z</time>
      </trkpt>
      <trkpt lat="47.24056" lon="-2.29831">
        <ele>51</ele>
        <time>2019-06-20T08:07:39.000Z</time>
      </trkpt>
      <trkpt lat="47.24066" lon="-2.298">
        <ele>51</ele>
        <time>2019-06-20T08:07:46.000Z</time>
      </trkpt>
      <trkpt lat="47.24071" lon="-2.29791">
        <ele>51</ele>
        <time>2019-06-20T08:07:49.000Z</time>
      </trkpt>
      <trkpt lat="47.24073" lon="-2.29789">
        <ele>51</ele>
        <time>2019-06-20T08:07:51.000Z</time>
      </trkpt>
      <trkpt lat="47.24074" lon="-2.29783">
        <ele>51</ele>
        <time>2019-06-20T08:08:53.000Z</time>
      </trkpt>
      <trkpt lat="47.24074" lon="-2.29777">
        <ele>51</ele>
        <time>2019-06-20T08:08:55.000Z</time>
      </trkpt>
      <trkpt lat="47.24074" lon="-2.29767">
        <ele>51</ele>
        <time>2019-06-20T08:08:57.000Z</time>
      </trkpt>
      <trkpt lat="47.24073" lon="-2.29756">
        <ele>51</ele>
        <time>2019-06-20T08:08:59.000Z</time>
      </trkpt>
      <trkpt lat="47.24067" lon="-2.29727">
        <ele>51</ele>
        <time>2019-06-20T08:09:05.000Z</time>
      </trkpt>
      <trkpt lat="47.2406" lon="-2.29691">
        <ele>51</ele>
        <time>2019-06-20T08:09:11.000Z</time>
      </trkpt>
      <trkpt lat="47.24052" lon="-2.29654">
        <ele>51</ele>
        <time>2019-06-20T08:09:17.000Z</time>
      </trkpt>
      <trkpt lat="47.24051" lon="-2.29641">
        <ele>51.400001525879</ele>
        <time>2019-06-20T08:09:19.000Z</time>
      </trkpt>
      <trkpt lat="47.24051" lon="-2.29634">
        <ele>51.799999237061</ele>
        <time>2019-06-20T08:09:20.000Z</time>
      </trkpt>
      <trkpt lat="47.24051" lon="-2.29628">
        <ele>52.200000762939</ele>
        <time>2019-06-20T08:09:21.000Z</time>
      </trkpt>
      <trkpt lat="47.24053" lon="-2.29623">
        <ele>52.599998474121</ele>
        <time>2019-06-20T08:09:22.000Z</time>
      </trkpt>
      <trkpt lat="47.24056" lon="-2.2962">
        <ele>53</ele>
        <time>2019-06-20T08:09:23.000Z</time>
      </trkpt>
      <trkpt lat="47.24058" lon="-2.29616">
        <ele>53</ele>
        <time>2019-06-20T08:09:24.000Z</time>
      </trkpt>
      <trkpt lat="47.2407" lon="-2.29605">
        <ele>53</ele>
        <time>2019-06-20T08:09:27.000Z</time>
      </trkpt>
      <trkpt lat="47.24074" lon="-2.29601">
        <ele>53</ele>
        <time>2019-06-20T08:09:28.000Z</time>
      </trkpt>
      <trkpt lat="47.24096" lon="-2.29586">
        <ele>53</ele>
        <time>2019-06-20T08:09:32.000Z</time>
      </trkpt>
      <trkpt lat="47.24103" lon="-2.29573">
        <ele>53</ele>
        <time>2019-06-20T08:09:34.000Z</time>
      </trkpt>
      <trkpt lat="47.24103" lon="-2.29548">
        <ele>53</ele>
        <time>2019-06-20T08:09:37.000Z</time>
      </trkpt>
      <trkpt lat="47.24102" lon="-2.29531">
        <ele>52.599998474121</ele>
        <time>2019-06-20T08:09:39.000Z</time>
      </trkpt>
      <trkpt lat="47.241" lon="-2.29523">
        <ele>52.200000762939</ele>
        <time>2019-06-20T08:09:40.000Z</time>
      </trkpt>
      <trkpt lat="47.24098" lon="-2.29515">
        <ele>51.799999237061</ele>
        <time>2019-06-20T08:09:41.000Z</time>
      </trkpt>
      <trkpt lat="47.24096" lon="-2.29506">
        <ele>51.400001525879</ele>
        <time>2019-06-20T08:09:42.000Z</time>
      </trkpt>
      <trkpt lat="47.24095" lon="-2.29498">
        <ele>50.799999237061</ele>
        <time>2019-06-20T08:09:43.000Z</time>
      </trkpt>
      <trkpt lat="47.24096" lon="-2.29489">
        <ele>50.799999237061</ele>
        <time>2019-06-20T08:09:44.000Z</time>
      </trkpt>
      <trkpt lat="47.24107" lon="-2.29471">
        <ele>50.799999237061</ele>
        <time>2019-06-20T08:09:47.000Z</time>
      </trkpt>
      <trkpt lat="47.24111" lon="-2.29467">
        <ele>50.799999237061</ele>
        <time>2019-06-20T08:09:48.000Z</time>
      </trkpt>
      <trkpt lat="47.24133" lon="-2.29455">
        <ele>50.799999237061</ele>
        <time>2019-06-20T08:09:52.000Z</time>
      </trkpt>
      <trkpt lat="47.24159" lon="-2.29444">
        <ele>50.799999237061</ele>
        <time>2019-06-20T08:09:56.000Z</time>
      </trkpt>
      <trkpt lat="47.24172" lon="-2.29442">
        <ele>50.799999237061</ele>
        <time>2019-06-20T08:09:58.000Z</time>
      </trkpt>
      <trkpt lat="47.24187" lon="-2.29444">
        <ele>50.400001525879</ele>
        <time>2019-06-20T08:10:00.000Z</time>
      </trkpt>
      <trkpt lat="47.24194" lon="-2.29446">
        <ele>50</ele>
        <time>2019-06-20T08:10:01.000Z</time>
      </trkpt>
      <trkpt lat="47.24202" lon="-2.29448">
        <ele>49.599998474121</ele>
        <time>2019-06-20T08:10:02.000Z</time>
      </trkpt>
      <trkpt lat="47.24209" lon="-2.29451">
        <ele>49.200000762939</ele>
        <time>2019-06-20T08:10:03.000Z</time>
      </trkpt>
      <trkpt lat="47.24215" lon="-2.29455">
        <ele>48.799999237061</ele>
        <time>2019-06-20T08:10:04.000Z</time>
      </trkpt>
      <trkpt lat="47.24229" lon="-2.29463">
        <ele>48.799999237061</ele>
        <time>2019-06-20T08:10:06.000Z</time>
      </trkpt>
      <trkpt lat="47.24236" lon="-2.29465">
        <ele>48.799999237061</ele>
        <time>2019-06-20T08:10:07.000Z</time>
      </trkpt>
      <trkpt lat="47.2425" lon="-2.29465">
        <ele>48.799999237061</ele>
        <time>2019-06-20T08:10:09.000Z</time>
      </trkpt>
      <trkpt lat="47.24276" lon="-2.2945">
        <ele>48.799999237061</ele>
        <time>2019-06-20T08:10:13.000Z</time>
      </trkpt>
      <trkpt lat="47.24293" lon="-2.29439">
        <ele>48.400001525879</ele>
        <time>2019-06-20T08:10:16.000Z</time>
      </trkpt>
      <trkpt lat="47.24299" lon="-2.29436">
        <ele>48</ele>
        <time>2019-06-20T08:10:17.000Z</time>
      </trkpt>
      <trkpt lat="47.24305" lon="-2.29436">
        <ele>47.599998474121</ele>
        <time>2019-06-20T08:10:18.000Z</time>
      </trkpt>
      <trkpt lat="47.24312" lon="-2.29438">
        <ele>47.200000762939</ele>
        <time>2019-06-20T08:10:19.000Z</time>
      </trkpt>
      <trkpt lat="47.24319" lon="-2.2944">
        <ele>46.799999237061</ele>
        <time>2019-06-20T08:10:20.000Z</time>
      </trkpt>
      <trkpt lat="47.24325" lon="-2.29444">
        <ele>46.799999237061</ele>
        <time>2019-06-20T08:10:21.000Z</time>
      </trkpt>
      <trkpt lat="47.24352" lon="-2.29469">
        <ele>46.799999237061</ele>
        <time>2019-06-20T08:10:26.000Z</time>
      </trkpt>
      <trkpt lat="47.24357" lon="-2.29472">
        <ele>46.799999237061</ele>
        <time>2019-06-20T08:10:27.000Z</time>
      </trkpt>
      <trkpt lat="47.24365" lon="-2.29473">
        <ele>46.799999237061</ele>
        <time>2019-06-20T08:10:29.000Z</time>
      </trkpt>
      <trkpt lat="47.2438" lon="-2.29458">
        <ele>46.799999237061</ele>
        <time>2019-06-20T08:10:32.000Z</time>
      </trkpt>
      <trkpt lat="47.24395" lon="-2.29441">
        <ele>46.799999237061</ele>
        <time>2019-06-20T08:10:35.000Z</time>
      </trkpt>
      <trkpt lat="47.24407" lon="-2.29437">
        <ele>46.799999237061</ele>
        <time>2019-06-20T08:10:37.000Z</time>
      </trkpt>
      <trkpt lat="47.24419" lon="-2.29435">
        <ele>47.200000762939</ele>
        <time>2019-06-20T08:10:39.000Z</time>
      </trkpt>
      <trkpt lat="47.24424" lon="-2.29435">
        <ele>47.599998474121</ele>
        <time>2019-06-20T08:10:40.000Z</time>
      </trkpt>
      <trkpt lat="47.2443" lon="-2.29434">
        <ele>48</ele>
        <time>2019-06-20T08:10:41.000Z</time>
      </trkpt>
      <trkpt lat="47.24435" lon="-2.29433">
        <ele>48.400001525879</ele>
        <time>2019-06-20T08:10:42.000Z</time>
      </trkpt>
      <trkpt lat="47.2444" lon="-2.29432">
        <ele>48.799999237061</ele>
        <time>2019-06-20T08:10:43.000Z</time>
      </trkpt>
      <trkpt lat="47.2447" lon="-2.29427">
        <ele>49.200000762939</ele>
        <time>2019-06-20T08:10:49.000Z</time>
      </trkpt>
      <trkpt lat="47.24475" lon="-2.29426">
        <ele>49.599998474121</ele>
        <time>2019-06-20T08:10:50.000Z</time>
      </trkpt>
      <trkpt lat="47.24479" lon="-2.29426">
        <ele>50.200000762939</ele>
        <time>2019-06-20T08:10:51.000Z</time>
      </trkpt>
      <trkpt lat="47.24484" lon="-2.29425">
        <ele>50.599998474121</ele>
        <time>2019-06-20T08:10:52.000Z</time>
      </trkpt>
      <trkpt lat="47.24489" lon="-2.29424">
        <ele>51</ele>
        <time>2019-06-20T08:10:53.000Z</time>
      </trkpt>
      <trkpt lat="47.24503" lon="-2.29421">
        <ele>51</ele>
        <time>2019-06-20T08:10:56.000Z</time>
      </trkpt>
      <trkpt lat="47.24512" lon="-2.29417">
        <ele>51</ele>
        <time>2019-06-20T08:10:58.000Z</time>
      </trkpt>
      <trkpt lat="47.24517" lon="-2.29407">
        <ele>51</ele>
        <time>2019-06-20T08:11:00.000Z</time>
      </trkpt>
      <trkpt lat="47.2452" lon="-2.29394">
        <ele>51.400001525879</ele>
        <time>2019-06-20T08:11:02.000Z</time>
      </trkpt>
      <trkpt lat="47.2452" lon="-2.29387">
        <ele>51.799999237061</ele>
        <time>2019-06-20T08:11:03.000Z</time>
      </trkpt>
      <trkpt lat="47.24519" lon="-2.2938">
        <ele>52.400001525879</ele>
        <time>2019-06-20T08:11:04.000Z</time>
      </trkpt>
      <trkpt lat="47.24517" lon="-2.29373">
        <ele>52.799999237061</ele>
        <time>2019-06-20T08:11:05.000Z</time>
      </trkpt>
      <trkpt lat="47.24516" lon="-2.29365">
        <ele>53.200000762939</ele>
        <time>2019-06-20T08:11:06.000Z</time>
      </trkpt>
      <trkpt lat="47.24513" lon="-2.29342">
        <ele>53.200000762939</ele>
        <time>2019-06-20T08:11:09.000Z</time>
      </trkpt>
      <trkpt lat="47.24513" lon="-2.29325">
        <ele>53.200000762939</ele>
        <time>2019-06-20T08:11:11.000Z</time>
      </trkpt>
      <trkpt lat="47.24511" lon="-2.29261">
        <ele>53.200000762939</ele>
        <time>2019-06-20T08:11:18.000Z</time>
      </trkpt>
      <trkpt lat="47.24515" lon="-2.29204">
        <ele>53.200000762939</ele>
        <time>2019-06-20T08:11:24.000Z</time>
      </trkpt>
      <trkpt lat="47.24527" lon="-2.29147">
        <ele>53.200000762939</ele>
        <time>2019-06-20T08:11:30.000Z</time>
      </trkpt>
      <trkpt lat="47.24546" lon="-2.29078">
        <ele>53.200000762939</ele>
        <time>2019-06-20T08:11:38.000Z</time>
      </trkpt>
      <trkpt lat="47.24548" lon="-2.29061">
        <ele>52.799999237061</ele>
        <time>2019-06-20T08:11:40.000Z</time>
      </trkpt>
      <trkpt lat="47.24549" lon="-2.29053">
        <ele>52.400001525879</ele>
        <time>2019-06-20T08:11:41.000Z</time>
      </trkpt>
      <trkpt lat="47.2455" lon="-2.29044">
        <ele>52</ele>
        <time>2019-06-20T08:11:42.000Z</time>
      </trkpt>
      <trkpt lat="47.24551" lon="-2.29036">
        <ele>51.400001525879</ele>
        <time>2019-06-20T08:11:43.000Z</time>
      </trkpt>
      <trkpt lat="47.24552" lon="-2.29028">
        <ele>51</ele>
        <time>2019-06-20T08:11:44.000Z</time>
      </trkpt>
      <trkpt lat="47.24553" lon="-2.29019">
        <ele>51</ele>
        <time>2019-06-20T08:11:45.000Z</time>
      </trkpt>
      <trkpt lat="47.24553" lon="-2.29002">
        <ele>51</ele>
        <time>2019-06-20T08:11:47.000Z</time>
      </trkpt>
      <trkpt lat="47.2455" lon="-2.28985">
        <ele>51</ele>
        <time>2019-06-20T08:11:49.000Z</time>
      </trkpt>
      <trkpt lat="47.24545" lon="-2.2897">
        <ele>51</ele>
        <time>2019-06-20T08:11:51.000Z</time>
      </trkpt>
      <trkpt lat="47.24539" lon="-2.28946">
        <ele>51</ele>
        <time>2019-06-20T08:11:54.000Z</time>
      </trkpt>
      <trkpt lat="47.24526" lon="-2.28905">
        <ele>50.599998474121</ele>
        <time>2019-06-20T08:11:59.000Z</time>
      </trkpt>
      <trkpt lat="47.24523" lon="-2.28896">
        <ele>50.200000762939</ele>
        <time>2019-06-20T08:12:00.000Z</time>
      </trkpt>
      <trkpt lat="47.24521" lon="-2.28887">
        <ele>49.799999237061</ele>
        <time>2019-06-20T08:12:01.000Z</time>
      </trkpt>
      <trkpt lat="47.24521" lon="-2.28878">
        <ele>49.400001525879</ele>
        <time>2019-06-20T08:12:02.000Z</time>
      </trkpt>
      <trkpt lat="47.24523" lon="-2.28869">
        <ele>49</ele>
        <time>2019-06-20T08:12:03.000Z</time>
      </trkpt>
      <trkpt lat="47.24535" lon="-2.28849">
        <ele>49</ele>
        <time>2019-06-20T08:12:06.000Z</time>
      </trkpt>
      <trkpt lat="47.24545" lon="-2.28842">
        <ele>49</ele>
        <time>2019-06-20T08:12:08.000Z</time>
      </trkpt>
      <trkpt lat="47.24554" lon="-2.28833">
        <ele>49</ele>
        <time>2019-06-20T08:12:10.000Z</time>
      </trkpt>
      <trkpt lat="47.24558" lon="-2.28828">
        <ele>49</ele>
        <time>2019-06-20T08:12:11.000Z</time>
      </trkpt>
      <trkpt lat="47.24575" lon="-2.28809">
        <ele>49</ele>
        <time>2019-06-20T08:12:15.000Z</time>
      </trkpt>
      <trkpt lat="47.24584" lon="-2.28801">
        <ele>49</ele>
        <time>2019-06-20T08:12:17.000Z</time>
      </trkpt>
      <trkpt lat="47.24599" lon="-2.28789">
        <ele>49</ele>
        <time>2019-06-20T08:12:20.000Z</time>
      </trkpt>
      <trkpt lat="47.24609" lon="-2.2878">
        <ele>49</ele>
        <time>2019-06-20T08:12:22.000Z</time>
      </trkpt>
      <trkpt lat="47.24619" lon="-2.28769">
        <ele>49</ele>
        <time>2019-06-20T08:12:24.000Z</time>
      </trkpt>
      <trkpt lat="47.24633" lon="-2.28749">
        <ele>49</ele>
        <time>2019-06-20T08:12:27.000Z</time>
      </trkpt>
      <trkpt lat="47.24661" lon="-2.28711">
        <ele>49</ele>
        <time>2019-06-20T08:12:33.000Z</time>
      </trkpt>
      <trkpt lat="47.24676" lon="-2.28694">
        <ele>49</ele>
        <time>2019-06-20T08:12:36.000Z</time>
      </trkpt>
      <trkpt lat="47.24689" lon="-2.28674">
        <ele>49</ele>
        <time>2019-06-20T08:12:39.000Z</time>
      </trkpt>
      <trkpt lat="47.24697" lon="-2.28662">
        <ele>49</ele>
        <time>2019-06-20T08:12:41.000Z</time>
      </trkpt>
      <trkpt lat="47.2471" lon="-2.28648">
        <ele>49</ele>
        <time>2019-06-20T08:12:44.000Z</time>
      </trkpt>
      <trkpt lat="47.24736" lon="-2.28617">
        <ele>49</ele>
        <time>2019-06-20T08:12:50.000Z</time>
      </trkpt>
      <trkpt lat="47.24742" lon="-2.28587">
        <ele>49</ele>
        <time>2019-06-20T08:12:54.000Z</time>
      </trkpt>
      <trkpt lat="47.24745" lon="-2.28572">
        <ele>49</ele>
        <time>2019-06-20T08:12:56.000Z</time>
      </trkpt>
      <trkpt lat="47.24752" lon="-2.28559">
        <ele>49</ele>
        <time>2019-06-20T08:12:58.000Z</time>
      </trkpt>
      <trkpt lat="47.24766" lon="-2.28544">
        <ele>49</ele>
        <time>2019-06-20T08:13:01.000Z</time>
      </trkpt>
      <trkpt lat="47.24776" lon="-2.28534">
        <ele>49</ele>
        <time>2019-06-20T08:13:03.000Z</time>
      </trkpt>
      <trkpt lat="47.24781" lon="-2.28529">
        <ele>49.400001525879</ele>
        <time>2019-06-20T08:13:04.000Z</time>
      </trkpt>
      <trkpt lat="47.24786" lon="-2.28524">
        <ele>49.799999237061</ele>
        <time>2019-06-20T08:13:05.000Z</time>
      </trkpt>
      <trkpt lat="47.24792" lon="-2.28519">
        <ele>50.200000762939</ele>
        <time>2019-06-20T08:13:06.000Z</time>
      </trkpt>
      <trkpt lat="47.24797" lon="-2.28514">
        <ele>50.599998474121</ele>
        <time>2019-06-20T08:13:07.000Z</time>
      </trkpt>
      <trkpt lat="47.24803" lon="-2.2851">
        <ele>51</ele>
        <time>2019-06-20T08:13:08.000Z</time>
      </trkpt>
      <trkpt lat="47.24814" lon="-2.28502">
        <ele>51</ele>
        <time>2019-06-20T08:13:10.000Z</time>
      </trkpt>
      <trkpt lat="47.24844" lon="-2.28479">
        <ele>51</ele>
        <time>2019-06-20T08:13:15.000Z</time>
      </trkpt>
      <trkpt lat="47.24879" lon="-2.28441">
        <ele>50.599998474121</ele>
        <time>2019-06-20T08:13:21.000Z</time>
      </trkpt>
      <trkpt lat="47.24885" lon="-2.28434">
        <ele>50.200000762939</ele>
        <time>2019-06-20T08:13:22.000Z</time>
      </trkpt>
      <trkpt lat="47.24892" lon="-2.28429">
        <ele>49.799999237061</ele>
        <time>2019-06-20T08:13:23.000Z</time>
      </trkpt>
      <trkpt lat="47.24898" lon="-2.28425">
        <ele>49.400001525879</ele>
        <time>2019-06-20T08:13:24.000Z</time>
      </trkpt>
      <trkpt lat="47.24905" lon="-2.28421">
        <ele>49</ele>
        <time>2019-06-20T08:13:25.000Z</time>
      </trkpt>
      <trkpt lat="47.24913" lon="-2.28418">
        <ele>49</ele>
        <time>2019-06-20T08:13:26.000Z</time>
      </trkpt>
      <trkpt lat="47.24936" lon="-2.28408">
        <ele>48.599998474121</ele>
        <time>2019-06-20T08:13:29.000Z</time>
      </trkpt>
      <trkpt lat="47.24944" lon="-2.28406">
        <ele>48.200000762939</ele>
        <time>2019-06-20T08:13:30.000Z</time>
      </trkpt>
      <trkpt lat="47.24952" lon="-2.28403">
        <ele>47.799999237061</ele>
        <time>2019-06-20T08:13:31.000Z</time>
      </trkpt>
      <trkpt lat="47.24959" lon="-2.28399">
        <ele>47.400001525879</ele>
        <time>2019-06-20T08:13:32.000Z</time>
      </trkpt>
      <trkpt lat="47.24967" lon="-2.28394">
        <ele>47</ele>
        <time>2019-06-20T08:13:33.000Z</time>
      </trkpt>
      <trkpt lat="47.24975" lon="-2.28389">
        <ele>46.599998474121</ele>
        <time>2019-06-20T08:13:34.000Z</time>
      </trkpt>
      <trkpt lat="47.24982" lon="-2.28381">
        <ele>46.200000762939</ele>
        <time>2019-06-20T08:13:35.000Z</time>
      </trkpt>
      <trkpt lat="47.24987" lon="-2.28371">
        <ele>45.799999237061</ele>
        <time>2019-06-20T08:13:36.000Z</time>
      </trkpt>
      <trkpt lat="47.24991" lon="-2.28361">
        <ele>45</ele>
        <time>2019-06-20T08:13:37.000Z</time>
      </trkpt>
      <trkpt lat="47.24995" lon="-2.28352">
        <ele>45</ele>
        <time>2019-06-20T08:13:38.000Z</time>
      </trkpt>
      <trkpt lat="47.25" lon="-2.28343">
        <ele>45</ele>
        <time>2019-06-20T08:13:39.000Z</time>
      </trkpt>
      <trkpt lat="47.2501" lon="-2.2833">
        <ele>45</ele>
        <time>2019-06-20T08:13:41.000Z</time>
      </trkpt>
      <trkpt lat="47.25021" lon="-2.28321">
        <ele>45</ele>
        <time>2019-06-20T08:13:43.000Z</time>
      </trkpt>
      <trkpt lat="47.25025" lon="-2.28315">
        <ele>45</ele>
        <time>2019-06-20T08:13:44.000Z</time>
      </trkpt>
      <trkpt lat="47.25027" lon="-2.28308">
        <ele>45</ele>
        <time>2019-06-20T08:13:45.000Z</time>
      </trkpt>
      <trkpt lat="47.25031" lon="-2.28268">
        <ele>45</ele>
        <time>2019-06-20T08:13:50.000Z</time>
      </trkpt>
      <trkpt lat="47.25038" lon="-2.28232">
        <ele>45</ele>
        <time>2019-06-20T08:13:54.000Z</time>
      </trkpt>
      <trkpt lat="47.2504" lon="-2.28224">
        <ele>45.400001525879</ele>
        <time>2019-06-20T08:13:55.000Z</time>
      </trkpt>
      <trkpt lat="47.25041" lon="-2.28215">
        <ele>45.799999237061</ele>
        <time>2019-06-20T08:13:56.000Z</time>
      </trkpt>
      <trkpt lat="47.25043" lon="-2.28206">
        <ele>46.200000762939</ele>
        <time>2019-06-20T08:13:57.000Z</time>
      </trkpt>
      <trkpt lat="47.25044" lon="-2.28197">
        <ele>46.799999237061</ele>
        <time>2019-06-20T08:13:58.000Z</time>
      </trkpt>
      <trkpt lat="47.25047" lon="-2.28191">
        <ele>47.200000762939</ele>
        <time>2019-06-20T08:13:59.000Z</time>
      </trkpt>
      <trkpt lat="47.25049" lon="-2.28184">
        <ele>47.200000762939</ele>
        <time>2019-06-20T08:14:00.000Z</time>
      </trkpt>
      <trkpt lat="47.25062" lon="-2.28142">
        <ele>47.200000762939</ele>
        <time>2019-06-20T08:14:06.000Z</time>
      </trkpt>
      <trkpt lat="47.25073" lon="-2.28107">
        <ele>47.200000762939</ele>
        <time>2019-06-20T08:14:11.000Z</time>
      </trkpt>
      <trkpt lat="47.25079" lon="-2.2808">
        <ele>47.200000762939</ele>
        <time>2019-06-20T08:14:14.000Z</time>
      </trkpt>
      <trkpt lat="47.25082" lon="-2.28072">
        <ele>47.200000762939</ele>
        <time>2019-06-20T08:14:15.000Z</time>
      </trkpt>
      <trkpt lat="47.25089" lon="-2.28057">
        <ele>47.200000762939</ele>
        <time>2019-06-20T08:14:17.000Z</time>
      </trkpt>
      <trkpt lat="47.25101" lon="-2.28025">
        <ele>47.200000762939</ele>
        <time>2019-06-20T08:14:21.000Z</time>
      </trkpt>
      <trkpt lat="47.25121" lon="-2.27981">
        <ele>47.200000762939</ele>
        <time>2019-06-20T08:14:27.000Z</time>
      </trkpt>
      <trkpt lat="47.25125" lon="-2.27974">
        <ele>47.200000762939</ele>
        <time>2019-06-20T08:14:28.000Z</time>
      </trkpt>
      <trkpt lat="47.25129" lon="-2.27968">
        <ele>47.599998474121</ele>
        <time>2019-06-20T08:14:29.000Z</time>
      </trkpt>
      <trkpt lat="47.25133" lon="-2.27962">
        <ele>48</ele>
        <time>2019-06-20T08:14:30.000Z</time>
      </trkpt>
      <trkpt lat="47.25137" lon="-2.27956">
        <ele>48.400001525879</ele>
        <time>2019-06-20T08:14:31.000Z</time>
      </trkpt>
      <trkpt lat="47.25142" lon="-2.27951">
        <ele>48.799999237061</ele>
        <time>2019-06-20T08:14:32.000Z</time>
      </trkpt>
      <trkpt lat="47.25147" lon="-2.27946">
        <ele>49.200000762939</ele>
        <time>2019-06-20T08:14:33.000Z</time>
      </trkpt>
      <trkpt lat="47.25152" lon="-2.27942">
        <ele>49.200000762939</ele>
        <time>2019-06-20T08:14:34.000Z</time>
      </trkpt>
      <trkpt lat="47.2518" lon="-2.27922">
        <ele>49.200000762939</ele>
        <time>2019-06-20T08:14:39.000Z</time>
      </trkpt>
      <trkpt lat="47.25208" lon="-2.27905">
        <ele>49.200000762939</ele>
        <time>2019-06-20T08:14:44.000Z</time>
      </trkpt>
      <trkpt lat="47.25214" lon="-2.27903">
        <ele>49.599998474121</ele>
        <time>2019-06-20T08:14:45.000Z</time>
      </trkpt>
      <trkpt lat="47.25219" lon="-2.279">
        <ele>50</ele>
        <time>2019-06-20T08:14:46.000Z</time>
      </trkpt>
      <trkpt lat="47.25225" lon="-2.27897">
        <ele>50.400001525879</ele>
        <time>2019-06-20T08:14:47.000Z</time>
      </trkpt>
      <trkpt lat="47.25231" lon="-2.27894">
        <ele>50.799999237061</ele>
        <time>2019-06-20T08:14:48.000Z</time>
      </trkpt>
      <trkpt lat="47.25236" lon="-2.27891">
        <ele>51.200000762939</ele>
        <time>2019-06-20T08:14:49.000Z</time>
      </trkpt>
      <trkpt lat="47.25248" lon="-2.27885">
        <ele>51.200000762939</ele>
        <time>2019-06-20T08:14:51.000Z</time>
      </trkpt>
      <trkpt lat="47.25266" lon="-2.27878">
        <ele>51.200000762939</ele>
        <time>2019-06-20T08:14:54.000Z</time>
      </trkpt>
      <trkpt lat="47.25285" lon="-2.27873">
        <ele>51.200000762939</ele>
        <time>2019-06-20T08:14:57.000Z</time>
      </trkpt>
      <trkpt lat="47.25297" lon="-2.27872">
        <ele>51.200000762939</ele>
        <time>2019-06-20T08:14:59.000Z</time>
      </trkpt>
      <trkpt lat="47.25326" lon="-2.27866">
        <ele>51.200000762939</ele>
        <time>2019-06-20T08:15:04.000Z</time>
      </trkpt>
      <trkpt lat="47.25338" lon="-2.27865">
        <ele>51.200000762939</ele>
        <time>2019-06-20T08:15:06.000Z</time>
      </trkpt>
      <trkpt lat="47.25344" lon="-2.27865">
        <ele>51.599998474121</ele>
        <time>2019-06-20T08:15:07.000Z</time>
      </trkpt>
      <trkpt lat="47.2535" lon="-2.27863">
        <ele>52.200000762939</ele>
        <time>2019-06-20T08:15:08.000Z</time>
      </trkpt>
      <trkpt lat="47.25356" lon="-2.27861">
        <ele>52.599998474121</ele>
        <time>2019-06-20T08:15:09.000Z</time>
      </trkpt>
      <trkpt lat="47.25362" lon="-2.27859">
        <ele>53</ele>
        <time>2019-06-20T08:15:10.000Z</time>
      </trkpt>
      <trkpt lat="47.25368" lon="-2.27856">
        <ele>53.400001525879</ele>
        <time>2019-06-20T08:15:11.000Z</time>
      </trkpt>
      <trkpt lat="47.2538" lon="-2.27853">
        <ele>53.400001525879</ele>
        <time>2019-06-20T08:15:13.000Z</time>
      </trkpt>
      <trkpt lat="47.25392" lon="-2.27849">
        <ele>53.400001525879</ele>
        <time>2019-06-20T08:15:15.000Z</time>
      </trkpt>
      <trkpt lat="47.25425" lon="-2.27832">
        <ele>53.400001525879</ele>
        <time>2019-06-20T08:15:21.000Z</time>
      </trkpt>
      <trkpt lat="47.25436" lon="-2.27824">
        <ele>53.400001525879</ele>
        <time>2019-06-20T08:15:23.000Z</time>
      </trkpt>
      <trkpt lat="47.25451" lon="-2.27809">
        <ele>53.400001525879</ele>
        <time>2019-06-20T08:15:26.000Z</time>
      </trkpt>
      <trkpt lat="47.25472" lon="-2.27783">
        <ele>53.799999237061</ele>
        <time>2019-06-20T08:15:31.000Z</time>
      </trkpt>
      <trkpt lat="47.25475" lon="-2.27779">
        <ele>54.200000762939</ele>
        <time>2019-06-20T08:15:32.000Z</time>
      </trkpt>
      <trkpt lat="47.25479" lon="-2.27775">
        <ele>54.599998474121</ele>
        <time>2019-06-20T08:15:33.000Z</time>
      </trkpt>
      <trkpt lat="47.25483" lon="-2.2777">
        <ele>55</ele>
        <time>2019-06-20T08:15:34.000Z</time>
      </trkpt>
      <trkpt lat="47.25487" lon="-2.27767">
        <ele>55.599998474121</ele>
        <time>2019-06-20T08:15:35.000Z</time>
      </trkpt>
      <trkpt lat="47.25493" lon="-2.27759">
        <ele>55.599998474121</ele>
        <time>2019-06-20T08:15:37.000Z</time>
      </trkpt>
      <trkpt lat="47.25502" lon="-2.27734">
        <ele>55.599998474121</ele>
        <time>2019-06-20T08:15:42.000Z</time>
      </trkpt>
      <trkpt lat="47.25501" lon="-2.27722">
        <ele>55.599998474121</ele>
        <time>2019-06-20T08:15:44.000Z</time>
      </trkpt>
      <trkpt lat="47.255" lon="-2.27715">
        <ele>55.599998474121</ele>
        <time>2019-06-20T08:15:45.000Z</time>
      </trkpt>
      <trkpt lat="47.2549" lon="-2.27669">
        <ele>55.599998474121</ele>
        <time>2019-06-20T08:15:52.000Z</time>
      </trkpt>
      <trkpt lat="47.25485" lon="-2.27639">
        <ele>55.599998474121</ele>
        <time>2019-06-20T08:15:58.000Z</time>
      </trkpt>
      <trkpt lat="47.25482" lon="-2.27627">
        <ele>55.599998474121</ele>
        <time>2019-06-20T08:16:02.000Z</time>
      </trkpt>
      <trkpt lat="47.25472" lon="-2.27612">
        <ele>55.599998474121</ele>
        <time>2019-06-20T08:16:07.000Z</time>
      </trkpt>
      <trkpt lat="47.25466" lon="-2.27604">
        <ele>55.599998474121</ele>
        <time>2019-06-20T08:16:09.000Z</time>
      </trkpt>
      <trkpt lat="47.25461" lon="-2.27592">
        <ele>55.599998474121</ele>
        <time>2019-06-20T08:16:11.000Z</time>
      </trkpt>
      <trkpt lat="47.25458" lon="-2.27579">
        <ele>55.599998474121</ele>
        <time>2019-06-20T08:16:13.000Z</time>
      </trkpt>
      <trkpt lat="47.25453" lon="-2.27561">
        <ele>55.599998474121</ele>
        <time>2019-06-20T08:16:16.000Z</time>
      </trkpt>
      <trkpt lat="47.25452" lon="-2.27555">
        <ele>55.599998474121</ele>
        <time>2019-06-20T08:16:17.000Z</time>
      </trkpt>
      <trkpt lat="47.25448" lon="-2.27537">
        <ele>55.599998474121</ele>
        <time>2019-06-20T08:16:20.000Z</time>
      </trkpt>
      <trkpt lat="47.25447" lon="-2.27526">
        <ele>55.599998474121</ele>
        <time>2019-06-20T08:16:22.000Z</time>
      </trkpt>
      <trkpt lat="47.25441" lon="-2.27508">
        <ele>55.599998474121</ele>
        <time>2019-06-20T08:16:25.000Z</time>
      </trkpt>
      <trkpt lat="47.25437" lon="-2.27503">
        <ele>55.599998474121</ele>
        <time>2019-06-20T08:16:26.000Z</time>
      </trkpt>
      <trkpt lat="47.25428" lon="-2.27492">
        <ele>55.599998474121</ele>
        <time>2019-06-20T08:16:28.000Z</time>
      </trkpt>
      <trkpt lat="47.2542" lon="-2.27476">
        <ele>55.599998474121</ele>
        <time>2019-06-20T08:16:30.000Z</time>
      </trkpt>
      <trkpt lat="47.25414" lon="-2.27461">
        <ele>55.599998474121</ele>
        <time>2019-06-20T08:16:32.000Z</time>
      </trkpt>
      <trkpt lat="47.25408" lon="-2.27445">
        <ele>55.599998474121</ele>
        <time>2019-06-20T08:16:34.000Z</time>
      </trkpt>
      <trkpt lat="47.25405" lon="-2.27436">
        <ele>55.599998474121</ele>
        <time>2019-06-20T08:16:35.000Z</time>
      </trkpt>
      <trkpt lat="47.25395" lon="-2.27399">
        <ele>55.599998474121</ele>
        <time>2019-06-20T08:16:40.000Z</time>
      </trkpt>
      <trkpt lat="47.25389" lon="-2.27383">
        <ele>55.599998474121</ele>
        <time>2019-06-20T08:16:44.000Z</time>
      </trkpt>
      <trkpt lat="47.25375" lon="-2.27382">
        <ele>55.599998474121</ele>
        <time>2019-06-20T08:16:48.000Z</time>
      </trkpt>
      <trkpt lat="47.25354" lon="-2.27382">
        <ele>55.599998474121</ele>
        <time>2019-06-20T08:16:53.000Z</time>
      </trkpt>
      <trkpt lat="47.25346" lon="-2.27381">
        <ele>55.599998474121</ele>
        <time>2019-06-20T08:16:55.000Z</time>
      </trkpt>
      <trkpt lat="47.25335" lon="-2.27367">
        <ele>55.599998474121</ele>
        <time>2019-06-20T08:16:58.000Z</time>
      </trkpt>
      <trkpt lat="47.25335" lon="-2.27342">
        <ele>55.599998474121</ele>
        <time>2019-06-20T08:17:01.000Z</time>
      </trkpt>
      <trkpt lat="47.25329" lon="-2.27309">
        <ele>55.599998474121</ele>
        <time>2019-06-20T08:17:05.000Z</time>
      </trkpt>
      <trkpt lat="47.25322" lon="-2.27286">
        <ele>55.599998474121</ele>
        <time>2019-06-20T08:17:08.000Z</time>
      </trkpt>
      <trkpt lat="47.25313" lon="-2.27262">
        <ele>55.599998474121</ele>
        <time>2019-06-20T08:17:11.000Z</time>
      </trkpt>
      <trkpt lat="47.2531" lon="-2.27252">
        <ele>55.599998474121</ele>
        <time>2019-06-20T08:17:12.000Z</time>
      </trkpt>
      <trkpt lat="47.25303" lon="-2.27235">
        <ele>56</ele>
        <time>2019-06-20T08:17:14.000Z</time>
      </trkpt>
      <trkpt lat="47.25299" lon="-2.27227">
        <ele>56.400001525879</ele>
        <time>2019-06-20T08:17:15.000Z</time>
      </trkpt>
      <trkpt lat="47.25296" lon="-2.27219">
        <ele>56.799999237061</ele>
        <time>2019-06-20T08:17:16.000Z</time>
      </trkpt>
      <trkpt lat="47.25294" lon="-2.27211">
        <ele>57.200000762939</ele>
        <time>2019-06-20T08:17:17.000Z</time>
      </trkpt>
      <trkpt lat="47.25291" lon="-2.27202">
        <ele>57.799999237061</ele>
        <time>2019-06-20T08:17:18.000Z</time>
      </trkpt>
      <trkpt lat="47.25288" lon="-2.27195">
        <ele>57.799999237061</ele>
        <time>2019-06-20T08:17:19.000Z</time>
      </trkpt>
      <trkpt lat="47.25266" lon="-2.27159">
        <ele>57.799999237061</ele>
        <time>2019-06-20T08:17:24.000Z</time>
      </trkpt>
      <trkpt lat="47.25252" lon="-2.2714">
        <ele>57.799999237061</ele>
        <time>2019-06-20T08:17:27.000Z</time>
      </trkpt>
      <trkpt lat="47.25243" lon="-2.27126">
        <ele>57.799999237061</ele>
        <time>2019-06-20T08:17:29.000Z</time>
      </trkpt>
      <trkpt lat="47.25218" lon="-2.27077">
        <ele>57.799999237061</ele>
        <time>2019-06-20T08:17:35.000Z</time>
      </trkpt>
      <trkpt lat="47.25213" lon="-2.27069">
        <ele>57.799999237061</ele>
        <time>2019-06-20T08:17:36.000Z</time>
      </trkpt>
      <trkpt lat="47.25197" lon="-2.27035">
        <ele>57.799999237061</ele>
        <time>2019-06-20T08:17:40.000Z</time>
      </trkpt>
      <trkpt lat="47.25193" lon="-2.27027">
        <ele>57.799999237061</ele>
        <time>2019-06-20T08:17:41.000Z</time>
      </trkpt>
      <trkpt lat="47.25181" lon="-2.27004">
        <ele>57.799999237061</ele>
        <time>2019-06-20T08:17:44.000Z</time>
      </trkpt>
      <trkpt lat="47.25177" lon="-2.26981">
        <ele>57.799999237061</ele>
        <time>2019-06-20T08:17:47.000Z</time>
      </trkpt>
      <trkpt lat="47.25175" lon="-2.26972">
        <ele>57.200000762939</ele>
        <time>2019-06-20T08:17:49.000Z</time>
      </trkpt>
      <trkpt lat="47.25171" lon="-2.26971">
        <ele>56.799999237061</ele>
        <time>2019-06-20T08:17:50.000Z</time>
      </trkpt>
      <trkpt lat="47.25168" lon="-2.26973">
        <ele>56.400001525879</ele>
        <time>2019-06-20T08:17:51.000Z</time>
      </trkpt>
      <trkpt lat="47.25165" lon="-2.26972">
        <ele>56</ele>
        <time>2019-06-20T08:17:52.000Z</time>
      </trkpt>
      <trkpt lat="47.25162" lon="-2.26968">
        <ele>55.599998474121</ele>
        <time>2019-06-20T08:17:53.000Z</time>
      </trkpt>
      <trkpt lat="47.25154" lon="-2.26951">
        <ele>55.599998474121</ele>
        <time>2019-06-20T08:17:56.000Z</time>
      </trkpt>
      <trkpt lat="47.25137" lon="-2.26934">
        <ele>55.599998474121</ele>
        <time>2019-06-20T08:18:00.000Z</time>
      </trkpt>
      <trkpt lat="47.25134" lon="-2.26926">
        <ele>56.200000762939</ele>
        <time>2019-06-20T08:18:01.000Z</time>
      </trkpt>
      <trkpt lat="47.25131" lon="-2.26918">
        <ele>56.599998474121</ele>
        <time>2019-06-20T08:18:02.000Z</time>
      </trkpt>
      <trkpt lat="47.25128" lon="-2.26909">
        <ele>57</ele>
        <time>2019-06-20T08:18:03.000Z</time>
      </trkpt>
      <trkpt lat="47.25123" lon="-2.26902">
        <ele>57.400001525879</ele>
        <time>2019-06-20T08:18:04.000Z</time>
      </trkpt>
      <trkpt lat="47.25118" lon="-2.26898">
        <ele>58</ele>
        <time>2019-06-20T08:18:05.000Z</time>
      </trkpt>
      <trkpt lat="47.25106" lon="-2.26896">
        <ele>58</ele>
        <time>2019-06-20T08:18:07.000Z</time>
      </trkpt>
      <trkpt lat="47.25091" lon="-2.26879">
        <ele>58</ele>
        <time>2019-06-20T08:18:10.000Z</time>
      </trkpt>
      <trkpt lat="47.2507" lon="-2.26862">
        <ele>58</ele>
        <time>2019-06-20T08:18:14.000Z</time>
      </trkpt>
      <trkpt lat="47.25057" lon="-2.2686">
        <ele>58</ele>
        <time>2019-06-20T08:18:16.000Z</time>
      </trkpt>
      <trkpt lat="47.25046" lon="-2.26859">
        <ele>58</ele>
        <time>2019-06-20T08:18:18.000Z</time>
      </trkpt>
      <trkpt lat="47.25022" lon="-2.26866">
        <ele>58</ele>
        <time>2019-06-20T08:18:22.000Z</time>
      </trkpt>
      <trkpt lat="47.24983" lon="-2.26874">
        <ele>58</ele>
        <time>2019-06-20T08:18:28.000Z</time>
      </trkpt>
      <trkpt lat="47.24977" lon="-2.26873">
        <ele>58</ele>
        <time>2019-06-20T08:18:29.000Z</time>
      </trkpt>
      <trkpt lat="47.24958" lon="-2.26857">
        <ele>58</ele>
        <time>2019-06-20T08:18:32.000Z</time>
      </trkpt>
      <trkpt lat="47.24952" lon="-2.26852">
        <ele>58</ele>
        <time>2019-06-20T08:18:33.000Z</time>
      </trkpt>
      <trkpt lat="47.24933" lon="-2.26844">
        <ele>58</ele>
        <time>2019-06-20T08:18:36.000Z</time>
      </trkpt>
      <trkpt lat="47.24918" lon="-2.2683">
        <ele>58</ele>
        <time>2019-06-20T08:18:39.000Z</time>
      </trkpt>
      <trkpt lat="47.24913" lon="-2.26829">
        <ele>57.599998474121</ele>
        <time>2019-06-20T08:18:40.000Z</time>
      </trkpt>
      <trkpt lat="47.24909" lon="-2.26825">
        <ele>57</ele>
        <time>2019-06-20T08:18:41.000Z</time>
      </trkpt>
      <trkpt lat="47.24904" lon="-2.26823">
        <ele>56.599998474121</ele>
        <time>2019-06-20T08:18:42.000Z</time>
      </trkpt>
      <trkpt lat="47.249" lon="-2.26823">
        <ele>56.200000762939</ele>
        <time>2019-06-20T08:18:43.000Z</time>
      </trkpt>
      <trkpt lat="47.24894" lon="-2.26822">
        <ele>55.799999237061</ele>
        <time>2019-06-20T08:18:44.000Z</time>
      </trkpt>
      <trkpt lat="47.24888" lon="-2.26819">
        <ele>55.799999237061</ele>
        <time>2019-06-20T08:18:45.000Z</time>
      </trkpt>
      <trkpt lat="47.24882" lon="-2.26816">
        <ele>55.799999237061</ele>
        <time>2019-06-20T08:18:46.000Z</time>
      </trkpt>
      <trkpt lat="47.2487" lon="-2.26811">
        <ele>55.799999237061</ele>
        <time>2019-06-20T08:18:48.000Z</time>
      </trkpt>
      <trkpt lat="47.24857" lon="-2.26804">
        <ele>55.799999237061</ele>
        <time>2019-06-20T08:18:50.000Z</time>
      </trkpt>
      <trkpt lat="47.24837" lon="-2.26801">
        <ele>55.799999237061</ele>
        <time>2019-06-20T08:18:53.000Z</time>
      </trkpt>
      <trkpt lat="47.24829" lon="-2.26802">
        <ele>55.799999237061</ele>
        <time>2019-06-20T08:18:54.000Z</time>
      </trkpt>
      <trkpt lat="47.24822" lon="-2.26801">
        <ele>55.799999237061</ele>
        <time>2019-06-20T08:18:55.000Z</time>
      </trkpt>
      <trkpt lat="47.24808" lon="-2.26795">
        <ele>55.799999237061</ele>
        <time>2019-06-20T08:18:57.000Z</time>
      </trkpt>
      <trkpt lat="47.24779" lon="-2.26785">
        <ele>55.400001525879</ele>
        <time>2019-06-20T08:19:02.000Z</time>
      </trkpt>
      <trkpt lat="47.24775" lon="-2.26784">
        <ele>54.799999237061</ele>
        <time>2019-06-20T08:19:03.000Z</time>
      </trkpt>
      <trkpt lat="47.24771" lon="-2.26783">
        <ele>54.400001525879</ele>
        <time>2019-06-20T08:19:04.000Z</time>
      </trkpt>
      <trkpt lat="47.24767" lon="-2.26782">
        <ele>53.799999237061</ele>
        <time>2019-06-20T08:19:05.000Z</time>
      </trkpt>
      <trkpt lat="47.24762" lon="-2.26782">
        <ele>53.400001525879</ele>
        <time>2019-06-20T08:19:06.000Z</time>
      </trkpt>
      <trkpt lat="47.24757" lon="-2.26781">
        <ele>53.400001525879</ele>
        <time>2019-06-20T08:19:07.000Z</time>
      </trkpt>
      <trkpt lat="47.24738" lon="-2.2678">
        <ele>53</ele>
        <time>2019-06-20T08:19:10.000Z</time>
      </trkpt>
      <trkpt lat="47.24731" lon="-2.26779">
        <ele>52.599998474121</ele>
        <time>2019-06-20T08:19:11.000Z</time>
      </trkpt>
      <trkpt lat="47.24725" lon="-2.26779">
        <ele>52.200000762939</ele>
        <time>2019-06-20T08:19:12.000Z</time>
      </trkpt>
      <trkpt lat="47.24718" lon="-2.2678">
        <ele>51.599998474121</ele>
        <time>2019-06-20T08:19:13.000Z</time>
      </trkpt>
      <trkpt lat="47.24711" lon="-2.26781">
        <ele>51.200000762939</ele>
        <time>2019-06-20T08:19:14.000Z</time>
      </trkpt>
      <trkpt lat="47.24684" lon="-2.26784">
        <ele>51.200000762939</ele>
        <time>2019-06-20T08:19:18.000Z</time>
      </trkpt>
      <trkpt lat="47.2467" lon="-2.268">
        <ele>51.200000762939</ele>
        <time>2019-06-20T08:19:21.000Z</time>
      </trkpt>
      <trkpt lat="47.24658" lon="-2.26809">
        <ele>51.200000762939</ele>
        <time>2019-06-20T08:19:23.000Z</time>
      </trkpt>
      <trkpt lat="47.24652" lon="-2.26813">
        <ele>51.200000762939</ele>
        <time>2019-06-20T08:19:24.000Z</time>
      </trkpt>
      <trkpt lat="47.24646" lon="-2.26816">
        <ele>51.200000762939</ele>
        <time>2019-06-20T08:19:25.000Z</time>
      </trkpt>
      <trkpt lat="47.24639" lon="-2.26818">
        <ele>50.799999237061</ele>
        <time>2019-06-20T08:19:26.000Z</time>
      </trkpt>
      <trkpt lat="47.24632" lon="-2.26821">
        <ele>50.400001525879</ele>
        <time>2019-06-20T08:19:27.000Z</time>
      </trkpt>
      <trkpt lat="47.24625" lon="-2.26825">
        <ele>50</ele>
        <time>2019-06-20T08:19:28.000Z</time>
      </trkpt>
      <trkpt lat="47.24619" lon="-2.26828">
        <ele>49.599998474121</ele>
        <time>2019-06-20T08:19:29.000Z</time>
      </trkpt>
      <trkpt lat="47.24613" lon="-2.26833">
        <ele>49</ele>
        <time>2019-06-20T08:19:30.000Z</time>
      </trkpt>
      <trkpt lat="47.24603" lon="-2.26843">
        <ele>49</ele>
        <time>2019-06-20T08:19:32.000Z</time>
      </trkpt>
      <trkpt lat="47.24591" lon="-2.26845">
        <ele>48.599998474121</ele>
        <time>2019-06-20T08:19:34.000Z</time>
      </trkpt>
      <trkpt lat="47.24585" lon="-2.26844">
        <ele>48.200000762939</ele>
        <time>2019-06-20T08:19:35.000Z</time>
      </trkpt>
      <trkpt lat="47.24581" lon="-2.26847">
        <ele>47.599998474121</ele>
        <time>2019-06-20T08:19:36.000Z</time>
      </trkpt>
      <trkpt lat="47.24576" lon="-2.2685">
        <ele>47.200000762939</ele>
        <time>2019-06-20T08:19:37.000Z</time>
      </trkpt>
      <trkpt lat="47.2457" lon="-2.26855">
        <ele>46.599998474121</ele>
        <time>2019-06-20T08:19:38.000Z</time>
      </trkpt>
      <trkpt lat="47.24554" lon="-2.26871">
        <ele>46.599998474121</ele>
        <time>2019-06-20T08:19:41.000Z</time>
      </trkpt>
      <trkpt lat="47.24546" lon="-2.26878">
        <ele>46.599998474121</ele>
        <time>2019-06-20T08:19:43.000Z</time>
      </trkpt>
      <trkpt lat="47.24539" lon="-2.26885">
        <ele>46.200000762939</ele>
        <time>2019-06-20T08:19:45.000Z</time>
      </trkpt>
      <trkpt lat="47.24535" lon="-2.26888">
        <ele>45.799999237061</ele>
        <time>2019-06-20T08:19:46.000Z</time>
      </trkpt>
      <trkpt lat="47.24531" lon="-2.26892">
        <ele>45.200000762939</ele>
        <time>2019-06-20T08:19:47.000Z</time>
      </trkpt>
      <trkpt lat="47.24528" lon="-2.26898">
        <ele>44.400001525879</ele>
        <time>2019-06-20T08:19:48.000Z</time>
      </trkpt>
      <trkpt lat="47.24516" lon="-2.26921">
        <ele>44.400001525879</ele>
        <time>2019-06-20T08:19:51.000Z</time>
      </trkpt>
      <trkpt lat="47.24511" lon="-2.26927">
        <ele>44.400001525879</ele>
        <time>2019-06-20T08:19:52.000Z</time>
      </trkpt>
      <trkpt lat="47.24499" lon="-2.26938">
        <ele>44.400001525879</ele>
        <time>2019-06-20T08:19:54.000Z</time>
      </trkpt>
      <trkpt lat="47.24487" lon="-2.26946">
        <ele>44.400001525879</ele>
        <time>2019-06-20T08:19:56.000Z</time>
      </trkpt>
      <trkpt lat="47.24481" lon="-2.26946">
        <ele>44.400001525879</ele>
        <time>2019-06-20T08:19:57.000Z</time>
      </trkpt>
      <trkpt lat="47.2447" lon="-2.2694">
        <ele>44.400001525879</ele>
        <time>2019-06-20T08:19:59.000Z</time>
      </trkpt>
      <trkpt lat="47.24452" lon="-2.26936">
        <ele>44.400001525879</ele>
        <time>2019-06-20T08:20:02.000Z</time>
      </trkpt>
      <trkpt lat="47.24445" lon="-2.26934">
        <ele>44.400001525879</ele>
        <time>2019-06-20T08:20:03.000Z</time>
      </trkpt>
      <trkpt lat="47.2444" lon="-2.26936">
        <ele>44.400001525879</ele>
        <time>2019-06-20T08:20:04.000Z</time>
      </trkpt>
      <trkpt lat="47.24429" lon="-2.26945">
        <ele>44.400001525879</ele>
        <time>2019-06-20T08:20:06.000Z</time>
      </trkpt>
      <trkpt lat="47.24418" lon="-2.26955">
        <ele>44.400001525879</ele>
        <time>2019-06-20T08:20:08.000Z</time>
      </trkpt>
      <trkpt lat="47.24414" lon="-2.26961">
        <ele>44.400001525879</ele>
        <time>2019-06-20T08:20:09.000Z</time>
      </trkpt>
      <trkpt lat="47.24404" lon="-2.26974">
        <ele>44.400001525879</ele>
        <time>2019-06-20T08:20:11.000Z</time>
      </trkpt>
      <trkpt lat="47.24381" lon="-2.27007">
        <ele>44.400001525879</ele>
        <time>2019-06-20T08:20:16.000Z</time>
      </trkpt>
      <trkpt lat="47.24372" lon="-2.2702">
        <ele>44.400001525879</ele>
        <time>2019-06-20T08:20:18.000Z</time>
      </trkpt>
      <trkpt lat="47.24363" lon="-2.27035">
        <ele>44.400001525879</ele>
        <time>2019-06-20T08:20:20.000Z</time>
      </trkpt>
      <trkpt lat="47.24345" lon="-2.27061">
        <ele>44.400001525879</ele>
        <time>2019-06-20T08:20:24.000Z</time>
      </trkpt>
      <trkpt lat="47.24339" lon="-2.27067">
        <ele>44</ele>
        <time>2019-06-20T08:20:25.000Z</time>
      </trkpt>
      <trkpt lat="47.24332" lon="-2.27071">
        <ele>43.599998474121</ele>
        <time>2019-06-20T08:20:26.000Z</time>
      </trkpt>
      <trkpt lat="47.24325" lon="-2.27077">
        <ele>43.200000762939</ele>
        <time>2019-06-20T08:20:27.000Z</time>
      </trkpt>
      <trkpt lat="47.24319" lon="-2.27084">
        <ele>42.799999237061</ele>
        <time>2019-06-20T08:20:28.000Z</time>
      </trkpt>
      <trkpt lat="47.24313" lon="-2.27091">
        <ele>42.400001525879</ele>
        <time>2019-06-20T08:20:29.000Z</time>
      </trkpt>
      <trkpt lat="47.24303" lon="-2.27106">
        <ele>42.400001525879</ele>
        <time>2019-06-20T08:20:31.000Z</time>
      </trkpt>
      <trkpt lat="47.24294" lon="-2.27116">
        <ele>42.400001525879</ele>
        <time>2019-06-20T08:20:33.000Z</time>
      </trkpt>
      <trkpt lat="47.2428" lon="-2.27117">
        <ele>42.400001525879</ele>
        <time>2019-06-20T08:20:36.000Z</time>
      </trkpt>
      <trkpt lat="47.24274" lon="-2.27117">
        <ele>42.400001525879</ele>
        <time>2019-06-20T08:20:37.000Z</time>
      </trkpt>
      <trkpt lat="47.24252" lon="-2.27124">
        <ele>42.400001525879</ele>
        <time>2019-06-20T08:20:40.000Z</time>
      </trkpt>
      <trkpt lat="47.24217" lon="-2.27147">
        <ele>42.400001525879</ele>
        <time>2019-06-20T08:20:45.000Z</time>
      </trkpt>
      <trkpt lat="47.24189" lon="-2.27164">
        <ele>41.799999237061</ele>
        <time>2019-06-20T08:20:49.000Z</time>
      </trkpt>
      <trkpt lat="47.24182" lon="-2.27167">
        <ele>41.400001525879</ele>
        <time>2019-06-20T08:20:50.000Z</time>
      </trkpt>
      <trkpt lat="47.24174" lon="-2.2717">
        <ele>41</ele>
        <time>2019-06-20T08:20:51.000Z</time>
      </trkpt>
      <trkpt lat="47.24167" lon="-2.27173">
        <ele>40.599998474121</ele>
        <time>2019-06-20T08:20:52.000Z</time>
      </trkpt>
      <trkpt lat="47.2416" lon="-2.27177">
        <ele>40.200000762939</ele>
        <time>2019-06-20T08:20:53.000Z</time>
      </trkpt>
      <trkpt lat="47.24124" lon="-2.27191">
        <ele>40.200000762939</ele>
        <time>2019-06-20T08:20:58.000Z</time>
      </trkpt>
      <trkpt lat="47.24112" lon="-2.27193">
        <ele>40.200000762939</ele>
        <time>2019-06-20T08:21:00.000Z</time>
      </trkpt>
      <trkpt lat="47.24105" lon="-2.27188">
        <ele>39.599998474121</ele>
        <time>2019-06-20T08:21:02.000Z</time>
      </trkpt>
      <trkpt lat="47.24102" lon="-2.27184">
        <ele>39.200000762939</ele>
        <time>2019-06-20T08:21:03.000Z</time>
      </trkpt>
      <trkpt lat="47.241" lon="-2.27178">
        <ele>38.799999237061</ele>
        <time>2019-06-20T08:21:04.000Z</time>
      </trkpt>
      <trkpt lat="47.24099" lon="-2.2717">
        <ele>38.200000762939</ele>
        <time>2019-06-20T08:21:05.000Z</time>
      </trkpt>
      <trkpt lat="47.24099" lon="-2.27162">
        <ele>37.799999237061</ele>
        <time>2019-06-20T08:21:06.000Z</time>
      </trkpt>
      <trkpt lat="47.24099" lon="-2.27152">
        <ele>37.799999237061</ele>
        <time>2019-06-20T08:21:07.000Z</time>
      </trkpt>
      <trkpt lat="47.241" lon="-2.27135">
        <ele>37.799999237061</ele>
        <time>2019-06-20T08:21:09.000Z</time>
      </trkpt>
      <trkpt lat="47.24101" lon="-2.27109">
        <ele>37.799999237061</ele>
        <time>2019-06-20T08:21:12.000Z</time>
      </trkpt>
      <trkpt lat="47.24092" lon="-2.27096">
        <ele>37.799999237061</ele>
        <time>2019-06-20T08:21:14.000Z</time>
      </trkpt>
      <trkpt lat="47.24082" lon="-2.27082">
        <ele>37.799999237061</ele>
        <time>2019-06-20T08:21:16.000Z</time>
      </trkpt>
      <trkpt lat="47.24074" lon="-2.27064">
        <ele>37.799999237061</ele>
        <time>2019-06-20T08:21:18.000Z</time>
      </trkpt>
      <trkpt lat="47.24067" lon="-2.27045">
        <ele>37.799999237061</ele>
        <time>2019-06-20T08:21:20.000Z</time>
      </trkpt>
      <trkpt lat="47.24063" lon="-2.27036">
        <ele>37.400001525879</ele>
        <time>2019-06-20T08:21:21.000Z</time>
      </trkpt>
      <trkpt lat="47.2406" lon="-2.27026">
        <ele>36.799999237061</ele>
        <time>2019-06-20T08:21:22.000Z</time>
      </trkpt>
      <trkpt lat="47.24056" lon="-2.27016">
        <ele>36.400001525879</ele>
        <time>2019-06-20T08:21:23.000Z</time>
      </trkpt>
      <trkpt lat="47.24053" lon="-2.27006">
        <ele>36</ele>
        <time>2019-06-20T08:21:24.000Z</time>
      </trkpt>
      <trkpt lat="47.24048" lon="-2.26998">
        <ele>35.400001525879</ele>
        <time>2019-06-20T08:21:25.000Z</time>
      </trkpt>
      <trkpt lat="47.24042" lon="-2.26995">
        <ele>35</ele>
        <time>2019-06-20T08:21:26.000Z</time>
      </trkpt>
      <trkpt lat="47.24037" lon="-2.26995">
        <ele>34</ele>
        <time>2019-06-20T08:21:27.000Z</time>
      </trkpt>
      <trkpt lat="47.24031" lon="-2.26992">
        <ele>33.599998474121</ele>
        <time>2019-06-20T08:21:28.000Z</time>
      </trkpt>
      <trkpt lat="47.24026" lon="-2.26988">
        <ele>33.200000762939</ele>
        <time>2019-06-20T08:21:29.000Z</time>
      </trkpt>
      <trkpt lat="47.24021" lon="-2.26983">
        <ele>33.200000762939</ele>
        <time>2019-06-20T08:21:30.000Z</time>
      </trkpt>
      <trkpt lat="47.24005" lon="-2.26962">
        <ele>33.200000762939</ele>
        <time>2019-06-20T08:21:34.000Z</time>
      </trkpt>
      <trkpt lat="47.23989" lon="-2.26951">
        <ele>33.200000762939</ele>
        <time>2019-06-20T08:21:37.000Z</time>
      </trkpt>
      <trkpt lat="47.23978" lon="-2.26944">
        <ele>33.200000762939</ele>
        <time>2019-06-20T08:21:39.000Z</time>
      </trkpt>
      <trkpt lat="47.23966" lon="-2.26939">
        <ele>33.200000762939</ele>
        <time>2019-06-20T08:21:41.000Z</time>
      </trkpt>
      <trkpt lat="47.23953" lon="-2.26923">
        <ele>33.200000762939</ele>
        <time>2019-06-20T08:21:44.000Z</time>
      </trkpt>
      <trkpt lat="47.23945" lon="-2.26909">
        <ele>33.200000762939</ele>
        <time>2019-06-20T08:21:47.000Z</time>
      </trkpt>
      <trkpt lat="47.23937" lon="-2.26893">
        <ele>33.599998474121</ele>
        <time>2019-06-20T08:21:51.000Z</time>
      </trkpt>
      <trkpt lat="47.23933" lon="-2.26891">
        <ele>34.400001525879</ele>
        <time>2019-06-20T08:21:52.000Z</time>
      </trkpt>
      <trkpt lat="47.23928" lon="-2.26889">
        <ele>34.799999237061</ele>
        <time>2019-06-20T08:21:53.000Z</time>
      </trkpt>
      <trkpt lat="47.23924" lon="-2.26888">
        <ele>35.200000762939</ele>
        <time>2019-06-20T08:21:54.000Z</time>
      </trkpt>
      <trkpt lat="47.23919" lon="-2.26886">
        <ele>35.200000762939</ele>
        <time>2019-06-20T08:21:55.000Z</time>
      </trkpt>
      <trkpt lat="47.23915" lon="-2.26884">
        <ele>35.200000762939</ele>
        <time>2019-06-20T08:21:56.000Z</time>
      </trkpt>
      <trkpt lat="47.23886" lon="-2.26873">
        <ele>35.200000762939</ele>
        <time>2019-06-20T08:22:02.000Z</time>
      </trkpt>
      <trkpt lat="47.23872" lon="-2.26867">
        <ele>35.200000762939</ele>
        <time>2019-06-20T08:22:05.000Z</time>
      </trkpt>
      <trkpt lat="47.23869" lon="-2.26862">
        <ele>35.200000762939</ele>
        <time>2019-06-20T08:22:06.000Z</time>
      </trkpt>
      <trkpt lat="47.23868" lon="-2.26846">
        <ele>35.200000762939</ele>
        <time>2019-06-20T08:22:09.000Z</time>
      </trkpt>
      <trkpt lat="47.23878" lon="-2.26835">
        <ele>35.200000762939</ele>
        <time>2019-06-20T08:22:12.000Z</time>
      </trkpt>
      <trkpt lat="47.23891" lon="-2.26832">
        <ele>35.200000762939</ele>
        <time>2019-06-20T08:22:15.000Z</time>
      </trkpt>
      <trkpt lat="47.23898" lon="-2.26818">
        <ele>35.200000762939</ele>
        <time>2019-06-20T08:22:18.000Z</time>
      </trkpt>
      <trkpt lat="47.23895" lon="-2.26791">
        <ele>35.200000762939</ele>
        <time>2019-06-20T08:22:22.000Z</time>
      </trkpt>
      <trkpt lat="47.23892" lon="-2.26773">
        <ele>35.200000762939</ele>
        <time>2019-06-20T08:22:25.000Z</time>
      </trkpt>
      <trkpt lat="47.23892" lon="-2.26767">
        <ele>35.200000762939</ele>
        <time>2019-06-20T08:22:26.000Z</time>
      </trkpt>
      <trkpt lat="47.23893" lon="-2.26763">
        <ele>35.200000762939</ele>
        <time>2019-06-20T08:22:28.000Z</time>
      </trkpt>
      <trkpt lat="47.23894" lon="-2.26763">
        <ele>35.200000762939</ele>
        <time>2019-06-20T08:22:29.000Z</time>
      </trkpt>
      <trkpt lat="47.23894" lon="-2.26763">
        <ele>35.200000762939</ele>
        <time>2019-06-20T08:22:30.000Z</time>
      </trkpt>
      <trkpt lat="47.23896" lon="-2.26761">
        <ele>35.200000762939</ele>
        <time>2019-06-20T08:23:05.000Z</time>
      </trkpt>
      <trkpt lat="47.239" lon="-2.26758">
        <ele>35.200000762939</ele>
        <time>2019-06-20T08:23:07.000Z</time>
      </trkpt>
      <trkpt lat="47.23911" lon="-2.26754">
        <ele>35.200000762939</ele>
        <time>2019-06-20T08:23:11.000Z</time>
      </trkpt>
      <trkpt lat="47.23926" lon="-2.2675">
        <ele>35.200000762939</ele>
        <time>2019-06-20T08:23:16.000Z</time>
      </trkpt>
      <trkpt lat="47.23938" lon="-2.26744">
        <ele>35.200000762939</ele>
        <time>2019-06-20T08:23:21.000Z</time>
      </trkpt>
      <trkpt lat="47.23949" lon="-2.26736">
        <ele>35.200000762939</ele>
        <time>2019-06-20T08:23:26.000Z</time>
      </trkpt>
      <trkpt lat="47.2395" lon="-2.26736">
        <ele>35.200000762939</ele>
        <time>2019-06-20T08:23:27.000Z</time>
      </trkpt>
      <trkpt lat="47.23949" lon="-2.26737">
        <ele>35.200000762939</ele>
        <time>2019-06-20T08:23:29.000Z</time>
      </trkpt>
      <trkpt lat="47.23949" lon="-2.26737">
        <ele>35.200000762939</ele>
        <time>2019-06-20T08:23:30.000Z</time>
      </trkpt>
      <trkpt lat="47.23952" lon="-2.26736">
        <ele>35.200000762939</ele>
        <time>2019-06-20T08:23:54.000Z</time>
      </trkpt>
      <trkpt lat="47.23955" lon="-2.26735">
        <ele>35.200000762939</ele>
        <time>2019-06-20T08:23:56.000Z</time>
      </trkpt>
      <trkpt lat="47.23961" lon="-2.26735">
        <ele>35.599998474121</ele>
        <time>2019-06-20T08:24:00.000Z</time>
      </trkpt>
      <trkpt lat="47.23961" lon="-2.26738">
        <ele>36</ele>
        <time>2019-06-20T08:24:01.000Z</time>
      </trkpt>
      <trkpt lat="47.2396" lon="-2.2674">
        <ele>36.400001525879</ele>
        <time>2019-06-20T08:24:02.000Z</time>
      </trkpt>
      <trkpt lat="47.2396" lon="-2.26742">
        <ele>36.799999237061</ele>
        <time>2019-06-20T08:24:03.000Z</time>
      </trkpt>
      <trkpt lat="47.23959" lon="-2.26744">
        <ele>37.200000762939</ele>
        <time>2019-06-20T08:24:04.000Z</time>
      </trkpt>
      <trkpt lat="47.23961" lon="-2.26752">
        <ele>37.200000762939</ele>
        <time>2019-06-20T08:24:06.000Z</time>
      </trkpt>
      <trkpt lat="47.23968" lon="-2.26763">
        <ele>37.200000762939</ele>
        <time>2019-06-20T08:24:10.000Z</time>
      </trkpt>
      <trkpt lat="47.23969" lon="-2.26766">
        <ele>37.599998474121</ele>
        <time>2019-06-20T08:24:11.000Z</time>
      </trkpt>
      <trkpt lat="47.23969" lon="-2.26768">
        <ele>38</ele>
        <time>2019-06-20T08:24:12.000Z</time>
      </trkpt>
      <trkpt lat="47.23969" lon="-2.26771">
        <ele>38.599998474121</ele>
        <time>2019-06-20T08:24:13.000Z</time>
      </trkpt>
      <trkpt lat="47.2397" lon="-2.26773">
        <ele>39</ele>
        <time>2019-06-20T08:24:14.000Z</time>
      </trkpt>
      <trkpt lat="47.23971" lon="-2.26774">
        <ele>39.400001525879</ele>
        <time>2019-06-20T08:24:15.000Z</time>
      </trkpt>
      <trkpt lat="47.23978" lon="-2.26779">
        <ele>39.400001525879</ele>
        <time>2019-06-20T08:24:19.000Z</time>
      </trkpt>
      <trkpt lat="47.23984" lon="-2.26774">
        <ele>39.799999237061</ele>
        <time>2019-06-20T08:24:22.000Z</time>
      </trkpt>
      <trkpt lat="47.23985" lon="-2.26771">
        <ele>40.200000762939</ele>
        <time>2019-06-20T08:24:23.000Z</time>
      </trkpt>
      <trkpt lat="47.23986" lon="-2.26769">
        <ele>40.599998474121</ele>
        <time>2019-06-20T08:24:24.000Z</time>
      </trkpt>
      <trkpt lat="47.23988" lon="-2.26767">
        <ele>41</ele>
        <time>2019-06-20T08:24:25.000Z</time>
      </trkpt>
      <trkpt lat="47.2399" lon="-2.26765">
        <ele>41.400001525879</ele>
        <time>2019-06-20T08:24:26.000Z</time>
      </trkpt>
      <trkpt lat="47.23997" lon="-2.26759">
        <ele>41.400001525879</ele>
        <time>2019-06-20T08:24:29.000Z</time>
      </trkpt>
      <trkpt lat="47.24007" lon="-2.26742">
        <ele>41.400001525879</ele>
        <time>2019-06-20T08:24:33.000Z</time>
      </trkpt>
      <trkpt lat="47.24018" lon="-2.26736">
        <ele>41.400001525879</ele>
        <time>2019-06-20T08:24:37.000Z</time>
      </trkpt>
      <trkpt lat="47.24021" lon="-2.26736">
        <ele>41.400001525879</ele>
        <time>2019-06-20T08:24:40.000Z</time>
      </trkpt>
      <trkpt lat="47.24023" lon="-2.26737">
        <ele>41.400001525879</ele>
        <time>2019-06-20T08:25:00.000Z</time>
      </trkpt>
      <trkpt lat="47.24033" lon="-2.2673">
        <ele>41.400001525879</ele>
        <time>2019-06-20T08:25:04.000Z</time>
      </trkpt>
      <trkpt lat="47.24053" lon="-2.26717">
        <ele>41.400001525879</ele>
        <time>2019-06-20T08:25:10.000Z</time>
      </trkpt>
      <trkpt lat="47.24062" lon="-2.26707">
        <ele>41.799999237061</ele>
        <time>2019-06-20T08:25:14.000Z</time>
      </trkpt>
      <trkpt lat="47.24064" lon="-2.26704">
        <ele>42.200000762939</ele>
        <time>2019-06-20T08:25:15.000Z</time>
      </trkpt>
      <trkpt lat="47.24066" lon="-2.26702">
        <ele>42.799999237061</ele>
        <time>2019-06-20T08:25:16.000Z</time>
      </trkpt>
      <trkpt lat="47.24068" lon="-2.26699">
        <ele>43.200000762939</ele>
        <time>2019-06-20T08:25:17.000Z</time>
      </trkpt>
      <trkpt lat="47.2407" lon="-2.26696">
        <ele>43.599998474121</ele>
        <time>2019-06-20T08:25:18.000Z</time>
      </trkpt>
      <trkpt lat="47.24072" lon="-2.26692">
        <ele>43.599998474121</ele>
        <time>2019-06-20T08:25:19.000Z</time>
      </trkpt>
      <trkpt lat="47.24077" lon="-2.26683">
        <ele>44</ele>
        <time>2019-06-20T08:25:21.000Z</time>
      </trkpt>
      <trkpt lat="47.24079" lon="-2.26679">
        <ele>44.400001525879</ele>
        <time>2019-06-20T08:25:22.000Z</time>
      </trkpt>
      <trkpt lat="47.24081" lon="-2.26675">
        <ele>44.799999237061</ele>
        <time>2019-06-20T08:25:23.000Z</time>
      </trkpt>
      <trkpt lat="47.24082" lon="-2.26671">
        <ele>45.400001525879</ele>
        <time>2019-06-20T08:25:24.000Z</time>
      </trkpt>
      <trkpt lat="47.24084" lon="-2.26667">
        <ele>45.799999237061</ele>
        <time>2019-06-20T08:25:25.000Z</time>
      </trkpt>
      <trkpt lat="47.24095" lon="-2.26652">
        <ele>45.799999237061</ele>
        <time>2019-06-20T08:25:30.000Z</time>
      </trkpt>
      <trkpt lat="47.24102" lon="-2.26655">
        <ele>45.799999237061</ele>
        <time>2019-06-20T08:25:34.000Z</time>
      </trkpt>
      <trkpt lat="47.24105" lon="-2.26653">
        <ele>45.799999237061</ele>
        <time>2019-06-20T08:25:35.000Z</time>
      </trkpt>
      <trkpt lat="47.24108" lon="-2.26645">
        <ele>45.799999237061</ele>
        <time>2019-06-20T08:25:37.000Z</time>
      </trkpt>
      <trkpt lat="47.24112" lon="-2.26639">
        <ele>45.799999237061</ele>
        <time>2019-06-20T08:25:41.000Z</time>
      </trkpt>
      <trkpt lat="47.24118" lon="-2.2664">
        <ele>45.799999237061</ele>
        <time>2019-06-20T08:25:45.000Z</time>
      </trkpt>
      <trkpt lat="47.2412" lon="-2.26638">
        <ele>45.400001525879</ele>
        <time>2019-06-20T08:25:46.000Z</time>
      </trkpt>
      <trkpt lat="47.24122" lon="-2.26634">
        <ele>45</ele>
        <time>2019-06-20T08:25:47.000Z</time>
      </trkpt>
      <trkpt lat="47.24123" lon="-2.2663">
        <ele>44.599998474121</ele>
        <time>2019-06-20T08:25:48.000Z</time>
      </trkpt>
      <trkpt lat="47.24124" lon="-2.26627">
        <ele>44</ele>
        <time>2019-06-20T08:25:49.000Z</time>
      </trkpt>
      <trkpt lat="47.24124" lon="-2.26625">
        <ele>43.599998474121</ele>
        <time>2019-06-20T08:25:50.000Z</time>
      </trkpt>
      <trkpt lat="47.24126" lon="-2.26616">
        <ele>43.599998474121</ele>
        <time>2019-06-20T08:25:53.000Z</time>
      </trkpt>
      <trkpt lat="47.24131" lon="-2.26606">
        <ele>43.599998474121</ele>
        <time>2019-06-20T08:25:56.000Z</time>
      </trkpt>
      <trkpt lat="47.24132" lon="-2.26601">
        <ele>43.599998474121</ele>
        <time>2019-06-20T08:25:57.000Z</time>
      </trkpt>
      <trkpt lat="47.24134" lon="-2.26599">
        <ele>43.599998474121</ele>
        <time>2019-06-20T08:25:58.000Z</time>
      </trkpt>
      <trkpt lat="47.24137" lon="-2.26596">
        <ele>43.200000762939</ele>
        <time>2019-06-20T08:26:00.000Z</time>
      </trkpt>
      <trkpt lat="47.24138" lon="-2.26593">
        <ele>42.799999237061</ele>
        <time>2019-06-20T08:26:01.000Z</time>
      </trkpt>
      <trkpt lat="47.24137" lon="-2.2659">
        <ele>42.400001525879</ele>
        <time>2019-06-20T08:26:02.000Z</time>
      </trkpt>
      <trkpt lat="47.24137" lon="-2.26588">
        <ele>42</ele>
        <time>2019-06-20T08:26:03.000Z</time>
      </trkpt>
      <trkpt lat="47.24137" lon="-2.26586">
        <ele>41.599998474121</ele>
        <time>2019-06-20T08:26:04.000Z</time>
      </trkpt>
      <trkpt lat="47.24139" lon="-2.2658">
        <ele>41.599998474121</ele>
        <time>2019-06-20T08:26:07.000Z</time>
      </trkpt>
      <trkpt lat="47.24147" lon="-2.26579">
        <ele>41.599998474121</ele>
        <time>2019-06-20T08:26:11.000Z</time>
      </trkpt>
      <trkpt lat="47.24151" lon="-2.26579">
        <ele>41.599998474121</ele>
        <time>2019-06-20T08:26:13.000Z</time>
      </trkpt>
      <trkpt lat="47.2416" lon="-2.26583">
        <ele>41.599998474121</ele>
        <time>2019-06-20T08:26:18.000Z</time>
      </trkpt>
      <trkpt lat="47.2416" lon="-2.26586">
        <ele>41.599998474121</ele>
        <time>2019-06-20T08:26:19.000Z</time>
      </trkpt>
      <trkpt lat="47.24159" lon="-2.26592">
        <ele>42</ele>
        <time>2019-06-20T08:26:21.000Z</time>
      </trkpt>
      <trkpt lat="47.24159" lon="-2.26596">
        <ele>42.400001525879</ele>
        <time>2019-06-20T08:26:22.000Z</time>
      </trkpt>
      <trkpt lat="47.24159" lon="-2.266">
        <ele>42.799999237061</ele>
        <time>2019-06-20T08:26:23.000Z</time>
      </trkpt>
      <trkpt lat="47.24158" lon="-2.26602">
        <ele>43.599998474121</ele>
        <time>2019-06-20T08:26:24.000Z</time>
      </trkpt>
      <trkpt lat="47.24156" lon="-2.26609">
        <ele>44.200000762939</ele>
        <time>2019-06-20T08:26:26.000Z</time>
      </trkpt>
      <trkpt lat="47.24156" lon="-2.26612">
        <ele>44.599998474121</ele>
        <time>2019-06-20T08:26:27.000Z</time>
      </trkpt>
      <trkpt lat="47.24157" lon="-2.26614">
        <ele>45</ele>
        <time>2019-06-20T08:26:28.000Z</time>
      </trkpt>
      <trkpt lat="47.24159" lon="-2.26616">
        <ele>45.400001525879</ele>
        <time>2019-06-20T08:26:29.000Z</time>
      </trkpt>
      <trkpt lat="47.24162" lon="-2.26615">
        <ele>45.799999237061</ele>
        <time>2019-06-20T08:26:30.000Z</time>
      </trkpt>
      <trkpt lat="47.24169" lon="-2.26616">
        <ele>45.799999237061</ele>
        <time>2019-06-20T08:26:32.000Z</time>
      </trkpt>
      <trkpt lat="47.24181" lon="-2.26618">
        <ele>45.799999237061</ele>
        <time>2019-06-20T08:26:35.000Z</time>
      </trkpt>
      <trkpt lat="47.24201" lon="-2.26623">
        <ele>45.799999237061</ele>
        <time>2019-06-20T08:26:42.000Z</time>
      </trkpt>
      <trkpt lat="47.24205" lon="-2.26623">
        <ele>45.799999237061</ele>
        <time>2019-06-20T08:26:45.000Z</time>
      </trkpt>
      <trkpt lat="47.24208" lon="-2.26623">
        <ele>45.799999237061</ele>
        <time>2019-06-20T08:26:47.000Z</time>
      </trkpt>
      <trkpt lat="47.24208" lon="-2.26625">
        <ele>45.799999237061</ele>
        <time>2019-06-20T08:26:50.000Z</time>
      </trkpt>
      <trkpt lat="47.24211" lon="-2.26627">
        <ele>45.799999237061</ele>
        <time>2019-06-20T08:28:00.000Z</time>
      </trkpt>
      <trkpt lat="47.24216" lon="-2.2663">
        <ele>45.799999237061</ele>
        <time>2019-06-20T08:28:03.000Z</time>
      </trkpt>
      <trkpt lat="47.24223" lon="-2.26628">
        <ele>45.799999237061</ele>
        <time>2019-06-20T08:28:05.000Z</time>
      </trkpt>
      <trkpt lat="47.24237" lon="-2.26613">
        <ele>46.200000762939</ele>
        <time>2019-06-20T08:28:09.000Z</time>
      </trkpt>
      <trkpt lat="47.24241" lon="-2.26609">
        <ele>46.599998474121</ele>
        <time>2019-06-20T08:28:10.000Z</time>
      </trkpt>
      <trkpt lat="47.24245" lon="-2.26606">
        <ele>47</ele>
        <time>2019-06-20T08:28:11.000Z</time>
      </trkpt>
      <trkpt lat="47.2425" lon="-2.26602">
        <ele>47.599998474121</ele>
        <time>2019-06-20T08:28:12.000Z</time>
      </trkpt>
      <trkpt lat="47.24255" lon="-2.26598">
        <ele>48</ele>
        <time>2019-06-20T08:28:13.000Z</time>
      </trkpt>
      <trkpt lat="47.24259" lon="-2.26593">
        <ele>48</ele>
        <time>2019-06-20T08:28:14.000Z</time>
      </trkpt>
      <trkpt lat="47.24296" lon="-2.26555">
        <ele>48</ele>
        <time>2019-06-20T08:28:21.000Z</time>
      </trkpt>
      <trkpt lat="47.24336" lon="-2.26518">
        <ele>48</ele>
        <time>2019-06-20T08:28:28.000Z</time>
      </trkpt>
      <trkpt lat="47.24381" lon="-2.26481">
        <ele>48</ele>
        <time>2019-06-20T08:28:36.000Z</time>
      </trkpt>
      <trkpt lat="47.24399" lon="-2.2647">
        <ele>48</ele>
        <time>2019-06-20T08:28:39.000Z</time>
      </trkpt>
      <trkpt lat="47.24417" lon="-2.26458">
        <ele>48</ele>
        <time>2019-06-20T08:28:42.000Z</time>
      </trkpt>
      <trkpt lat="47.24467" lon="-2.26428">
        <ele>48</ele>
        <time>2019-06-20T08:28:50.000Z</time>
      </trkpt>
      <trkpt lat="47.24498" lon="-2.26414">
        <ele>48</ele>
        <time>2019-06-20T08:28:55.000Z</time>
      </trkpt>
      <trkpt lat="47.24555" lon="-2.26388">
        <ele>48</ele>
        <time>2019-06-20T08:29:04.000Z</time>
      </trkpt>
      <trkpt lat="47.24592" lon="-2.26376">
        <ele>48</ele>
        <time>2019-06-20T08:29:10.000Z</time>
      </trkpt>
      <trkpt lat="47.24605" lon="-2.26374">
        <ele>48</ele>
        <time>2019-06-20T08:29:12.000Z</time>
      </trkpt>
      <trkpt lat="47.24619" lon="-2.26375">
        <ele>48</ele>
        <time>2019-06-20T08:29:14.000Z</time>
      </trkpt>
      <trkpt lat="47.24658" lon="-2.26385">
        <ele>48</ele>
        <time>2019-06-20T08:29:20.000Z</time>
      </trkpt>
      <trkpt lat="47.24695" lon="-2.26403">
        <ele>48</ele>
        <time>2019-06-20T08:29:26.000Z</time>
      </trkpt>
      <trkpt lat="47.24701" lon="-2.26406">
        <ele>48</ele>
        <time>2019-06-20T08:29:27.000Z</time>
      </trkpt>
      <trkpt lat="47.24723" lon="-2.26418">
        <ele>48</ele>
        <time>2019-06-20T08:29:31.000Z</time>
      </trkpt>
      <trkpt lat="47.24757" lon="-2.26434">
        <ele>48</ele>
        <time>2019-06-20T08:29:37.000Z</time>
      </trkpt>
      <trkpt lat="47.24794" lon="-2.2645">
        <ele>48</ele>
        <time>2019-06-20T08:29:43.000Z</time>
      </trkpt>
      <trkpt lat="47.24812" lon="-2.26454">
        <ele>48</ele>
        <time>2019-06-20T08:29:46.000Z</time>
      </trkpt>
      <trkpt lat="47.24831" lon="-2.26454">
        <ele>48</ele>
        <time>2019-06-20T08:29:49.000Z</time>
      </trkpt>
      <trkpt lat="47.24843" lon="-2.26452">
        <ele>48.400001525879</ele>
        <time>2019-06-20T08:29:51.000Z</time>
      </trkpt>
      <trkpt lat="47.24849" lon="-2.2645">
        <ele>48.799999237061</ele>
        <time>2019-06-20T08:29:52.000Z</time>
      </trkpt>
      <trkpt lat="47.24855" lon="-2.26449">
        <ele>49.200000762939</ele>
        <time>2019-06-20T08:29:53.000Z</time>
      </trkpt>
      <trkpt lat="47.24861" lon="-2.26447">
        <ele>49.599998474121</ele>
        <time>2019-06-20T08:29:54.000Z</time>
      </trkpt>
      <trkpt lat="47.24867" lon="-2.26446">
        <ele>50</ele>
        <time>2019-06-20T08:29:55.000Z</time>
      </trkpt>
      <trkpt lat="47.24907" lon="-2.26436">
        <ele>50</ele>
        <time>2019-06-20T08:30:02.000Z</time>
      </trkpt>
      <trkpt lat="47.24913" lon="-2.26434">
        <ele>50</ele>
        <time>2019-06-20T08:30:03.000Z</time>
      </trkpt>
      <trkpt lat="47.24918" lon="-2.26432">
        <ele>50.400001525879</ele>
        <time>2019-06-20T08:30:04.000Z</time>
      </trkpt>
      <trkpt lat="47.24924" lon="-2.2643">
        <ele>50.799999237061</ele>
        <time>2019-06-20T08:30:05.000Z</time>
      </trkpt>
      <trkpt lat="47.24929" lon="-2.26428">
        <ele>51.799999237061</ele>
        <time>2019-06-20T08:30:06.000Z</time>
      </trkpt>
      <trkpt lat="47.24935" lon="-2.26425">
        <ele>52.200000762939</ele>
        <time>2019-06-20T08:30:07.000Z</time>
      </trkpt>
      <trkpt lat="47.24941" lon="-2.26424">
        <ele>52.200000762939</ele>
        <time>2019-06-20T08:30:08.000Z</time>
      </trkpt>
      <trkpt lat="47.24947" lon="-2.26425">
        <ele>52.200000762939</ele>
        <time>2019-06-20T08:30:09.000Z</time>
      </trkpt>
      <trkpt lat="47.24959" lon="-2.26425">
        <ele>52.200000762939</ele>
        <time>2019-06-20T08:30:11.000Z</time>
      </trkpt>
      <trkpt lat="47.24969" lon="-2.26403">
        <ele>52.200000762939</ele>
        <time>2019-06-20T08:30:14.000Z</time>
      </trkpt>
      <trkpt lat="47.24983" lon="-2.26386">
        <ele>52.200000762939</ele>
        <time>2019-06-20T08:30:17.000Z</time>
      </trkpt>
      <trkpt lat="47.24988" lon="-2.26382">
        <ele>52.200000762939</ele>
        <time>2019-06-20T08:30:18.000Z</time>
      </trkpt>
      <trkpt lat="47.2501" lon="-2.26365">
        <ele>51.799999237061</ele>
        <time>2019-06-20T08:30:22.000Z</time>
      </trkpt>
      <trkpt lat="47.25016" lon="-2.26362">
        <ele>51.400001525879</ele>
        <time>2019-06-20T08:30:23.000Z</time>
      </trkpt>
      <trkpt lat="47.25023" lon="-2.26359">
        <ele>51</ele>
        <time>2019-06-20T08:30:24.000Z</time>
      </trkpt>
      <trkpt lat="47.2503" lon="-2.26357">
        <ele>50.400001525879</ele>
        <time>2019-06-20T08:30:25.000Z</time>
      </trkpt>
      <trkpt lat="47.25037" lon="-2.26354">
        <ele>50</ele>
        <time>2019-06-20T08:30:26.000Z</time>
      </trkpt>
      <trkpt lat="47.25049" lon="-2.26345">
        <ele>50</ele>
        <time>2019-06-20T08:30:28.000Z</time>
      </trkpt>
      <trkpt lat="47.25054" lon="-2.26336">
        <ele>49.599998474121</ele>
        <time>2019-06-20T08:30:29.000Z</time>
      </trkpt>
      <trkpt lat="47.25057" lon="-2.26327">
        <ele>49.200000762939</ele>
        <time>2019-06-20T08:30:30.000Z</time>
      </trkpt>
      <trkpt lat="47.25057" lon="-2.26317">
        <ele>48.400001525879</ele>
        <time>2019-06-20T08:30:31.000Z</time>
      </trkpt>
      <trkpt lat="47.25056" lon="-2.26307">
        <ele>48</ele>
        <time>2019-06-20T08:30:32.000Z</time>
      </trkpt>
      <trkpt lat="47.25056" lon="-2.26298">
        <ele>48</ele>
        <time>2019-06-20T08:30:33.000Z</time>
      </trkpt>
      <trkpt lat="47.25057" lon="-2.26288">
        <ele>48</ele>
        <time>2019-06-20T08:30:34.000Z</time>
      </trkpt>
      <trkpt lat="47.25058" lon="-2.26279">
        <ele>48</ele>
        <time>2019-06-20T08:30:35.000Z</time>
      </trkpt>
      <trkpt lat="47.25071" lon="-2.26245">
        <ele>48</ele>
        <time>2019-06-20T08:30:39.000Z</time>
      </trkpt>
      <trkpt lat="47.2508" lon="-2.26222">
        <ele>48</ele>
        <time>2019-06-20T08:30:42.000Z</time>
      </trkpt>
      <trkpt lat="47.25081" lon="-2.26204">
        <ele>48</ele>
        <time>2019-06-20T08:30:44.000Z</time>
      </trkpt>
      <trkpt lat="47.25082" lon="-2.26186">
        <ele>48</ele>
        <time>2019-06-20T08:30:46.000Z</time>
      </trkpt>
      <trkpt lat="47.2508" lon="-2.26168">
        <ele>48</ele>
        <time>2019-06-20T08:30:48.000Z</time>
      </trkpt>
      <trkpt lat="47.2508" lon="-2.2616">
        <ele>48</ele>
        <time>2019-06-20T08:30:49.000Z</time>
      </trkpt>
      <trkpt lat="47.2508" lon="-2.26151">
        <ele>48</ele>
        <time>2019-06-20T08:30:50.000Z</time>
      </trkpt>
      <trkpt lat="47.25081" lon="-2.26109">
        <ele>48</ele>
        <time>2019-06-20T08:30:55.000Z</time>
      </trkpt>
      <trkpt lat="47.25091" lon="-2.26048">
        <ele>48</ele>
        <time>2019-06-20T08:31:02.000Z</time>
      </trkpt>
      <trkpt lat="47.25096" lon="-2.26019">
        <ele>47.599998474121</ele>
        <time>2019-06-20T08:31:05.000Z</time>
      </trkpt>
      <trkpt lat="47.25098" lon="-2.26009">
        <ele>47</ele>
        <time>2019-06-20T08:31:06.000Z</time>
      </trkpt>
      <trkpt lat="47.251" lon="-2.25999">
        <ele>46.599998474121</ele>
        <time>2019-06-20T08:31:07.000Z</time>
      </trkpt>
      <trkpt lat="47.25103" lon="-2.25989">
        <ele>46.200000762939</ele>
        <time>2019-06-20T08:31:08.000Z</time>
      </trkpt>
      <trkpt lat="47.25106" lon="-2.25979">
        <ele>45.799999237061</ele>
        <time>2019-06-20T08:31:09.000Z</time>
      </trkpt>
      <trkpt lat="47.25109" lon="-2.25969">
        <ele>45.400001525879</ele>
        <time>2019-06-20T08:31:10.000Z</time>
      </trkpt>
      <trkpt lat="47.25112" lon="-2.25959">
        <ele>44.799999237061</ele>
        <time>2019-06-20T08:31:11.000Z</time>
      </trkpt>
      <trkpt lat="47.25115" lon="-2.25951">
        <ele>44.400001525879</ele>
        <time>2019-06-20T08:31:12.000Z</time>
      </trkpt>
      <trkpt lat="47.2512" lon="-2.25945">
        <ele>44</ele>
        <time>2019-06-20T08:31:13.000Z</time>
      </trkpt>
      <trkpt lat="47.25124" lon="-2.25939">
        <ele>43.599998474121</ele>
        <time>2019-06-20T08:31:14.000Z</time>
      </trkpt>
      <trkpt lat="47.25132" lon="-2.25928">
        <ele>43.599998474121</ele>
        <time>2019-06-20T08:31:16.000Z</time>
      </trkpt>
      <trkpt lat="47.25143" lon="-2.25917">
        <ele>43.599998474121</ele>
        <time>2019-06-20T08:31:20.000Z</time>
      </trkpt>
      <trkpt lat="47.25145" lon="-2.25914">
        <ele>43.599998474121</ele>
        <time>2019-06-20T08:31:23.000Z</time>
      </trkpt>
      <trkpt lat="47.25146" lon="-2.25912">
        <ele>43.599998474121</ele>
        <time>2019-06-20T08:31:24.000Z</time>
      </trkpt>
      <trkpt lat="47.25153" lon="-2.25898">
        <ele>43.599998474121</ele>
        <time>2019-06-20T08:31:29.000Z</time>
      </trkpt>
      <trkpt lat="47.25156" lon="-2.25887">
        <ele>43.599998474121</ele>
        <time>2019-06-20T08:31:31.000Z</time>
      </trkpt>
      <trkpt lat="47.25162" lon="-2.25867">
        <ele>43.599998474121</ele>
        <time>2019-06-20T08:31:35.000Z</time>
      </trkpt>
      <trkpt lat="47.25169" lon="-2.25835">
        <ele>43.599998474121</ele>
        <time>2019-06-20T08:31:42.000Z</time>
      </trkpt>
      <trkpt lat="47.25171" lon="-2.25829">
        <ele>43.599998474121</ele>
        <time>2019-06-20T08:31:43.000Z</time>
      </trkpt>
      <trkpt lat="47.25176" lon="-2.25813">
        <ele>43.599998474121</ele>
        <time>2019-06-20T08:31:46.000Z</time>
      </trkpt>
      <trkpt lat="47.25178" lon="-2.25807">
        <ele>43.599998474121</ele>
        <time>2019-06-20T08:31:47.000Z</time>
      </trkpt>
      <trkpt lat="47.25183" lon="-2.25796">
        <ele>43.599998474121</ele>
        <time>2019-06-20T08:31:49.000Z</time>
      </trkpt>
      <trkpt lat="47.25194" lon="-2.25791">
        <ele>43.599998474121</ele>
        <time>2019-06-20T08:31:51.000Z</time>
      </trkpt>
      <trkpt lat="47.25211" lon="-2.25792">
        <ele>43.599998474121</ele>
        <time>2019-06-20T08:31:55.000Z</time>
      </trkpt>
      <trkpt lat="47.2522" lon="-2.25795">
        <ele>43.599998474121</ele>
        <time>2019-06-20T08:31:57.000Z</time>
      </trkpt>
      <trkpt lat="47.25228" lon="-2.25799">
        <ele>43.599998474121</ele>
        <time>2019-06-20T08:31:59.000Z</time>
      </trkpt>
      <trkpt lat="47.25234" lon="-2.25806">
        <ele>43.599998474121</ele>
        <time>2019-06-20T08:32:01.000Z</time>
      </trkpt>
      <trkpt lat="47.25239" lon="-2.25825">
        <ele>43.599998474121</ele>
        <time>2019-06-20T08:32:05.000Z</time>
      </trkpt>
      <trkpt lat="47.25246" lon="-2.25834">
        <ele>43.599998474121</ele>
        <time>2019-06-20T08:32:08.000Z</time>
      </trkpt>
      <trkpt lat="47.2525" lon="-2.25834">
        <ele>43.599998474121</ele>
        <time>2019-06-20T08:32:09.000Z</time>
      </trkpt>
      <trkpt lat="47.25259" lon="-2.25841">
        <ele>43.599998474121</ele>
        <time>2019-06-20T08:32:12.000Z</time>
      </trkpt>
      <trkpt lat="47.25262" lon="-2.25845">
        <ele>43.599998474121</ele>
        <time>2019-06-20T08:32:13.000Z</time>
      </trkpt>
      <trkpt lat="47.25271" lon="-2.2586">
        <ele>43.599998474121</ele>
        <time>2019-06-20T08:32:16.000Z</time>
      </trkpt>
      <trkpt lat="47.25271" lon="-2.25866">
        <ele>43.599998474121</ele>
        <time>2019-06-20T08:32:17.000Z</time>
      </trkpt>
      <trkpt lat="47.25271" lon="-2.25881">
        <ele>43.599998474121</ele>
        <time>2019-06-20T08:32:20.000Z</time>
      </trkpt>
      <trkpt lat="47.25273" lon="-2.25886">
        <ele>43.599998474121</ele>
        <time>2019-06-20T08:32:22.000Z</time>
      </trkpt>
      <trkpt lat="47.25273" lon="-2.2589">
        <ele>43.599998474121</ele>
        <time>2019-06-20T08:32:23.000Z</time>
      </trkpt>
      <trkpt lat="47.25272" lon="-2.25898">
        <ele>43.599998474121</ele>
        <time>2019-06-20T08:32:25.000Z</time>
      </trkpt>
      <trkpt lat="47.25268" lon="-2.25925">
        <ele>43.599998474121</ele>
        <time>2019-06-20T08:32:30.000Z</time>
      </trkpt>
      <trkpt lat="47.25273" lon="-2.2595">
        <ele>44.400001525879</ele>
        <time>2019-06-20T08:32:35.000Z</time>
      </trkpt>
      <trkpt lat="47.25275" lon="-2.25955">
        <ele>44.799999237061</ele>
        <time>2019-06-20T08:32:36.000Z</time>
      </trkpt>
      <trkpt lat="47.25276" lon="-2.25961">
        <ele>45.200000762939</ele>
        <time>2019-06-20T08:32:37.000Z</time>
      </trkpt>
      <trkpt lat="47.25277" lon="-2.25966">
        <ele>45.599998474121</ele>
        <time>2019-06-20T08:32:38.000Z</time>
      </trkpt>
      <trkpt lat="47.25287" lon="-2.25985">
        <ele>45.599998474121</ele>
        <time>2019-06-20T08:32:42.000Z</time>
      </trkpt>
      <trkpt lat="47.2529" lon="-2.25989">
        <ele>45.599998474121</ele>
        <time>2019-06-20T08:32:43.000Z</time>
      </trkpt>
      <trkpt lat="47.25306" lon="-2.26002">
        <ele>45.599998474121</ele>
        <time>2019-06-20T08:32:47.000Z</time>
      </trkpt>
      <trkpt lat="47.25309" lon="-2.26004">
        <ele>45.599998474121</ele>
        <time>2019-06-20T08:32:48.000Z</time>
      </trkpt>
      <trkpt lat="47.25331" lon="-2.26013">
        <ele>45.599998474121</ele>
        <time>2019-06-20T08:32:52.000Z</time>
      </trkpt>
      <trkpt lat="47.25336" lon="-2.26014">
        <ele>45.599998474121</ele>
        <time>2019-06-20T08:32:53.000Z</time>
      </trkpt>
      <trkpt lat="47.25349" lon="-2.26013">
        <ele>45.599998474121</ele>
        <time>2019-06-20T08:32:56.000Z</time>
      </trkpt>
      <trkpt lat="47.25352" lon="-2.26014">
        <ele>45.200000762939</ele>
        <time>2019-06-20T08:32:58.000Z</time>
      </trkpt>
      <trkpt lat="47.25352" lon="-2.26016">
        <ele>44.200000762939</ele>
        <time>2019-06-20T08:32:59.000Z</time>
      </trkpt>
      <trkpt lat="47.25352" lon="-2.26018">
        <ele>43.799999237061</ele>
        <time>2019-06-20T08:33:00.000Z</time>
      </trkpt>
      <trkpt lat="47.25352" lon="-2.2602">
        <ele>43.400001525879</ele>
        <time>2019-06-20T08:33:01.000Z</time>
      </trkpt>
      <trkpt lat="47.25348" lon="-2.26025">
        <ele>43.400001525879</ele>
        <time>2019-06-20T08:33:04.000Z</time>
      </trkpt>
      <trkpt lat="47.25342" lon="-2.26029">
        <ele>43.400001525879</ele>
        <time>2019-06-20T08:33:07.000Z</time>
      </trkpt>
      <trkpt lat="47.25335" lon="-2.26015">
        <ele>43.400001525879</ele>
        <time>2019-06-20T08:33:11.000Z</time>
      </trkpt>
      <trkpt lat="47.25337" lon="-2.26">
        <ele>43.400001525879</ele>
        <time>2019-06-20T08:33:14.000Z</time>
      </trkpt>
      <trkpt lat="47.2534" lon="-2.25996">
        <ele>43.400001525879</ele>
        <time>2019-06-20T08:33:15.000Z</time>
      </trkpt>
      <trkpt lat="47.25349" lon="-2.25987">
        <ele>43.400001525879</ele>
        <time>2019-06-20T08:33:18.000Z</time>
      </trkpt>
      <trkpt lat="47.25354" lon="-2.25984">
        <ele>43.400001525879</ele>
        <time>2019-06-20T08:33:20.000Z</time>
      </trkpt>
      <trkpt lat="47.25356" lon="-2.25982">
        <ele>43</ele>
        <time>2019-06-20T08:33:21.000Z</time>
      </trkpt>
      <trkpt lat="47.25357" lon="-2.25981">
        <ele>42.400001525879</ele>
        <time>2019-06-20T08:33:22.000Z</time>
      </trkpt>
      <trkpt lat="47.25359" lon="-2.2598">
        <ele>41.599998474121</ele>
        <time>2019-06-20T08:33:23.000Z</time>
      </trkpt>
      <trkpt lat="47.25361" lon="-2.2598">
        <ele>41.200000762939</ele>
        <time>2019-06-20T08:33:24.000Z</time>
      </trkpt>
      <trkpt lat="47.25366" lon="-2.25982">
        <ele>40.799999237061</ele>
        <time>2019-06-20T08:33:27.000Z</time>
      </trkpt>
      <trkpt lat="47.25367" lon="-2.25983">
        <ele>40.200000762939</ele>
        <time>2019-06-20T08:33:28.000Z</time>
      </trkpt>
      <trkpt lat="47.25368" lon="-2.25986">
        <ele>39.799999237061</ele>
        <time>2019-06-20T08:33:29.000Z</time>
      </trkpt>
      <trkpt lat="47.2537" lon="-2.25987">
        <ele>39.400001525879</ele>
        <time>2019-06-20T08:33:30.000Z</time>
      </trkpt>
      <trkpt lat="47.25372" lon="-2.25988">
        <ele>39</ele>
        <time>2019-06-20T08:33:31.000Z</time>
      </trkpt>
      <trkpt lat="47.25374" lon="-2.25989">
        <ele>39</ele>
        <time>2019-06-20T08:33:32.000Z</time>
      </trkpt>
      <trkpt lat="47.25381" lon="-2.25988">
        <ele>38.400001525879</ele>
        <time>2019-06-20T08:33:34.000Z</time>
      </trkpt>
      <trkpt lat="47.25384" lon="-2.25987">
        <ele>37.799999237061</ele>
        <time>2019-06-20T08:33:35.000Z</time>
      </trkpt>
      <trkpt lat="47.25387" lon="-2.25987">
        <ele>37.200000762939</ele>
        <time>2019-06-20T08:33:36.000Z</time>
      </trkpt>
      <trkpt lat="47.25391" lon="-2.25985">
        <ele>36.599998474121</ele>
        <time>2019-06-20T08:33:37.000Z</time>
      </trkpt>
      <trkpt lat="47.25393" lon="-2.25982">
        <ele>35.799999237061</ele>
        <time>2019-06-20T08:33:38.000Z</time>
      </trkpt>
      <trkpt lat="47.25396" lon="-2.25978">
        <ele>35</ele>
        <time>2019-06-20T08:33:39.000Z</time>
      </trkpt>
      <trkpt lat="47.25398" lon="-2.25974">
        <ele>34.400001525879</ele>
        <time>2019-06-20T08:33:40.000Z</time>
      </trkpt>
      <trkpt lat="47.254" lon="-2.25968">
        <ele>33.599998474121</ele>
        <time>2019-06-20T08:33:41.000Z</time>
      </trkpt>
      <trkpt lat="47.25403" lon="-2.25963">
        <ele>33.599998474121</ele>
        <time>2019-06-20T08:33:42.000Z</time>
      </trkpt>
      <trkpt lat="47.2541" lon="-2.25951">
        <ele>33.599998474121</ele>
        <time>2019-06-20T08:33:45.000Z</time>
      </trkpt>
      <trkpt lat="47.25422" lon="-2.25932">
        <ele>33.599998474121</ele>
        <time>2019-06-20T08:33:50.000Z</time>
      </trkpt>
      <trkpt lat="47.25422" lon="-2.25927">
        <ele>33.599998474121</ele>
        <time>2019-06-20T08:33:51.000Z</time>
      </trkpt>
      <trkpt lat="47.25424" lon="-2.25898">
        <ele>33.599998474121</ele>
        <time>2019-06-20T08:33:56.000Z</time>
      </trkpt>
      <trkpt lat="47.25426" lon="-2.25889">
        <ele>33.599998474121</ele>
        <time>2019-06-20T08:33:58.000Z</time>
      </trkpt>
      <trkpt lat="47.25428" lon="-2.25886">
        <ele>33.599998474121</ele>
        <time>2019-06-20T08:33:59.000Z</time>
      </trkpt>
      <trkpt lat="47.25434" lon="-2.25879">
        <ele>33.599998474121</ele>
        <time>2019-06-20T08:34:02.000Z</time>
      </trkpt>
      <trkpt lat="47.25434" lon="-2.25875">
        <ele>33.599998474121</ele>
        <time>2019-06-20T08:34:03.000Z</time>
      </trkpt>
      <trkpt lat="47.25436" lon="-2.25867">
        <ele>33.599998474121</ele>
        <time>2019-06-20T08:34:05.000Z</time>
      </trkpt>
      <trkpt lat="47.25439" lon="-2.25855">
        <ele>33.599998474121</ele>
        <time>2019-06-20T08:34:08.000Z</time>
      </trkpt>
      <trkpt lat="47.25441" lon="-2.25849">
        <ele>33.599998474121</ele>
        <time>2019-06-20T08:34:10.000Z</time>
      </trkpt>
      <trkpt lat="47.25444" lon="-2.25825">
        <ele>33.599998474121</ele>
        <time>2019-06-20T08:34:15.000Z</time>
      </trkpt>
      <trkpt lat="47.25444" lon="-2.25818">
        <ele>33.599998474121</ele>
        <time>2019-06-20T08:34:16.000Z</time>
      </trkpt>
      <trkpt lat="47.25448" lon="-2.25793">
        <ele>33.599998474121</ele>
        <time>2019-06-20T08:34:21.000Z</time>
      </trkpt>
      <trkpt lat="47.25451" lon="-2.25781">
        <ele>33.599998474121</ele>
        <time>2019-06-20T08:34:24.000Z</time>
      </trkpt>
      <trkpt lat="47.25455" lon="-2.25776">
        <ele>33.599998474121</ele>
        <time>2019-06-20T08:34:26.000Z</time>
      </trkpt>
      <trkpt lat="47.25459" lon="-2.2577">
        <ele>34</ele>
        <time>2019-06-20T08:34:28.000Z</time>
      </trkpt>
      <trkpt lat="47.25461" lon="-2.25765">
        <ele>34.400001525879</ele>
        <time>2019-06-20T08:34:29.000Z</time>
      </trkpt>
      <trkpt lat="47.25461" lon="-2.25756">
        <ele>34.799999237061</ele>
        <time>2019-06-20T08:34:30.000Z</time>
      </trkpt>
      <trkpt lat="47.25461" lon="-2.25748">
        <ele>35.400001525879</ele>
        <time>2019-06-20T08:34:31.000Z</time>
      </trkpt>
      <trkpt lat="47.2546" lon="-2.25739">
        <ele>35.799999237061</ele>
        <time>2019-06-20T08:34:32.000Z</time>
      </trkpt>
      <trkpt lat="47.25459" lon="-2.25723">
        <ele>35.799999237061</ele>
        <time>2019-06-20T08:34:34.000Z</time>
      </trkpt>
      <trkpt lat="47.25457" lon="-2.25716">
        <ele>35.200000762939</ele>
        <time>2019-06-20T08:34:35.000Z</time>
      </trkpt>
      <trkpt lat="47.25454" lon="-2.2571">
        <ele>34.799999237061</ele>
        <time>2019-06-20T08:34:36.000Z</time>
      </trkpt>
      <trkpt lat="47.2545" lon="-2.25706">
        <ele>34.200000762939</ele>
        <time>2019-06-20T08:34:37.000Z</time>
      </trkpt>
      <trkpt lat="47.25445" lon="-2.25702">
        <ele>33.200000762939</ele>
        <time>2019-06-20T08:34:38.000Z</time>
      </trkpt>
      <trkpt lat="47.25439" lon="-2.25699">
        <ele>32.599998474121</ele>
        <time>2019-06-20T08:34:39.000Z</time>
      </trkpt>
      <trkpt lat="47.25434" lon="-2.25697">
        <ele>32</ele>
        <time>2019-06-20T08:34:40.000Z</time>
      </trkpt>
      <trkpt lat="47.25428" lon="-2.25697">
        <ele>31.39999961853</ele>
        <time>2019-06-20T08:34:41.000Z</time>
      </trkpt>
      <trkpt lat="47.25423" lon="-2.25698">
        <ele>30.799999237061</ele>
        <time>2019-06-20T08:34:42.000Z</time>
      </trkpt>
      <trkpt lat="47.25411" lon="-2.25703">
        <ele>30.39999961853</ele>
        <time>2019-06-20T08:34:44.000Z</time>
      </trkpt>
      <trkpt lat="47.25406" lon="-2.25705">
        <ele>29.799999237061</ele>
        <time>2019-06-20T08:34:45.000Z</time>
      </trkpt>
      <trkpt lat="47.25403" lon="-2.25705">
        <ele>29.39999961853</ele>
        <time>2019-06-20T08:34:46.000Z</time>
      </trkpt>
      <trkpt lat="47.25399" lon="-2.25703">
        <ele>28.799999237061</ele>
        <time>2019-06-20T08:34:47.000Z</time>
      </trkpt>
      <trkpt lat="47.25397" lon="-2.25699">
        <ele>28.39999961853</ele>
        <time>2019-06-20T08:34:48.000Z</time>
      </trkpt>
      <trkpt lat="47.25396" lon="-2.25695">
        <ele>27.799999237061</ele>
        <time>2019-06-20T08:34:49.000Z</time>
      </trkpt>
      <trkpt lat="47.25395" lon="-2.2569">
        <ele>27.39999961853</ele>
        <time>2019-06-20T08:34:50.000Z</time>
      </trkpt>
      <trkpt lat="47.25394" lon="-2.25685">
        <ele>26.799999237061</ele>
        <time>2019-06-20T08:34:51.000Z</time>
      </trkpt>
      <trkpt lat="47.25394" lon="-2.2568">
        <ele>26.39999961853</ele>
        <time>2019-06-20T08:34:52.000Z</time>
      </trkpt>
      <trkpt lat="47.25395" lon="-2.25676">
        <ele>26.39999961853</ele>
        <time>2019-06-20T08:34:53.000Z</time>
      </trkpt>
      <trkpt lat="47.25404" lon="-2.25658">
        <ele>26.39999961853</ele>
        <time>2019-06-20T08:34:57.000Z</time>
      </trkpt>
      <trkpt lat="47.25407" lon="-2.25656">
        <ele>26.39999961853</ele>
        <time>2019-06-20T08:34:58.000Z</time>
      </trkpt>
      <trkpt lat="47.25415" lon="-2.2566">
        <ele>26.39999961853</ele>
        <time>2019-06-20T08:35:00.000Z</time>
      </trkpt>
      <trkpt lat="47.2543" lon="-2.25663">
        <ele>26.39999961853</ele>
        <time>2019-06-20T08:35:03.000Z</time>
      </trkpt>
      <trkpt lat="47.25434" lon="-2.25665">
        <ele>26.39999961853</ele>
        <time>2019-06-20T08:35:04.000Z</time>
      </trkpt>
      <trkpt lat="47.25438" lon="-2.25666">
        <ele>26.799999237061</ele>
        <time>2019-06-20T08:35:05.000Z</time>
      </trkpt>
      <trkpt lat="47.25441" lon="-2.25667">
        <ele>27.39999961853</ele>
        <time>2019-06-20T08:35:06.000Z</time>
      </trkpt>
      <trkpt lat="47.25444" lon="-2.25667">
        <ele>27.799999237061</ele>
        <time>2019-06-20T08:35:07.000Z</time>
      </trkpt>
      <trkpt lat="47.25448" lon="-2.25666">
        <ele>28.39999961853</ele>
        <time>2019-06-20T08:35:08.000Z</time>
      </trkpt>
      <trkpt lat="47.25451" lon="-2.25666">
        <ele>28.799999237061</ele>
        <time>2019-06-20T08:35:09.000Z</time>
      </trkpt>
      <trkpt lat="47.25454" lon="-2.25664">
        <ele>29.200000762939</ele>
        <time>2019-06-20T08:35:10.000Z</time>
      </trkpt>
      <trkpt lat="47.25456" lon="-2.25662">
        <ele>29.799999237061</ele>
        <time>2019-06-20T08:35:11.000Z</time>
      </trkpt>
      <trkpt lat="47.25458" lon="-2.2566">
        <ele>30.200000762939</ele>
        <time>2019-06-20T08:35:12.000Z</time>
      </trkpt>
      <trkpt lat="47.2546" lon="-2.25657">
        <ele>30.60000038147</ele>
        <time>2019-06-20T08:35:13.000Z</time>
      </trkpt>
      <trkpt lat="47.25462" lon="-2.25654">
        <ele>31.200000762939</ele>
        <time>2019-06-20T08:35:14.000Z</time>
      </trkpt>
      <trkpt lat="47.25467" lon="-2.2564">
        <ele>31.60000038147</ele>
        <time>2019-06-20T08:35:18.000Z</time>
      </trkpt>
      <trkpt lat="47.25466" lon="-2.25636">
        <ele>32</ele>
        <time>2019-06-20T08:35:19.000Z</time>
      </trkpt>
      <trkpt lat="47.25465" lon="-2.25632">
        <ele>32.400001525879</ele>
        <time>2019-06-20T08:35:20.000Z</time>
      </trkpt>
      <trkpt lat="47.25464" lon="-2.25629">
        <ele>32.799999237061</ele>
        <time>2019-06-20T08:35:21.000Z</time>
      </trkpt>
      <trkpt lat="47.25462" lon="-2.25626">
        <ele>33.200000762939</ele>
        <time>2019-06-20T08:35:22.000Z</time>
      </trkpt>
      <trkpt lat="47.2546" lon="-2.25622">
        <ele>33.200000762939</ele>
        <time>2019-06-20T08:35:23.000Z</time>
      </trkpt>
      <trkpt lat="47.25451" lon="-2.25608">
        <ele>33.200000762939</ele>
        <time>2019-06-20T08:35:27.000Z</time>
      </trkpt>
      <trkpt lat="47.25443" lon="-2.25597">
        <ele>32.799999237061</ele>
        <time>2019-06-20T08:35:30.000Z</time>
      </trkpt>
      <trkpt lat="47.25439" lon="-2.25594">
        <ele>32.400001525879</ele>
        <time>2019-06-20T08:35:31.000Z</time>
      </trkpt>
      <trkpt lat="47.25435" lon="-2.25591">
        <ele>32</ele>
        <time>2019-06-20T08:35:32.000Z</time>
      </trkpt>
      <trkpt lat="47.25431" lon="-2.25588">
        <ele>31.60000038147</ele>
        <time>2019-06-20T08:35:33.000Z</time>
      </trkpt>
      <trkpt lat="47.25428" lon="-2.25585">
        <ele>31</ele>
        <time>2019-06-20T08:35:34.000Z</time>
      </trkpt>
      <trkpt lat="47.25425" lon="-2.25581">
        <ele>30.60000038147</ele>
        <time>2019-06-20T08:35:35.000Z</time>
      </trkpt>
      <trkpt lat="47.25423" lon="-2.25579">
        <ele>30.200000762939</ele>
        <time>2019-06-20T08:35:36.000Z</time>
      </trkpt>
      <trkpt lat="47.25421" lon="-2.25577">
        <ele>29.60000038147</ele>
        <time>2019-06-20T08:35:37.000Z</time>
      </trkpt>
      <trkpt lat="47.25419" lon="-2.25576">
        <ele>29.200000762939</ele>
        <time>2019-06-20T08:35:38.000Z</time>
      </trkpt>
      <trkpt lat="47.25417" lon="-2.25574">
        <ele>28.799999237061</ele>
        <time>2019-06-20T08:35:39.000Z</time>
      </trkpt>
      <trkpt lat="47.25413" lon="-2.25569">
        <ele>28.39999961853</ele>
        <time>2019-06-20T08:35:41.000Z</time>
      </trkpt>
      <trkpt lat="47.25409" lon="-2.25567">
        <ele>27.799999237061</ele>
        <time>2019-06-20T08:35:42.000Z</time>
      </trkpt>
      <trkpt lat="47.25405" lon="-2.25565">
        <ele>27.39999961853</ele>
        <time>2019-06-20T08:35:43.000Z</time>
      </trkpt>
      <trkpt lat="47.254" lon="-2.25562">
        <ele>27</ele>
        <time>2019-06-20T08:35:44.000Z</time>
      </trkpt>
      <trkpt lat="47.25396" lon="-2.25559">
        <ele>26.60000038147</ele>
        <time>2019-06-20T08:35:45.000Z</time>
      </trkpt>
      <trkpt lat="47.25389" lon="-2.25548">
        <ele>26.200000762939</ele>
        <time>2019-06-20T08:35:47.000Z</time>
      </trkpt>
      <trkpt lat="47.25386" lon="-2.25542">
        <ele>25.799999237061</ele>
        <time>2019-06-20T08:35:48.000Z</time>
      </trkpt>
      <trkpt lat="47.25385" lon="-2.25536">
        <ele>25.39999961853</ele>
        <time>2019-06-20T08:35:49.000Z</time>
      </trkpt>
      <trkpt lat="47.25385" lon="-2.25528">
        <ele>25</ele>
        <time>2019-06-20T08:35:50.000Z</time>
      </trkpt>
      <trkpt lat="47.25386" lon="-2.2552">
        <ele>24.60000038147</ele>
        <time>2019-06-20T08:35:51.000Z</time>
      </trkpt>
      <trkpt lat="47.25386" lon="-2.25495">
        <ele>24.60000038147</ele>
        <time>2019-06-20T08:35:55.000Z</time>
      </trkpt>
      <trkpt lat="47.25378" lon="-2.25472">
        <ele>24.60000038147</ele>
        <time>2019-06-20T08:35:59.000Z</time>
      </trkpt>
      <trkpt lat="47.25364" lon="-2.25456">
        <ele>24.60000038147</ele>
        <time>2019-06-20T08:36:03.000Z</time>
      </trkpt>
      <trkpt lat="47.25351" lon="-2.25431">
        <ele>24.60000038147</ele>
        <time>2019-06-20T08:36:08.000Z</time>
      </trkpt>
      <trkpt lat="47.25349" lon="-2.25418">
        <ele>24.200000762939</ele>
        <time>2019-06-20T08:36:11.000Z</time>
      </trkpt>
      <trkpt lat="47.2535" lon="-2.25412">
        <ele>23.60000038147</ele>
        <time>2019-06-20T08:36:12.000Z</time>
      </trkpt>
      <trkpt lat="47.25351" lon="-2.25407">
        <ele>23.200000762939</ele>
        <time>2019-06-20T08:36:13.000Z</time>
      </trkpt>
      <trkpt lat="47.25352" lon="-2.25401">
        <ele>22.799999237061</ele>
        <time>2019-06-20T08:36:14.000Z</time>
      </trkpt>
      <trkpt lat="47.25353" lon="-2.25397">
        <ele>22.39999961853</ele>
        <time>2019-06-20T08:36:15.000Z</time>
      </trkpt>
      <trkpt lat="47.25356" lon="-2.25388">
        <ele>22.39999961853</ele>
        <time>2019-06-20T08:36:17.000Z</time>
      </trkpt>
      <trkpt lat="47.25364" lon="-2.2538">
        <ele>22.39999961853</ele>
        <time>2019-06-20T08:36:21.000Z</time>
      </trkpt>
      <trkpt lat="47.25377" lon="-2.25377">
        <ele>22.39999961853</ele>
        <time>2019-06-20T08:36:26.000Z</time>
      </trkpt>
      <trkpt lat="47.25385" lon="-2.25374">
        <ele>22.39999961853</ele>
        <time>2019-06-20T08:36:30.000Z</time>
      </trkpt>
      <trkpt lat="47.25389" lon="-2.2538">
        <ele>22.39999961853</ele>
        <time>2019-06-20T08:36:35.000Z</time>
      </trkpt>
      <trkpt lat="47.2539" lon="-2.25385">
        <ele>22.39999961853</ele>
        <time>2019-06-20T08:36:37.000Z</time>
      </trkpt>
      <trkpt lat="47.25394" lon="-2.25386">
        <ele>22.39999961853</ele>
        <time>2019-06-20T08:36:39.000Z</time>
      </trkpt>
      <trkpt lat="47.25406" lon="-2.25394">
        <ele>23.200000762939</ele>
        <time>2019-06-20T08:36:42.000Z</time>
      </trkpt>
      <trkpt lat="47.2541" lon="-2.25397">
        <ele>23.60000038147</ele>
        <time>2019-06-20T08:36:43.000Z</time>
      </trkpt>
      <trkpt lat="47.25414" lon="-2.25398">
        <ele>24</ele>
        <time>2019-06-20T08:36:44.000Z</time>
      </trkpt>
      <trkpt lat="47.25418" lon="-2.25398">
        <ele>24.39999961853</ele>
        <time>2019-06-20T08:36:45.000Z</time>
      </trkpt>
      <trkpt lat="47.25424" lon="-2.25401">
        <ele>24.39999961853</ele>
        <time>2019-06-20T08:36:47.000Z</time>
      </trkpt>
      <trkpt lat="47.25426" lon="-2.25405">
        <ele>25</ele>
        <time>2019-06-20T08:36:48.000Z</time>
      </trkpt>
      <trkpt lat="47.25429" lon="-2.25406">
        <ele>25.39999961853</ele>
        <time>2019-06-20T08:36:49.000Z</time>
      </trkpt>
      <trkpt lat="47.2543" lon="-2.25405">
        <ele>25.799999237061</ele>
        <time>2019-06-20T08:36:50.000Z</time>
      </trkpt>
      <trkpt lat="47.25432" lon="-2.25403">
        <ele>26.200000762939</ele>
        <time>2019-06-20T08:36:51.000Z</time>
      </trkpt>
      <trkpt lat="47.25433" lon="-2.254">
        <ele>26.799999237061</ele>
        <time>2019-06-20T08:36:52.000Z</time>
      </trkpt>
      <trkpt lat="47.25438" lon="-2.25396">
        <ele>26.799999237061</ele>
        <time>2019-06-20T08:36:55.000Z</time>
      </trkpt>
      <trkpt lat="47.25442" lon="-2.25398">
        <ele>27.200000762939</ele>
        <time>2019-06-20T08:36:57.000Z</time>
      </trkpt>
      <trkpt lat="47.25444" lon="-2.254">
        <ele>27.60000038147</ele>
        <time>2019-06-20T08:36:58.000Z</time>
      </trkpt>
      <trkpt lat="47.25446" lon="-2.25402">
        <ele>28</ele>
        <time>2019-06-20T08:36:59.000Z</time>
      </trkpt>
      <trkpt lat="47.25447" lon="-2.25404">
        <ele>28.39999961853</ele>
        <time>2019-06-20T08:37:00.000Z</time>
      </trkpt>
      <trkpt lat="47.25449" lon="-2.25405">
        <ele>28.799999237061</ele>
        <time>2019-06-20T08:37:01.000Z</time>
      </trkpt>
      <trkpt lat="47.25452" lon="-2.25408">
        <ele>28.799999237061</ele>
        <time>2019-06-20T08:37:04.000Z</time>
      </trkpt>
      <trkpt lat="47.25456" lon="-2.25406">
        <ele>29.200000762939</ele>
        <time>2019-06-20T08:37:07.000Z</time>
      </trkpt>
      <trkpt lat="47.25458" lon="-2.25405">
        <ele>29.60000038147</ele>
        <time>2019-06-20T08:37:08.000Z</time>
      </trkpt>
      <trkpt lat="47.2546" lon="-2.25404">
        <ele>30</ele>
        <time>2019-06-20T08:37:09.000Z</time>
      </trkpt>
      <trkpt lat="47.25462" lon="-2.25403">
        <ele>30.60000038147</ele>
        <time>2019-06-20T08:37:10.000Z</time>
      </trkpt>
      <trkpt lat="47.25465" lon="-2.25402">
        <ele>31</ele>
        <time>2019-06-20T08:37:11.000Z</time>
      </trkpt>
      <trkpt lat="47.25468" lon="-2.25402">
        <ele>31</ele>
        <time>2019-06-20T08:37:12.000Z</time>
      </trkpt>
      <trkpt lat="47.25469" lon="-2.25403">
        <ele>31</ele>
        <time>2019-06-20T08:37:13.000Z</time>
      </trkpt>
      <trkpt lat="47.2547" lon="-2.25405">
        <ele>31</ele>
        <time>2019-06-20T08:37:14.000Z</time>
      </trkpt>
      <trkpt lat="47.25475" lon="-2.25411">
        <ele>31.39999961853</ele>
        <time>2019-06-20T08:37:17.000Z</time>
      </trkpt>
      <trkpt lat="47.25477" lon="-2.25412">
        <ele>31.799999237061</ele>
        <time>2019-06-20T08:37:18.000Z</time>
      </trkpt>
      <trkpt lat="47.25478" lon="-2.25412">
        <ele>32.200000762939</ele>
        <time>2019-06-20T08:37:19.000Z</time>
      </trkpt>
      <trkpt lat="47.2548" lon="-2.25413">
        <ele>32.599998474121</ele>
        <time>2019-06-20T08:37:20.000Z</time>
      </trkpt>
      <trkpt lat="47.25481" lon="-2.25413">
        <ele>33</ele>
        <time>2019-06-20T08:37:21.000Z</time>
      </trkpt>
      <trkpt lat="47.25483" lon="-2.25416">
        <ele>33</ele>
        <time>2019-06-20T08:37:22.000Z</time>
      </trkpt>
      <trkpt lat="47.25487" lon="-2.25424">
        <ele>33.400001525879</ele>
        <time>2019-06-20T08:37:24.000Z</time>
      </trkpt>
      <trkpt lat="47.25489" lon="-2.25429">
        <ele>33.799999237061</ele>
        <time>2019-06-20T08:37:25.000Z</time>
      </trkpt>
      <trkpt lat="47.25491" lon="-2.25434">
        <ele>34.400001525879</ele>
        <time>2019-06-20T08:37:26.000Z</time>
      </trkpt>
      <trkpt lat="47.25493" lon="-2.25439">
        <ele>34.799999237061</ele>
        <time>2019-06-20T08:37:27.000Z</time>
      </trkpt>
      <trkpt lat="47.25495" lon="-2.25444">
        <ele>35.200000762939</ele>
        <time>2019-06-20T08:37:28.000Z</time>
      </trkpt>
      <trkpt lat="47.25498" lon="-2.25458">
        <ele>35.200000762939</ele>
        <time>2019-06-20T08:37:31.000Z</time>
      </trkpt>
      <trkpt lat="47.25499" lon="-2.25481">
        <ele>35.200000762939</ele>
        <time>2019-06-20T08:37:36.000Z</time>
      </trkpt>
      <trkpt lat="47.25494" lon="-2.25519">
        <ele>35.200000762939</ele>
        <time>2019-06-20T08:37:42.000Z</time>
      </trkpt>
      <trkpt lat="47.25493" lon="-2.25525">
        <ele>35.200000762939</ele>
        <time>2019-06-20T08:37:43.000Z</time>
      </trkpt>
      <trkpt lat="47.25491" lon="-2.25541">
        <ele>35.200000762939</ele>
        <time>2019-06-20T08:37:46.000Z</time>
      </trkpt>
      <trkpt lat="47.25491" lon="-2.25584">
        <ele>35.200000762939</ele>
        <time>2019-06-20T08:37:53.000Z</time>
      </trkpt>
      <trkpt lat="47.25493" lon="-2.2562">
        <ele>35.200000762939</ele>
        <time>2019-06-20T08:38:00.000Z</time>
      </trkpt>
      <trkpt lat="47.25491" lon="-2.25656">
        <ele>35.200000762939</ele>
        <time>2019-06-20T08:38:05.000Z</time>
      </trkpt>
      <trkpt lat="47.25491" lon="-2.25671">
        <ele>35.200000762939</ele>
        <time>2019-06-20T08:38:07.000Z</time>
      </trkpt>
      <trkpt lat="47.25496" lon="-2.2568">
        <ele>35.200000762939</ele>
        <time>2019-06-20T08:38:09.000Z</time>
      </trkpt>
      <trkpt lat="47.25506" lon="-2.25699">
        <ele>35.200000762939</ele>
        <time>2019-06-20T08:38:14.000Z</time>
      </trkpt>
      <trkpt lat="47.25507" lon="-2.25721">
        <ele>35.200000762939</ele>
        <time>2019-06-20T08:38:19.000Z</time>
      </trkpt>
      <trkpt lat="47.25507" lon="-2.2573">
        <ele>35.599998474121</ele>
        <time>2019-06-20T08:38:21.000Z</time>
      </trkpt>
      <trkpt lat="47.25507" lon="-2.25734">
        <ele>36</ele>
        <time>2019-06-20T08:38:22.000Z</time>
      </trkpt>
      <trkpt lat="47.25507" lon="-2.25737">
        <ele>36.400001525879</ele>
        <time>2019-06-20T08:38:23.000Z</time>
      </trkpt>
      <trkpt lat="47.25506" lon="-2.25741">
        <ele>36.799999237061</ele>
        <time>2019-06-20T08:38:24.000Z</time>
      </trkpt>
      <trkpt lat="47.25505" lon="-2.25743">
        <ele>37.200000762939</ele>
        <time>2019-06-20T08:38:25.000Z</time>
      </trkpt>
      <trkpt lat="47.25502" lon="-2.25744">
        <ele>37.200000762939</ele>
        <time>2019-06-20T08:38:28.000Z</time>
      </trkpt>
      <trkpt lat="47.255" lon="-2.25744">
        <ele>37.200000762939</ele>
        <time>2019-06-20T08:38:29.000Z</time>
      </trkpt>
      <trkpt lat="47.25495" lon="-2.25749">
        <ele>37.200000762939</ele>
        <time>2019-06-20T08:38:33.000Z</time>
      </trkpt>
      <trkpt lat="47.2549" lon="-2.25759">
        <ele>37.200000762939</ele>
        <time>2019-06-20T08:38:39.000Z</time>
      </trkpt>
      <trkpt lat="47.25488" lon="-2.25763">
        <ele>37.200000762939</ele>
        <time>2019-06-20T08:38:41.000Z</time>
      </trkpt>
      <trkpt lat="47.25482" lon="-2.25769">
        <ele>37.200000762939</ele>
        <time>2019-06-20T08:38:44.000Z</time>
      </trkpt>
      <trkpt lat="47.25476" lon="-2.25788">
        <ele>37.200000762939</ele>
        <time>2019-06-20T08:38:49.000Z</time>
      </trkpt>
      <trkpt lat="47.25474" lon="-2.25792">
        <ele>37.200000762939</ele>
        <time>2019-06-20T08:38:50.000Z</time>
      </trkpt>
      <trkpt lat="47.25466" lon="-2.25797">
        <ele>37.200000762939</ele>
        <time>2019-06-20T08:38:53.000Z</time>
      </trkpt>
      <trkpt lat="47.25454" lon="-2.25806">
        <ele>37.200000762939</ele>
        <time>2019-06-20T08:38:58.000Z</time>
      </trkpt>
      <trkpt lat="47.25453" lon="-2.2581">
        <ele>37.200000762939</ele>
        <time>2019-06-20T08:38:59.000Z</time>
      </trkpt>
      <trkpt lat="47.25452" lon="-2.25816">
        <ele>37.200000762939</ele>
        <time>2019-06-20T08:39:01.000Z</time>
      </trkpt>
      <trkpt lat="47.25451" lon="-2.2582">
        <ele>37.200000762939</ele>
        <time>2019-06-20T08:39:02.000Z</time>
      </trkpt>
      <trkpt lat="47.25451" lon="-2.25825">
        <ele>36.799999237061</ele>
        <time>2019-06-20T08:39:03.000Z</time>
      </trkpt>
      <trkpt lat="47.25449" lon="-2.25829">
        <ele>36.400001525879</ele>
        <time>2019-06-20T08:39:04.000Z</time>
      </trkpt>
      <trkpt lat="47.25447" lon="-2.25834">
        <ele>36</ele>
        <time>2019-06-20T08:39:05.000Z</time>
      </trkpt>
      <trkpt lat="47.25446" lon="-2.25838">
        <ele>35.599998474121</ele>
        <time>2019-06-20T08:39:06.000Z</time>
      </trkpt>
      <trkpt lat="47.25445" lon="-2.25843">
        <ele>35.200000762939</ele>
        <time>2019-06-20T08:39:07.000Z</time>
      </trkpt>
      <trkpt lat="47.25442" lon="-2.2586">
        <ele>35.200000762939</ele>
        <time>2019-06-20T08:39:10.000Z</time>
      </trkpt>
      <trkpt lat="47.25443" lon="-2.25864">
        <ele>35.200000762939</ele>
        <time>2019-06-20T08:39:11.000Z</time>
      </trkpt>
      <trkpt lat="47.2544" lon="-2.25881">
        <ele>35.200000762939</ele>
        <time>2019-06-20T08:39:15.000Z</time>
      </trkpt>
      <trkpt lat="47.25436" lon="-2.25891">
        <ele>35.200000762939</ele>
        <time>2019-06-20T08:39:18.000Z</time>
      </trkpt>
      <trkpt lat="47.25433" lon="-2.25911">
        <ele>35.200000762939</ele>
        <time>2019-06-20T08:39:22.000Z</time>
      </trkpt>
      <trkpt lat="47.25436" lon="-2.25926">
        <ele>35.200000762939</ele>
        <time>2019-06-20T08:39:27.000Z</time>
      </trkpt>
      <trkpt lat="47.2544" lon="-2.25943">
        <ele>35.200000762939</ele>
        <time>2019-06-20T08:39:33.000Z</time>
      </trkpt>
      <trkpt lat="47.25441" lon="-2.25951">
        <ele>35.200000762939</ele>
        <time>2019-06-20T08:39:36.000Z</time>
      </trkpt>
      <trkpt lat="47.25435" lon="-2.25944">
        <ele>35.200000762939</ele>
        <time>2019-06-20T08:40:15.000Z</time>
      </trkpt>
      <trkpt lat="47.25433" lon="-2.25943">
        <ele>35.200000762939</ele>
        <time>2019-06-20T08:40:16.000Z</time>
      </trkpt>
      <trkpt lat="47.25429" lon="-2.25949">
        <ele>35.200000762939</ele>
        <time>2019-06-20T08:40:19.000Z</time>
      </trkpt>
      <trkpt lat="47.25426" lon="-2.25952">
        <ele>35.200000762939</ele>
        <time>2019-06-20T08:40:20.000Z</time>
      </trkpt>
      <trkpt lat="47.25423" lon="-2.25956">
        <ele>34.599998474121</ele>
        <time>2019-06-20T08:40:21.000Z</time>
      </trkpt>
      <trkpt lat="47.25418" lon="-2.25959">
        <ele>34.200000762939</ele>
        <time>2019-06-20T08:40:22.000Z</time>
      </trkpt>
      <trkpt lat="47.25414" lon="-2.25964">
        <ele>33.799999237061</ele>
        <time>2019-06-20T08:40:23.000Z</time>
      </trkpt>
      <trkpt lat="47.25412" lon="-2.25967">
        <ele>33</ele>
        <time>2019-06-20T08:40:24.000Z</time>
      </trkpt>
      <trkpt lat="47.25409" lon="-2.25973">
        <ele>33</ele>
        <time>2019-06-20T08:40:26.000Z</time>
      </trkpt>
      <trkpt lat="47.25408" lon="-2.25977">
        <ele>33</ele>
        <time>2019-06-20T08:40:27.000Z</time>
      </trkpt>
      <trkpt lat="47.25404" lon="-2.25981">
        <ele>33</ele>
        <time>2019-06-20T08:40:29.000Z</time>
      </trkpt>
      <trkpt lat="47.25393" lon="-2.25983">
        <ele>33</ele>
        <time>2019-06-20T08:40:35.000Z</time>
      </trkpt>
      <trkpt lat="47.25386" lon="-2.25983">
        <ele>33</ele>
        <time>2019-06-20T08:40:40.000Z</time>
      </trkpt>
      <trkpt lat="47.25384" lon="-2.25983">
        <ele>33.400001525879</ele>
        <time>2019-06-20T08:40:41.000Z</time>
      </trkpt>
      <trkpt lat="47.25382" lon="-2.25983">
        <ele>34</ele>
        <time>2019-06-20T08:40:42.000Z</time>
      </trkpt>
      <trkpt lat="47.2538" lon="-2.25983">
        <ele>34.400001525879</ele>
        <time>2019-06-20T08:40:43.000Z</time>
      </trkpt>
      <trkpt lat="47.25378" lon="-2.25982">
        <ele>34.799999237061</ele>
        <time>2019-06-20T08:40:44.000Z</time>
      </trkpt>
      <trkpt lat="47.25376" lon="-2.25982">
        <ele>35.200000762939</ele>
        <time>2019-06-20T08:40:45.000Z</time>
      </trkpt>
      <trkpt lat="47.25374" lon="-2.25983">
        <ele>35.799999237061</ele>
        <time>2019-06-20T08:40:47.000Z</time>
      </trkpt>
      <trkpt lat="47.25373" lon="-2.25983">
        <ele>36.599998474121</ele>
        <time>2019-06-20T08:40:48.000Z</time>
      </trkpt>
      <trkpt lat="47.25379" lon="-2.25993">
        <ele>37.400001525879</ele>
        <time>2019-06-20T08:40:56.000Z</time>
      </trkpt>
      <trkpt lat="47.25384" lon="-2.25994">
        <ele>37.400001525879</ele>
        <time>2019-06-20T08:40:58.000Z</time>
      </trkpt>
      <trkpt lat="47.25386" lon="-2.25996">
        <ele>37</ele>
        <time>2019-06-20T08:40:59.000Z</time>
      </trkpt>
      <trkpt lat="47.25389" lon="-2.25999">
        <ele>36.400001525879</ele>
        <time>2019-06-20T08:41:00.000Z</time>
      </trkpt>
      <trkpt lat="47.2539" lon="-2.26001">
        <ele>36</ele>
        <time>2019-06-20T08:41:01.000Z</time>
      </trkpt>
      <trkpt lat="47.25389" lon="-2.26003">
        <ele>35.400001525879</ele>
        <time>2019-06-20T08:41:02.000Z</time>
      </trkpt>
      <trkpt lat="47.2539" lon="-2.26006">
        <ele>35</ele>
        <time>2019-06-20T08:41:03.000Z</time>
      </trkpt>
      <trkpt lat="47.2539" lon="-2.26009">
        <ele>35</ele>
        <time>2019-06-20T08:41:04.000Z</time>
      </trkpt>
      <trkpt lat="47.2539" lon="-2.26024">
        <ele>35</ele>
        <time>2019-06-20T08:41:09.000Z</time>
      </trkpt>
      <trkpt lat="47.25389" lon="-2.26027">
        <ele>35.400001525879</ele>
        <time>2019-06-20T08:41:10.000Z</time>
      </trkpt>
      <trkpt lat="47.25388" lon="-2.2603">
        <ele>35.799999237061</ele>
        <time>2019-06-20T08:41:11.000Z</time>
      </trkpt>
      <trkpt lat="47.25388" lon="-2.26034">
        <ele>36.400001525879</ele>
        <time>2019-06-20T08:41:12.000Z</time>
      </trkpt>
      <trkpt lat="47.25388" lon="-2.26039">
        <ele>37.200000762939</ele>
        <time>2019-06-20T08:41:13.000Z</time>
      </trkpt>
      <trkpt lat="47.25388" lon="-2.26051">
        <ele>37.200000762939</ele>
        <time>2019-06-20T08:41:16.000Z</time>
      </trkpt>
      <trkpt lat="47.25387" lon="-2.26062">
        <ele>37.200000762939</ele>
        <time>2019-06-20T08:41:18.000Z</time>
      </trkpt>
      <trkpt lat="47.2539" lon="-2.26084">
        <ele>37.200000762939</ele>
        <time>2019-06-20T08:41:23.000Z</time>
      </trkpt>
      <trkpt lat="47.25392" lon="-2.26101">
        <ele>37.200000762939</ele>
        <time>2019-06-20T08:41:29.000Z</time>
      </trkpt>
      <trkpt lat="47.25392" lon="-2.26104">
        <ele>37.200000762939</ele>
        <time>2019-06-20T08:41:30.000Z</time>
      </trkpt>
      <trkpt lat="47.25391" lon="-2.26107">
        <ele>37.200000762939</ele>
        <time>2019-06-20T08:41:32.000Z</time>
      </trkpt>
      <trkpt lat="47.25391" lon="-2.26112">
        <ele>37.200000762939</ele>
        <time>2019-06-20T08:42:12.000Z</time>
      </trkpt>
      <trkpt lat="47.2539" lon="-2.26114">
        <ele>37.200000762939</ele>
        <time>2019-06-20T08:42:13.000Z</time>
      </trkpt>
      <trkpt lat="47.25387" lon="-2.26118">
        <ele>37.200000762939</ele>
        <time>2019-06-20T08:42:15.000Z</time>
      </trkpt>
      <trkpt lat="47.25382" lon="-2.26119">
        <ele>37.200000762939</ele>
        <time>2019-06-20T08:42:18.000Z</time>
      </trkpt>
      <trkpt lat="47.25381" lon="-2.26121">
        <ele>37.799999237061</ele>
        <time>2019-06-20T08:42:19.000Z</time>
      </trkpt>
      <trkpt lat="47.25381" lon="-2.26123">
        <ele>38.200000762939</ele>
        <time>2019-06-20T08:42:20.000Z</time>
      </trkpt>
      <trkpt lat="47.2538" lon="-2.26126">
        <ele>38.799999237061</ele>
        <time>2019-06-20T08:42:21.000Z</time>
      </trkpt>
      <trkpt lat="47.2538" lon="-2.26129">
        <ele>39.200000762939</ele>
        <time>2019-06-20T08:42:22.000Z</time>
      </trkpt>
      <trkpt lat="47.25378" lon="-2.26132">
        <ele>39.599998474121</ele>
        <time>2019-06-20T08:42:23.000Z</time>
      </trkpt>
      <trkpt lat="47.25372" lon="-2.2615">
        <ele>39.599998474121</ele>
        <time>2019-06-20T08:42:27.000Z</time>
      </trkpt>
      <trkpt lat="47.2537" lon="-2.2616">
        <ele>40.200000762939</ele>
        <time>2019-06-20T08:42:29.000Z</time>
      </trkpt>
      <trkpt lat="47.2537" lon="-2.26163">
        <ele>40.599998474121</ele>
        <time>2019-06-20T08:42:30.000Z</time>
      </trkpt>
      <trkpt lat="47.2537" lon="-2.26167">
        <ele>41</ele>
        <time>2019-06-20T08:42:31.000Z</time>
      </trkpt>
      <trkpt lat="47.25369" lon="-2.2617">
        <ele>41.400001525879</ele>
        <time>2019-06-20T08:42:32.000Z</time>
      </trkpt>
      <trkpt lat="47.2537" lon="-2.26174">
        <ele>41.799999237061</ele>
        <time>2019-06-20T08:42:33.000Z</time>
      </trkpt>
      <trkpt lat="47.25371" lon="-2.26185">
        <ele>42.200000762939</ele>
        <time>2019-06-20T08:42:37.000Z</time>
      </trkpt>
      <trkpt lat="47.25372" lon="-2.26187">
        <ele>42.599998474121</ele>
        <time>2019-06-20T08:42:38.000Z</time>
      </trkpt>
      <trkpt lat="47.25373" lon="-2.2619">
        <ele>43.200000762939</ele>
        <time>2019-06-20T08:42:39.000Z</time>
      </trkpt>
      <trkpt lat="47.25374" lon="-2.26192">
        <ele>43.599998474121</ele>
        <time>2019-06-20T08:42:40.000Z</time>
      </trkpt>
      <trkpt lat="47.25375" lon="-2.26194">
        <ele>44</ele>
        <time>2019-06-20T08:42:41.000Z</time>
      </trkpt>
      <trkpt lat="47.25376" lon="-2.26197">
        <ele>44</ele>
        <time>2019-06-20T08:42:42.000Z</time>
      </trkpt>
      <trkpt lat="47.25385" lon="-2.26221">
        <ele>44</ele>
        <time>2019-06-20T08:42:47.000Z</time>
      </trkpt>
      <trkpt lat="47.25387" lon="-2.26245">
        <ele>44</ele>
        <time>2019-06-20T08:42:51.000Z</time>
      </trkpt>
      <trkpt lat="47.25385" lon="-2.26261">
        <ele>44.400001525879</ele>
        <time>2019-06-20T08:42:56.000Z</time>
      </trkpt>
      <trkpt lat="47.25385" lon="-2.26264">
        <ele>44.799999237061</ele>
        <time>2019-06-20T08:42:57.000Z</time>
      </trkpt>
      <trkpt lat="47.25385" lon="-2.26268">
        <ele>45.200000762939</ele>
        <time>2019-06-20T08:42:58.000Z</time>
      </trkpt>
      <trkpt lat="47.25385" lon="-2.2627">
        <ele>45.599998474121</ele>
        <time>2019-06-20T08:42:59.000Z</time>
      </trkpt>
      <trkpt lat="47.25386" lon="-2.26272">
        <ele>46</ele>
        <time>2019-06-20T08:43:00.000Z</time>
      </trkpt>
      <trkpt lat="47.25387" lon="-2.26275">
        <ele>46</ele>
        <time>2019-06-20T08:43:01.000Z</time>
      </trkpt>
      <trkpt lat="47.25387" lon="-2.26278">
        <ele>46</ele>
        <time>2019-06-20T08:43:02.000Z</time>
      </trkpt>
      <trkpt lat="47.25391" lon="-2.26291">
        <ele>46</ele>
        <time>2019-06-20T08:43:05.000Z</time>
      </trkpt>
      <trkpt lat="47.25391" lon="-2.26293">
        <ele>46</ele>
        <time>2019-06-20T08:43:06.000Z</time>
      </trkpt>
      <trkpt lat="47.25394" lon="-2.26299">
        <ele>46</ele>
        <time>2019-06-20T08:43:19.000Z</time>
      </trkpt>
      <trkpt lat="47.25396" lon="-2.26305">
        <ele>46</ele>
        <time>2019-06-20T08:43:21.000Z</time>
      </trkpt>
      <trkpt lat="47.254" lon="-2.26314">
        <ele>46</ele>
        <time>2019-06-20T08:43:24.000Z</time>
      </trkpt>
      <trkpt lat="47.25405" lon="-2.26312">
        <ele>46</ele>
        <time>2019-06-20T08:43:26.000Z</time>
      </trkpt>
      <trkpt lat="47.25411" lon="-2.26303">
        <ele>45.599998474121</ele>
        <time>2019-06-20T08:43:28.000Z</time>
      </trkpt>
      <trkpt lat="47.25416" lon="-2.26302">
        <ele>45</ele>
        <time>2019-06-20T08:43:29.000Z</time>
      </trkpt>
      <trkpt lat="47.25422" lon="-2.26301">
        <ele>44.599998474121</ele>
        <time>2019-06-20T08:43:30.000Z</time>
      </trkpt>
      <trkpt lat="47.25427" lon="-2.263">
        <ele>44.200000762939</ele>
        <time>2019-06-20T08:43:31.000Z</time>
      </trkpt>
      <trkpt lat="47.25434" lon="-2.26301">
        <ele>43.599998474121</ele>
        <time>2019-06-20T08:43:32.000Z</time>
      </trkpt>
      <trkpt lat="47.25441" lon="-2.26302">
        <ele>43.599998474121</ele>
        <time>2019-06-20T08:43:34.000Z</time>
      </trkpt>
      <trkpt lat="47.25444" lon="-2.26303">
        <ele>43.200000762939</ele>
        <time>2019-06-20T08:43:36.000Z</time>
      </trkpt>
      <trkpt lat="47.25445" lon="-2.26304">
        <ele>42.799999237061</ele>
        <time>2019-06-20T08:43:37.000Z</time>
      </trkpt>
      <trkpt lat="47.25446" lon="-2.26304">
        <ele>42.400001525879</ele>
        <time>2019-06-20T08:43:38.000Z</time>
      </trkpt>
      <trkpt lat="47.25446" lon="-2.26304">
        <ele>42</ele>
        <time>2019-06-20T08:43:39.000Z</time>
      </trkpt>
      <trkpt lat="47.25446" lon="-2.26303">
        <ele>41.599998474121</ele>
        <time>2019-06-20T08:43:40.000Z</time>
      </trkpt>
      <trkpt lat="47.25448" lon="-2.263">
        <ele>41.599998474121</ele>
        <time>2019-06-20T08:43:43.000Z</time>
      </trkpt>
      <trkpt lat="47.25451" lon="-2.26297">
        <ele>41.599998474121</ele>
        <time>2019-06-20T08:43:45.000Z</time>
      </trkpt>
      <trkpt lat="47.25456" lon="-2.2629">
        <ele>41.599998474121</ele>
        <time>2019-06-20T08:43:48.000Z</time>
      </trkpt>
      <trkpt lat="47.25458" lon="-2.26285">
        <ele>41.599998474121</ele>
        <time>2019-06-20T08:43:50.000Z</time>
      </trkpt>
      <trkpt lat="47.2546" lon="-2.26283">
        <ele>42</ele>
        <time>2019-06-20T08:43:52.000Z</time>
      </trkpt>
      <trkpt lat="47.25461" lon="-2.26282">
        <ele>42.599998474121</ele>
        <time>2019-06-20T08:43:53.000Z</time>
      </trkpt>
      <trkpt lat="47.25462" lon="-2.26283">
        <ele>43</ele>
        <time>2019-06-20T08:43:54.000Z</time>
      </trkpt>
      <trkpt lat="47.25463" lon="-2.26283">
        <ele>43.400001525879</ele>
        <time>2019-06-20T08:43:55.000Z</time>
      </trkpt>
      <trkpt lat="47.25464" lon="-2.26283">
        <ele>44</ele>
        <time>2019-06-20T08:43:56.000Z</time>
      </trkpt>
      <trkpt lat="47.25465" lon="-2.26285">
        <ele>44.400001525879</ele>
        <time>2019-06-20T08:43:57.000Z</time>
      </trkpt>
      <trkpt lat="47.25465" lon="-2.26287">
        <ele>44.799999237061</ele>
        <time>2019-06-20T08:43:58.000Z</time>
      </trkpt>
      <trkpt lat="47.25466" lon="-2.26289">
        <ele>45.200000762939</ele>
        <time>2019-06-20T08:43:59.000Z</time>
      </trkpt>
      <trkpt lat="47.25465" lon="-2.26292">
        <ele>45.599998474121</ele>
        <time>2019-06-20T08:44:00.000Z</time>
      </trkpt>
      <trkpt lat="47.25465" lon="-2.26294">
        <ele>46</ele>
        <time>2019-06-20T08:44:01.000Z</time>
      </trkpt>
      <trkpt lat="47.25465" lon="-2.263">
        <ele>46</ele>
        <time>2019-06-20T08:44:04.000Z</time>
      </trkpt>
      <trkpt lat="47.25466" lon="-2.26303">
        <ele>46</ele>
        <time>2019-06-20T08:44:05.000Z</time>
      </trkpt>
      <trkpt lat="47.25472" lon="-2.26326">
        <ele>46</ele>
        <time>2019-06-20T08:44:12.000Z</time>
      </trkpt>
      <trkpt lat="47.25473" lon="-2.26328">
        <ele>46</ele>
        <time>2019-06-20T08:44:13.000Z</time>
      </trkpt>
      <trkpt lat="47.25474" lon="-2.26341">
        <ele>46</ele>
        <time>2019-06-20T08:44:17.000Z</time>
      </trkpt>
      <trkpt lat="47.25474" lon="-2.26367">
        <ele>46</ele>
        <time>2019-06-20T08:44:23.000Z</time>
      </trkpt>
      <trkpt lat="47.25482" lon="-2.26379">
        <ele>46</ele>
        <time>2019-06-20T08:44:27.000Z</time>
      </trkpt>
      <trkpt lat="47.25483" lon="-2.26381">
        <ele>46</ele>
        <time>2019-06-20T08:44:28.000Z</time>
      </trkpt>
      <trkpt lat="47.25485" lon="-2.26383">
        <ele>46.599998474121</ele>
        <time>2019-06-20T08:44:29.000Z</time>
      </trkpt>
      <trkpt lat="47.25486" lon="-2.26385">
        <ele>47.400001525879</ele>
        <time>2019-06-20T08:44:30.000Z</time>
      </trkpt>
      <trkpt lat="47.25488" lon="-2.26388">
        <ele>47.799999237061</ele>
        <time>2019-06-20T08:44:31.000Z</time>
      </trkpt>
      <trkpt lat="47.25488" lon="-2.26391">
        <ele>48.400001525879</ele>
        <time>2019-06-20T08:44:32.000Z</time>
      </trkpt>
      <trkpt lat="47.25489" lon="-2.26397">
        <ele>48.400001525879</ele>
        <time>2019-06-20T08:44:34.000Z</time>
      </trkpt>
      <trkpt lat="47.25488" lon="-2.26412">
        <ele>48.400001525879</ele>
        <time>2019-06-20T08:44:38.000Z</time>
      </trkpt>
      <trkpt lat="47.25489" lon="-2.26415">
        <ele>48.400001525879</ele>
        <time>2019-06-20T08:44:39.000Z</time>
      </trkpt>
      <trkpt lat="47.25484" lon="-2.26438">
        <ele>48.400001525879</ele>
        <time>2019-06-20T08:44:45.000Z</time>
      </trkpt>
      <trkpt lat="47.25481" lon="-2.26459">
        <ele>48.400001525879</ele>
        <time>2019-06-20T08:44:49.000Z</time>
      </trkpt>
      <trkpt lat="47.25485" lon="-2.26484">
        <ele>48.400001525879</ele>
        <time>2019-06-20T08:44:54.000Z</time>
      </trkpt>
      <trkpt lat="47.25481" lon="-2.26507">
        <ele>48.400001525879</ele>
        <time>2019-06-20T08:44:59.000Z</time>
      </trkpt>
      <trkpt lat="47.2548" lon="-2.26514">
        <ele>48.400001525879</ele>
        <time>2019-06-20T08:45:00.000Z</time>
      </trkpt>
      <trkpt lat="47.25479" lon="-2.2653">
        <ele>48.400001525879</ele>
        <time>2019-06-20T08:45:02.000Z</time>
      </trkpt>
      <trkpt lat="47.25482" lon="-2.26549">
        <ele>48.400001525879</ele>
        <time>2019-06-20T08:45:05.000Z</time>
      </trkpt>
      <trkpt lat="47.25485" lon="-2.26561">
        <ele>48.400001525879</ele>
        <time>2019-06-20T08:45:07.000Z</time>
      </trkpt>
      <trkpt lat="47.25487" lon="-2.26574">
        <ele>48.400001525879</ele>
        <time>2019-06-20T08:45:09.000Z</time>
      </trkpt>
      <trkpt lat="47.25487" lon="-2.26594">
        <ele>48.400001525879</ele>
        <time>2019-06-20T08:45:12.000Z</time>
      </trkpt>
      <trkpt lat="47.25487" lon="-2.26601">
        <ele>48.400001525879</ele>
        <time>2019-06-20T08:45:13.000Z</time>
      </trkpt>
      <trkpt lat="47.25486" lon="-2.26623">
        <ele>48.400001525879</ele>
        <time>2019-06-20T08:45:16.000Z</time>
      </trkpt>
      <trkpt lat="47.25486" lon="-2.2663">
        <ele>48.400001525879</ele>
        <time>2019-06-20T08:45:17.000Z</time>
      </trkpt>
      <trkpt lat="47.25487" lon="-2.26652">
        <ele>48.400001525879</ele>
        <time>2019-06-20T08:45:20.000Z</time>
      </trkpt>
      <trkpt lat="47.25486" lon="-2.26666">
        <ele>48.400001525879</ele>
        <time>2019-06-20T08:45:22.000Z</time>
      </trkpt>
      <trkpt lat="47.25486" lon="-2.26673">
        <ele>48.799999237061</ele>
        <time>2019-06-20T08:45:23.000Z</time>
      </trkpt>
      <trkpt lat="47.25485" lon="-2.26679">
        <ele>49.200000762939</ele>
        <time>2019-06-20T08:45:24.000Z</time>
      </trkpt>
      <trkpt lat="47.25484" lon="-2.26685">
        <ele>49.799999237061</ele>
        <time>2019-06-20T08:45:25.000Z</time>
      </trkpt>
      <trkpt lat="47.25482" lon="-2.2669">
        <ele>50.200000762939</ele>
        <time>2019-06-20T08:45:26.000Z</time>
      </trkpt>
      <trkpt lat="47.2548" lon="-2.26696">
        <ele>50.599998474121</ele>
        <time>2019-06-20T08:45:27.000Z</time>
      </trkpt>
      <trkpt lat="47.25473" lon="-2.26721">
        <ele>50.599998474121</ele>
        <time>2019-06-20T08:45:32.000Z</time>
      </trkpt>
      <trkpt lat="47.25476" lon="-2.26731">
        <ele>50.599998474121</ele>
        <time>2019-06-20T08:45:34.000Z</time>
      </trkpt>
      <trkpt lat="47.25477" lon="-2.26733">
        <ele>50.599998474121</ele>
        <time>2019-06-20T08:45:35.000Z</time>
      </trkpt>
      <trkpt lat="47.25478" lon="-2.26734">
        <ele>50.599998474121</ele>
        <time>2019-06-20T08:45:36.000Z</time>
      </trkpt>
      <trkpt lat="47.25479" lon="-2.26736">
        <ele>50.599998474121</ele>
        <time>2019-06-20T08:46:13.000Z</time>
      </trkpt>
      <trkpt lat="47.2548" lon="-2.26738">
        <ele>50.599998474121</ele>
        <time>2019-06-20T08:46:14.000Z</time>
      </trkpt>
      <trkpt lat="47.25484" lon="-2.2675">
        <ele>50.599998474121</ele>
        <time>2019-06-20T08:46:19.000Z</time>
      </trkpt>
      <trkpt lat="47.25486" lon="-2.26753">
        <ele>51</ele>
        <time>2019-06-20T08:46:20.000Z</time>
      </trkpt>
      <trkpt lat="47.25487" lon="-2.26756">
        <ele>51.400001525879</ele>
        <time>2019-06-20T08:46:21.000Z</time>
      </trkpt>
      <trkpt lat="47.25489" lon="-2.26759">
        <ele>51.799999237061</ele>
        <time>2019-06-20T08:46:22.000Z</time>
      </trkpt>
      <trkpt lat="47.25491" lon="-2.26762">
        <ele>52.200000762939</ele>
        <time>2019-06-20T08:46:23.000Z</time>
      </trkpt>
      <trkpt lat="47.25493" lon="-2.26764">
        <ele>52.799999237061</ele>
        <time>2019-06-20T08:46:24.000Z</time>
      </trkpt>
      <trkpt lat="47.25497" lon="-2.26771">
        <ele>52.799999237061</ele>
        <time>2019-06-20T08:46:26.000Z</time>
      </trkpt>
      <trkpt lat="47.25512" lon="-2.26796">
        <ele>52.799999237061</ele>
        <time>2019-06-20T08:46:33.000Z</time>
      </trkpt>
      <trkpt lat="47.25528" lon="-2.26816">
        <ele>53.200000762939</ele>
        <time>2019-06-20T08:46:39.000Z</time>
      </trkpt>
      <trkpt lat="47.25531" lon="-2.26819">
        <ele>53.599998474121</ele>
        <time>2019-06-20T08:46:40.000Z</time>
      </trkpt>
      <trkpt lat="47.25534" lon="-2.26822">
        <ele>54</ele>
        <time>2019-06-20T08:46:41.000Z</time>
      </trkpt>
      <trkpt lat="47.25537" lon="-2.26824">
        <ele>54.400001525879</ele>
        <time>2019-06-20T08:46:42.000Z</time>
      </trkpt>
      <trkpt lat="47.2554" lon="-2.26827">
        <ele>54.799999237061</ele>
        <time>2019-06-20T08:46:43.000Z</time>
      </trkpt>
      <trkpt lat="47.25546" lon="-2.26834">
        <ele>54.799999237061</ele>
        <time>2019-06-20T08:46:45.000Z</time>
      </trkpt>
      <trkpt lat="47.25558" lon="-2.26846">
        <ele>54.799999237061</ele>
        <time>2019-06-20T08:46:49.000Z</time>
      </trkpt>
      <trkpt lat="47.25567" lon="-2.26855">
        <ele>55.200000762939</ele>
        <time>2019-06-20T08:46:52.000Z</time>
      </trkpt>
      <trkpt lat="47.25571" lon="-2.26858">
        <ele>55.599998474121</ele>
        <time>2019-06-20T08:46:53.000Z</time>
      </trkpt>
      <trkpt lat="47.25574" lon="-2.2686">
        <ele>56</ele>
        <time>2019-06-20T08:46:54.000Z</time>
      </trkpt>
      <trkpt lat="47.25578" lon="-2.26861">
        <ele>56.400001525879</ele>
        <time>2019-06-20T08:46:55.000Z</time>
      </trkpt>
      <trkpt lat="47.25582" lon="-2.26863">
        <ele>56.799999237061</ele>
        <time>2019-06-20T08:46:56.000Z</time>
      </trkpt>
      <trkpt lat="47.25595" lon="-2.2687">
        <ele>56.799999237061</ele>
        <time>2019-06-20T08:47:00.000Z</time>
      </trkpt>
      <trkpt lat="47.25602" lon="-2.26872">
        <ele>57.200000762939</ele>
        <time>2019-06-20T08:47:02.000Z</time>
      </trkpt>
      <trkpt lat="47.25605" lon="-2.26873">
        <ele>57.599998474121</ele>
        <time>2019-06-20T08:47:03.000Z</time>
      </trkpt>
      <trkpt lat="47.25608" lon="-2.26875">
        <ele>58.200000762939</ele>
        <time>2019-06-20T08:47:04.000Z</time>
      </trkpt>
      <trkpt lat="47.25611" lon="-2.26876">
        <ele>58.599998474121</ele>
        <time>2019-06-20T08:47:05.000Z</time>
      </trkpt>
      <trkpt lat="47.25614" lon="-2.26877">
        <ele>59</ele>
        <time>2019-06-20T08:47:06.000Z</time>
      </trkpt>
      <trkpt lat="47.25617" lon="-2.26878">
        <ele>59</ele>
        <time>2019-06-20T08:47:07.000Z</time>
      </trkpt>
      <trkpt lat="47.25628" lon="-2.26871">
        <ele>59</ele>
        <time>2019-06-20T08:47:11.000Z</time>
      </trkpt>
      <trkpt lat="47.25642" lon="-2.26847">
        <ele>59</ele>
        <time>2019-06-20T08:47:16.000Z</time>
      </trkpt>
      <trkpt lat="47.25666" lon="-2.26825">
        <ele>59</ele>
        <time>2019-06-20T08:47:23.000Z</time>
      </trkpt>
      <trkpt lat="47.25687" lon="-2.2682">
        <ele>59</ele>
        <time>2019-06-20T08:47:28.000Z</time>
      </trkpt>
      <trkpt lat="47.25696" lon="-2.26822">
        <ele>59</ele>
        <time>2019-06-20T08:47:30.000Z</time>
      </trkpt>
      <trkpt lat="47.25712" lon="-2.26829">
        <ele>59</ele>
        <time>2019-06-20T08:47:34.000Z</time>
      </trkpt>
      <trkpt lat="47.25729" lon="-2.26848">
        <ele>59</ele>
        <time>2019-06-20T08:47:39.000Z</time>
      </trkpt>
      <trkpt lat="47.25738" lon="-2.26863">
        <ele>59.400001525879</ele>
        <time>2019-06-20T08:47:42.000Z</time>
      </trkpt>
      <trkpt lat="47.2574" lon="-2.26868">
        <ele>59.799999237061</ele>
        <time>2019-06-20T08:47:43.000Z</time>
      </trkpt>
      <trkpt lat="47.25742" lon="-2.26874">
        <ele>60.400001525879</ele>
        <time>2019-06-20T08:47:44.000Z</time>
      </trkpt>
      <trkpt lat="47.25743" lon="-2.2688">
        <ele>60.799999237061</ele>
        <time>2019-06-20T08:47:45.000Z</time>
      </trkpt>
      <trkpt lat="47.25744" lon="-2.26886">
        <ele>61.200000762939</ele>
        <time>2019-06-20T08:47:46.000Z</time>
      </trkpt>
      <trkpt lat="47.2575" lon="-2.26897">
        <ele>61.200000762939</ele>
        <time>2019-06-20T08:47:49.000Z</time>
      </trkpt>
      <trkpt lat="47.25765" lon="-2.26896">
        <ele>61.200000762939</ele>
        <time>2019-06-20T08:47:53.000Z</time>
      </trkpt>
      <trkpt lat="47.2577" lon="-2.26895">
        <ele>61.200000762939</ele>
        <time>2019-06-20T08:47:54.000Z</time>
      </trkpt>
      <trkpt lat="47.25789" lon="-2.26888">
        <ele>61.200000762939</ele>
        <time>2019-06-20T08:47:58.000Z</time>
      </trkpt>
      <trkpt lat="47.25826" lon="-2.2687">
        <ele>61.200000762939</ele>
        <time>2019-06-20T08:48:05.000Z</time>
      </trkpt>
      <trkpt lat="47.2586" lon="-2.26854">
        <ele>61.200000762939</ele>
        <time>2019-06-20T08:48:11.000Z</time>
      </trkpt>
      <trkpt lat="47.25877" lon="-2.26845">
        <ele>60.799999237061</ele>
        <time>2019-06-20T08:48:14.000Z</time>
      </trkpt>
      <trkpt lat="47.25883" lon="-2.26843">
        <ele>60.400001525879</ele>
        <time>2019-06-20T08:48:15.000Z</time>
      </trkpt>
      <trkpt lat="47.25889" lon="-2.26841">
        <ele>60</ele>
        <time>2019-06-20T08:48:16.000Z</time>
      </trkpt>
      <trkpt lat="47.25895" lon="-2.26838">
        <ele>59.400001525879</ele>
        <time>2019-06-20T08:48:17.000Z</time>
      </trkpt>
      <trkpt lat="47.25901" lon="-2.26835">
        <ele>59</ele>
        <time>2019-06-20T08:48:18.000Z</time>
      </trkpt>
      <trkpt lat="47.25906" lon="-2.26833">
        <ele>59</ele>
        <time>2019-06-20T08:48:19.000Z</time>
      </trkpt>
      <trkpt lat="47.25923" lon="-2.26821">
        <ele>59</ele>
        <time>2019-06-20T08:48:22.000Z</time>
      </trkpt>
      <trkpt lat="47.25933" lon="-2.26818">
        <ele>58.599998474121</ele>
        <time>2019-06-20T08:48:24.000Z</time>
      </trkpt>
      <trkpt lat="47.25939" lon="-2.26817">
        <ele>58.200000762939</ele>
        <time>2019-06-20T08:48:25.000Z</time>
      </trkpt>
      <trkpt lat="47.25944" lon="-2.26816">
        <ele>57.799999237061</ele>
        <time>2019-06-20T08:48:26.000Z</time>
      </trkpt>
      <trkpt lat="47.2595" lon="-2.26815">
        <ele>57.400001525879</ele>
        <time>2019-06-20T08:48:27.000Z</time>
      </trkpt>
      <trkpt lat="47.25956" lon="-2.26814">
        <ele>57</ele>
        <time>2019-06-20T08:48:28.000Z</time>
      </trkpt>
      <trkpt lat="47.25967" lon="-2.26812">
        <ele>57</ele>
        <time>2019-06-20T08:48:30.000Z</time>
      </trkpt>
      <trkpt lat="47.25982" lon="-2.26812">
        <ele>57</ele>
        <time>2019-06-20T08:48:33.000Z</time>
      </trkpt>
      <trkpt lat="47.25986" lon="-2.26817">
        <ele>56.599998474121</ele>
        <time>2019-06-20T08:48:34.000Z</time>
      </trkpt>
      <trkpt lat="47.25988" lon="-2.26823">
        <ele>56.200000762939</ele>
        <time>2019-06-20T08:48:35.000Z</time>
      </trkpt>
      <trkpt lat="47.25989" lon="-2.26828">
        <ele>55.400001525879</ele>
        <time>2019-06-20T08:48:36.000Z</time>
      </trkpt>
      <trkpt lat="47.2599" lon="-2.26835">
        <ele>55</ele>
        <time>2019-06-20T08:48:37.000Z</time>
      </trkpt>
      <trkpt lat="47.25991" lon="-2.2685">
        <ele>55</ele>
        <time>2019-06-20T08:48:39.000Z</time>
      </trkpt>
      <trkpt lat="47.25994" lon="-2.2688">
        <ele>55</ele>
        <time>2019-06-20T08:48:43.000Z</time>
      </trkpt>
      <trkpt lat="47.25996" lon="-2.26887">
        <ele>55</ele>
        <time>2019-06-20T08:48:44.000Z</time>
      </trkpt>
      <trkpt lat="47.26004" lon="-2.26909">
        <ele>55</ele>
        <time>2019-06-20T08:48:47.000Z</time>
      </trkpt>
      <trkpt lat="47.26008" lon="-2.26915">
        <ele>55</ele>
        <time>2019-06-20T08:48:48.000Z</time>
      </trkpt>
      <trkpt lat="47.26015" lon="-2.26926">
        <ele>55</ele>
        <time>2019-06-20T08:48:50.000Z</time>
      </trkpt>
      <trkpt lat="47.26025" lon="-2.26942">
        <ele>55</ele>
        <time>2019-06-20T08:48:53.000Z</time>
      </trkpt>
      <trkpt lat="47.26048" lon="-2.26968">
        <ele>55</ele>
        <time>2019-06-20T08:48:58.000Z</time>
      </trkpt>
      <trkpt lat="47.26053" lon="-2.26974">
        <ele>55</ele>
        <time>2019-06-20T08:48:59.000Z</time>
      </trkpt>
      <trkpt lat="47.2606" lon="-2.26987">
        <ele>55</ele>
        <time>2019-06-20T08:49:01.000Z</time>
      </trkpt>
      <trkpt lat="47.26063" lon="-2.26994">
        <ele>55.400001525879</ele>
        <time>2019-06-20T08:49:02.000Z</time>
      </trkpt>
      <trkpt lat="47.26065" lon="-2.27001">
        <ele>55.799999237061</ele>
        <time>2019-06-20T08:49:03.000Z</time>
      </trkpt>
      <trkpt lat="47.26068" lon="-2.27009">
        <ele>56.200000762939</ele>
        <time>2019-06-20T08:49:04.000Z</time>
      </trkpt>
      <trkpt lat="47.26071" lon="-2.27019">
        <ele>56.599998474121</ele>
        <time>2019-06-20T08:49:05.000Z</time>
      </trkpt>
      <trkpt lat="47.26074" lon="-2.27028">
        <ele>57</ele>
        <time>2019-06-20T08:49:06.000Z</time>
      </trkpt>
      <trkpt lat="47.26088" lon="-2.2709">
        <ele>57</ele>
        <time>2019-06-20T08:49:12.000Z</time>
      </trkpt>
      <trkpt lat="47.26098" lon="-2.27142">
        <ele>57</ele>
        <time>2019-06-20T08:49:17.000Z</time>
      </trkpt>
      <trkpt lat="47.26101" lon="-2.27151">
        <ele>57</ele>
        <time>2019-06-20T08:49:18.000Z</time>
      </trkpt>
      <trkpt lat="47.26119" lon="-2.27202">
        <ele>57</ele>
        <time>2019-06-20T08:49:24.000Z</time>
      </trkpt>
      <trkpt lat="47.26136" lon="-2.27247">
        <ele>57</ele>
        <time>2019-06-20T08:49:30.000Z</time>
      </trkpt>
      <trkpt lat="47.26142" lon="-2.27279">
        <ele>57</ele>
        <time>2019-06-20T08:49:34.000Z</time>
      </trkpt>
      <trkpt lat="47.26143" lon="-2.27287">
        <ele>57</ele>
        <time>2019-06-20T08:49:35.000Z</time>
      </trkpt>
      <trkpt lat="47.26152" lon="-2.27315">
        <ele>57</ele>
        <time>2019-06-20T08:49:39.000Z</time>
      </trkpt>
      <trkpt lat="47.26168" lon="-2.27319">
        <ele>57</ele>
        <time>2019-06-20T08:49:42.000Z</time>
      </trkpt>
      <trkpt lat="47.26173" lon="-2.27318">
        <ele>56.599998474121</ele>
        <time>2019-06-20T08:49:43.000Z</time>
      </trkpt>
      <trkpt lat="47.26178" lon="-2.27317">
        <ele>56.200000762939</ele>
        <time>2019-06-20T08:49:44.000Z</time>
      </trkpt>
      <trkpt lat="47.26184" lon="-2.27316">
        <ele>55.799999237061</ele>
        <time>2019-06-20T08:49:45.000Z</time>
      </trkpt>
      <trkpt lat="47.2619" lon="-2.27315">
        <ele>55.400001525879</ele>
        <time>2019-06-20T08:49:46.000Z</time>
      </trkpt>
      <trkpt lat="47.26194" lon="-2.27313">
        <ele>55</ele>
        <time>2019-06-20T08:49:47.000Z</time>
      </trkpt>
      <trkpt lat="47.26216" lon="-2.27315">
        <ele>55</ele>
        <time>2019-06-20T08:49:51.000Z</time>
      </trkpt>
      <trkpt lat="47.26245" lon="-2.2732">
        <ele>55</ele>
        <time>2019-06-20T08:49:56.000Z</time>
      </trkpt>
      <trkpt lat="47.26251" lon="-2.27321">
        <ele>55</ele>
        <time>2019-06-20T08:49:57.000Z</time>
      </trkpt>
      <trkpt lat="47.26283" lon="-2.27324">
        <ele>55</ele>
        <time>2019-06-20T08:50:02.000Z</time>
      </trkpt>
      <trkpt lat="47.26307" lon="-2.27324">
        <ele>54.599998474121</ele>
        <time>2019-06-20T08:50:07.000Z</time>
      </trkpt>
      <trkpt lat="47.2631" lon="-2.27322">
        <ele>54.200000762939</ele>
        <time>2019-06-20T08:50:08.000Z</time>
      </trkpt>
      <trkpt lat="47.26313" lon="-2.27323">
        <ele>53.799999237061</ele>
        <time>2019-06-20T08:50:09.000Z</time>
      </trkpt>
      <trkpt lat="47.26317" lon="-2.27326">
        <ele>53.400001525879</ele>
        <time>2019-06-20T08:50:10.000Z</time>
      </trkpt>
      <trkpt lat="47.26321" lon="-2.27328">
        <ele>53</ele>
        <time>2019-06-20T08:50:11.000Z</time>
      </trkpt>
      <trkpt lat="47.26326" lon="-2.27329">
        <ele>53</ele>
        <time>2019-06-20T08:50:12.000Z</time>
      </trkpt>
      <trkpt lat="47.26337" lon="-2.27331">
        <ele>53</ele>
        <time>2019-06-20T08:50:14.000Z</time>
      </trkpt>
      <trkpt lat="47.26365" lon="-2.27331">
        <ele>53</ele>
        <time>2019-06-20T08:50:19.000Z</time>
      </trkpt>
      <trkpt lat="47.26401" lon="-2.27331">
        <ele>53</ele>
        <time>2019-06-20T08:50:25.000Z</time>
      </trkpt>
      <trkpt lat="47.26406" lon="-2.27333">
        <ele>53</ele>
        <time>2019-06-20T08:50:26.000Z</time>
      </trkpt>
      <trkpt lat="47.26422" lon="-2.27338">
        <ele>53</ele>
        <time>2019-06-20T08:50:29.000Z</time>
      </trkpt>
      <trkpt lat="47.26432" lon="-2.27356">
        <ele>53</ele>
        <time>2019-06-20T08:50:32.000Z</time>
      </trkpt>
      <trkpt lat="47.26434" lon="-2.27364">
        <ele>53</ele>
        <time>2019-06-20T08:50:33.000Z</time>
      </trkpt>
      <trkpt lat="47.26446" lon="-2.27398">
        <ele>53</ele>
        <time>2019-06-20T08:50:37.000Z</time>
      </trkpt>
      <trkpt lat="47.26454" lon="-2.27423">
        <ele>52.599998474121</ele>
        <time>2019-06-20T08:50:40.000Z</time>
      </trkpt>
      <trkpt lat="47.26457" lon="-2.2743">
        <ele>52</ele>
        <time>2019-06-20T08:50:41.000Z</time>
      </trkpt>
      <trkpt lat="47.26459" lon="-2.2744">
        <ele>51.599998474121</ele>
        <time>2019-06-20T08:50:42.000Z</time>
      </trkpt>
      <trkpt lat="47.26462" lon="-2.27449">
        <ele>51.200000762939</ele>
        <time>2019-06-20T08:50:43.000Z</time>
      </trkpt>
      <trkpt lat="47.26465" lon="-2.27458">
        <ele>50.799999237061</ele>
        <time>2019-06-20T08:50:44.000Z</time>
      </trkpt>
      <trkpt lat="47.2648" lon="-2.27505">
        <ele>50.799999237061</ele>
        <time>2019-06-20T08:50:49.000Z</time>
      </trkpt>
      <trkpt lat="47.26484" lon="-2.27526">
        <ele>50.799999237061</ele>
        <time>2019-06-20T08:50:51.000Z</time>
      </trkpt>
      <trkpt lat="47.26487" lon="-2.27547">
        <ele>50.400001525879</ele>
        <time>2019-06-20T08:50:53.000Z</time>
      </trkpt>
      <trkpt lat="47.26488" lon="-2.27557">
        <ele>50</ele>
        <time>2019-06-20T08:50:54.000Z</time>
      </trkpt>
      <trkpt lat="47.2649" lon="-2.27566">
        <ele>49.400001525879</ele>
        <time>2019-06-20T08:50:55.000Z</time>
      </trkpt>
      <trkpt lat="47.26492" lon="-2.27572">
        <ele>49</ele>
        <time>2019-06-20T08:50:56.000Z</time>
      </trkpt>
      <trkpt lat="47.26497" lon="-2.27576">
        <ele>48.599998474121</ele>
        <time>2019-06-20T08:50:57.000Z</time>
      </trkpt>
      <trkpt lat="47.26513" lon="-2.27577">
        <ele>48.599998474121</ele>
        <time>2019-06-20T08:51:00.000Z</time>
      </trkpt>
      <trkpt lat="47.26526" lon="-2.27579">
        <ele>48.599998474121</ele>
        <time>2019-06-20T08:51:02.000Z</time>
      </trkpt>
      <trkpt lat="47.26541" lon="-2.27581">
        <ele>48.599998474121</ele>
        <time>2019-06-20T08:51:04.000Z</time>
      </trkpt>
      <trkpt lat="47.26548" lon="-2.27582">
        <ele>48.599998474121</ele>
        <time>2019-06-20T08:51:05.000Z</time>
      </trkpt>
      <trkpt lat="47.26571" lon="-2.27581">
        <ele>48.599998474121</ele>
        <time>2019-06-20T08:51:08.000Z</time>
      </trkpt>
      <trkpt lat="47.26578" lon="-2.27582">
        <ele>48.599998474121</ele>
        <time>2019-06-20T08:51:09.000Z</time>
      </trkpt>
      <trkpt lat="47.26599" lon="-2.27591">
        <ele>48.599998474121</ele>
        <time>2019-06-20T08:51:12.000Z</time>
      </trkpt>
      <trkpt lat="47.2663" lon="-2.27606">
        <ele>48.599998474121</ele>
        <time>2019-06-20T08:51:17.000Z</time>
      </trkpt>
      <trkpt lat="47.26654" lon="-2.27616">
        <ele>48.200000762939</ele>
        <time>2019-06-20T08:51:21.000Z</time>
      </trkpt>
      <trkpt lat="47.26661" lon="-2.27619">
        <ele>47.799999237061</ele>
        <time>2019-06-20T08:51:22.000Z</time>
      </trkpt>
      <trkpt lat="47.26667" lon="-2.27621">
        <ele>47.400001525879</ele>
        <time>2019-06-20T08:51:23.000Z</time>
      </trkpt>
      <trkpt lat="47.26673" lon="-2.27623">
        <ele>47</ele>
        <time>2019-06-20T08:51:24.000Z</time>
      </trkpt>
      <trkpt lat="47.26679" lon="-2.27625">
        <ele>46.599998474121</ele>
        <time>2019-06-20T08:51:25.000Z</time>
      </trkpt>
      <trkpt lat="47.26698" lon="-2.27633">
        <ele>46.599998474121</ele>
        <time>2019-06-20T08:51:29.000Z</time>
      </trkpt>
      <trkpt lat="47.26722" lon="-2.27642">
        <ele>46.599998474121</ele>
        <time>2019-06-20T08:51:34.000Z</time>
      </trkpt>
      <trkpt lat="47.26726" lon="-2.27643">
        <ele>46.599998474121</ele>
        <time>2019-06-20T08:51:35.000Z</time>
      </trkpt>
      <trkpt lat="47.2674" lon="-2.27648">
        <ele>46.599998474121</ele>
        <time>2019-06-20T08:51:38.000Z</time>
      </trkpt>
      <trkpt lat="47.26755" lon="-2.27652">
        <ele>46.599998474121</ele>
        <time>2019-06-20T08:51:42.000Z</time>
      </trkpt>
      <trkpt lat="47.26762" lon="-2.27642">
        <ele>46.599998474121</ele>
        <time>2019-06-20T08:51:45.000Z</time>
      </trkpt>
      <trkpt lat="47.26763" lon="-2.27637">
        <ele>46.599998474121</ele>
        <time>2019-06-20T08:51:46.000Z</time>
      </trkpt>
      <trkpt lat="47.26761" lon="-2.27625">
        <ele>46.599998474121</ele>
        <time>2019-06-20T08:51:48.000Z</time>
      </trkpt>
      <trkpt lat="47.26759" lon="-2.27615">
        <ele>46.599998474121</ele>
        <time>2019-06-20T08:51:50.000Z</time>
      </trkpt>
      <trkpt lat="47.26756" lon="-2.27594">
        <ele>46.599998474121</ele>
        <time>2019-06-20T08:51:54.000Z</time>
      </trkpt>
      <trkpt lat="47.26752" lon="-2.27561">
        <ele>46.599998474121</ele>
        <time>2019-06-20T08:52:00.000Z</time>
      </trkpt>
      <trkpt lat="47.26751" lon="-2.27517">
        <ele>46.599998474121</ele>
        <time>2019-06-20T08:52:07.000Z</time>
      </trkpt>
      <trkpt lat="47.26751" lon="-2.27503">
        <ele>46.599998474121</ele>
        <time>2019-06-20T08:52:09.000Z</time>
      </trkpt>
      <trkpt lat="47.26752" lon="-2.27473">
        <ele>47</ele>
        <time>2019-06-20T08:52:13.000Z</time>
      </trkpt>
      <trkpt lat="47.26752" lon="-2.27467">
        <ele>47.400001525879</ele>
        <time>2019-06-20T08:52:14.000Z</time>
      </trkpt>
      <trkpt lat="47.26752" lon="-2.27461">
        <ele>47.799999237061</ele>
        <time>2019-06-20T08:52:15.000Z</time>
      </trkpt>
      <trkpt lat="47.26752" lon="-2.27454">
        <ele>48.200000762939</ele>
        <time>2019-06-20T08:52:16.000Z</time>
      </trkpt>
      <trkpt lat="47.26752" lon="-2.27449">
        <ele>48.599998474121</ele>
        <time>2019-06-20T08:52:17.000Z</time>
      </trkpt>
      <trkpt lat="47.26753" lon="-2.27442">
        <ele>48.599998474121</ele>
        <time>2019-06-20T08:52:18.000Z</time>
      </trkpt>
      <trkpt lat="47.26753" lon="-2.27422">
        <ele>48.599998474121</ele>
        <time>2019-06-20T08:52:21.000Z</time>
      </trkpt>
      <trkpt lat="47.26757" lon="-2.27418">
        <ele>48.599998474121</ele>
        <time>2019-06-20T08:52:22.000Z</time>
      </trkpt>
      <trkpt lat="47.26768" lon="-2.27413">
        <ele>48.599998474121</ele>
        <time>2019-06-20T08:52:25.000Z</time>
      </trkpt>
      <trkpt lat="47.26773" lon="-2.27413">
        <ele>48.599998474121</ele>
        <time>2019-06-20T08:52:26.000Z</time>
      </trkpt>
      <trkpt lat="47.26779" lon="-2.27414">
        <ele>48.599998474121</ele>
        <time>2019-06-20T08:52:27.000Z</time>
      </trkpt>
      <trkpt lat="47.26791" lon="-2.27414">
        <ele>48.599998474121</ele>
        <time>2019-06-20T08:52:29.000Z</time>
      </trkpt>
      <trkpt lat="47.2682" lon="-2.27413">
        <ele>48.599998474121</ele>
        <time>2019-06-20T08:52:34.000Z</time>
      </trkpt>
      <trkpt lat="47.2683" lon="-2.27411">
        <ele>48.200000762939</ele>
        <time>2019-06-20T08:52:36.000Z</time>
      </trkpt>
      <trkpt lat="47.26835" lon="-2.27409">
        <ele>47.799999237061</ele>
        <time>2019-06-20T08:52:37.000Z</time>
      </trkpt>
      <trkpt lat="47.26841" lon="-2.27406">
        <ele>47.400001525879</ele>
        <time>2019-06-20T08:52:38.000Z</time>
      </trkpt>
      <trkpt lat="47.26846" lon="-2.27405">
        <ele>47</ele>
        <time>2019-06-20T08:52:39.000Z</time>
      </trkpt>
      <trkpt lat="47.26851" lon="-2.27403">
        <ele>46.599998474121</ele>
        <time>2019-06-20T08:52:40.000Z</time>
      </trkpt>
      <trkpt lat="47.26871" lon="-2.27394">
        <ele>46</ele>
        <time>2019-06-20T08:52:44.000Z</time>
      </trkpt>
      <trkpt lat="47.26875" lon="-2.27392">
        <ele>45.599998474121</ele>
        <time>2019-06-20T08:52:45.000Z</time>
      </trkpt>
      <trkpt lat="47.26878" lon="-2.27391">
        <ele>45.200000762939</ele>
        <time>2019-06-20T08:52:46.000Z</time>
      </trkpt>
      <trkpt lat="47.26881" lon="-2.27389">
        <ele>44.599998474121</ele>
        <time>2019-06-20T08:52:47.000Z</time>
      </trkpt>
      <trkpt lat="47.26884" lon="-2.27388">
        <ele>44.200000762939</ele>
        <time>2019-06-20T08:52:48.000Z</time>
      </trkpt>
      <trkpt lat="47.26887" lon="-2.27386">
        <ele>44.200000762939</ele>
        <time>2019-06-20T08:52:49.000Z</time>
      </trkpt>
      <trkpt lat="47.26899" lon="-2.2738">
        <ele>43.799999237061</ele>
        <time>2019-06-20T08:52:52.000Z</time>
      </trkpt>
      <trkpt lat="47.26902" lon="-2.27378">
        <ele>43.400001525879</ele>
        <time>2019-06-20T08:52:53.000Z</time>
      </trkpt>
      <trkpt lat="47.26904" lon="-2.27374">
        <ele>43</ele>
        <time>2019-06-20T08:52:54.000Z</time>
      </trkpt>
      <trkpt lat="47.26906" lon="-2.27372">
        <ele>42.599998474121</ele>
        <time>2019-06-20T08:52:55.000Z</time>
      </trkpt>
      <trkpt lat="47.26907" lon="-2.27368">
        <ele>42.200000762939</ele>
        <time>2019-06-20T08:52:56.000Z</time>
      </trkpt>
      <trkpt lat="47.26908" lon="-2.27365">
        <ele>42.200000762939</ele>
        <time>2019-06-20T08:52:57.000Z</time>
      </trkpt>
      <trkpt lat="47.26908" lon="-2.27358">
        <ele>42.200000762939</ele>
        <time>2019-06-20T08:52:59.000Z</time>
      </trkpt>
      <trkpt lat="47.2691" lon="-2.27346">
        <ele>42.200000762939</ele>
        <time>2019-06-20T08:53:02.000Z</time>
      </trkpt>
      <trkpt lat="47.26913" lon="-2.27337">
        <ele>42.200000762939</ele>
        <time>2019-06-20T08:53:04.000Z</time>
      </trkpt>
      <trkpt lat="47.26917" lon="-2.27319">
        <ele>42.200000762939</ele>
        <time>2019-06-20T08:53:09.000Z</time>
      </trkpt>
      <trkpt lat="47.26917" lon="-2.27302">
        <ele>42.200000762939</ele>
        <time>2019-06-20T08:53:14.000Z</time>
      </trkpt>
      <trkpt lat="47.26918" lon="-2.27288">
        <ele>42.200000762939</ele>
        <time>2019-06-20T08:53:19.000Z</time>
      </trkpt>
      <trkpt lat="47.26923" lon="-2.27276">
        <ele>42.200000762939</ele>
        <time>2019-06-20T08:53:23.000Z</time>
      </trkpt>
      <trkpt lat="47.26926" lon="-2.27274">
        <ele>42.200000762939</ele>
        <time>2019-06-20T08:53:24.000Z</time>
      </trkpt>
      <trkpt lat="47.26943" lon="-2.27269">
        <ele>42.200000762939</ele>
        <time>2019-06-20T08:53:28.000Z</time>
      </trkpt>
      <trkpt lat="47.26945" lon="-2.27265">
        <ele>42.200000762939</ele>
        <time>2019-06-20T08:53:29.000Z</time>
      </trkpt>
      <trkpt lat="47.26959" lon="-2.27244">
        <ele>42.200000762939</ele>
        <time>2019-06-20T08:53:34.000Z</time>
      </trkpt>
      <trkpt lat="47.26961" lon="-2.27225">
        <ele>42.200000762939</ele>
        <time>2019-06-20T08:53:38.000Z</time>
      </trkpt>
      <trkpt lat="47.26961" lon="-2.27208">
        <ele>42.200000762939</ele>
        <time>2019-06-20T08:53:42.000Z</time>
      </trkpt>
      <trkpt lat="47.26962" lon="-2.27205">
        <ele>42.200000762939</ele>
        <time>2019-06-20T08:53:43.000Z</time>
      </trkpt>
      <trkpt lat="47.2697" lon="-2.27197">
        <ele>42.200000762939</ele>
        <time>2019-06-20T08:53:46.000Z</time>
      </trkpt>
      <trkpt lat="47.26973" lon="-2.27189">
        <ele>42.200000762939</ele>
        <time>2019-06-20T08:53:48.000Z</time>
      </trkpt>
      <trkpt lat="47.26975" lon="-2.27184">
        <ele>42.200000762939</ele>
        <time>2019-06-20T08:53:50.000Z</time>
      </trkpt>
      <trkpt lat="47.26977" lon="-2.27184">
        <ele>42.200000762939</ele>
        <time>2019-06-20T08:53:52.000Z</time>
      </trkpt>
      <trkpt lat="47.26982" lon="-2.27184">
        <ele>42.200000762939</ele>
        <time>2019-06-20T08:53:54.000Z</time>
      </trkpt>
      <trkpt lat="47.26986" lon="-2.27178">
        <ele>42.200000762939</ele>
        <time>2019-06-20T08:53:57.000Z</time>
      </trkpt>
      <trkpt lat="47.26987" lon="-2.27176">
        <ele>42.200000762939</ele>
        <time>2019-06-20T08:53:58.000Z</time>
      </trkpt>
      <trkpt lat="47.26993" lon="-2.27172">
        <ele>42.200000762939</ele>
        <time>2019-06-20T08:54:01.000Z</time>
      </trkpt>
      <trkpt lat="47.27" lon="-2.27169">
        <ele>42.200000762939</ele>
        <time>2019-06-20T08:54:04.000Z</time>
      </trkpt>
      <trkpt lat="47.27001" lon="-2.27171">
        <ele>42.200000762939</ele>
        <time>2019-06-20T08:54:05.000Z</time>
      </trkpt>
      <trkpt lat="47.27002" lon="-2.27174">
        <ele>41.599998474121</ele>
        <time>2019-06-20T08:54:07.000Z</time>
      </trkpt>
      <trkpt lat="47.27005" lon="-2.27174">
        <ele>41.200000762939</ele>
        <time>2019-06-20T08:54:08.000Z</time>
      </trkpt>
      <trkpt lat="47.27007" lon="-2.27173">
        <ele>40.799999237061</ele>
        <time>2019-06-20T08:54:09.000Z</time>
      </trkpt>
      <trkpt lat="47.27009" lon="-2.27173">
        <ele>40.200000762939</ele>
        <time>2019-06-20T08:54:10.000Z</time>
      </trkpt>
      <trkpt lat="47.27009" lon="-2.27172">
        <ele>39.799999237061</ele>
        <time>2019-06-20T08:54:11.000Z</time>
      </trkpt>
      <trkpt lat="47.27011" lon="-2.2717">
        <ele>39.799999237061</ele>
        <time>2019-06-20T08:54:12.000Z</time>
      </trkpt>
      <trkpt lat="47.27015" lon="-2.27166">
        <ele>39.799999237061</ele>
        <time>2019-06-20T08:54:14.000Z</time>
      </trkpt>
      <trkpt lat="47.27018" lon="-2.27161">
        <ele>39.799999237061</ele>
        <time>2019-06-20T08:54:16.000Z</time>
      </trkpt>
      <trkpt lat="47.27023" lon="-2.27155">
        <ele>39.799999237061</ele>
        <time>2019-06-20T08:54:19.000Z</time>
      </trkpt>
      <trkpt lat="47.27026" lon="-2.27152">
        <ele>39.400001525879</ele>
        <time>2019-06-20T08:54:20.000Z</time>
      </trkpt>
      <trkpt lat="47.27028" lon="-2.27149">
        <ele>38.599998474121</ele>
        <time>2019-06-20T08:54:21.000Z</time>
      </trkpt>
      <trkpt lat="47.27029" lon="-2.27146">
        <ele>38.200000762939</ele>
        <time>2019-06-20T08:54:22.000Z</time>
      </trkpt>
      <trkpt lat="47.27027" lon="-2.27143">
        <ele>37.799999237061</ele>
        <time>2019-06-20T08:54:23.000Z</time>
      </trkpt>
      <trkpt lat="47.27026" lon="-2.2714">
        <ele>37.799999237061</ele>
        <time>2019-06-20T08:54:24.000Z</time>
      </trkpt>
      <trkpt lat="47.2702" lon="-2.27123">
        <ele>37.799999237061</ele>
        <time>2019-06-20T08:54:28.000Z</time>
      </trkpt>
      <trkpt lat="47.27018" lon="-2.27118">
        <ele>37.799999237061</ele>
        <time>2019-06-20T08:54:29.000Z</time>
      </trkpt>
      <trkpt lat="47.27017" lon="-2.27113">
        <ele>38.200000762939</ele>
        <time>2019-06-20T08:54:30.000Z</time>
      </trkpt>
      <trkpt lat="47.27015" lon="-2.27108">
        <ele>38.599998474121</ele>
        <time>2019-06-20T08:54:31.000Z</time>
      </trkpt>
      <trkpt lat="47.27014" lon="-2.27102">
        <ele>39</ele>
        <time>2019-06-20T08:54:32.000Z</time>
      </trkpt>
      <trkpt lat="47.27013" lon="-2.27096">
        <ele>39.400001525879</ele>
        <time>2019-06-20T08:54:33.000Z</time>
      </trkpt>
      <trkpt lat="47.27012" lon="-2.27089">
        <ele>40</ele>
        <time>2019-06-20T08:54:34.000Z</time>
      </trkpt>
      <trkpt lat="47.2701" lon="-2.2708">
        <ele>40</ele>
        <time>2019-06-20T08:54:35.000Z</time>
      </trkpt>
      <trkpt lat="47.27004" lon="-2.27057">
        <ele>40</ele>
        <time>2019-06-20T08:54:38.000Z</time>
      </trkpt>
      <trkpt lat="47.26995" lon="-2.27041">
        <ele>40</ele>
        <time>2019-06-20T08:54:41.000Z</time>
      </trkpt>
      <trkpt lat="47.26988" lon="-2.27032">
        <ele>40</ele>
        <time>2019-06-20T08:54:43.000Z</time>
      </trkpt>
      <trkpt lat="47.26971" lon="-2.27015">
        <ele>40</ele>
        <time>2019-06-20T08:54:47.000Z</time>
      </trkpt>
      <trkpt lat="47.26963" lon="-2.26985">
        <ele>40</ele>
        <time>2019-06-20T08:54:51.000Z</time>
      </trkpt>
      <trkpt lat="47.26966" lon="-2.26946">
        <ele>40</ele>
        <time>2019-06-20T08:54:55.000Z</time>
      </trkpt>
      <trkpt lat="47.26967" lon="-2.26936">
        <ele>40</ele>
        <time>2019-06-20T08:54:56.000Z</time>
      </trkpt>
      <trkpt lat="47.26969" lon="-2.26917">
        <ele>40</ele>
        <time>2019-06-20T08:54:58.000Z</time>
      </trkpt>
      <trkpt lat="47.26965" lon="-2.26889">
        <ele>40</ele>
        <time>2019-06-20T08:55:01.000Z</time>
      </trkpt>
      <trkpt lat="47.26963" lon="-2.26879">
        <ele>40</ele>
        <time>2019-06-20T08:55:02.000Z</time>
      </trkpt>
      <trkpt lat="47.26958" lon="-2.26841">
        <ele>39.599998474121</ele>
        <time>2019-06-20T08:55:06.000Z</time>
      </trkpt>
      <trkpt lat="47.26959" lon="-2.26833">
        <ele>39.200000762939</ele>
        <time>2019-06-20T08:55:07.000Z</time>
      </trkpt>
      <trkpt lat="47.26961" lon="-2.26827">
        <ele>38.799999237061</ele>
        <time>2019-06-20T08:55:08.000Z</time>
      </trkpt>
      <trkpt lat="47.26964" lon="-2.26821">
        <ele>38.400001525879</ele>
        <time>2019-06-20T08:55:09.000Z</time>
      </trkpt>
      <trkpt lat="47.26966" lon="-2.26818">
        <ele>38</ele>
        <time>2019-06-20T08:55:10.000Z</time>
      </trkpt>
      <trkpt lat="47.26975" lon="-2.26806">
        <ele>37.599998474121</ele>
        <time>2019-06-20T08:55:14.000Z</time>
      </trkpt>
      <trkpt lat="47.26978" lon="-2.26804">
        <ele>37</ele>
        <time>2019-06-20T08:55:15.000Z</time>
      </trkpt>
      <trkpt lat="47.2698" lon="-2.26802">
        <ele>36.599998474121</ele>
        <time>2019-06-20T08:55:16.000Z</time>
      </trkpt>
      <trkpt lat="47.26981" lon="-2.26801">
        <ele>36.200000762939</ele>
        <time>2019-06-20T08:55:17.000Z</time>
      </trkpt>
      <trkpt lat="47.26983" lon="-2.268">
        <ele>35.799999237061</ele>
        <time>2019-06-20T08:55:18.000Z</time>
      </trkpt>
      <trkpt lat="47.26987" lon="-2.26797">
        <ele>35.799999237061</ele>
        <time>2019-06-20T08:55:20.000Z</time>
      </trkpt>
      <trkpt lat="47.26995" lon="-2.26792">
        <ele>35.799999237061</ele>
        <time>2019-06-20T08:55:24.000Z</time>
      </trkpt>
      <trkpt lat="47.26999" lon="-2.26788">
        <ele>35.799999237061</ele>
        <time>2019-06-20T08:55:25.000Z</time>
      </trkpt>
      <trkpt lat="47.27004" lon="-2.26779">
        <ele>35.799999237061</ele>
        <time>2019-06-20T08:55:28.000Z</time>
      </trkpt>
      <trkpt lat="47.27008" lon="-2.26777">
        <ele>35.799999237061</ele>
        <time>2019-06-20T08:55:29.000Z</time>
      </trkpt>
      <trkpt lat="47.27012" lon="-2.26769">
        <ele>35.799999237061</ele>
        <time>2019-06-20T08:55:32.000Z</time>
      </trkpt>
      <trkpt lat="47.27013" lon="-2.26767">
        <ele>35.799999237061</ele>
        <time>2019-06-20T08:55:33.000Z</time>
      </trkpt>
      <trkpt lat="47.27015" lon="-2.26766">
        <ele>35.799999237061</ele>
        <time>2019-06-20T08:55:34.000Z</time>
      </trkpt>
      <trkpt lat="47.27021" lon="-2.26761">
        <ele>35.799999237061</ele>
        <time>2019-06-20T08:55:37.000Z</time>
      </trkpt>
      <trkpt lat="47.27023" lon="-2.2676">
        <ele>35.799999237061</ele>
        <time>2019-06-20T08:55:40.000Z</time>
      </trkpt>
      <trkpt lat="47.2703" lon="-2.26752">
        <ele>35.799999237061</ele>
        <time>2019-06-20T08:55:53.000Z</time>
      </trkpt>
      <trkpt lat="47.27033" lon="-2.26736">
        <ele>35.799999237061</ele>
        <time>2019-06-20T08:55:58.000Z</time>
      </trkpt>
      <trkpt lat="47.27033" lon="-2.26732">
        <ele>35.799999237061</ele>
        <time>2019-06-20T08:55:59.000Z</time>
      </trkpt>
      <trkpt lat="47.27035" lon="-2.26718">
        <ele>35.799999237061</ele>
        <time>2019-06-20T08:56:02.000Z</time>
      </trkpt>
      <trkpt lat="47.27037" lon="-2.26707">
        <ele>35.799999237061</ele>
        <time>2019-06-20T08:56:06.000Z</time>
      </trkpt>
      <trkpt lat="47.27036" lon="-2.26701">
        <ele>35.799999237061</ele>
        <time>2019-06-20T08:56:08.000Z</time>
      </trkpt>
      <trkpt lat="47.27037" lon="-2.26692">
        <ele>35.799999237061</ele>
        <time>2019-06-20T08:56:10.000Z</time>
      </trkpt>
      <trkpt lat="47.27036" lon="-2.26682">
        <ele>35.799999237061</ele>
        <time>2019-06-20T08:56:12.000Z</time>
      </trkpt>
      <trkpt lat="47.27037" lon="-2.26676">
        <ele>35.799999237061</ele>
        <time>2019-06-20T08:56:13.000Z</time>
      </trkpt>
      <trkpt lat="47.27038" lon="-2.26666">
        <ele>35.799999237061</ele>
        <time>2019-06-20T08:56:14.000Z</time>
      </trkpt>
      <trkpt lat="47.27028" lon="-2.26634">
        <ele>35.799999237061</ele>
        <time>2019-06-20T08:56:18.000Z</time>
      </trkpt>
      <trkpt lat="47.27025" lon="-2.26628">
        <ele>35.799999237061</ele>
        <time>2019-06-20T08:56:19.000Z</time>
      </trkpt>
      <trkpt lat="47.27014" lon="-2.26607">
        <ele>35.799999237061</ele>
        <time>2019-06-20T08:56:23.000Z</time>
      </trkpt>
      <trkpt lat="47.26999" lon="-2.26583">
        <ele>35.799999237061</ele>
        <time>2019-06-20T08:56:28.000Z</time>
      </trkpt>
      <trkpt lat="47.2699" lon="-2.26575">
        <ele>35.799999237061</ele>
        <time>2019-06-20T08:56:30.000Z</time>
      </trkpt>
      <trkpt lat="47.26978" lon="-2.26562">
        <ele>35.799999237061</ele>
        <time>2019-06-20T08:56:33.000Z</time>
      </trkpt>
      <trkpt lat="47.26971" lon="-2.26536">
        <ele>36.200000762939</ele>
        <time>2019-06-20T08:56:37.000Z</time>
      </trkpt>
      <trkpt lat="47.2697" lon="-2.26531">
        <ele>36.799999237061</ele>
        <time>2019-06-20T08:56:38.000Z</time>
      </trkpt>
      <trkpt lat="47.26968" lon="-2.26526">
        <ele>37.200000762939</ele>
        <time>2019-06-20T08:56:39.000Z</time>
      </trkpt>
      <trkpt lat="47.26967" lon="-2.26523">
        <ele>37.599998474121</ele>
        <time>2019-06-20T08:56:40.000Z</time>
      </trkpt>
      <trkpt lat="47.26966" lon="-2.2652">
        <ele>38</ele>
        <time>2019-06-20T08:56:41.000Z</time>
      </trkpt>
      <trkpt lat="47.26966" lon="-2.26516">
        <ele>38</ele>
        <time>2019-06-20T08:56:42.000Z</time>
      </trkpt>
      <trkpt lat="47.26966" lon="-2.26508">
        <ele>38</ele>
        <time>2019-06-20T08:56:44.000Z</time>
      </trkpt>
      <trkpt lat="47.26968" lon="-2.26499">
        <ele>38</ele>
        <time>2019-06-20T08:56:46.000Z</time>
      </trkpt>
      <trkpt lat="47.26973" lon="-2.26491">
        <ele>38</ele>
        <time>2019-06-20T08:56:48.000Z</time>
      </trkpt>
      <trkpt lat="47.26976" lon="-2.26487">
        <ele>38</ele>
        <time>2019-06-20T08:56:49.000Z</time>
      </trkpt>
      <trkpt lat="47.2698" lon="-2.26483">
        <ele>38</ele>
        <time>2019-06-20T08:56:50.000Z</time>
      </trkpt>
      <trkpt lat="47.26997" lon="-2.26462">
        <ele>38.400001525879</ele>
        <time>2019-06-20T08:56:55.000Z</time>
      </trkpt>
      <trkpt lat="47.27001" lon="-2.26457">
        <ele>38.799999237061</ele>
        <time>2019-06-20T08:56:56.000Z</time>
      </trkpt>
      <trkpt lat="47.27004" lon="-2.26452">
        <ele>39.200000762939</ele>
        <time>2019-06-20T08:56:57.000Z</time>
      </trkpt>
      <trkpt lat="47.27007" lon="-2.26447">
        <ele>39.599998474121</ele>
        <time>2019-06-20T08:56:58.000Z</time>
      </trkpt>
      <trkpt lat="47.2701" lon="-2.26443">
        <ele>40.200000762939</ele>
        <time>2019-06-20T08:56:59.000Z</time>
      </trkpt>
      <trkpt lat="47.27024" lon="-2.26423">
        <ele>40.200000762939</ele>
        <time>2019-06-20T08:57:03.000Z</time>
      </trkpt>
      <trkpt lat="47.27035" lon="-2.26407">
        <ele>40.200000762939</ele>
        <time>2019-06-20T08:57:06.000Z</time>
      </trkpt>
      <trkpt lat="47.27047" lon="-2.26389">
        <ele>40.200000762939</ele>
        <time>2019-06-20T08:57:09.000Z</time>
      </trkpt>
      <trkpt lat="47.27076" lon="-2.26349">
        <ele>40.200000762939</ele>
        <time>2019-06-20T08:57:16.000Z</time>
      </trkpt>
      <trkpt lat="47.27111" lon="-2.26299">
        <ele>40.200000762939</ele>
        <time>2019-06-20T08:57:24.000Z</time>
      </trkpt>
      <trkpt lat="47.27145" lon="-2.26253">
        <ele>40.200000762939</ele>
        <time>2019-06-20T08:57:31.000Z</time>
      </trkpt>
      <trkpt lat="47.27185" lon="-2.26205">
        <ele>40.200000762939</ele>
        <time>2019-06-20T08:57:38.000Z</time>
      </trkpt>
      <trkpt lat="47.27222" lon="-2.26176">
        <ele>40.200000762939</ele>
        <time>2019-06-20T08:57:44.000Z</time>
      </trkpt>
      <trkpt lat="47.27246" lon="-2.26161">
        <ele>39.799999237061</ele>
        <time>2019-06-20T08:57:48.000Z</time>
      </trkpt>
      <trkpt lat="47.27252" lon="-2.26158">
        <ele>39.400001525879</ele>
        <time>2019-06-20T08:57:49.000Z</time>
      </trkpt>
      <trkpt lat="47.27259" lon="-2.26156">
        <ele>39</ele>
        <time>2019-06-20T08:57:50.000Z</time>
      </trkpt>
      <trkpt lat="47.27265" lon="-2.26153">
        <ele>38.599998474121</ele>
        <time>2019-06-20T08:57:51.000Z</time>
      </trkpt>
      <trkpt lat="47.27272" lon="-2.2615">
        <ele>38.200000762939</ele>
        <time>2019-06-20T08:57:52.000Z</time>
      </trkpt>
      <trkpt lat="47.27291" lon="-2.26142">
        <ele>38.200000762939</ele>
        <time>2019-06-20T08:57:55.000Z</time>
      </trkpt>
      <trkpt lat="47.27331" lon="-2.26128">
        <ele>38.200000762939</ele>
        <time>2019-06-20T08:58:02.000Z</time>
      </trkpt>
      <trkpt lat="47.27341" lon="-2.26124">
        <ele>37.599998474121</ele>
        <time>2019-06-20T08:58:04.000Z</time>
      </trkpt>
      <trkpt lat="47.27344" lon="-2.26121">
        <ele>37.200000762939</ele>
        <time>2019-06-20T08:58:05.000Z</time>
      </trkpt>
      <trkpt lat="47.27345" lon="-2.26117">
        <ele>36.799999237061</ele>
        <time>2019-06-20T08:58:06.000Z</time>
      </trkpt>
      <trkpt lat="47.27346" lon="-2.26114">
        <ele>36.400001525879</ele>
        <time>2019-06-20T08:58:07.000Z</time>
      </trkpt>
      <trkpt lat="47.27346" lon="-2.2611">
        <ele>36</ele>
        <time>2019-06-20T08:58:08.000Z</time>
      </trkpt>
      <trkpt lat="47.2734" lon="-2.26101">
        <ele>36</ele>
        <time>2019-06-20T08:58:11.000Z</time>
      </trkpt>
      <trkpt lat="47.27333" lon="-2.26087">
        <ele>36</ele>
        <time>2019-06-20T08:58:14.000Z</time>
      </trkpt>
      <trkpt lat="47.2733" lon="-2.26081">
        <ele>36</ele>
        <time>2019-06-20T08:58:15.000Z</time>
      </trkpt>
      <trkpt lat="47.27307" lon="-2.26032">
        <ele>36</ele>
        <time>2019-06-20T08:58:23.000Z</time>
      </trkpt>
      <trkpt lat="47.27289" lon="-2.25996">
        <ele>36</ele>
        <time>2019-06-20T08:58:30.000Z</time>
      </trkpt>
      <trkpt lat="47.27291" lon="-2.25995">
        <ele>35.599998474121</ele>
        <time>2019-06-20T08:58:31.000Z</time>
      </trkpt>
      <trkpt lat="47.27293" lon="-2.25994">
        <ele>35.200000762939</ele>
        <time>2019-06-20T08:58:32.000Z</time>
      </trkpt>
      <trkpt lat="47.27295" lon="-2.25992">
        <ele>34.799999237061</ele>
        <time>2019-06-20T08:58:33.000Z</time>
      </trkpt>
      <trkpt lat="47.27298" lon="-2.2599">
        <ele>34.400001525879</ele>
        <time>2019-06-20T08:58:34.000Z</time>
      </trkpt>
      <trkpt lat="47.27299" lon="-2.25987">
        <ele>34</ele>
        <time>2019-06-20T08:58:35.000Z</time>
      </trkpt>
      <trkpt lat="47.27303" lon="-2.25981">
        <ele>34</ele>
        <time>2019-06-20T08:58:37.000Z</time>
      </trkpt>
      <trkpt lat="47.27306" lon="-2.25978">
        <ele>34</ele>
        <time>2019-06-20T08:58:38.000Z</time>
      </trkpt>
      <trkpt lat="47.27324" lon="-2.25966">
        <ele>34</ele>
        <time>2019-06-20T08:58:43.000Z</time>
      </trkpt>
      <trkpt lat="47.27347" lon="-2.25957">
        <ele>34</ele>
        <time>2019-06-20T08:58:48.000Z</time>
      </trkpt>
      <trkpt lat="47.27351" lon="-2.25954">
        <ele>34</ele>
        <time>2019-06-20T08:58:49.000Z</time>
      </trkpt>
      <trkpt lat="47.27366" lon="-2.25941">
        <ele>34</ele>
        <time>2019-06-20T08:58:52.000Z</time>
      </trkpt>
      <trkpt lat="47.27393" lon="-2.25907">
        <ele>34</ele>
        <time>2019-06-20T08:58:58.000Z</time>
      </trkpt>
      <trkpt lat="47.27401" lon="-2.25896">
        <ele>34</ele>
        <time>2019-06-20T08:59:00.000Z</time>
      </trkpt>
      <trkpt lat="47.27412" lon="-2.25877">
        <ele>34</ele>
        <time>2019-06-20T08:59:03.000Z</time>
      </trkpt>
      <trkpt lat="47.27429" lon="-2.25845">
        <ele>34</ele>
        <time>2019-06-20T08:59:08.000Z</time>
      </trkpt>
      <trkpt lat="47.27433" lon="-2.25839">
        <ele>34</ele>
        <time>2019-06-20T08:59:09.000Z</time>
      </trkpt>
      <trkpt lat="47.27451" lon="-2.25807">
        <ele>34</ele>
        <time>2019-06-20T08:59:14.000Z</time>
      </trkpt>
      <trkpt lat="47.27469" lon="-2.25792">
        <ele>34</ele>
        <time>2019-06-20T08:59:18.000Z</time>
      </trkpt>
      <trkpt lat="47.27474" lon="-2.25788">
        <ele>34</ele>
        <time>2019-06-20T08:59:19.000Z</time>
      </trkpt>
      <trkpt lat="47.27495" lon="-2.25764">
        <ele>34</ele>
        <time>2019-06-20T08:59:24.000Z</time>
      </trkpt>
      <trkpt lat="47.27517" lon="-2.25736">
        <ele>34</ele>
        <time>2019-06-20T08:59:29.000Z</time>
      </trkpt>
      <trkpt lat="47.27535" lon="-2.25704">
        <ele>34</ele>
        <time>2019-06-20T08:59:34.000Z</time>
      </trkpt>
      <trkpt lat="47.27553" lon="-2.25674">
        <ele>34</ele>
        <time>2019-06-20T08:59:39.000Z</time>
      </trkpt>
      <trkpt lat="47.27556" lon="-2.2567">
        <ele>33.599998474121</ele>
        <time>2019-06-20T08:59:40.000Z</time>
      </trkpt>
      <trkpt lat="47.27559" lon="-2.25666">
        <ele>33.200000762939</ele>
        <time>2019-06-20T08:59:41.000Z</time>
      </trkpt>
      <trkpt lat="47.2756" lon="-2.25662">
        <ele>32.400001525879</ele>
        <time>2019-06-20T08:59:42.000Z</time>
      </trkpt>
      <trkpt lat="47.27559" lon="-2.25658">
        <ele>32</ele>
        <time>2019-06-20T08:59:43.000Z</time>
      </trkpt>
      <trkpt lat="47.27558" lon="-2.25647">
        <ele>32</ele>
        <time>2019-06-20T08:59:47.000Z</time>
      </trkpt>
      <trkpt lat="47.27558" lon="-2.25645">
        <ele>32</ele>
        <time>2019-06-20T08:59:48.000Z</time>
      </trkpt>
      <trkpt lat="47.27558" lon="-2.25627">
        <ele>32</ele>
        <time>2019-06-20T08:59:51.000Z</time>
      </trkpt>
      <trkpt lat="47.27559" lon="-2.25583">
        <ele>32</ele>
        <time>2019-06-20T08:59:57.000Z</time>
      </trkpt>
      <trkpt lat="47.27557" lon="-2.25576">
        <ele>32</ele>
        <time>2019-06-20T08:59:58.000Z</time>
      </trkpt>
      <trkpt lat="47.27552" lon="-2.25549">
        <ele>32</ele>
        <time>2019-06-20T09:00:01.000Z</time>
      </trkpt>
      <trkpt lat="47.27543" lon="-2.25525">
        <ele>32</ele>
        <time>2019-06-20T09:00:04.000Z</time>
      </trkpt>
      <trkpt lat="47.27535" lon="-2.25508">
        <ele>32</ele>
        <time>2019-06-20T09:00:06.000Z</time>
      </trkpt>
      <trkpt lat="47.27518" lon="-2.25479">
        <ele>32</ele>
        <time>2019-06-20T09:00:10.000Z</time>
      </trkpt>
      <trkpt lat="47.27513" lon="-2.25474">
        <ele>32</ele>
        <time>2019-06-20T09:00:11.000Z</time>
      </trkpt>
      <trkpt lat="47.27496" lon="-2.25461">
        <ele>32</ele>
        <time>2019-06-20T09:00:14.000Z</time>
      </trkpt>
      <trkpt lat="47.27489" lon="-2.2546">
        <ele>32</ele>
        <time>2019-06-20T09:00:15.000Z</time>
      </trkpt>
      <trkpt lat="47.2747" lon="-2.25461">
        <ele>32</ele>
        <time>2019-06-20T09:00:18.000Z</time>
      </trkpt>
      <trkpt lat="47.27464" lon="-2.25459">
        <ele>32</ele>
        <time>2019-06-20T09:00:19.000Z</time>
      </trkpt>
      <trkpt lat="47.27452" lon="-2.25456">
        <ele>32</ele>
        <time>2019-06-20T09:00:21.000Z</time>
      </trkpt>
      <trkpt lat="47.27442" lon="-2.25451">
        <ele>32</ele>
        <time>2019-06-20T09:00:23.000Z</time>
      </trkpt>
      <trkpt lat="47.27438" lon="-2.25446">
        <ele>32</ele>
        <time>2019-06-20T09:00:24.000Z</time>
      </trkpt>
      <trkpt lat="47.27419" lon="-2.25423">
        <ele>32</ele>
        <time>2019-06-20T09:00:28.000Z</time>
      </trkpt>
      <trkpt lat="47.27417" lon="-2.25418">
        <ele>32</ele>
        <time>2019-06-20T09:00:29.000Z</time>
      </trkpt>
      <trkpt lat="47.27411" lon="-2.25397">
        <ele>32</ele>
        <time>2019-06-20T09:00:33.000Z</time>
      </trkpt>
      <trkpt lat="47.27407" lon="-2.25394">
        <ele>32</ele>
        <time>2019-06-20T09:00:34.000Z</time>
      </trkpt>
      <trkpt lat="47.27403" lon="-2.25381">
        <ele>32</ele>
        <time>2019-06-20T09:00:37.000Z</time>
      </trkpt>
      <trkpt lat="47.27401" lon="-2.25358">
        <ele>32</ele>
        <time>2019-06-20T09:00:42.000Z</time>
      </trkpt>
      <trkpt lat="47.274" lon="-2.25347">
        <ele>32</ele>
        <time>2019-06-20T09:00:44.000Z</time>
      </trkpt>
      <trkpt lat="47.27398" lon="-2.25337">
        <ele>32</ele>
        <time>2019-06-20T09:00:46.000Z</time>
      </trkpt>
      <trkpt lat="47.27392" lon="-2.2532">
        <ele>32</ele>
        <time>2019-06-20T09:00:51.000Z</time>
      </trkpt>
      <trkpt lat="47.27393" lon="-2.25315">
        <ele>32</ele>
        <time>2019-06-20T09:00:52.000Z</time>
      </trkpt>
      <trkpt lat="47.27394" lon="-2.25302">
        <ele>32</ele>
        <time>2019-06-20T09:00:55.000Z</time>
      </trkpt>
      <trkpt lat="47.27393" lon="-2.25277">
        <ele>32</ele>
        <time>2019-06-20T09:00:59.000Z</time>
      </trkpt>
      <trkpt lat="47.27388" lon="-2.25256">
        <ele>32</ele>
        <time>2019-06-20T09:01:02.000Z</time>
      </trkpt>
      <trkpt lat="47.27387" lon="-2.25249">
        <ele>32</ele>
        <time>2019-06-20T09:01:03.000Z</time>
      </trkpt>
      <trkpt lat="47.27384" lon="-2.25228">
        <ele>32</ele>
        <time>2019-06-20T09:01:06.000Z</time>
      </trkpt>
      <trkpt lat="47.27384" lon="-2.25221">
        <ele>32</ele>
        <time>2019-06-20T09:01:07.000Z</time>
      </trkpt>
      <trkpt lat="47.27385" lon="-2.25214">
        <ele>31.60000038147</ele>
        <time>2019-06-20T09:01:08.000Z</time>
      </trkpt>
      <trkpt lat="47.27387" lon="-2.25206">
        <ele>31.200000762939</ele>
        <time>2019-06-20T09:01:09.000Z</time>
      </trkpt>
      <trkpt lat="47.27389" lon="-2.252">
        <ele>30.799999237061</ele>
        <time>2019-06-20T09:01:10.000Z</time>
      </trkpt>
      <trkpt lat="47.2739" lon="-2.25195">
        <ele>30.39999961853</ele>
        <time>2019-06-20T09:01:11.000Z</time>
      </trkpt>
      <trkpt lat="47.2739" lon="-2.2519">
        <ele>30</ele>
        <time>2019-06-20T09:01:12.000Z</time>
      </trkpt>
      <trkpt lat="47.27387" lon="-2.25178">
        <ele>30</ele>
        <time>2019-06-20T09:01:14.000Z</time>
      </trkpt>
      <trkpt lat="47.27383" lon="-2.25165">
        <ele>30</ele>
        <time>2019-06-20T09:01:16.000Z</time>
      </trkpt>
      <trkpt lat="47.27374" lon="-2.25142">
        <ele>30</ele>
        <time>2019-06-20T09:01:20.000Z</time>
      </trkpt>
      <trkpt lat="47.27356" lon="-2.25098">
        <ele>30</ele>
        <time>2019-06-20T09:01:27.000Z</time>
      </trkpt>
      <trkpt lat="47.27339" lon="-2.25059">
        <ele>30</ele>
        <time>2019-06-20T09:01:34.000Z</time>
      </trkpt>
      <trkpt lat="47.27332" lon="-2.25052">
        <ele>30</ele>
        <time>2019-06-20T09:01:39.000Z</time>
      </trkpt>
      <trkpt lat="47.27332" lon="-2.25051">
        <ele>30</ele>
        <time>2019-06-20T09:01:40.000Z</time>
      </trkpt>
      <trkpt lat="47.27335" lon="-2.25047">
        <ele>30</ele>
        <time>2019-06-20T09:12:20.000Z</time>
      </trkpt>
      <trkpt lat="47.27338" lon="-2.25045">
        <ele>30</ele>
        <time>2019-06-20T09:12:22.000Z</time>
      </trkpt>
      <trkpt lat="47.27346" lon="-2.25036">
        <ele>30</ele>
        <time>2019-06-20T09:12:26.000Z</time>
      </trkpt>
      <trkpt lat="47.27348" lon="-2.25032">
        <ele>30</ele>
        <time>2019-06-20T09:12:27.000Z</time>
      </trkpt>
      <trkpt lat="47.27362" lon="-2.25002">
        <ele>30</ele>
        <time>2019-06-20T09:12:34.000Z</time>
      </trkpt>
      <trkpt lat="47.27378" lon="-2.24979">
        <ele>30</ele>
        <time>2019-06-20T09:12:40.000Z</time>
      </trkpt>
      <trkpt lat="47.27404" lon="-2.24963">
        <ele>30</ele>
        <time>2019-06-20T09:12:47.000Z</time>
      </trkpt>
      <trkpt lat="47.27408" lon="-2.24961">
        <ele>30</ele>
        <time>2019-06-20T09:12:48.000Z</time>
      </trkpt>
      <trkpt lat="47.27424" lon="-2.24952">
        <ele>30</ele>
        <time>2019-06-20T09:12:52.000Z</time>
      </trkpt>
      <trkpt lat="47.27428" lon="-2.2495">
        <ele>30</ele>
        <time>2019-06-20T09:12:53.000Z</time>
      </trkpt>
      <trkpt lat="47.27445" lon="-2.24954">
        <ele>30</ele>
        <time>2019-06-20T09:12:57.000Z</time>
      </trkpt>
      <trkpt lat="47.27449" lon="-2.24957">
        <ele>30</ele>
        <time>2019-06-20T09:12:58.000Z</time>
      </trkpt>
      <trkpt lat="47.27479" lon="-2.24978">
        <ele>30</ele>
        <time>2019-06-20T09:13:05.000Z</time>
      </trkpt>
      <trkpt lat="47.27508" lon="-2.25003">
        <ele>30</ele>
        <time>2019-06-20T09:13:12.000Z</time>
      </trkpt>
      <trkpt lat="47.27523" lon="-2.25016">
        <ele>30</ele>
        <time>2019-06-20T09:13:16.000Z</time>
      </trkpt>
      <trkpt lat="47.27526" lon="-2.25021">
        <ele>30</ele>
        <time>2019-06-20T09:13:17.000Z</time>
      </trkpt>
      <trkpt lat="47.27538" lon="-2.2504">
        <ele>30</ele>
        <time>2019-06-20T09:13:21.000Z</time>
      </trkpt>
      <trkpt lat="47.27543" lon="-2.25044">
        <ele>30</ele>
        <time>2019-06-20T09:13:22.000Z</time>
      </trkpt>
      <trkpt lat="47.27568" lon="-2.25068">
        <ele>30</ele>
        <time>2019-06-20T09:13:28.000Z</time>
      </trkpt>
      <trkpt lat="47.27589" lon="-2.25078">
        <ele>30</ele>
        <time>2019-06-20T09:13:33.000Z</time>
      </trkpt>
      <trkpt lat="47.27614" lon="-2.2509">
        <ele>30</ele>
        <time>2019-06-20T09:13:39.000Z</time>
      </trkpt>
      <trkpt lat="47.27628" lon="-2.25096">
        <ele>30</ele>
        <time>2019-06-20T09:13:42.000Z</time>
      </trkpt>
      <trkpt lat="47.27637" lon="-2.25098">
        <ele>30</ele>
        <time>2019-06-20T09:13:44.000Z</time>
      </trkpt>
      <trkpt lat="47.27642" lon="-2.25098">
        <ele>30</ele>
        <time>2019-06-20T09:13:45.000Z</time>
      </trkpt>
      <trkpt lat="47.27661" lon="-2.25093">
        <ele>30</ele>
        <time>2019-06-20T09:13:49.000Z</time>
      </trkpt>
      <trkpt lat="47.27671" lon="-2.2509">
        <ele>30</ele>
        <time>2019-06-20T09:13:51.000Z</time>
      </trkpt>
      <trkpt lat="47.27681" lon="-2.25086">
        <ele>30</ele>
        <time>2019-06-20T09:13:53.000Z</time>
      </trkpt>
      <trkpt lat="47.27686" lon="-2.25086">
        <ele>30</ele>
        <time>2019-06-20T09:13:54.000Z</time>
      </trkpt>
      <trkpt lat="47.27697" lon="-2.25084">
        <ele>30</ele>
        <time>2019-06-20T09:13:56.000Z</time>
      </trkpt>
      <trkpt lat="47.27706" lon="-2.25078">
        <ele>30</ele>
        <time>2019-06-20T09:13:58.000Z</time>
      </trkpt>
      <trkpt lat="47.27714" lon="-2.25072">
        <ele>30</ele>
        <time>2019-06-20T09:14:00.000Z</time>
      </trkpt>
      <trkpt lat="47.27725" lon="-2.25062">
        <ele>30</ele>
        <time>2019-06-20T09:14:03.000Z</time>
      </trkpt>
      <trkpt lat="47.2775" lon="-2.25042">
        <ele>30</ele>
        <time>2019-06-20T09:14:09.000Z</time>
      </trkpt>
      <trkpt lat="47.27758" lon="-2.25036">
        <ele>30</ele>
        <time>2019-06-20T09:14:11.000Z</time>
      </trkpt>
      <trkpt lat="47.27767" lon="-2.25031">
        <ele>30</ele>
        <time>2019-06-20T09:14:13.000Z</time>
      </trkpt>
      <trkpt lat="47.27783" lon="-2.25025">
        <ele>30</ele>
        <time>2019-06-20T09:14:16.000Z</time>
      </trkpt>
      <trkpt lat="47.27788" lon="-2.25025">
        <ele>30</ele>
        <time>2019-06-20T09:14:17.000Z</time>
      </trkpt>
      <trkpt lat="47.27801" lon="-2.25025">
        <ele>30</ele>
        <time>2019-06-20T09:14:20.000Z</time>
      </trkpt>
      <trkpt lat="47.27806" lon="-2.25026">
        <ele>30</ele>
        <time>2019-06-20T09:14:21.000Z</time>
      </trkpt>
      <trkpt lat="47.27815" lon="-2.25031">
        <ele>30</ele>
        <time>2019-06-20T09:14:23.000Z</time>
      </trkpt>
      <trkpt lat="47.27833" lon="-2.25044">
        <ele>30</ele>
        <time>2019-06-20T09:14:27.000Z</time>
      </trkpt>
      <trkpt lat="47.27847" lon="-2.25051">
        <ele>30</ele>
        <time>2019-06-20T09:14:30.000Z</time>
      </trkpt>
      <trkpt lat="47.27857" lon="-2.25055">
        <ele>30</ele>
        <time>2019-06-20T09:14:32.000Z</time>
      </trkpt>
      <trkpt lat="47.27875" lon="-2.25062">
        <ele>30</ele>
        <time>2019-06-20T09:14:36.000Z</time>
      </trkpt>
      <trkpt lat="47.2788" lon="-2.25066">
        <ele>30</ele>
        <time>2019-06-20T09:14:37.000Z</time>
      </trkpt>
      <trkpt lat="47.27898" lon="-2.2508">
        <ele>30</ele>
        <time>2019-06-20T09:14:41.000Z</time>
      </trkpt>
      <trkpt lat="47.27903" lon="-2.25082">
        <ele>30</ele>
        <time>2019-06-20T09:14:42.000Z</time>
      </trkpt>
      <trkpt lat="47.27918" lon="-2.25077">
        <ele>30</ele>
        <time>2019-06-20T09:14:45.000Z</time>
      </trkpt>
      <trkpt lat="47.27927" lon="-2.25073">
        <ele>30</ele>
        <time>2019-06-20T09:14:47.000Z</time>
      </trkpt>
      <trkpt lat="47.27938" lon="-2.25072">
        <ele>30</ele>
        <time>2019-06-20T09:14:49.000Z</time>
      </trkpt>
      <trkpt lat="47.27963" lon="-2.25071">
        <ele>30</ele>
        <time>2019-06-20T09:14:54.000Z</time>
      </trkpt>
      <trkpt lat="47.27968" lon="-2.25071">
        <ele>30</ele>
        <time>2019-06-20T09:14:55.000Z</time>
      </trkpt>
      <trkpt lat="47.27982" lon="-2.2507">
        <ele>30</ele>
        <time>2019-06-20T09:14:58.000Z</time>
      </trkpt>
      <trkpt lat="47.27991" lon="-2.25074">
        <ele>30</ele>
        <time>2019-06-20T09:15:01.000Z</time>
      </trkpt>
      <trkpt lat="47.27994" lon="-2.25077">
        <ele>30</ele>
        <time>2019-06-20T09:15:02.000Z</time>
      </trkpt>
      <trkpt lat="47.28007" lon="-2.25088">
        <ele>30</ele>
        <time>2019-06-20T09:15:05.000Z</time>
      </trkpt>
      <trkpt lat="47.28042" lon="-2.25113">
        <ele>30</ele>
        <time>2019-06-20T09:15:12.000Z</time>
      </trkpt>
      <trkpt lat="47.2808" lon="-2.25145">
        <ele>30</ele>
        <time>2019-06-20T09:15:20.000Z</time>
      </trkpt>
      <trkpt lat="47.28088" lon="-2.25154">
        <ele>30</ele>
        <time>2019-06-20T09:15:22.000Z</time>
      </trkpt>
      <trkpt lat="47.28097" lon="-2.2517">
        <ele>30</ele>
        <time>2019-06-20T09:15:25.000Z</time>
      </trkpt>
      <trkpt lat="47.281" lon="-2.25192">
        <ele>30</ele>
        <time>2019-06-20T09:15:28.000Z</time>
      </trkpt>
      <trkpt lat="47.28098" lon="-2.25208">
        <ele>30</ele>
        <time>2019-06-20T09:15:30.000Z</time>
      </trkpt>
      <trkpt lat="47.28095" lon="-2.2523">
        <ele>30</ele>
        <time>2019-06-20T09:15:33.000Z</time>
      </trkpt>
      <trkpt lat="47.28093" lon="-2.25237">
        <ele>30</ele>
        <time>2019-06-20T09:15:34.000Z</time>
      </trkpt>
      <trkpt lat="47.28091" lon="-2.25244">
        <ele>30</ele>
        <time>2019-06-20T09:15:35.000Z</time>
      </trkpt>
      <trkpt lat="47.28085" lon="-2.25267">
        <ele>30</ele>
        <time>2019-06-20T09:15:38.000Z</time>
      </trkpt>
      <trkpt lat="47.28083" lon="-2.25275">
        <ele>30</ele>
        <time>2019-06-20T09:15:39.000Z</time>
      </trkpt>
      <trkpt lat="47.28082" lon="-2.25284">
        <ele>30</ele>
        <time>2019-06-20T09:15:40.000Z</time>
      </trkpt>
      <trkpt lat="47.28081" lon="-2.253">
        <ele>30</ele>
        <time>2019-06-20T09:15:42.000Z</time>
      </trkpt>
      <trkpt lat="47.28081" lon="-2.25316">
        <ele>30</ele>
        <time>2019-06-20T09:15:44.000Z</time>
      </trkpt>
      <trkpt lat="47.28082" lon="-2.2534">
        <ele>30</ele>
        <time>2019-06-20T09:15:47.000Z</time>
      </trkpt>
      <trkpt lat="47.28082" lon="-2.25363">
        <ele>30</ele>
        <time>2019-06-20T09:15:50.000Z</time>
      </trkpt>
      <trkpt lat="47.28082" lon="-2.25386">
        <ele>30</ele>
        <time>2019-06-20T09:15:53.000Z</time>
      </trkpt>
      <trkpt lat="47.28081" lon="-2.25402">
        <ele>30</ele>
        <time>2019-06-20T09:15:55.000Z</time>
      </trkpt>
      <trkpt lat="47.28081" lon="-2.2541">
        <ele>30</ele>
        <time>2019-06-20T09:15:56.000Z</time>
      </trkpt>
      <trkpt lat="47.28085" lon="-2.2544">
        <ele>30</ele>
        <time>2019-06-20T09:16:00.000Z</time>
      </trkpt>
      <trkpt lat="47.28091" lon="-2.25465">
        <ele>30</ele>
        <time>2019-06-20T09:16:04.000Z</time>
      </trkpt>
      <trkpt lat="47.28096" lon="-2.25473">
        <ele>30</ele>
        <time>2019-06-20T09:16:06.000Z</time>
      </trkpt>
      <trkpt lat="47.28102" lon="-2.25474">
        <ele>30</ele>
        <time>2019-06-20T09:16:08.000Z</time>
      </trkpt>
      <trkpt lat="47.28108" lon="-2.25474">
        <ele>30</ele>
        <time>2019-06-20T09:16:10.000Z</time>
      </trkpt>
      <trkpt lat="47.28119" lon="-2.25465">
        <ele>30</ele>
        <time>2019-06-20T09:16:14.000Z</time>
      </trkpt>
      <trkpt lat="47.2813" lon="-2.25456">
        <ele>30.39999961853</ele>
        <time>2019-06-20T09:16:17.000Z</time>
      </trkpt>
      <trkpt lat="47.28134" lon="-2.25454">
        <ele>30.799999237061</ele>
        <time>2019-06-20T09:16:18.000Z</time>
      </trkpt>
      <trkpt lat="47.28138" lon="-2.25452">
        <ele>31.200000762939</ele>
        <time>2019-06-20T09:16:19.000Z</time>
      </trkpt>
      <trkpt lat="47.28142" lon="-2.25449">
        <ele>31.60000038147</ele>
        <time>2019-06-20T09:16:20.000Z</time>
      </trkpt>
      <trkpt lat="47.28145" lon="-2.25446">
        <ele>32</ele>
        <time>2019-06-20T09:16:21.000Z</time>
      </trkpt>
      <trkpt lat="47.28153" lon="-2.2544">
        <ele>32</ele>
        <time>2019-06-20T09:16:23.000Z</time>
      </trkpt>
      <trkpt lat="47.28157" lon="-2.25439">
        <ele>32</ele>
        <time>2019-06-20T09:16:24.000Z</time>
      </trkpt>
      <trkpt lat="47.28167" lon="-2.25432">
        <ele>32</ele>
        <time>2019-06-20T09:16:27.000Z</time>
      </trkpt>
      <trkpt lat="47.28171" lon="-2.25429">
        <ele>32</ele>
        <time>2019-06-20T09:16:28.000Z</time>
      </trkpt>
      <trkpt lat="47.28174" lon="-2.25427">
        <ele>32</ele>
        <time>2019-06-20T09:16:29.000Z</time>
      </trkpt>
      <trkpt lat="47.28186" lon="-2.25421">
        <ele>32.400001525879</ele>
        <time>2019-06-20T09:16:32.000Z</time>
      </trkpt>
      <trkpt lat="47.28189" lon="-2.25418">
        <ele>32.799999237061</ele>
        <time>2019-06-20T09:16:33.000Z</time>
      </trkpt>
      <trkpt lat="47.28193" lon="-2.25415">
        <ele>33.200000762939</ele>
        <time>2019-06-20T09:16:34.000Z</time>
      </trkpt>
      <trkpt lat="47.28196" lon="-2.25412">
        <ele>34.200000762939</ele>
        <time>2019-06-20T09:16:35.000Z</time>
      </trkpt>
      <trkpt lat="47.28203" lon="-2.25407">
        <ele>34.200000762939</ele>
        <time>2019-06-20T09:16:37.000Z</time>
      </trkpt>
      <trkpt lat="47.28221" lon="-2.25395">
        <ele>34.599998474121</ele>
        <time>2019-06-20T09:16:42.000Z</time>
      </trkpt>
      <trkpt lat="47.28224" lon="-2.25392">
        <ele>35</ele>
        <time>2019-06-20T09:16:43.000Z</time>
      </trkpt>
      <trkpt lat="47.28226" lon="-2.2539">
        <ele>35.400001525879</ele>
        <time>2019-06-20T09:16:44.000Z</time>
      </trkpt>
      <trkpt lat="47.28229" lon="-2.25388">
        <ele>35.799999237061</ele>
        <time>2019-06-20T09:16:45.000Z</time>
      </trkpt>
      <trkpt lat="47.28231" lon="-2.25386">
        <ele>36.200000762939</ele>
        <time>2019-06-20T09:16:46.000Z</time>
      </trkpt>
      <trkpt lat="47.28233" lon="-2.25384">
        <ele>36.200000762939</ele>
        <time>2019-06-20T09:16:47.000Z</time>
      </trkpt>
      <trkpt lat="47.28241" lon="-2.25377">
        <ele>36.599998474121</ele>
        <time>2019-06-20T09:16:50.000Z</time>
      </trkpt>
      <trkpt lat="47.28244" lon="-2.25375">
        <ele>37</ele>
        <time>2019-06-20T09:16:51.000Z</time>
      </trkpt>
      <trkpt lat="47.28247" lon="-2.25373">
        <ele>37.400001525879</ele>
        <time>2019-06-20T09:16:52.000Z</time>
      </trkpt>
      <trkpt lat="47.2825" lon="-2.2537">
        <ele>37.799999237061</ele>
        <time>2019-06-20T09:16:53.000Z</time>
      </trkpt>
      <trkpt lat="47.28253" lon="-2.25368">
        <ele>38.400001525879</ele>
        <time>2019-06-20T09:16:54.000Z</time>
      </trkpt>
      <trkpt lat="47.28264" lon="-2.25365">
        <ele>38.400001525879</ele>
        <time>2019-06-20T09:16:57.000Z</time>
      </trkpt>
      <trkpt lat="47.28284" lon="-2.25364">
        <ele>38.400001525879</ele>
        <time>2019-06-20T09:17:02.000Z</time>
      </trkpt>
      <trkpt lat="47.28287" lon="-2.25364">
        <ele>38.799999237061</ele>
        <time>2019-06-20T09:17:03.000Z</time>
      </trkpt>
      <trkpt lat="47.28291" lon="-2.25362">
        <ele>39.200000762939</ele>
        <time>2019-06-20T09:17:04.000Z</time>
      </trkpt>
      <trkpt lat="47.28294" lon="-2.2536">
        <ele>39.599998474121</ele>
        <time>2019-06-20T09:17:05.000Z</time>
      </trkpt>
      <trkpt lat="47.28298" lon="-2.25359">
        <ele>40</ele>
        <time>2019-06-20T09:17:06.000Z</time>
      </trkpt>
      <trkpt lat="47.283" lon="-2.25358">
        <ele>40.400001525879</ele>
        <time>2019-06-20T09:17:07.000Z</time>
      </trkpt>
      <trkpt lat="47.28308" lon="-2.25353">
        <ele>40.400001525879</ele>
        <time>2019-06-20T09:17:10.000Z</time>
      </trkpt>
      <trkpt lat="47.28327" lon="-2.25341">
        <ele>40.400001525879</ele>
        <time>2019-06-20T09:17:15.000Z</time>
      </trkpt>
      <trkpt lat="47.28335" lon="-2.25336">
        <ele>40.799999237061</ele>
        <time>2019-06-20T09:17:17.000Z</time>
      </trkpt>
      <trkpt lat="47.2834" lon="-2.25334">
        <ele>41.200000762939</ele>
        <time>2019-06-20T09:17:18.000Z</time>
      </trkpt>
      <trkpt lat="47.28344" lon="-2.25332">
        <ele>41.599998474121</ele>
        <time>2019-06-20T09:17:19.000Z</time>
      </trkpt>
      <trkpt lat="47.28349" lon="-2.2533">
        <ele>42</ele>
        <time>2019-06-20T09:17:20.000Z</time>
      </trkpt>
      <trkpt lat="47.28353" lon="-2.25327">
        <ele>42.400001525879</ele>
        <time>2019-06-20T09:17:21.000Z</time>
      </trkpt>
      <trkpt lat="47.28358" lon="-2.25323">
        <ele>42.400001525879</ele>
        <time>2019-06-20T09:17:22.000Z</time>
      </trkpt>
      <trkpt lat="47.28363" lon="-2.2532">
        <ele>42.400001525879</ele>
        <time>2019-06-20T09:17:23.000Z</time>
      </trkpt>
      <trkpt lat="47.28368" lon="-2.25318">
        <ele>42.400001525879</ele>
        <time>2019-06-20T09:17:24.000Z</time>
      </trkpt>
      <trkpt lat="47.28382" lon="-2.25317">
        <ele>42.400001525879</ele>
        <time>2019-06-20T09:17:28.000Z</time>
      </trkpt>
      <trkpt lat="47.28388" lon="-2.25319">
        <ele>42.400001525879</ele>
        <time>2019-06-20T09:17:32.000Z</time>
      </trkpt>
      <trkpt lat="47.2839" lon="-2.25335">
        <ele>42.400001525879</ele>
        <time>2019-06-20T09:17:36.000Z</time>
      </trkpt>
      <trkpt lat="47.28388" lon="-2.2535">
        <ele>42.400001525879</ele>
        <time>2019-06-20T09:17:39.000Z</time>
      </trkpt>
      <trkpt lat="47.28387" lon="-2.2536">
        <ele>42.400001525879</ele>
        <time>2019-06-20T09:17:41.000Z</time>
      </trkpt>
      <trkpt lat="47.28383" lon="-2.25394">
        <ele>42.400001525879</ele>
        <time>2019-06-20T09:17:47.000Z</time>
      </trkpt>
      <trkpt lat="47.28381" lon="-2.25401">
        <ele>42.400001525879</ele>
        <time>2019-06-20T09:17:48.000Z</time>
      </trkpt>
      <trkpt lat="47.28378" lon="-2.25428">
        <ele>42.400001525879</ele>
        <time>2019-06-20T09:17:52.000Z</time>
      </trkpt>
      <trkpt lat="47.28375" lon="-2.25468">
        <ele>42.400001525879</ele>
        <time>2019-06-20T09:17:58.000Z</time>
      </trkpt>
      <trkpt lat="47.28371" lon="-2.255">
        <ele>42.400001525879</ele>
        <time>2019-06-20T09:18:03.000Z</time>
      </trkpt>
      <trkpt lat="47.28366" lon="-2.25537">
        <ele>42.400001525879</ele>
        <time>2019-06-20T09:18:09.000Z</time>
      </trkpt>
      <trkpt lat="47.28364" lon="-2.25571">
        <ele>42.400001525879</ele>
        <time>2019-06-20T09:18:15.000Z</time>
      </trkpt>
      <trkpt lat="47.28361" lon="-2.25607">
        <ele>42.400001525879</ele>
        <time>2019-06-20T09:18:21.000Z</time>
      </trkpt>
      <trkpt lat="47.28361" lon="-2.25631">
        <ele>42.400001525879</ele>
        <time>2019-06-20T09:18:25.000Z</time>
      </trkpt>
      <trkpt lat="47.28364" lon="-2.25637">
        <ele>42.400001525879</ele>
        <time>2019-06-20T09:18:26.000Z</time>
      </trkpt>
      <trkpt lat="47.28371" lon="-2.25643">
        <ele>42.400001525879</ele>
        <time>2019-06-20T09:18:28.000Z</time>
      </trkpt>
      <trkpt lat="47.28375" lon="-2.25645">
        <ele>42.400001525879</ele>
        <time>2019-06-20T09:18:29.000Z</time>
      </trkpt>
      <trkpt lat="47.28381" lon="-2.25663">
        <ele>42.400001525879</ele>
        <time>2019-06-20T09:18:32.000Z</time>
      </trkpt>
      <trkpt lat="47.28379" lon="-2.25682">
        <ele>42.400001525879</ele>
        <time>2019-06-20T09:18:35.000Z</time>
      </trkpt>
      <trkpt lat="47.28378" lon="-2.25689">
        <ele>42.400001525879</ele>
        <time>2019-06-20T09:18:36.000Z</time>
      </trkpt>
      <trkpt lat="47.28378" lon="-2.25695">
        <ele>42.400001525879</ele>
        <time>2019-06-20T09:18:37.000Z</time>
      </trkpt>
      <trkpt lat="47.28378" lon="-2.25701">
        <ele>42.400001525879</ele>
        <time>2019-06-20T09:18:38.000Z</time>
      </trkpt>
      <trkpt lat="47.28379" lon="-2.25717">
        <ele>42.400001525879</ele>
        <time>2019-06-20T09:18:41.000Z</time>
      </trkpt>
      <trkpt lat="47.28381" lon="-2.25724">
        <ele>42.400001525879</ele>
        <time>2019-06-20T09:18:44.000Z</time>
      </trkpt>
      <trkpt lat="47.28381" lon="-2.25727">
        <ele>42.400001525879</ele>
        <time>2019-06-20T09:18:45.000Z</time>
      </trkpt>
      <trkpt lat="47.2838" lon="-2.25739">
        <ele>42.400001525879</ele>
        <time>2019-06-20T09:18:49.000Z</time>
      </trkpt>
      <trkpt lat="47.2838" lon="-2.25744">
        <ele>42.400001525879</ele>
        <time>2019-06-20T09:18:50.000Z</time>
      </trkpt>
      <trkpt lat="47.28377" lon="-2.25767">
        <ele>42.400001525879</ele>
        <time>2019-06-20T09:18:54.000Z</time>
      </trkpt>
      <trkpt lat="47.28377" lon="-2.25799">
        <ele>42.400001525879</ele>
        <time>2019-06-20T09:19:00.000Z</time>
      </trkpt>
      <trkpt lat="47.28376" lon="-2.25804">
        <ele>42.400001525879</ele>
        <time>2019-06-20T09:19:02.000Z</time>
      </trkpt>
      <trkpt lat="47.28377" lon="-2.2581">
        <ele>42.400001525879</ele>
        <time>2019-06-20T09:19:04.000Z</time>
      </trkpt>
      <trkpt lat="47.28388" lon="-2.25814">
        <ele>42.400001525879</ele>
        <time>2019-06-20T09:19:07.000Z</time>
      </trkpt>
      <trkpt lat="47.28393" lon="-2.25814">
        <ele>42.400001525879</ele>
        <time>2019-06-20T09:19:08.000Z</time>
      </trkpt>
      <trkpt lat="47.2841" lon="-2.25814">
        <ele>42.400001525879</ele>
        <time>2019-06-20T09:19:12.000Z</time>
      </trkpt>
      <trkpt lat="47.2842" lon="-2.25814">
        <ele>42.400001525879</ele>
        <time>2019-06-20T09:19:14.000Z</time>
      </trkpt>
      <trkpt lat="47.28435" lon="-2.25816">
        <ele>42.400001525879</ele>
        <time>2019-06-20T09:19:17.000Z</time>
      </trkpt>
      <trkpt lat="47.28452" lon="-2.25819">
        <ele>42.400001525879</ele>
        <time>2019-06-20T09:19:20.000Z</time>
      </trkpt>
      <trkpt lat="47.28488" lon="-2.25826">
        <ele>42.400001525879</ele>
        <time>2019-06-20T09:19:26.000Z</time>
      </trkpt>
      <trkpt lat="47.28527" lon="-2.25834">
        <ele>42.400001525879</ele>
        <time>2019-06-20T09:19:32.000Z</time>
      </trkpt>
      <trkpt lat="47.28547" lon="-2.25837">
        <ele>42.400001525879</ele>
        <time>2019-06-20T09:19:35.000Z</time>
      </trkpt>
      <trkpt lat="47.28558" lon="-2.25844">
        <ele>42.400001525879</ele>
        <time>2019-06-20T09:19:37.000Z</time>
      </trkpt>
      <trkpt lat="47.28561" lon="-2.2585">
        <ele>42</ele>
        <time>2019-06-20T09:19:38.000Z</time>
      </trkpt>
      <trkpt lat="47.28564" lon="-2.25858">
        <ele>41.599998474121</ele>
        <time>2019-06-20T09:19:39.000Z</time>
      </trkpt>
      <trkpt lat="47.28565" lon="-2.25866">
        <ele>41</ele>
        <time>2019-06-20T09:19:40.000Z</time>
      </trkpt>
      <trkpt lat="47.28565" lon="-2.25875">
        <ele>40.599998474121</ele>
        <time>2019-06-20T09:19:41.000Z</time>
      </trkpt>
      <trkpt lat="47.28564" lon="-2.25884">
        <ele>40.200000762939</ele>
        <time>2019-06-20T09:19:42.000Z</time>
      </trkpt>
      <trkpt lat="47.28563" lon="-2.25911">
        <ele>40.200000762939</ele>
        <time>2019-06-20T09:19:45.000Z</time>
      </trkpt>
      <trkpt lat="47.28563" lon="-2.25955">
        <ele>40.200000762939</ele>
        <time>2019-06-20T09:19:50.000Z</time>
      </trkpt>
      <trkpt lat="47.28565" lon="-2.25962">
        <ele>40.200000762939</ele>
        <time>2019-06-20T09:19:51.000Z</time>
      </trkpt>
      <trkpt lat="47.28576" lon="-2.25971">
        <ele>40.200000762939</ele>
        <time>2019-06-20T09:19:54.000Z</time>
      </trkpt>
      <trkpt lat="47.28587" lon="-2.25972">
        <ele>40.200000762939</ele>
        <time>2019-06-20T09:19:56.000Z</time>
      </trkpt>
      <trkpt lat="47.28601" lon="-2.25973">
        <ele>40.200000762939</ele>
        <time>2019-06-20T09:19:59.000Z</time>
      </trkpt>
      <trkpt lat="47.2861" lon="-2.25977">
        <ele>40.200000762939</ele>
        <time>2019-06-20T09:20:02.000Z</time>
      </trkpt>
      <trkpt lat="47.2861" lon="-2.2598">
        <ele>40.200000762939</ele>
        <time>2019-06-20T09:20:03.000Z</time>
      </trkpt>
      <trkpt lat="47.28605" lon="-2.25997">
        <ele>40.200000762939</ele>
        <time>2019-06-20T09:20:06.000Z</time>
      </trkpt>
      <trkpt lat="47.28605" lon="-2.26027">
        <ele>40.200000762939</ele>
        <time>2019-06-20T09:20:10.000Z</time>
      </trkpt>
      <trkpt lat="47.28605" lon="-2.26036">
        <ele>40.200000762939</ele>
        <time>2019-06-20T09:20:11.000Z</time>
      </trkpt>
      <trkpt lat="47.28602" lon="-2.26077">
        <ele>40.200000762939</ele>
        <time>2019-06-20T09:20:16.000Z</time>
      </trkpt>
      <trkpt lat="47.28601" lon="-2.26132">
        <ele>40.200000762939</ele>
        <time>2019-06-20T09:20:22.000Z</time>
      </trkpt>
      <trkpt lat="47.28601" lon="-2.26193">
        <ele>40.200000762939</ele>
        <time>2019-06-20T09:20:28.000Z</time>
      </trkpt>
      <trkpt lat="47.28601" lon="-2.26202">
        <ele>40.200000762939</ele>
        <time>2019-06-20T09:20:29.000Z</time>
      </trkpt>
      <trkpt lat="47.28603" lon="-2.26211">
        <ele>40.200000762939</ele>
        <time>2019-06-20T09:20:30.000Z</time>
      </trkpt>
      <trkpt lat="47.2861" lon="-2.26228">
        <ele>40.200000762939</ele>
        <time>2019-06-20T09:20:32.000Z</time>
      </trkpt>
      <trkpt lat="47.28619" lon="-2.26244">
        <ele>40.200000762939</ele>
        <time>2019-06-20T09:20:34.000Z</time>
      </trkpt>
      <trkpt lat="47.28627" lon="-2.2626">
        <ele>40.200000762939</ele>
        <time>2019-06-20T09:20:36.000Z</time>
      </trkpt>
      <trkpt lat="47.28631" lon="-2.26269">
        <ele>40.200000762939</ele>
        <time>2019-06-20T09:20:37.000Z</time>
      </trkpt>
      <trkpt lat="47.28651" lon="-2.2632">
        <ele>40.200000762939</ele>
        <time>2019-06-20T09:20:43.000Z</time>
      </trkpt>
      <trkpt lat="47.28668" lon="-2.26359">
        <ele>40.200000762939</ele>
        <time>2019-06-20T09:20:48.000Z</time>
      </trkpt>
      <trkpt lat="47.28673" lon="-2.26365">
        <ele>40.200000762939</ele>
        <time>2019-06-20T09:20:49.000Z</time>
      </trkpt>
      <trkpt lat="47.28688" lon="-2.26379">
        <ele>40.200000762939</ele>
        <time>2019-06-20T09:20:52.000Z</time>
      </trkpt>
      <trkpt lat="47.28692" lon="-2.26384">
        <ele>40.200000762939</ele>
        <time>2019-06-20T09:20:53.000Z</time>
      </trkpt>
      <trkpt lat="47.28697" lon="-2.26388">
        <ele>40.200000762939</ele>
        <time>2019-06-20T09:20:54.000Z</time>
      </trkpt>
      <trkpt lat="47.28708" lon="-2.264">
        <ele>40.200000762939</ele>
        <time>2019-06-20T09:20:57.000Z</time>
      </trkpt>
      <trkpt lat="47.28716" lon="-2.26395">
        <ele>40.200000762939</ele>
        <time>2019-06-20T09:20:59.000Z</time>
      </trkpt>
      <trkpt lat="47.28721" lon="-2.26376">
        <ele>40.200000762939</ele>
        <time>2019-06-20T09:21:02.000Z</time>
      </trkpt>
      <trkpt lat="47.28722" lon="-2.26369">
        <ele>40.200000762939</ele>
        <time>2019-06-20T09:21:03.000Z</time>
      </trkpt>
      <trkpt lat="47.28724" lon="-2.26363">
        <ele>40.200000762939</ele>
        <time>2019-06-20T09:21:04.000Z</time>
      </trkpt>
      <trkpt lat="47.28731" lon="-2.26359">
        <ele>40.200000762939</ele>
        <time>2019-06-20T09:21:06.000Z</time>
      </trkpt>
      <trkpt lat="47.28749" lon="-2.26362">
        <ele>40.200000762939</ele>
        <time>2019-06-20T09:21:10.000Z</time>
      </trkpt>
      <trkpt lat="47.28753" lon="-2.26362">
        <ele>40.200000762939</ele>
        <time>2019-06-20T09:21:11.000Z</time>
      </trkpt>
      <trkpt lat="47.28787" lon="-2.26365">
        <ele>40.200000762939</ele>
        <time>2019-06-20T09:21:18.000Z</time>
      </trkpt>
      <trkpt lat="47.28801" lon="-2.26366">
        <ele>40.599998474121</ele>
        <time>2019-06-20T09:21:21.000Z</time>
      </trkpt>
      <trkpt lat="47.28806" lon="-2.26365">
        <ele>41</ele>
        <time>2019-06-20T09:21:22.000Z</time>
      </trkpt>
      <trkpt lat="47.28811" lon="-2.26365">
        <ele>41.400001525879</ele>
        <time>2019-06-20T09:21:23.000Z</time>
      </trkpt>
      <trkpt lat="47.28815" lon="-2.26365">
        <ele>41.799999237061</ele>
        <time>2019-06-20T09:21:24.000Z</time>
      </trkpt>
      <trkpt lat="47.2882" lon="-2.26365">
        <ele>42.200000762939</ele>
        <time>2019-06-20T09:21:25.000Z</time>
      </trkpt>
      <trkpt lat="47.28833" lon="-2.26369">
        <ele>42.200000762939</ele>
        <time>2019-06-20T09:21:28.000Z</time>
      </trkpt>
      <trkpt lat="47.28848" lon="-2.26368">
        <ele>42.200000762939</ele>
        <time>2019-06-20T09:21:31.000Z</time>
      </trkpt>
      <trkpt lat="47.28854" lon="-2.26367">
        <ele>42.200000762939</ele>
        <time>2019-06-20T09:21:32.000Z</time>
      </trkpt>
      <trkpt lat="47.28875" lon="-2.26362">
        <ele>42.200000762939</ele>
        <time>2019-06-20T09:21:36.000Z</time>
      </trkpt>
      <trkpt lat="47.2888" lon="-2.26362">
        <ele>42.200000762939</ele>
        <time>2019-06-20T09:21:37.000Z</time>
      </trkpt>
      <trkpt lat="47.28905" lon="-2.26365">
        <ele>42.200000762939</ele>
        <time>2019-06-20T09:21:42.000Z</time>
      </trkpt>
      <trkpt lat="47.28911" lon="-2.26366">
        <ele>42.200000762939</ele>
        <time>2019-06-20T09:21:43.000Z</time>
      </trkpt>
      <trkpt lat="47.28929" lon="-2.26371">
        <ele>42.200000762939</ele>
        <time>2019-06-20T09:21:47.000Z</time>
      </trkpt>
      <trkpt lat="47.2895" lon="-2.26372">
        <ele>42.200000762939</ele>
        <time>2019-06-20T09:21:52.000Z</time>
      </trkpt>
      <trkpt lat="47.28972" lon="-2.26366">
        <ele>42.200000762939</ele>
        <time>2019-06-20T09:21:57.000Z</time>
      </trkpt>
      <trkpt lat="47.28981" lon="-2.26365">
        <ele>42.200000762939</ele>
        <time>2019-06-20T09:21:59.000Z</time>
      </trkpt>
      <trkpt lat="47.28994" lon="-2.26374">
        <ele>42.200000762939</ele>
        <time>2019-06-20T09:22:02.000Z</time>
      </trkpt>
      <trkpt lat="47.28998" lon="-2.2638">
        <ele>42.200000762939</ele>
        <time>2019-06-20T09:22:03.000Z</time>
      </trkpt>
      <trkpt lat="47.29012" lon="-2.26398">
        <ele>42.200000762939</ele>
        <time>2019-06-20T09:22:06.000Z</time>
      </trkpt>
      <trkpt lat="47.29015" lon="-2.26406">
        <ele>42.200000762939</ele>
        <time>2019-06-20T09:22:07.000Z</time>
      </trkpt>
      <trkpt lat="47.29023" lon="-2.26445">
        <ele>42.200000762939</ele>
        <time>2019-06-20T09:22:11.000Z</time>
      </trkpt>
      <trkpt lat="47.29029" lon="-2.26492">
        <ele>42.200000762939</ele>
        <time>2019-06-20T09:22:15.000Z</time>
      </trkpt>
      <trkpt lat="47.2903" lon="-2.26504">
        <ele>41.799999237061</ele>
        <time>2019-06-20T09:22:16.000Z</time>
      </trkpt>
      <trkpt lat="47.29031" lon="-2.26516">
        <ele>41.200000762939</ele>
        <time>2019-06-20T09:22:17.000Z</time>
      </trkpt>
      <trkpt lat="47.29033" lon="-2.26527">
        <ele>40.799999237061</ele>
        <time>2019-06-20T09:22:18.000Z</time>
      </trkpt>
      <trkpt lat="47.29035" lon="-2.26537">
        <ele>39.799999237061</ele>
        <time>2019-06-20T09:22:19.000Z</time>
      </trkpt>
      <trkpt lat="47.29039" lon="-2.26557">
        <ele>39.799999237061</ele>
        <time>2019-06-20T09:22:21.000Z</time>
      </trkpt>
      <trkpt lat="47.29044" lon="-2.26589">
        <ele>39.799999237061</ele>
        <time>2019-06-20T09:22:25.000Z</time>
      </trkpt>
      <trkpt lat="47.29045" lon="-2.26598">
        <ele>39.400001525879</ele>
        <time>2019-06-20T09:22:26.000Z</time>
      </trkpt>
      <trkpt lat="47.29045" lon="-2.26607">
        <ele>39</ele>
        <time>2019-06-20T09:22:27.000Z</time>
      </trkpt>
      <trkpt lat="47.29046" lon="-2.26616">
        <ele>38.599998474121</ele>
        <time>2019-06-20T09:22:28.000Z</time>
      </trkpt>
      <trkpt lat="47.29047" lon="-2.26626">
        <ele>38.200000762939</ele>
        <time>2019-06-20T09:22:29.000Z</time>
      </trkpt>
      <trkpt lat="47.29048" lon="-2.26636">
        <ele>37.799999237061</ele>
        <time>2019-06-20T09:22:30.000Z</time>
      </trkpt>
      <trkpt lat="47.29053" lon="-2.26701">
        <ele>37.799999237061</ele>
        <time>2019-06-20T09:22:36.000Z</time>
      </trkpt>
      <trkpt lat="47.29057" lon="-2.26739">
        <ele>37.400001525879</ele>
        <time>2019-06-20T09:22:39.000Z</time>
      </trkpt>
      <trkpt lat="47.29059" lon="-2.26752">
        <ele>37</ele>
        <time>2019-06-20T09:22:40.000Z</time>
      </trkpt>
      <trkpt lat="47.2906" lon="-2.26765">
        <ele>36.599998474121</ele>
        <time>2019-06-20T09:22:41.000Z</time>
      </trkpt>
      <trkpt lat="47.29062" lon="-2.26778">
        <ele>36.200000762939</ele>
        <time>2019-06-20T09:22:42.000Z</time>
      </trkpt>
      <trkpt lat="47.29063" lon="-2.26791">
        <ele>35.599998474121</ele>
        <time>2019-06-20T09:22:43.000Z</time>
      </trkpt>
      <trkpt lat="47.29064" lon="-2.26805">
        <ele>34.799999237061</ele>
        <time>2019-06-20T09:22:44.000Z</time>
      </trkpt>
      <trkpt lat="47.29064" lon="-2.26818">
        <ele>34.400001525879</ele>
        <time>2019-06-20T09:22:45.000Z</time>
      </trkpt>
      <trkpt lat="47.29062" lon="-2.2683">
        <ele>34</ele>
        <time>2019-06-20T09:22:46.000Z</time>
      </trkpt>
      <trkpt lat="47.29061" lon="-2.26843">
        <ele>33.599998474121</ele>
        <time>2019-06-20T09:22:47.000Z</time>
      </trkpt>
      <trkpt lat="47.2906" lon="-2.26868">
        <ele>33.200000762939</ele>
        <time>2019-06-20T09:22:49.000Z</time>
      </trkpt>
      <trkpt lat="47.29059" lon="-2.2688">
        <ele>32.799999237061</ele>
        <time>2019-06-20T09:22:50.000Z</time>
      </trkpt>
      <trkpt lat="47.29059" lon="-2.26892">
        <ele>32.400001525879</ele>
        <time>2019-06-20T09:22:51.000Z</time>
      </trkpt>
      <trkpt lat="47.29057" lon="-2.26902">
        <ele>32</ele>
        <time>2019-06-20T09:22:52.000Z</time>
      </trkpt>
      <trkpt lat="47.29056" lon="-2.26913">
        <ele>31.60000038147</ele>
        <time>2019-06-20T09:22:53.000Z</time>
      </trkpt>
      <trkpt lat="47.29054" lon="-2.26934">
        <ele>31.60000038147</ele>
        <time>2019-06-20T09:22:55.000Z</time>
      </trkpt>
      <trkpt lat="47.29054" lon="-2.26955">
        <ele>31.60000038147</ele>
        <time>2019-06-20T09:22:57.000Z</time>
      </trkpt>
      <trkpt lat="47.29051" lon="-2.26995">
        <ele>31.60000038147</ele>
        <time>2019-06-20T09:23:01.000Z</time>
      </trkpt>
      <trkpt lat="47.29051" lon="-2.27014">
        <ele>31.60000038147</ele>
        <time>2019-06-20T09:23:03.000Z</time>
      </trkpt>
      <trkpt lat="47.29052" lon="-2.27023">
        <ele>31.60000038147</ele>
        <time>2019-06-20T09:23:04.000Z</time>
      </trkpt>
      <trkpt lat="47.29056" lon="-2.27036">
        <ele>31.60000038147</ele>
        <time>2019-06-20T09:23:06.000Z</time>
      </trkpt>
      <trkpt lat="47.29059" lon="-2.27057">
        <ele>31.60000038147</ele>
        <time>2019-06-20T09:23:10.000Z</time>
      </trkpt>
      <trkpt lat="47.29059" lon="-2.27062">
        <ele>31.60000038147</ele>
        <time>2019-06-20T09:23:11.000Z</time>
      </trkpt>
      <trkpt lat="47.29054" lon="-2.27075">
        <ele>31.60000038147</ele>
        <time>2019-06-20T09:23:14.000Z</time>
      </trkpt>
      <trkpt lat="47.29051" lon="-2.2708">
        <ele>31.60000038147</ele>
        <time>2019-06-20T09:23:15.000Z</time>
      </trkpt>
      <trkpt lat="47.2904" lon="-2.27087">
        <ele>31.60000038147</ele>
        <time>2019-06-20T09:23:18.000Z</time>
      </trkpt>
      <trkpt lat="47.29029" lon="-2.271">
        <ele>31.60000038147</ele>
        <time>2019-06-20T09:23:21.000Z</time>
      </trkpt>
      <trkpt lat="47.2903" lon="-2.27117">
        <ele>31.60000038147</ele>
        <time>2019-06-20T09:23:24.000Z</time>
      </trkpt>
      <trkpt lat="47.29033" lon="-2.27123">
        <ele>31.60000038147</ele>
        <time>2019-06-20T09:23:25.000Z</time>
      </trkpt>
      <trkpt lat="47.29038" lon="-2.27131">
        <ele>31.60000038147</ele>
        <time>2019-06-20T09:23:27.000Z</time>
      </trkpt>
      <trkpt lat="47.29042" lon="-2.27134">
        <ele>31.60000038147</ele>
        <time>2019-06-20T09:23:28.000Z</time>
      </trkpt>
      <trkpt lat="47.29054" lon="-2.27147">
        <ele>31.60000038147</ele>
        <time>2019-06-20T09:23:31.000Z</time>
      </trkpt>
      <trkpt lat="47.29061" lon="-2.27158">
        <ele>31.60000038147</ele>
        <time>2019-06-20T09:23:33.000Z</time>
      </trkpt>
      <trkpt lat="47.29064" lon="-2.27163">
        <ele>31.60000038147</ele>
        <time>2019-06-20T09:23:34.000Z</time>
      </trkpt>
      <trkpt lat="47.29071" lon="-2.2718">
        <ele>31.60000038147</ele>
        <time>2019-06-20T09:23:37.000Z</time>
      </trkpt>
      <trkpt lat="47.29087" lon="-2.27193">
        <ele>31.60000038147</ele>
        <time>2019-06-20T09:23:41.000Z</time>
      </trkpt>
      <trkpt lat="47.29103" lon="-2.27196">
        <ele>31.60000038147</ele>
        <time>2019-06-20T09:23:45.000Z</time>
      </trkpt>
      <trkpt lat="47.29105" lon="-2.27197">
        <ele>31.200000762939</ele>
        <time>2019-06-20T09:23:46.000Z</time>
      </trkpt>
      <trkpt lat="47.29107" lon="-2.27197">
        <ele>30.799999237061</ele>
        <time>2019-06-20T09:23:47.000Z</time>
      </trkpt>
      <trkpt lat="47.29107" lon="-2.27198">
        <ele>30.39999961853</ele>
        <time>2019-06-20T09:23:48.000Z</time>
      </trkpt>
      <trkpt lat="47.29109" lon="-2.27198">
        <ele>29.39999961853</ele>
        <time>2019-06-20T09:23:56.000Z</time>
      </trkpt>
      <trkpt lat="47.29111" lon="-2.272">
        <ele>29.39999961853</ele>
        <time>2019-06-20T09:23:57.000Z</time>
      </trkpt>
      <trkpt lat="47.29112" lon="-2.27204">
        <ele>29.39999961853</ele>
        <time>2019-06-20T09:24:00.000Z</time>
      </trkpt>
      <trkpt lat="47.29111" lon="-2.27215">
        <ele>29.39999961853</ele>
        <time>2019-06-20T09:24:04.000Z</time>
      </trkpt>
      <trkpt lat="47.2911" lon="-2.27231">
        <ele>29.39999961853</ele>
        <time>2019-06-20T09:24:07.000Z</time>
      </trkpt>
      <trkpt lat="47.2911" lon="-2.27236">
        <ele>29.39999961853</ele>
        <time>2019-06-20T09:24:08.000Z</time>
      </trkpt>
      <trkpt lat="47.29106" lon="-2.27258">
        <ele>29.39999961853</ele>
        <time>2019-06-20T09:24:12.000Z</time>
      </trkpt>
      <trkpt lat="47.29101" lon="-2.27281">
        <ele>29.39999961853</ele>
        <time>2019-06-20T09:24:17.000Z</time>
      </trkpt>
      <trkpt lat="47.29094" lon="-2.27313">
        <ele>29.39999961853</ele>
        <time>2019-06-20T09:24:23.000Z</time>
      </trkpt>
      <trkpt lat="47.2909" lon="-2.27332">
        <ele>29.39999961853</ele>
        <time>2019-06-20T09:24:27.000Z</time>
      </trkpt>
      <trkpt lat="47.29095" lon="-2.2735">
        <ele>29.39999961853</ele>
        <time>2019-06-20T09:24:31.000Z</time>
      </trkpt>
      <trkpt lat="47.29096" lon="-2.27357">
        <ele>29.39999961853</ele>
        <time>2019-06-20T09:24:32.000Z</time>
      </trkpt>
      <trkpt lat="47.291" lon="-2.27378">
        <ele>29.39999961853</ele>
        <time>2019-06-20T09:24:35.000Z</time>
      </trkpt>
      <trkpt lat="47.29102" lon="-2.27417">
        <ele>29.39999961853</ele>
        <time>2019-06-20T09:24:39.000Z</time>
      </trkpt>
      <trkpt lat="47.29102" lon="-2.27427">
        <ele>29.39999961853</ele>
        <time>2019-06-20T09:24:40.000Z</time>
      </trkpt>
      <trkpt lat="47.29099" lon="-2.27468">
        <ele>29.39999961853</ele>
        <time>2019-06-20T09:24:45.000Z</time>
      </trkpt>
      <trkpt lat="47.291" lon="-2.27483">
        <ele>30</ele>
        <time>2019-06-20T09:24:47.000Z</time>
      </trkpt>
      <trkpt lat="47.29101" lon="-2.2749">
        <ele>30.39999961853</ele>
        <time>2019-06-20T09:24:48.000Z</time>
      </trkpt>
      <trkpt lat="47.29102" lon="-2.27496">
        <ele>30.799999237061</ele>
        <time>2019-06-20T09:24:49.000Z</time>
      </trkpt>
      <trkpt lat="47.29102" lon="-2.27502">
        <ele>31.200000762939</ele>
        <time>2019-06-20T09:24:50.000Z</time>
      </trkpt>
      <trkpt lat="47.29102" lon="-2.27507">
        <ele>31.60000038147</ele>
        <time>2019-06-20T09:24:51.000Z</time>
      </trkpt>
      <trkpt lat="47.29102" lon="-2.27517">
        <ele>31.60000038147</ele>
        <time>2019-06-20T09:24:55.000Z</time>
      </trkpt>
      <trkpt lat="47.29103" lon="-2.27519">
        <ele>31.60000038147</ele>
        <time>2019-06-20T09:24:56.000Z</time>
      </trkpt>
      <trkpt lat="47.29099" lon="-2.27526">
        <ele>31.60000038147</ele>
        <time>2019-06-20T09:24:59.000Z</time>
      </trkpt>
      <trkpt lat="47.29096" lon="-2.27527">
        <ele>31.60000038147</ele>
        <time>2019-06-20T09:25:00.000Z</time>
      </trkpt>
      <trkpt lat="47.29088" lon="-2.27528">
        <ele>31.60000038147</ele>
        <time>2019-06-20T09:25:02.000Z</time>
      </trkpt>
      <trkpt lat="47.29083" lon="-2.27528">
        <ele>31.60000038147</ele>
        <time>2019-06-20T09:25:03.000Z</time>
      </trkpt>
      <trkpt lat="47.29064" lon="-2.27526">
        <ele>31.60000038147</ele>
        <time>2019-06-20T09:25:07.000Z</time>
      </trkpt>
      <trkpt lat="47.29052" lon="-2.27526">
        <ele>31.60000038147</ele>
        <time>2019-06-20T09:25:09.000Z</time>
      </trkpt>
      <trkpt lat="47.29035" lon="-2.27526">
        <ele>31.60000038147</ele>
        <time>2019-06-20T09:25:12.000Z</time>
      </trkpt>
      <trkpt lat="47.29013" lon="-2.27526">
        <ele>31.60000038147</ele>
        <time>2019-06-20T09:25:16.000Z</time>
      </trkpt>
      <trkpt lat="47.28994" lon="-2.27525">
        <ele>31.60000038147</ele>
        <time>2019-06-20T09:25:19.000Z</time>
      </trkpt>
      <trkpt lat="47.28955" lon="-2.27525">
        <ele>31.60000038147</ele>
        <time>2019-06-20T09:25:26.000Z</time>
      </trkpt>
      <trkpt lat="47.28918" lon="-2.27527">
        <ele>31.60000038147</ele>
        <time>2019-06-20T09:25:33.000Z</time>
      </trkpt>
      <trkpt lat="47.28886" lon="-2.27532">
        <ele>31.60000038147</ele>
        <time>2019-06-20T09:25:39.000Z</time>
      </trkpt>
      <trkpt lat="47.28855" lon="-2.27537">
        <ele>31.60000038147</ele>
        <time>2019-06-20T09:25:44.000Z</time>
      </trkpt>
      <trkpt lat="47.28817" lon="-2.27548">
        <ele>31.60000038147</ele>
        <time>2019-06-20T09:25:50.000Z</time>
      </trkpt>
      <trkpt lat="47.28811" lon="-2.27553">
        <ele>31.60000038147</ele>
        <time>2019-06-20T09:25:51.000Z</time>
      </trkpt>
      <trkpt lat="47.28799" lon="-2.27563">
        <ele>31.60000038147</ele>
        <time>2019-06-20T09:25:53.000Z</time>
      </trkpt>
      <trkpt lat="47.28794" lon="-2.27569">
        <ele>31.60000038147</ele>
        <time>2019-06-20T09:25:54.000Z</time>
      </trkpt>
      <trkpt lat="47.28779" lon="-2.27587">
        <ele>31.60000038147</ele>
        <time>2019-06-20T09:25:57.000Z</time>
      </trkpt>
      <trkpt lat="47.28744" lon="-2.2763">
        <ele>31.60000038147</ele>
        <time>2019-06-20T09:26:04.000Z</time>
      </trkpt>
      <trkpt lat="47.28714" lon="-2.27676">
        <ele>31.60000038147</ele>
        <time>2019-06-20T09:26:10.000Z</time>
      </trkpt>
      <trkpt lat="47.28687" lon="-2.2772">
        <ele>31.60000038147</ele>
        <time>2019-06-20T09:26:16.000Z</time>
      </trkpt>
      <trkpt lat="47.28684" lon="-2.27728">
        <ele>31.60000038147</ele>
        <time>2019-06-20T09:26:17.000Z</time>
      </trkpt>
      <trkpt lat="47.28668" lon="-2.27757">
        <ele>31.60000038147</ele>
        <time>2019-06-20T09:26:21.000Z</time>
      </trkpt>
      <trkpt lat="47.28655" lon="-2.27791">
        <ele>31.60000038147</ele>
        <time>2019-06-20T09:26:25.000Z</time>
      </trkpt>
      <trkpt lat="47.28653" lon="-2.27799">
        <ele>31.60000038147</ele>
        <time>2019-06-20T09:26:26.000Z</time>
      </trkpt>
      <trkpt lat="47.28637" lon="-2.2786">
        <ele>31.60000038147</ele>
        <time>2019-06-20T09:26:33.000Z</time>
      </trkpt>
      <trkpt lat="47.28631" lon="-2.27904">
        <ele>32</ele>
        <time>2019-06-20T09:26:38.000Z</time>
      </trkpt>
      <trkpt lat="47.2863" lon="-2.27913">
        <ele>32.400001525879</ele>
        <time>2019-06-20T09:26:40.000Z</time>
      </trkpt>
      <trkpt lat="47.2863" lon="-2.27921">
        <ele>33</ele>
        <time>2019-06-20T09:26:41.000Z</time>
      </trkpt>
      <trkpt lat="47.28629" lon="-2.27929">
        <ele>33.400001525879</ele>
        <time>2019-06-20T09:26:42.000Z</time>
      </trkpt>
      <trkpt lat="47.28629" lon="-2.27936">
        <ele>33.799999237061</ele>
        <time>2019-06-20T09:26:43.000Z</time>
      </trkpt>
      <trkpt lat="47.28627" lon="-2.27942">
        <ele>33.799999237061</ele>
        <time>2019-06-20T09:26:44.000Z</time>
      </trkpt>
      <trkpt lat="47.28622" lon="-2.27952">
        <ele>33.799999237061</ele>
        <time>2019-06-20T09:26:46.000Z</time>
      </trkpt>
      <trkpt lat="47.28613" lon="-2.27981">
        <ele>33.799999237061</ele>
        <time>2019-06-20T09:26:50.000Z</time>
      </trkpt>
      <trkpt lat="47.28601" lon="-2.28016">
        <ele>33.799999237061</ele>
        <time>2019-06-20T09:26:55.000Z</time>
      </trkpt>
      <trkpt lat="47.28594" lon="-2.28026">
        <ele>33.799999237061</ele>
        <time>2019-06-20T09:26:57.000Z</time>
      </trkpt>
      <trkpt lat="47.28583" lon="-2.28039">
        <ele>33.799999237061</ele>
        <time>2019-06-20T09:27:00.000Z</time>
      </trkpt>
      <trkpt lat="47.28574" lon="-2.28047">
        <ele>33.799999237061</ele>
        <time>2019-06-20T09:27:03.000Z</time>
      </trkpt>
      <trkpt lat="47.2857" lon="-2.28049">
        <ele>33.799999237061</ele>
        <time>2019-06-20T09:27:04.000Z</time>
      </trkpt>
      <trkpt lat="47.28557" lon="-2.28052">
        <ele>33.799999237061</ele>
        <time>2019-06-20T09:27:08.000Z</time>
      </trkpt>
      <trkpt lat="47.28549" lon="-2.28049">
        <ele>33.799999237061</ele>
        <time>2019-06-20T09:27:13.000Z</time>
      </trkpt>
      <trkpt lat="47.28547" lon="-2.28049">
        <ele>34.599998474121</ele>
        <time>2019-06-20T09:27:15.000Z</time>
      </trkpt>
      <trkpt lat="47.28546" lon="-2.28049">
        <ele>35</ele>
        <time>2019-06-20T09:27:16.000Z</time>
      </trkpt>
      <trkpt lat="47.28544" lon="-2.28049">
        <ele>35.400001525879</ele>
        <time>2019-06-20T09:27:17.000Z</time>
      </trkpt>
      <trkpt lat="47.28543" lon="-2.2805">
        <ele>35.799999237061</ele>
        <time>2019-06-20T09:27:18.000Z</time>
      </trkpt>
      <trkpt lat="47.28541" lon="-2.28049">
        <ele>35.799999237061</ele>
        <time>2019-06-20T09:27:19.000Z</time>
      </trkpt>
      <trkpt lat="47.28534" lon="-2.28046">
        <ele>36.200000762939</ele>
        <time>2019-06-20T09:27:22.000Z</time>
      </trkpt>
      <trkpt lat="47.28532" lon="-2.28046">
        <ele>36.799999237061</ele>
        <time>2019-06-20T09:27:23.000Z</time>
      </trkpt>
      <trkpt lat="47.28528" lon="-2.28047">
        <ele>37.200000762939</ele>
        <time>2019-06-20T09:27:24.000Z</time>
      </trkpt>
      <trkpt lat="47.28526" lon="-2.28047">
        <ele>37.599998474121</ele>
        <time>2019-06-20T09:27:25.000Z</time>
      </trkpt>
      <trkpt lat="47.28523" lon="-2.28047">
        <ele>38</ele>
        <time>2019-06-20T09:27:26.000Z</time>
      </trkpt>
      <trkpt lat="47.28516" lon="-2.28045">
        <ele>38.400001525879</ele>
        <time>2019-06-20T09:27:29.000Z</time>
      </trkpt>
      <trkpt lat="47.28514" lon="-2.28044">
        <ele>39</ele>
        <time>2019-06-20T09:27:30.000Z</time>
      </trkpt>
      <trkpt lat="47.28512" lon="-2.28043">
        <ele>39.400001525879</ele>
        <time>2019-06-20T09:27:31.000Z</time>
      </trkpt>
      <trkpt lat="47.2851" lon="-2.2804">
        <ele>39.799999237061</ele>
        <time>2019-06-20T09:27:32.000Z</time>
      </trkpt>
      <trkpt lat="47.28508" lon="-2.28039">
        <ele>40.200000762939</ele>
        <time>2019-06-20T09:27:33.000Z</time>
      </trkpt>
      <trkpt lat="47.28502" lon="-2.28037">
        <ele>40.200000762939</ele>
        <time>2019-06-20T09:27:36.000Z</time>
      </trkpt>
      <trkpt lat="47.28498" lon="-2.2804">
        <ele>40.599998474121</ele>
        <time>2019-06-20T09:27:38.000Z</time>
      </trkpt>
      <trkpt lat="47.28497" lon="-2.28042">
        <ele>41.200000762939</ele>
        <time>2019-06-20T09:27:39.000Z</time>
      </trkpt>
      <trkpt lat="47.28494" lon="-2.28044">
        <ele>42</ele>
        <time>2019-06-20T09:27:40.000Z</time>
      </trkpt>
      <trkpt lat="47.28492" lon="-2.28046">
        <ele>42.400001525879</ele>
        <time>2019-06-20T09:27:41.000Z</time>
      </trkpt>
      <trkpt lat="47.2849" lon="-2.28049">
        <ele>42.400001525879</ele>
        <time>2019-06-20T09:27:42.000Z</time>
      </trkpt>
      <trkpt lat="47.28488" lon="-2.28055">
        <ele>42.400001525879</ele>
        <time>2019-06-20T09:27:44.000Z</time>
      </trkpt>
      <trkpt lat="47.28489" lon="-2.28069">
        <ele>42.400001525879</ele>
        <time>2019-06-20T09:27:48.000Z</time>
      </trkpt>
      <trkpt lat="47.28489" lon="-2.28073">
        <ele>42.400001525879</ele>
        <time>2019-06-20T09:27:49.000Z</time>
      </trkpt>
      <trkpt lat="47.28489" lon="-2.28079">
        <ele>42.400001525879</ele>
        <time>2019-06-20T09:27:51.000Z</time>
      </trkpt>
      <trkpt lat="47.28484" lon="-2.28085">
        <ele>42.400001525879</ele>
        <time>2019-06-20T09:27:53.000Z</time>
      </trkpt>
      <trkpt lat="47.28475" lon="-2.28091">
        <ele>42</ele>
        <time>2019-06-20T09:27:55.000Z</time>
      </trkpt>
      <trkpt lat="47.28467" lon="-2.28094">
        <ele>41.599998474121</ele>
        <time>2019-06-20T09:27:56.000Z</time>
      </trkpt>
      <trkpt lat="47.28463" lon="-2.28094">
        <ele>41</ele>
        <time>2019-06-20T09:27:57.000Z</time>
      </trkpt>
      <trkpt lat="47.2846" lon="-2.28093">
        <ele>40.599998474121</ele>
        <time>2019-06-20T09:27:58.000Z</time>
      </trkpt>
      <trkpt lat="47.28457" lon="-2.28092">
        <ele>40.200000762939</ele>
        <time>2019-06-20T09:27:59.000Z</time>
      </trkpt>
      <trkpt lat="47.28451" lon="-2.28091">
        <ele>40.200000762939</ele>
        <time>2019-06-20T09:28:01.000Z</time>
      </trkpt>
      <trkpt lat="47.28443" lon="-2.28087">
        <ele>40.200000762939</ele>
        <time>2019-06-20T09:28:05.000Z</time>
      </trkpt>
      <trkpt lat="47.28434" lon="-2.2809">
        <ele>40.200000762939</ele>
        <time>2019-06-20T09:28:08.000Z</time>
      </trkpt>
      <trkpt lat="47.28428" lon="-2.28087">
        <ele>40.200000762939</ele>
        <time>2019-06-20T09:28:10.000Z</time>
      </trkpt>
      <trkpt lat="47.28425" lon="-2.28088">
        <ele>40.200000762939</ele>
        <time>2019-06-20T09:28:11.000Z</time>
      </trkpt>
      <trkpt lat="47.28421" lon="-2.28088">
        <ele>40.200000762939</ele>
        <time>2019-06-20T09:28:12.000Z</time>
      </trkpt>
      <trkpt lat="47.28408" lon="-2.28084">
        <ele>40.200000762939</ele>
        <time>2019-06-20T09:28:17.000Z</time>
      </trkpt>
      <trkpt lat="47.28389" lon="-2.28082">
        <ele>40.200000762939</ele>
        <time>2019-06-20T09:28:22.000Z</time>
      </trkpt>
      <trkpt lat="47.28376" lon="-2.2808">
        <ele>40.200000762939</ele>
        <time>2019-06-20T09:28:26.000Z</time>
      </trkpt>
      <trkpt lat="47.28375" lon="-2.28078">
        <ele>40.200000762939</ele>
        <time>2019-06-20T09:28:27.000Z</time>
      </trkpt>
      <trkpt lat="47.28371" lon="-2.28072">
        <ele>40.200000762939</ele>
        <time>2019-06-20T09:28:30.000Z</time>
      </trkpt>
      <trkpt lat="47.28369" lon="-2.28059">
        <ele>40.200000762939</ele>
        <time>2019-06-20T09:28:34.000Z</time>
      </trkpt>
      <trkpt lat="47.2837" lon="-2.28058">
        <ele>40.200000762939</ele>
        <time>2019-06-20T09:28:36.000Z</time>
      </trkpt>
      <trkpt lat="47.28369" lon="-2.2806">
        <ele>40.200000762939</ele>
        <time>2019-06-20T09:28:39.000Z</time>
      </trkpt>
      <trkpt lat="47.28367" lon="-2.28063">
        <ele>40.200000762939</ele>
        <time>2019-06-20T09:28:40.000Z</time>
      </trkpt>
      <trkpt lat="47.28364" lon="-2.28078">
        <ele>40.200000762939</ele>
        <time>2019-06-20T09:28:45.000Z</time>
      </trkpt>
      <trkpt lat="47.28363" lon="-2.28081">
        <ele>40.200000762939</ele>
        <time>2019-06-20T09:28:46.000Z</time>
      </trkpt>
      <trkpt lat="47.28361" lon="-2.28092">
        <ele>40.200000762939</ele>
        <time>2019-06-20T09:28:48.000Z</time>
      </trkpt>
      <trkpt lat="47.28362" lon="-2.28097">
        <ele>40.200000762939</ele>
        <time>2019-06-20T09:28:49.000Z</time>
      </trkpt>
      <trkpt lat="47.28363" lon="-2.28116">
        <ele>40.200000762939</ele>
        <time>2019-06-20T09:28:53.000Z</time>
      </trkpt>
      <trkpt lat="47.28364" lon="-2.28121">
        <ele>40.200000762939</ele>
        <time>2019-06-20T09:28:54.000Z</time>
      </trkpt>
      <trkpt lat="47.28366" lon="-2.28149">
        <ele>40.200000762939</ele>
        <time>2019-06-20T09:29:00.000Z</time>
      </trkpt>
      <trkpt lat="47.28371" lon="-2.2818">
        <ele>40.200000762939</ele>
        <time>2019-06-20T09:29:06.000Z</time>
      </trkpt>
      <trkpt lat="47.28371" lon="-2.28186">
        <ele>40.599998474121</ele>
        <time>2019-06-20T09:29:07.000Z</time>
      </trkpt>
      <trkpt lat="47.28371" lon="-2.28192">
        <ele>41</ele>
        <time>2019-06-20T09:29:08.000Z</time>
      </trkpt>
      <trkpt lat="47.28371" lon="-2.28197">
        <ele>41.400001525879</ele>
        <time>2019-06-20T09:29:09.000Z</time>
      </trkpt>
      <trkpt lat="47.2837" lon="-2.28203">
        <ele>41.799999237061</ele>
        <time>2019-06-20T09:29:10.000Z</time>
      </trkpt>
      <trkpt lat="47.28369" lon="-2.28208">
        <ele>42.200000762939</ele>
        <time>2019-06-20T09:29:11.000Z</time>
      </trkpt>
      <trkpt lat="47.2837" lon="-2.28214">
        <ele>42.200000762939</ele>
        <time>2019-06-20T09:29:12.000Z</time>
      </trkpt>
      <trkpt lat="47.28369" lon="-2.28231">
        <ele>42.599998474121</ele>
        <time>2019-06-20T09:29:15.000Z</time>
      </trkpt>
      <trkpt lat="47.28369" lon="-2.28236">
        <ele>43.200000762939</ele>
        <time>2019-06-20T09:29:16.000Z</time>
      </trkpt>
      <trkpt lat="47.2837" lon="-2.28241">
        <ele>43.599998474121</ele>
        <time>2019-06-20T09:29:17.000Z</time>
      </trkpt>
      <trkpt lat="47.2837" lon="-2.28246">
        <ele>44</ele>
        <time>2019-06-20T09:29:18.000Z</time>
      </trkpt>
      <trkpt lat="47.2837" lon="-2.28253">
        <ele>44.400001525879</ele>
        <time>2019-06-20T09:29:19.000Z</time>
      </trkpt>
      <trkpt lat="47.2837" lon="-2.28259">
        <ele>44.400001525879</ele>
        <time>2019-06-20T09:29:20.000Z</time>
      </trkpt>
      <trkpt lat="47.28371" lon="-2.28285">
        <ele>44.799999237061</ele>
        <time>2019-06-20T09:29:25.000Z</time>
      </trkpt>
      <trkpt lat="47.28371" lon="-2.2829">
        <ele>45.200000762939</ele>
        <time>2019-06-20T09:29:26.000Z</time>
      </trkpt>
      <trkpt lat="47.28371" lon="-2.28296">
        <ele>45.599998474121</ele>
        <time>2019-06-20T09:29:27.000Z</time>
      </trkpt>
      <trkpt lat="47.28371" lon="-2.28302">
        <ele>46</ele>
        <time>2019-06-20T09:29:28.000Z</time>
      </trkpt>
      <trkpt lat="47.28371" lon="-2.28308">
        <ele>46.400001525879</ele>
        <time>2019-06-20T09:29:29.000Z</time>
      </trkpt>
      <trkpt lat="47.28372" lon="-2.28314">
        <ele>46.400001525879</ele>
        <time>2019-06-20T09:29:30.000Z</time>
      </trkpt>
      <trkpt lat="47.28371" lon="-2.28358">
        <ele>46.400001525879</ele>
        <time>2019-06-20T09:29:37.000Z</time>
      </trkpt>
      <trkpt lat="47.28371" lon="-2.28383">
        <ele>46.400001525879</ele>
        <time>2019-06-20T09:29:41.000Z</time>
      </trkpt>
      <trkpt lat="47.28373" lon="-2.28396">
        <ele>46.400001525879</ele>
        <time>2019-06-20T09:29:43.000Z</time>
      </trkpt>
      <trkpt lat="47.28374" lon="-2.2841">
        <ele>46.400001525879</ele>
        <time>2019-06-20T09:29:45.000Z</time>
      </trkpt>
      <trkpt lat="47.28375" lon="-2.28441">
        <ele>46.400001525879</ele>
        <time>2019-06-20T09:29:49.000Z</time>
      </trkpt>
      <trkpt lat="47.28379" lon="-2.28499">
        <ele>46.400001525879</ele>
        <time>2019-06-20T09:29:56.000Z</time>
      </trkpt>
      <trkpt lat="47.28383" lon="-2.28561">
        <ele>46.400001525879</ele>
        <time>2019-06-20T09:30:03.000Z</time>
      </trkpt>
      <trkpt lat="47.28383" lon="-2.28571">
        <ele>46.400001525879</ele>
        <time>2019-06-20T09:30:04.000Z</time>
      </trkpt>
      <trkpt lat="47.28385" lon="-2.28625">
        <ele>46.400001525879</ele>
        <time>2019-06-20T09:30:10.000Z</time>
      </trkpt>
      <trkpt lat="47.28386" lon="-2.28677">
        <ele>46.400001525879</ele>
        <time>2019-06-20T09:30:16.000Z</time>
      </trkpt>
      <trkpt lat="47.28387" lon="-2.28731">
        <ele>46.400001525879</ele>
        <time>2019-06-20T09:30:22.000Z</time>
      </trkpt>
      <trkpt lat="47.28387" lon="-2.2874">
        <ele>46.400001525879</ele>
        <time>2019-06-20T09:30:23.000Z</time>
      </trkpt>
      <trkpt lat="47.28389" lon="-2.28795">
        <ele>46.400001525879</ele>
        <time>2019-06-20T09:30:29.000Z</time>
      </trkpt>
      <trkpt lat="47.28392" lon="-2.28875">
        <ele>46.400001525879</ele>
        <time>2019-06-20T09:30:37.000Z</time>
      </trkpt>
      <trkpt lat="47.28391" lon="-2.28926">
        <ele>46.400001525879</ele>
        <time>2019-06-20T09:30:42.000Z</time>
      </trkpt>
      <trkpt lat="47.28395" lon="-2.28979">
        <ele>46.400001525879</ele>
        <time>2019-06-20T09:30:49.000Z</time>
      </trkpt>
      <trkpt lat="47.28397" lon="-2.28989">
        <ele>46.400001525879</ele>
        <time>2019-06-20T09:30:51.000Z</time>
      </trkpt>
      <trkpt lat="47.284" lon="-2.2899">
        <ele>46.400001525879</ele>
        <time>2019-06-20T09:30:52.000Z</time>
      </trkpt>
      <trkpt lat="47.28413" lon="-2.28995">
        <ele>46</ele>
        <time>2019-06-20T09:30:56.000Z</time>
      </trkpt>
      <trkpt lat="47.28419" lon="-2.28995">
        <ele>45.599998474121</ele>
        <time>2019-06-20T09:30:57.000Z</time>
      </trkpt>
      <trkpt lat="47.28424" lon="-2.28996">
        <ele>44.799999237061</ele>
        <time>2019-06-20T09:30:58.000Z</time>
      </trkpt>
      <trkpt lat="47.28429" lon="-2.28998">
        <ele>44.400001525879</ele>
        <time>2019-06-20T09:30:59.000Z</time>
      </trkpt>
      <trkpt lat="47.28435" lon="-2.28998">
        <ele>44.400001525879</ele>
        <time>2019-06-20T09:31:00.000Z</time>
      </trkpt>
      <trkpt lat="47.28459" lon="-2.29">
        <ele>44.400001525879</ele>
        <time>2019-06-20T09:31:04.000Z</time>
      </trkpt>
      <trkpt lat="47.28465" lon="-2.29001">
        <ele>44.400001525879</ele>
        <time>2019-06-20T09:31:05.000Z</time>
      </trkpt>
      <trkpt lat="47.28477" lon="-2.29004">
        <ele>43.799999237061</ele>
        <time>2019-06-20T09:31:07.000Z</time>
      </trkpt>
      <trkpt lat="47.28483" lon="-2.29005">
        <ele>43.400001525879</ele>
        <time>2019-06-20T09:31:08.000Z</time>
      </trkpt>
      <trkpt lat="47.28488" lon="-2.29007">
        <ele>43</ele>
        <time>2019-06-20T09:31:09.000Z</time>
      </trkpt>
      <trkpt lat="47.28493" lon="-2.29009">
        <ele>42.599998474121</ele>
        <time>2019-06-20T09:31:10.000Z</time>
      </trkpt>
      <trkpt lat="47.28499" lon="-2.29012">
        <ele>42.200000762939</ele>
        <time>2019-06-20T09:31:11.000Z</time>
      </trkpt>
      <trkpt lat="47.28519" lon="-2.29022">
        <ele>41.799999237061</ele>
        <time>2019-06-20T09:31:15.000Z</time>
      </trkpt>
      <trkpt lat="47.28524" lon="-2.29023">
        <ele>41.400001525879</ele>
        <time>2019-06-20T09:31:16.000Z</time>
      </trkpt>
      <trkpt lat="47.28529" lon="-2.29025">
        <ele>41</ele>
        <time>2019-06-20T09:31:17.000Z</time>
      </trkpt>
      <trkpt lat="47.28533" lon="-2.29027">
        <ele>40.599998474121</ele>
        <time>2019-06-20T09:31:18.000Z</time>
      </trkpt>
      <trkpt lat="47.28538" lon="-2.29028">
        <ele>40.200000762939</ele>
        <time>2019-06-20T09:31:19.000Z</time>
      </trkpt>
      <trkpt lat="47.28543" lon="-2.29029">
        <ele>40.200000762939</ele>
        <time>2019-06-20T09:31:20.000Z</time>
      </trkpt>
      <trkpt lat="47.28566" lon="-2.29035">
        <ele>40.200000762939</ele>
        <time>2019-06-20T09:31:24.000Z</time>
      </trkpt>
      <trkpt lat="47.28593" lon="-2.29042">
        <ele>40.200000762939</ele>
        <time>2019-06-20T09:31:29.000Z</time>
      </trkpt>
      <trkpt lat="47.28614" lon="-2.29052">
        <ele>39.799999237061</ele>
        <time>2019-06-20T09:31:35.000Z</time>
      </trkpt>
      <trkpt lat="47.28615" lon="-2.29053">
        <ele>39.400001525879</ele>
        <time>2019-06-20T09:31:36.000Z</time>
      </trkpt>
      <trkpt lat="47.28617" lon="-2.29056">
        <ele>39</ele>
        <time>2019-06-20T09:31:37.000Z</time>
      </trkpt>
      <trkpt lat="47.28616" lon="-2.29057">
        <ele>38.599998474121</ele>
        <time>2019-06-20T09:31:38.000Z</time>
      </trkpt>
      <trkpt lat="47.28615" lon="-2.29058">
        <ele>38.200000762939</ele>
        <time>2019-06-20T09:31:39.000Z</time>
      </trkpt>
      <trkpt lat="47.28614" lon="-2.29059">
        <ele>38.200000762939</ele>
        <time>2019-06-20T09:31:42.000Z</time>
      </trkpt>
      <trkpt lat="47.28612" lon="-2.29062">
        <ele>38.200000762939</ele>
        <time>2019-06-20T09:31:48.000Z</time>
      </trkpt>
      <trkpt lat="47.2861" lon="-2.29064">
        <ele>38.200000762939</ele>
        <time>2019-06-20T09:31:49.000Z</time>
      </trkpt>
      <trkpt lat="47.28603" lon="-2.29083">
        <ele>38.200000762939</ele>
        <time>2019-06-20T09:31:53.000Z</time>
      </trkpt>
      <trkpt lat="47.28602" lon="-2.29089">
        <ele>38.200000762939</ele>
        <time>2019-06-20T09:31:54.000Z</time>
      </trkpt>
      <trkpt lat="47.28595" lon="-2.29115">
        <ele>38.200000762939</ele>
        <time>2019-06-20T09:31:58.000Z</time>
      </trkpt>
      <trkpt lat="47.28586" lon="-2.2914">
        <ele>38.200000762939</ele>
        <time>2019-06-20T09:32:03.000Z</time>
      </trkpt>
      <trkpt lat="47.2858" lon="-2.29151">
        <ele>38.200000762939</ele>
        <time>2019-06-20T09:32:05.000Z</time>
      </trkpt>
      <trkpt lat="47.28572" lon="-2.29162">
        <ele>38.200000762939</ele>
        <time>2019-06-20T09:32:07.000Z</time>
      </trkpt>
      <trkpt lat="47.28567" lon="-2.29165">
        <ele>38.200000762939</ele>
        <time>2019-06-20T09:32:08.000Z</time>
      </trkpt>
      <trkpt lat="47.28553" lon="-2.29175">
        <ele>38.200000762939</ele>
        <time>2019-06-20T09:32:11.000Z</time>
      </trkpt>
      <trkpt lat="47.28524" lon="-2.29204">
        <ele>38.200000762939</ele>
        <time>2019-06-20T09:32:18.000Z</time>
      </trkpt>
      <trkpt lat="47.28522" lon="-2.29225">
        <ele>38.200000762939</ele>
        <time>2019-06-20T09:32:21.000Z</time>
      </trkpt>
      <trkpt lat="47.28522" lon="-2.29239">
        <ele>38.200000762939</ele>
        <time>2019-06-20T09:32:23.000Z</time>
      </trkpt>
      <trkpt lat="47.28522" lon="-2.29263">
        <ele>38.200000762939</ele>
        <time>2019-06-20T09:32:27.000Z</time>
      </trkpt>
      <trkpt lat="47.28524" lon="-2.2928">
        <ele>38.200000762939</ele>
        <time>2019-06-20T09:32:32.000Z</time>
      </trkpt>
      <trkpt lat="47.28522" lon="-2.29296">
        <ele>38.200000762939</ele>
        <time>2019-06-20T09:32:37.000Z</time>
      </trkpt>
      <trkpt lat="47.28516" lon="-2.29305">
        <ele>38.200000762939</ele>
        <time>2019-06-20T09:32:41.000Z</time>
      </trkpt>
      <trkpt lat="47.28511" lon="-2.29302">
        <ele>38.200000762939</ele>
        <time>2019-06-20T09:32:45.000Z</time>
      </trkpt>
      <trkpt lat="47.28509" lon="-2.29302">
        <ele>38.200000762939</ele>
        <time>2019-06-20T09:32:46.000Z</time>
      </trkpt>
      <trkpt lat="47.28503" lon="-2.29305">
        <ele>38.200000762939</ele>
        <time>2019-06-20T09:32:49.000Z</time>
      </trkpt>
      <trkpt lat="47.28501" lon="-2.29307">
        <ele>38.200000762939</ele>
        <time>2019-06-20T09:32:51.000Z</time>
      </trkpt>
      <trkpt lat="47.28492" lon="-2.29312">
        <ele>38.200000762939</ele>
        <time>2019-06-20T09:32:56.000Z</time>
      </trkpt>
      <trkpt lat="47.28482" lon="-2.29313">
        <ele>38.200000762939</ele>
        <time>2019-06-20T09:33:01.000Z</time>
      </trkpt>
      <trkpt lat="47.28474" lon="-2.29317">
        <ele>38.200000762939</ele>
        <time>2019-06-20T09:33:05.000Z</time>
      </trkpt>
      <trkpt lat="47.28472" lon="-2.29319">
        <ele>38.200000762939</ele>
        <time>2019-06-20T09:33:06.000Z</time>
      </trkpt>
      <trkpt lat="47.28466" lon="-2.29323">
        <ele>38.599998474121</ele>
        <time>2019-06-20T09:33:09.000Z</time>
      </trkpt>
      <trkpt lat="47.28464" lon="-2.29324">
        <ele>39</ele>
        <time>2019-06-20T09:33:10.000Z</time>
      </trkpt>
      <trkpt lat="47.28462" lon="-2.29325">
        <ele>39.400001525879</ele>
        <time>2019-06-20T09:33:11.000Z</time>
      </trkpt>
      <trkpt lat="47.2846" lon="-2.29326">
        <ele>39.799999237061</ele>
        <time>2019-06-20T09:33:12.000Z</time>
      </trkpt>
      <trkpt lat="47.28458" lon="-2.29327">
        <ele>40.200000762939</ele>
        <time>2019-06-20T09:33:13.000Z</time>
      </trkpt>
      <trkpt lat="47.28447" lon="-2.29332">
        <ele>40.200000762939</ele>
        <time>2019-06-20T09:33:18.000Z</time>
      </trkpt>
      <trkpt lat="47.28424" lon="-2.29339">
        <ele>40.200000762939</ele>
        <time>2019-06-20T09:33:26.000Z</time>
      </trkpt>
      <trkpt lat="47.28419" lon="-2.29343">
        <ele>40.599998474121</ele>
        <time>2019-06-20T09:33:28.000Z</time>
      </trkpt>
      <trkpt lat="47.28416" lon="-2.29345">
        <ele>41</ele>
        <time>2019-06-20T09:33:29.000Z</time>
      </trkpt>
      <trkpt lat="47.28412" lon="-2.29346">
        <ele>41.400001525879</ele>
        <time>2019-06-20T09:33:30.000Z</time>
      </trkpt>
      <trkpt lat="47.28409" lon="-2.29348">
        <ele>41.799999237061</ele>
        <time>2019-06-20T09:33:31.000Z</time>
      </trkpt>
      <trkpt lat="47.28407" lon="-2.2935">
        <ele>42.200000762939</ele>
        <time>2019-06-20T09:33:32.000Z</time>
      </trkpt>
      <trkpt lat="47.28401" lon="-2.29353">
        <ele>42.200000762939</ele>
        <time>2019-06-20T09:33:34.000Z</time>
      </trkpt>
      <trkpt lat="47.28377" lon="-2.29368">
        <ele>42.200000762939</ele>
        <time>2019-06-20T09:33:42.000Z</time>
      </trkpt>
      <trkpt lat="47.2836" lon="-2.29379">
        <ele>42.200000762939</ele>
        <time>2019-06-20T09:33:47.000Z</time>
      </trkpt>
      <trkpt lat="47.28356" lon="-2.29383">
        <ele>42.200000762939</ele>
        <time>2019-06-20T09:33:48.000Z</time>
      </trkpt>
      <trkpt lat="47.2834" lon="-2.29401">
        <ele>42.200000762939</ele>
        <time>2019-06-20T09:33:52.000Z</time>
      </trkpt>
      <trkpt lat="47.28315" lon="-2.29429">
        <ele>42.200000762939</ele>
        <time>2019-06-20T09:33:58.000Z</time>
      </trkpt>
      <trkpt lat="47.2831" lon="-2.29434">
        <ele>42.200000762939</ele>
        <time>2019-06-20T09:33:59.000Z</time>
      </trkpt>
      <trkpt lat="47.28293" lon="-2.2945">
        <ele>42.200000762939</ele>
        <time>2019-06-20T09:34:03.000Z</time>
      </trkpt>
      <trkpt lat="47.28284" lon="-2.29456">
        <ele>42.200000762939</ele>
        <time>2019-06-20T09:34:05.000Z</time>
      </trkpt>
      <trkpt lat="47.28276" lon="-2.2946">
        <ele>42.200000762939</ele>
        <time>2019-06-20T09:34:07.000Z</time>
      </trkpt>
      <trkpt lat="47.28264" lon="-2.29468">
        <ele>42.200000762939</ele>
        <time>2019-06-20T09:34:10.000Z</time>
      </trkpt>
      <trkpt lat="47.2826" lon="-2.29471">
        <ele>42.200000762939</ele>
        <time>2019-06-20T09:34:11.000Z</time>
      </trkpt>
      <trkpt lat="47.28256" lon="-2.29473">
        <ele>42.200000762939</ele>
        <time>2019-06-20T09:34:12.000Z</time>
      </trkpt>
      <trkpt lat="47.28242" lon="-2.2948">
        <ele>42.200000762939</ele>
        <time>2019-06-20T09:34:16.000Z</time>
      </trkpt>
      <trkpt lat="47.28224" lon="-2.29493">
        <ele>42.200000762939</ele>
        <time>2019-06-20T09:34:22.000Z</time>
      </trkpt>
      <trkpt lat="47.28207" lon="-2.29502">
        <ele>42.200000762939</ele>
        <time>2019-06-20T09:34:28.000Z</time>
      </trkpt>
      <trkpt lat="47.28201" lon="-2.29507">
        <ele>42.599998474121</ele>
        <time>2019-06-20T09:34:31.000Z</time>
      </trkpt>
      <trkpt lat="47.28198" lon="-2.29509">
        <ele>43</ele>
        <time>2019-06-20T09:34:32.000Z</time>
      </trkpt>
      <trkpt lat="47.28196" lon="-2.29509">
        <ele>43.599998474121</ele>
        <time>2019-06-20T09:34:33.000Z</time>
      </trkpt>
      <trkpt lat="47.28193" lon="-2.2951">
        <ele>44.400001525879</ele>
        <time>2019-06-20T09:34:34.000Z</time>
      </trkpt>
      <trkpt lat="47.2819" lon="-2.29511">
        <ele>44.400001525879</ele>
        <time>2019-06-20T09:34:35.000Z</time>
      </trkpt>
      <trkpt lat="47.28172" lon="-2.29517">
        <ele>44.400001525879</ele>
        <time>2019-06-20T09:34:41.000Z</time>
      </trkpt>
      <trkpt lat="47.2815" lon="-2.29525">
        <ele>44.400001525879</ele>
        <time>2019-06-20T09:34:48.000Z</time>
      </trkpt>
      <trkpt lat="47.28147" lon="-2.29526">
        <ele>44.799999237061</ele>
        <time>2019-06-20T09:34:49.000Z</time>
      </trkpt>
      <trkpt lat="47.28144" lon="-2.29527">
        <ele>45.200000762939</ele>
        <time>2019-06-20T09:34:50.000Z</time>
      </trkpt>
      <trkpt lat="47.2814" lon="-2.29528">
        <ele>45.599998474121</ele>
        <time>2019-06-20T09:34:51.000Z</time>
      </trkpt>
      <trkpt lat="47.28137" lon="-2.29529">
        <ele>46</ele>
        <time>2019-06-20T09:34:52.000Z</time>
      </trkpt>
      <trkpt lat="47.28134" lon="-2.2953">
        <ele>46.400001525879</ele>
        <time>2019-06-20T09:34:53.000Z</time>
      </trkpt>
      <trkpt lat="47.28127" lon="-2.29534">
        <ele>46.400001525879</ele>
        <time>2019-06-20T09:34:55.000Z</time>
      </trkpt>
      <trkpt lat="47.28106" lon="-2.29542">
        <ele>46.400001525879</ele>
        <time>2019-06-20T09:35:01.000Z</time>
      </trkpt>
      <trkpt lat="47.28084" lon="-2.2955">
        <ele>46.400001525879</ele>
        <time>2019-06-20T09:35:07.000Z</time>
      </trkpt>
      <trkpt lat="47.28057" lon="-2.29563">
        <ele>46.400001525879</ele>
        <time>2019-06-20T09:35:14.000Z</time>
      </trkpt>
      <trkpt lat="47.28035" lon="-2.29571">
        <ele>46.400001525879</ele>
        <time>2019-06-20T09:35:19.000Z</time>
      </trkpt>
      <trkpt lat="47.28032" lon="-2.29572">
        <ele>46.400001525879</ele>
        <time>2019-06-20T09:35:20.000Z</time>
      </trkpt>
      <trkpt lat="47.28006" lon="-2.29583">
        <ele>46.400001525879</ele>
        <time>2019-06-20T09:35:26.000Z</time>
      </trkpt>
      <trkpt lat="47.27976" lon="-2.29594">
        <ele>46.400001525879</ele>
        <time>2019-06-20T09:35:33.000Z</time>
      </trkpt>
      <trkpt lat="47.27966" lon="-2.29596">
        <ele>46.400001525879</ele>
        <time>2019-06-20T09:35:35.000Z</time>
      </trkpt>
      <trkpt lat="47.27938" lon="-2.29598">
        <ele>46.400001525879</ele>
        <time>2019-06-20T09:35:41.000Z</time>
      </trkpt>
      <trkpt lat="47.27933" lon="-2.29599">
        <ele>46.400001525879</ele>
        <time>2019-06-20T09:35:42.000Z</time>
      </trkpt>
      <trkpt lat="47.27921" lon="-2.29598">
        <ele>46.400001525879</ele>
        <time>2019-06-20T09:35:45.000Z</time>
      </trkpt>
      <trkpt lat="47.27917" lon="-2.29597">
        <ele>46.400001525879</ele>
        <time>2019-06-20T09:35:46.000Z</time>
      </trkpt>
      <trkpt lat="47.27912" lon="-2.29597">
        <ele>46.400001525879</ele>
        <time>2019-06-20T09:35:47.000Z</time>
      </trkpt>
      <trkpt lat="47.27889" lon="-2.29596">
        <ele>46.400001525879</ele>
        <time>2019-06-20T09:35:52.000Z</time>
      </trkpt>
      <trkpt lat="47.27858" lon="-2.29593">
        <ele>46.400001525879</ele>
        <time>2019-06-20T09:35:59.000Z</time>
      </trkpt>
      <trkpt lat="47.27853" lon="-2.29596">
        <ele>46.400001525879</ele>
        <time>2019-06-20T09:36:03.000Z</time>
      </trkpt>
      <trkpt lat="47.27853" lon="-2.29596">
        <ele>46.400001525879</ele>
        <time>2019-06-20T09:36:04.000Z</time>
      </trkpt>
      <trkpt lat="47.27851" lon="-2.29598">
        <ele>46.400001525879</ele>
        <time>2019-06-20T09:36:16.000Z</time>
      </trkpt>
      <trkpt lat="47.27848" lon="-2.29598">
        <ele>46.400001525879</ele>
        <time>2019-06-20T09:36:17.000Z</time>
      </trkpt>
      <trkpt lat="47.27845" lon="-2.29598">
        <ele>46.400001525879</ele>
        <time>2019-06-20T09:36:18.000Z</time>
      </trkpt>
      <trkpt lat="47.2782" lon="-2.29596">
        <ele>46.400001525879</ele>
        <time>2019-06-20T09:36:23.000Z</time>
      </trkpt>
      <trkpt lat="47.27784" lon="-2.29594">
        <ele>46.400001525879</ele>
        <time>2019-06-20T09:36:29.000Z</time>
      </trkpt>
      <trkpt lat="47.27747" lon="-2.29595">
        <ele>46.400001525879</ele>
        <time>2019-06-20T09:36:35.000Z</time>
      </trkpt>
      <trkpt lat="47.2771" lon="-2.29594">
        <ele>46.400001525879</ele>
        <time>2019-06-20T09:36:41.000Z</time>
      </trkpt>
      <trkpt lat="47.27696" lon="-2.29593">
        <ele>46</ele>
        <time>2019-06-20T09:36:45.000Z</time>
      </trkpt>
      <trkpt lat="47.27692" lon="-2.29593">
        <ele>45.599998474121</ele>
        <time>2019-06-20T09:36:46.000Z</time>
      </trkpt>
      <trkpt lat="47.27688" lon="-2.29593">
        <ele>45.200000762939</ele>
        <time>2019-06-20T09:36:47.000Z</time>
      </trkpt>
      <trkpt lat="47.27685" lon="-2.29593">
        <ele>44.799999237061</ele>
        <time>2019-06-20T09:36:48.000Z</time>
      </trkpt>
      <trkpt lat="47.27682" lon="-2.29593">
        <ele>44.400001525879</ele>
        <time>2019-06-20T09:36:49.000Z</time>
      </trkpt>
      <trkpt lat="47.27668" lon="-2.29595">
        <ele>44.400001525879</ele>
        <time>2019-06-20T09:36:53.000Z</time>
      </trkpt>
      <trkpt lat="47.27644" lon="-2.29594">
        <ele>44.400001525879</ele>
        <time>2019-06-20T09:36:59.000Z</time>
      </trkpt>
      <trkpt lat="47.27609" lon="-2.29594">
        <ele>44.400001525879</ele>
        <time>2019-06-20T09:37:07.000Z</time>
      </trkpt>
      <trkpt lat="47.27586" lon="-2.29594">
        <ele>44.400001525879</ele>
        <time>2019-06-20T09:37:12.000Z</time>
      </trkpt>
      <trkpt lat="47.27582" lon="-2.29594">
        <ele>44.400001525879</ele>
        <time>2019-06-20T09:37:13.000Z</time>
      </trkpt>
      <trkpt lat="47.27572" lon="-2.29594">
        <ele>44.400001525879</ele>
        <time>2019-06-20T09:37:15.000Z</time>
      </trkpt>
      <trkpt lat="47.27559" lon="-2.29594">
        <ele>44.400001525879</ele>
        <time>2019-06-20T09:37:18.000Z</time>
      </trkpt>
      <trkpt lat="47.27542" lon="-2.29593">
        <ele>44.400001525879</ele>
        <time>2019-06-20T09:37:22.000Z</time>
      </trkpt>
      <trkpt lat="47.27512" lon="-2.29597">
        <ele>44.400001525879</ele>
        <time>2019-06-20T09:37:28.000Z</time>
      </trkpt>
      <trkpt lat="47.27473" lon="-2.29608">
        <ele>44.400001525879</ele>
        <time>2019-06-20T09:37:35.000Z</time>
      </trkpt>
      <trkpt lat="47.27458" lon="-2.29613">
        <ele>44.400001525879</ele>
        <time>2019-06-20T09:37:38.000Z</time>
      </trkpt>
      <trkpt lat="47.27453" lon="-2.29616">
        <ele>44.400001525879</ele>
        <time>2019-06-20T09:37:39.000Z</time>
      </trkpt>
      <trkpt lat="47.27425" lon="-2.29623">
        <ele>44.400001525879</ele>
        <time>2019-06-20T09:37:44.000Z</time>
      </trkpt>
      <trkpt lat="47.27389" lon="-2.29632">
        <ele>44.400001525879</ele>
        <time>2019-06-20T09:37:50.000Z</time>
      </trkpt>
      <trkpt lat="47.27349" lon="-2.29635">
        <ele>44.799999237061</ele>
        <time>2019-06-20T09:37:56.000Z</time>
      </trkpt>
      <trkpt lat="47.27342" lon="-2.29636">
        <ele>45.200000762939</ele>
        <time>2019-06-20T09:37:57.000Z</time>
      </trkpt>
      <trkpt lat="47.27335" lon="-2.29637">
        <ele>45.599998474121</ele>
        <time>2019-06-20T09:37:58.000Z</time>
      </trkpt>
      <trkpt lat="47.27329" lon="-2.29638">
        <ele>46</ele>
        <time>2019-06-20T09:37:59.000Z</time>
      </trkpt>
      <trkpt lat="47.27322" lon="-2.29639">
        <ele>46.400001525879</ele>
        <time>2019-06-20T09:38:00.000Z</time>
      </trkpt>
      <trkpt lat="47.27296" lon="-2.29642">
        <ele>46.400001525879</ele>
        <time>2019-06-20T09:38:04.000Z</time>
      </trkpt>
      <trkpt lat="47.27275" lon="-2.29644">
        <ele>46.400001525879</ele>
        <time>2019-06-20T09:38:08.000Z</time>
      </trkpt>
      <trkpt lat="47.27271" lon="-2.29644">
        <ele>46.400001525879</ele>
        <time>2019-06-20T09:38:09.000Z</time>
      </trkpt>
      <trkpt lat="47.27265" lon="-2.29656">
        <ele>46.400001525879</ele>
        <time>2019-06-20T09:38:12.000Z</time>
      </trkpt>
      <trkpt lat="47.27268" lon="-2.29678">
        <ele>46.400001525879</ele>
        <time>2019-06-20T09:38:16.000Z</time>
      </trkpt>
      <trkpt lat="47.27269" lon="-2.29686">
        <ele>46.400001525879</ele>
        <time>2019-06-20T09:38:17.000Z</time>
      </trkpt>
      <trkpt lat="47.2728" lon="-2.29728">
        <ele>46.400001525879</ele>
        <time>2019-06-20T09:38:22.000Z</time>
      </trkpt>
      <trkpt lat="47.27299" lon="-2.29786">
        <ele>46.400001525879</ele>
        <time>2019-06-20T09:38:29.000Z</time>
      </trkpt>
      <trkpt lat="47.27317" lon="-2.29821">
        <ele>46.400001525879</ele>
        <time>2019-06-20T09:38:34.000Z</time>
      </trkpt>
      <trkpt lat="47.27341" lon="-2.2986">
        <ele>46.400001525879</ele>
        <time>2019-06-20T09:38:40.000Z</time>
      </trkpt>
      <trkpt lat="47.27344" lon="-2.29867">
        <ele>46.400001525879</ele>
        <time>2019-06-20T09:38:41.000Z</time>
      </trkpt>
      <trkpt lat="47.27358" lon="-2.29898">
        <ele>46.400001525879</ele>
        <time>2019-06-20T09:38:45.000Z</time>
      </trkpt>
      <trkpt lat="47.27382" lon="-2.29947">
        <ele>46.400001525879</ele>
        <time>2019-06-20T09:38:51.000Z</time>
      </trkpt>
      <trkpt lat="47.2741" lon="-2.30008">
        <ele>46.400001525879</ele>
        <time>2019-06-20T09:38:58.000Z</time>
      </trkpt>
      <trkpt lat="47.27421" lon="-2.30036">
        <ele>46.400001525879</ele>
        <time>2019-06-20T09:39:01.000Z</time>
      </trkpt>
      <trkpt lat="47.27426" lon="-2.30055">
        <ele>46.400001525879</ele>
        <time>2019-06-20T09:39:03.000Z</time>
      </trkpt>
      <trkpt lat="47.27435" lon="-2.30083">
        <ele>45.599998474121</ele>
        <time>2019-06-20T09:39:06.000Z</time>
      </trkpt>
      <trkpt lat="47.27437" lon="-2.30092">
        <ele>45.200000762939</ele>
        <time>2019-06-20T09:39:07.000Z</time>
      </trkpt>
      <trkpt lat="47.2744" lon="-2.30102">
        <ele>44.799999237061</ele>
        <time>2019-06-20T09:39:08.000Z</time>
      </trkpt>
      <trkpt lat="47.27442" lon="-2.30113">
        <ele>44.400001525879</ele>
        <time>2019-06-20T09:39:09.000Z</time>
      </trkpt>
      <trkpt lat="47.27451" lon="-2.30153">
        <ele>44.400001525879</ele>
        <time>2019-06-20T09:39:13.000Z</time>
      </trkpt>
      <trkpt lat="47.27455" lon="-2.3018">
        <ele>44</ele>
        <time>2019-06-20T09:39:16.000Z</time>
      </trkpt>
      <trkpt lat="47.27456" lon="-2.30188">
        <ele>43.599998474121</ele>
        <time>2019-06-20T09:39:17.000Z</time>
      </trkpt>
      <trkpt lat="47.27457" lon="-2.30195">
        <ele>43.200000762939</ele>
        <time>2019-06-20T09:39:18.000Z</time>
      </trkpt>
      <trkpt lat="47.27458" lon="-2.30201">
        <ele>42.799999237061</ele>
        <time>2019-06-20T09:39:19.000Z</time>
      </trkpt>
      <trkpt lat="47.27456" lon="-2.30206">
        <ele>42.200000762939</ele>
        <time>2019-06-20T09:39:20.000Z</time>
      </trkpt>
      <trkpt lat="47.27452" lon="-2.30208">
        <ele>42.200000762939</ele>
        <time>2019-06-20T09:39:21.000Z</time>
      </trkpt>
      <trkpt lat="47.27428" lon="-2.30225">
        <ele>42.200000762939</ele>
        <time>2019-06-20T09:39:26.000Z</time>
      </trkpt>
      <trkpt lat="47.27399" lon="-2.30242">
        <ele>42.200000762939</ele>
        <time>2019-06-20T09:39:31.000Z</time>
      </trkpt>
      <trkpt lat="47.27391" lon="-2.30245">
        <ele>42.200000762939</ele>
        <time>2019-06-20T09:39:32.000Z</time>
      </trkpt>
      <trkpt lat="47.27371" lon="-2.30252">
        <ele>42.200000762939</ele>
        <time>2019-06-20T09:39:35.000Z</time>
      </trkpt>
      <trkpt lat="47.27351" lon="-2.30254">
        <ele>42.200000762939</ele>
        <time>2019-06-20T09:39:38.000Z</time>
      </trkpt>
      <trkpt lat="47.27329" lon="-2.30258">
        <ele>42.200000762939</ele>
        <time>2019-06-20T09:39:41.000Z</time>
      </trkpt>
      <trkpt lat="47.27321" lon="-2.30259">
        <ele>42.200000762939</ele>
        <time>2019-06-20T09:39:42.000Z</time>
      </trkpt>
      <trkpt lat="47.27292" lon="-2.30261">
        <ele>41.799999237061</ele>
        <time>2019-06-20T09:39:46.000Z</time>
      </trkpt>
      <trkpt lat="47.27285" lon="-2.30262">
        <ele>41.400001525879</ele>
        <time>2019-06-20T09:39:47.000Z</time>
      </trkpt>
      <trkpt lat="47.27277" lon="-2.30263">
        <ele>41</ele>
        <time>2019-06-20T09:39:48.000Z</time>
      </trkpt>
      <trkpt lat="47.2727" lon="-2.30264">
        <ele>40.599998474121</ele>
        <time>2019-06-20T09:39:49.000Z</time>
      </trkpt>
      <trkpt lat="47.27263" lon="-2.30267">
        <ele>40.200000762939</ele>
        <time>2019-06-20T09:39:50.000Z</time>
      </trkpt>
      <trkpt lat="47.27256" lon="-2.30268">
        <ele>40.200000762939</ele>
        <time>2019-06-20T09:39:51.000Z</time>
      </trkpt>
      <trkpt lat="47.2725" lon="-2.30269">
        <ele>40.200000762939</ele>
        <time>2019-06-20T09:39:52.000Z</time>
      </trkpt>
      <trkpt lat="47.27245" lon="-2.30268">
        <ele>40.200000762939</ele>
        <time>2019-06-20T09:39:53.000Z</time>
      </trkpt>
      <trkpt lat="47.27235" lon="-2.30263">
        <ele>40.200000762939</ele>
        <time>2019-06-20T09:39:55.000Z</time>
      </trkpt>
      <trkpt lat="47.2723" lon="-2.30262">
        <ele>39.799999237061</ele>
        <time>2019-06-20T09:39:56.000Z</time>
      </trkpt>
      <trkpt lat="47.27226" lon="-2.30261">
        <ele>39.400001525879</ele>
        <time>2019-06-20T09:39:57.000Z</time>
      </trkpt>
      <trkpt lat="47.27222" lon="-2.30259">
        <ele>39</ele>
        <time>2019-06-20T09:39:58.000Z</time>
      </trkpt>
      <trkpt lat="47.27218" lon="-2.30257">
        <ele>38.599998474121</ele>
        <time>2019-06-20T09:39:59.000Z</time>
      </trkpt>
      <trkpt lat="47.27214" lon="-2.30256">
        <ele>38.200000762939</ele>
        <time>2019-06-20T09:40:00.000Z</time>
      </trkpt>
      <trkpt lat="47.27209" lon="-2.30257">
        <ele>38.200000762939</ele>
        <time>2019-06-20T09:40:01.000Z</time>
      </trkpt>
      <trkpt lat="47.27205" lon="-2.30259">
        <ele>38.200000762939</ele>
        <time>2019-06-20T09:40:02.000Z</time>
      </trkpt>
      <trkpt lat="47.27186" lon="-2.30262">
        <ele>38.200000762939</ele>
        <time>2019-06-20T09:40:07.000Z</time>
      </trkpt>
      <trkpt lat="47.27178" lon="-2.30251">
        <ele>38.200000762939</ele>
        <time>2019-06-20T09:40:10.000Z</time>
      </trkpt>
      <trkpt lat="47.27175" lon="-2.30249">
        <ele>38.200000762939</ele>
        <time>2019-06-20T09:40:11.000Z</time>
      </trkpt>
      <trkpt lat="47.27163" lon="-2.30247">
        <ele>38.200000762939</ele>
        <time>2019-06-20T09:40:14.000Z</time>
      </trkpt>
      <trkpt lat="47.27158" lon="-2.30248">
        <ele>38.200000762939</ele>
        <time>2019-06-20T09:40:15.000Z</time>
      </trkpt>
      <trkpt lat="47.27125" lon="-2.30261">
        <ele>38.599998474121</ele>
        <time>2019-06-20T09:40:21.000Z</time>
      </trkpt>
      <trkpt lat="47.2712" lon="-2.30263">
        <ele>39</ele>
        <time>2019-06-20T09:40:22.000Z</time>
      </trkpt>
      <trkpt lat="47.27114" lon="-2.30265">
        <ele>39.400001525879</ele>
        <time>2019-06-20T09:40:23.000Z</time>
      </trkpt>
      <trkpt lat="47.27109" lon="-2.30267">
        <ele>39.799999237061</ele>
        <time>2019-06-20T09:40:24.000Z</time>
      </trkpt>
      <trkpt lat="47.27103" lon="-2.30271">
        <ele>40.200000762939</ele>
        <time>2019-06-20T09:40:25.000Z</time>
      </trkpt>
      <trkpt lat="47.27098" lon="-2.30275">
        <ele>40.200000762939</ele>
        <time>2019-06-20T09:40:26.000Z</time>
      </trkpt>
      <trkpt lat="47.27093" lon="-2.30279">
        <ele>40.200000762939</ele>
        <time>2019-06-20T09:40:27.000Z</time>
      </trkpt>
      <trkpt lat="47.27085" lon="-2.30288">
        <ele>40.200000762939</ele>
        <time>2019-06-20T09:40:29.000Z</time>
      </trkpt>
      <trkpt lat="47.27082" lon="-2.30294">
        <ele>40.200000762939</ele>
        <time>2019-06-20T09:40:30.000Z</time>
      </trkpt>
      <trkpt lat="47.27077" lon="-2.30313">
        <ele>40.599998474121</ele>
        <time>2019-06-20T09:40:33.000Z</time>
      </trkpt>
      <trkpt lat="47.27075" lon="-2.30321">
        <ele>41</ele>
        <time>2019-06-20T09:40:34.000Z</time>
      </trkpt>
      <trkpt lat="47.27073" lon="-2.30329">
        <ele>41.400001525879</ele>
        <time>2019-06-20T09:40:35.000Z</time>
      </trkpt>
      <trkpt lat="47.27072" lon="-2.30337">
        <ele>41.799999237061</ele>
        <time>2019-06-20T09:40:36.000Z</time>
      </trkpt>
      <trkpt lat="47.2707" lon="-2.30345">
        <ele>42.200000762939</ele>
        <time>2019-06-20T09:40:37.000Z</time>
      </trkpt>
      <trkpt lat="47.27063" lon="-2.30381">
        <ele>42.200000762939</ele>
        <time>2019-06-20T09:40:41.000Z</time>
      </trkpt>
      <trkpt lat="47.27054" lon="-2.30452">
        <ele>42.200000762939</ele>
        <time>2019-06-20T09:40:48.000Z</time>
      </trkpt>
      <trkpt lat="47.27047" lon="-2.30481">
        <ele>42.200000762939</ele>
        <time>2019-06-20T09:40:51.000Z</time>
      </trkpt>
      <trkpt lat="47.27041" lon="-2.30499">
        <ele>42.200000762939</ele>
        <time>2019-06-20T09:40:53.000Z</time>
      </trkpt>
      <trkpt lat="47.2702" lon="-2.30568">
        <ele>42.200000762939</ele>
        <time>2019-06-20T09:41:01.000Z</time>
      </trkpt>
      <trkpt lat="47.27012" lon="-2.30591">
        <ele>42.200000762939</ele>
        <time>2019-06-20T09:41:04.000Z</time>
      </trkpt>
      <trkpt lat="47.27007" lon="-2.30598">
        <ele>42.200000762939</ele>
        <time>2019-06-20T09:41:05.000Z</time>
      </trkpt>
      <trkpt lat="47.27002" lon="-2.30603">
        <ele>42.200000762939</ele>
        <time>2019-06-20T09:41:06.000Z</time>
      </trkpt>
      <trkpt lat="47.26976" lon="-2.30618">
        <ele>42.200000762939</ele>
        <time>2019-06-20T09:41:10.000Z</time>
      </trkpt>
      <trkpt lat="47.26969" lon="-2.30621">
        <ele>42.200000762939</ele>
        <time>2019-06-20T09:41:11.000Z</time>
      </trkpt>
      <trkpt lat="47.26943" lon="-2.3063">
        <ele>42.200000762939</ele>
        <time>2019-06-20T09:41:15.000Z</time>
      </trkpt>
      <trkpt lat="47.26931" lon="-2.30633">
        <ele>42.200000762939</ele>
        <time>2019-06-20T09:41:17.000Z</time>
      </trkpt>
      <trkpt lat="47.26915" lon="-2.30641">
        <ele>42.200000762939</ele>
        <time>2019-06-20T09:41:20.000Z</time>
      </trkpt>
      <trkpt lat="47.2691" lon="-2.30645">
        <ele>42.200000762939</ele>
        <time>2019-06-20T09:41:21.000Z</time>
      </trkpt>
      <trkpt lat="47.26906" lon="-2.30649">
        <ele>42.200000762939</ele>
        <time>2019-06-20T09:41:22.000Z</time>
      </trkpt>
      <trkpt lat="47.26902" lon="-2.30654">
        <ele>42.599998474121</ele>
        <time>2019-06-20T09:41:23.000Z</time>
      </trkpt>
      <trkpt lat="47.269" lon="-2.3066">
        <ele>43</ele>
        <time>2019-06-20T09:41:24.000Z</time>
      </trkpt>
      <trkpt lat="47.26899" lon="-2.30667">
        <ele>43.400001525879</ele>
        <time>2019-06-20T09:41:25.000Z</time>
      </trkpt>
      <trkpt lat="47.269" lon="-2.30674">
        <ele>43.799999237061</ele>
        <time>2019-06-20T09:41:26.000Z</time>
      </trkpt>
      <trkpt lat="47.26901" lon="-2.3068">
        <ele>44.200000762939</ele>
        <time>2019-06-20T09:41:27.000Z</time>
      </trkpt>
      <trkpt lat="47.26914" lon="-2.30704">
        <ele>44.200000762939</ele>
        <time>2019-06-20T09:41:31.000Z</time>
      </trkpt>
      <trkpt lat="47.26919" lon="-2.30709">
        <ele>44.200000762939</ele>
        <time>2019-06-20T09:41:32.000Z</time>
      </trkpt>
      <trkpt lat="47.26939" lon="-2.30738">
        <ele>44.200000762939</ele>
        <time>2019-06-20T09:41:36.000Z</time>
      </trkpt>
      <trkpt lat="47.26955" lon="-2.30758">
        <ele>43.799999237061</ele>
        <time>2019-06-20T09:41:39.000Z</time>
      </trkpt>
      <trkpt lat="47.26961" lon="-2.30767">
        <ele>43.400001525879</ele>
        <time>2019-06-20T09:41:40.000Z</time>
      </trkpt>
      <trkpt lat="47.26967" lon="-2.30775">
        <ele>43</ele>
        <time>2019-06-20T09:41:41.000Z</time>
      </trkpt>
      <trkpt lat="47.26972" lon="-2.30783">
        <ele>42.599998474121</ele>
        <time>2019-06-20T09:41:42.000Z</time>
      </trkpt>
      <trkpt lat="47.26978" lon="-2.30791">
        <ele>42.200000762939</ele>
        <time>2019-06-20T09:41:43.000Z</time>
      </trkpt>
      <trkpt lat="47.2699" lon="-2.30808">
        <ele>42.200000762939</ele>
        <time>2019-06-20T09:41:45.000Z</time>
      </trkpt>
      <trkpt lat="47.27013" lon="-2.3084">
        <ele>41.799999237061</ele>
        <time>2019-06-20T09:41:49.000Z</time>
      </trkpt>
      <trkpt lat="47.27018" lon="-2.30848">
        <ele>41.200000762939</ele>
        <time>2019-06-20T09:41:50.000Z</time>
      </trkpt>
      <trkpt lat="47.27024" lon="-2.30857">
        <ele>40.799999237061</ele>
        <time>2019-06-20T09:41:51.000Z</time>
      </trkpt>
      <trkpt lat="47.27029" lon="-2.30865">
        <ele>40.400001525879</ele>
        <time>2019-06-20T09:41:52.000Z</time>
      </trkpt>
      <trkpt lat="47.27035" lon="-2.30873">
        <ele>40</ele>
        <time>2019-06-20T09:41:53.000Z</time>
      </trkpt>
      <trkpt lat="47.27045" lon="-2.30887">
        <ele>39.599998474121</ele>
        <time>2019-06-20T09:41:55.000Z</time>
      </trkpt>
      <trkpt lat="47.27049" lon="-2.30892">
        <ele>39.200000762939</ele>
        <time>2019-06-20T09:41:56.000Z</time>
      </trkpt>
      <trkpt lat="47.27052" lon="-2.30895">
        <ele>38.799999237061</ele>
        <time>2019-06-20T09:41:57.000Z</time>
      </trkpt>
      <trkpt lat="47.27053" lon="-2.30899">
        <ele>38.200000762939</ele>
        <time>2019-06-20T09:41:58.000Z</time>
      </trkpt>
      <trkpt lat="47.27054" lon="-2.30904">
        <ele>37.799999237061</ele>
        <time>2019-06-20T09:41:59.000Z</time>
      </trkpt>
      <trkpt lat="47.27057" lon="-2.30913">
        <ele>37.799999237061</ele>
        <time>2019-06-20T09:42:01.000Z</time>
      </trkpt>
      <trkpt lat="47.27058" lon="-2.30918">
        <ele>37.799999237061</ele>
        <time>2019-06-20T09:42:02.000Z</time>
      </trkpt>
      <trkpt lat="47.27066" lon="-2.30941">
        <ele>37.799999237061</ele>
        <time>2019-06-20T09:42:06.000Z</time>
      </trkpt>
      <trkpt lat="47.27073" lon="-2.30978">
        <ele>37.799999237061</ele>
        <time>2019-06-20T09:42:11.000Z</time>
      </trkpt>
      <trkpt lat="47.27074" lon="-2.30999">
        <ele>37.799999237061</ele>
        <time>2019-06-20T09:42:15.000Z</time>
      </trkpt>
      <trkpt lat="47.27062" lon="-2.31024">
        <ele>37.799999237061</ele>
        <time>2019-06-20T09:42:21.000Z</time>
      </trkpt>
      <trkpt lat="47.27044" lon="-2.31041">
        <ele>37.799999237061</ele>
        <time>2019-06-20T09:42:25.000Z</time>
      </trkpt>
      <trkpt lat="47.27028" lon="-2.31055">
        <ele>37.799999237061</ele>
        <time>2019-06-20T09:42:28.000Z</time>
      </trkpt>
      <trkpt lat="47.27024" lon="-2.31065">
        <ele>37.799999237061</ele>
        <time>2019-06-20T09:42:29.000Z</time>
      </trkpt>
      <trkpt lat="47.27015" lon="-2.31085">
        <ele>37.799999237061</ele>
        <time>2019-06-20T09:42:32.000Z</time>
      </trkpt>
      <trkpt lat="47.27013" lon="-2.311">
        <ele>37.799999237061</ele>
        <time>2019-06-20T09:42:34.000Z</time>
      </trkpt>
      <trkpt lat="47.27012" lon="-2.31107">
        <ele>38.200000762939</ele>
        <time>2019-06-20T09:42:35.000Z</time>
      </trkpt>
      <trkpt lat="47.27011" lon="-2.31114">
        <ele>38.599998474121</ele>
        <time>2019-06-20T09:42:36.000Z</time>
      </trkpt>
      <trkpt lat="47.27011" lon="-2.31122">
        <ele>39</ele>
        <time>2019-06-20T09:42:37.000Z</time>
      </trkpt>
      <trkpt lat="47.27009" lon="-2.3113">
        <ele>39.400001525879</ele>
        <time>2019-06-20T09:42:38.000Z</time>
      </trkpt>
      <trkpt lat="47.27007" lon="-2.31138">
        <ele>39.799999237061</ele>
        <time>2019-06-20T09:42:39.000Z</time>
      </trkpt>
      <trkpt lat="47.27004" lon="-2.31153">
        <ele>39.799999237061</ele>
        <time>2019-06-20T09:42:41.000Z</time>
      </trkpt>
      <trkpt lat="47.27002" lon="-2.3116">
        <ele>39.799999237061</ele>
        <time>2019-06-20T09:42:42.000Z</time>
      </trkpt>
      <trkpt lat="47.26994" lon="-2.31187">
        <ele>40.400001525879</ele>
        <time>2019-06-20T09:42:46.000Z</time>
      </trkpt>
      <trkpt lat="47.26993" lon="-2.31194">
        <ele>40.799999237061</ele>
        <time>2019-06-20T09:42:47.000Z</time>
      </trkpt>
      <trkpt lat="47.26992" lon="-2.312">
        <ele>41.200000762939</ele>
        <time>2019-06-20T09:42:48.000Z</time>
      </trkpt>
      <trkpt lat="47.2699" lon="-2.31207">
        <ele>42.200000762939</ele>
        <time>2019-06-20T09:42:49.000Z</time>
      </trkpt>
      <trkpt lat="47.26988" lon="-2.31214">
        <ele>42.200000762939</ele>
        <time>2019-06-20T09:42:50.000Z</time>
      </trkpt>
      <trkpt lat="47.26985" lon="-2.31228">
        <ele>42.200000762939</ele>
        <time>2019-06-20T09:42:52.000Z</time>
      </trkpt>
      <trkpt lat="47.26981" lon="-2.31257">
        <ele>42.200000762939</ele>
        <time>2019-06-20T09:42:56.000Z</time>
      </trkpt>
      <trkpt lat="47.26981" lon="-2.31264">
        <ele>42.599998474121</ele>
        <time>2019-06-20T09:42:57.000Z</time>
      </trkpt>
      <trkpt lat="47.26981" lon="-2.31272">
        <ele>43</ele>
        <time>2019-06-20T09:42:58.000Z</time>
      </trkpt>
      <trkpt lat="47.26981" lon="-2.31279">
        <ele>43.400001525879</ele>
        <time>2019-06-20T09:42:59.000Z</time>
      </trkpt>
      <trkpt lat="47.2698" lon="-2.31286">
        <ele>43.799999237061</ele>
        <time>2019-06-20T09:43:00.000Z</time>
      </trkpt>
      <trkpt lat="47.2698" lon="-2.31294">
        <ele>44.200000762939</ele>
        <time>2019-06-20T09:43:01.000Z</time>
      </trkpt>
      <trkpt lat="47.2698" lon="-2.31301">
        <ele>44.200000762939</ele>
        <time>2019-06-20T09:43:02.000Z</time>
      </trkpt>
      <trkpt lat="47.26981" lon="-2.31316">
        <ele>44.200000762939</ele>
        <time>2019-06-20T09:43:04.000Z</time>
      </trkpt>
      <trkpt lat="47.26986" lon="-2.31355">
        <ele>44.200000762939</ele>
        <time>2019-06-20T09:43:09.000Z</time>
      </trkpt>
      <trkpt lat="47.26987" lon="-2.31364">
        <ele>44.200000762939</ele>
        <time>2019-06-20T09:43:10.000Z</time>
      </trkpt>
      <trkpt lat="47.2699" lon="-2.31414">
        <ele>44.200000762939</ele>
        <time>2019-06-20T09:43:15.000Z</time>
      </trkpt>
      <trkpt lat="47.26992" lon="-2.31437">
        <ele>43.799999237061</ele>
        <time>2019-06-20T09:43:17.000Z</time>
      </trkpt>
      <trkpt lat="47.26992" lon="-2.31449">
        <ele>43.200000762939</ele>
        <time>2019-06-20T09:43:18.000Z</time>
      </trkpt>
      <trkpt lat="47.26993" lon="-2.31459">
        <ele>42.799999237061</ele>
        <time>2019-06-20T09:43:19.000Z</time>
      </trkpt>
      <trkpt lat="47.26995" lon="-2.3147">
        <ele>42.400001525879</ele>
        <time>2019-06-20T09:43:20.000Z</time>
      </trkpt>
      <trkpt lat="47.26996" lon="-2.3148">
        <ele>42</ele>
        <time>2019-06-20T09:43:21.000Z</time>
      </trkpt>
      <trkpt lat="47.27004" lon="-2.31519">
        <ele>41.599998474121</ele>
        <time>2019-06-20T09:43:25.000Z</time>
      </trkpt>
      <trkpt lat="47.27006" lon="-2.31529">
        <ele>41</ele>
        <time>2019-06-20T09:43:26.000Z</time>
      </trkpt>
      <trkpt lat="47.27009" lon="-2.3154">
        <ele>40.599998474121</ele>
        <time>2019-06-20T09:43:27.000Z</time>
      </trkpt>
      <trkpt lat="47.27011" lon="-2.3155">
        <ele>40.200000762939</ele>
        <time>2019-06-20T09:43:28.000Z</time>
      </trkpt>
      <trkpt lat="47.27014" lon="-2.3156">
        <ele>39.799999237061</ele>
        <time>2019-06-20T09:43:29.000Z</time>
      </trkpt>
      <trkpt lat="47.27017" lon="-2.3157">
        <ele>39.799999237061</ele>
        <time>2019-06-20T09:43:30.000Z</time>
      </trkpt>
      <trkpt lat="47.2702" lon="-2.31578">
        <ele>39.200000762939</ele>
        <time>2019-06-20T09:43:31.000Z</time>
      </trkpt>
      <trkpt lat="47.27024" lon="-2.31585">
        <ele>38.599998474121</ele>
        <time>2019-06-20T09:43:32.000Z</time>
      </trkpt>
      <trkpt lat="47.27027" lon="-2.31592">
        <ele>38.200000762939</ele>
        <time>2019-06-20T09:43:33.000Z</time>
      </trkpt>
      <trkpt lat="47.2703" lon="-2.31598">
        <ele>37.599998474121</ele>
        <time>2019-06-20T09:43:34.000Z</time>
      </trkpt>
      <trkpt lat="47.27032" lon="-2.31605">
        <ele>36.799999237061</ele>
        <time>2019-06-20T09:43:35.000Z</time>
      </trkpt>
      <trkpt lat="47.27035" lon="-2.31612">
        <ele>36.200000762939</ele>
        <time>2019-06-20T09:43:36.000Z</time>
      </trkpt>
      <trkpt lat="47.27037" lon="-2.31619">
        <ele>35.599998474121</ele>
        <time>2019-06-20T09:43:37.000Z</time>
      </trkpt>
      <trkpt lat="47.2704" lon="-2.31628">
        <ele>34.799999237061</ele>
        <time>2019-06-20T09:43:38.000Z</time>
      </trkpt>
      <trkpt lat="47.27043" lon="-2.31637">
        <ele>34.400001525879</ele>
        <time>2019-06-20T09:43:39.000Z</time>
      </trkpt>
      <trkpt lat="47.27044" lon="-2.31647">
        <ele>34</ele>
        <time>2019-06-20T09:43:40.000Z</time>
      </trkpt>
      <trkpt lat="47.27046" lon="-2.31657">
        <ele>33.599998474121</ele>
        <time>2019-06-20T09:43:41.000Z</time>
      </trkpt>
      <trkpt lat="47.27047" lon="-2.31667">
        <ele>33.200000762939</ele>
        <time>2019-06-20T09:43:42.000Z</time>
      </trkpt>
      <trkpt lat="47.27042" lon="-2.31677">
        <ele>32.799999237061</ele>
        <time>2019-06-20T09:43:43.000Z</time>
      </trkpt>
      <trkpt lat="47.27038" lon="-2.31685">
        <ele>32.799999237061</ele>
        <time>2019-06-20T09:43:44.000Z</time>
      </trkpt>
      <trkpt lat="47.27037" lon="-2.31692">
        <ele>32.400001525879</ele>
        <time>2019-06-20T09:43:45.000Z</time>
      </trkpt>
      <trkpt lat="47.27037" lon="-2.31697">
        <ele>31.799999237061</ele>
        <time>2019-06-20T09:43:46.000Z</time>
      </trkpt>
      <trkpt lat="47.27038" lon="-2.31702">
        <ele>31.39999961853</ele>
        <time>2019-06-20T09:43:47.000Z</time>
      </trkpt>
      <trkpt lat="47.27038" lon="-2.31706">
        <ele>31</ele>
        <time>2019-06-20T09:43:48.000Z</time>
      </trkpt>
      <trkpt lat="47.27039" lon="-2.31709">
        <ele>30.39999961853</ele>
        <time>2019-06-20T09:43:49.000Z</time>
      </trkpt>
      <trkpt lat="47.2704" lon="-2.31712">
        <ele>30.39999961853</ele>
        <time>2019-06-20T09:43:50.000Z</time>
      </trkpt>
      <trkpt lat="47.27042" lon="-2.31715">
        <ele>30.39999961853</ele>
        <time>2019-06-20T09:43:51.000Z</time>
      </trkpt>
      <trkpt lat="47.27048" lon="-2.31722">
        <ele>30.39999961853</ele>
        <time>2019-06-20T09:43:53.000Z</time>
      </trkpt>
      <trkpt lat="47.27061" lon="-2.31733">
        <ele>30.39999961853</ele>
        <time>2019-06-20T09:43:56.000Z</time>
      </trkpt>
      <trkpt lat="47.27071" lon="-2.31744">
        <ele>30.39999961853</ele>
        <time>2019-06-20T09:43:58.000Z</time>
      </trkpt>
      <trkpt lat="47.27089" lon="-2.31759">
        <ele>30.39999961853</ele>
        <time>2019-06-20T09:44:01.000Z</time>
      </trkpt>
      <trkpt lat="47.27095" lon="-2.31765">
        <ele>30.39999961853</ele>
        <time>2019-06-20T09:44:02.000Z</time>
      </trkpt>
      <trkpt lat="47.271" lon="-2.3177">
        <ele>30</ele>
        <time>2019-06-20T09:44:03.000Z</time>
      </trkpt>
      <trkpt lat="47.27106" lon="-2.31776">
        <ele>29.60000038147</ele>
        <time>2019-06-20T09:44:04.000Z</time>
      </trkpt>
      <trkpt lat="47.27112" lon="-2.31782">
        <ele>29</ele>
        <time>2019-06-20T09:44:05.000Z</time>
      </trkpt>
      <trkpt lat="47.27119" lon="-2.31789">
        <ele>28.60000038147</ele>
        <time>2019-06-20T09:44:06.000Z</time>
      </trkpt>
      <trkpt lat="47.27126" lon="-2.31797">
        <ele>28.200000762939</ele>
        <time>2019-06-20T09:44:07.000Z</time>
      </trkpt>
      <trkpt lat="47.27149" lon="-2.3183">
        <ele>27.799999237061</ele>
        <time>2019-06-20T09:44:11.000Z</time>
      </trkpt>
      <trkpt lat="47.27154" lon="-2.31839">
        <ele>27.39999961853</ele>
        <time>2019-06-20T09:44:12.000Z</time>
      </trkpt>
      <trkpt lat="47.27159" lon="-2.31846">
        <ele>27</ele>
        <time>2019-06-20T09:44:13.000Z</time>
      </trkpt>
      <trkpt lat="47.27164" lon="-2.31854">
        <ele>26.39999961853</ele>
        <time>2019-06-20T09:44:14.000Z</time>
      </trkpt>
      <trkpt lat="47.2717" lon="-2.31862">
        <ele>26</ele>
        <time>2019-06-20T09:44:15.000Z</time>
      </trkpt>
      <trkpt lat="47.27193" lon="-2.31891">
        <ele>26</ele>
        <time>2019-06-20T09:44:19.000Z</time>
      </trkpt>
      <trkpt lat="47.27216" lon="-2.31915">
        <ele>26</ele>
        <time>2019-06-20T09:44:23.000Z</time>
      </trkpt>
      <trkpt lat="47.27229" lon="-2.31921">
        <ele>26</ele>
        <time>2019-06-20T09:44:25.000Z</time>
      </trkpt>
      <trkpt lat="47.2725" lon="-2.31926">
        <ele>25.200000762939</ele>
        <time>2019-06-20T09:44:28.000Z</time>
      </trkpt>
      <trkpt lat="47.27257" lon="-2.31927">
        <ele>24.799999237061</ele>
        <time>2019-06-20T09:44:29.000Z</time>
      </trkpt>
      <trkpt lat="47.27263" lon="-2.31929">
        <ele>24.39999961853</ele>
        <time>2019-06-20T09:44:30.000Z</time>
      </trkpt>
      <trkpt lat="47.2727" lon="-2.3193">
        <ele>24</ele>
        <time>2019-06-20T09:44:31.000Z</time>
      </trkpt>
      <trkpt lat="47.27297" lon="-2.31941">
        <ele>24</ele>
        <time>2019-06-20T09:44:36.000Z</time>
      </trkpt>
      <trkpt lat="47.27312" lon="-2.31951">
        <ele>24</ele>
        <time>2019-06-20T09:44:39.000Z</time>
      </trkpt>
      <trkpt lat="47.2732" lon="-2.3196">
        <ele>24</ele>
        <time>2019-06-20T09:44:41.000Z</time>
      </trkpt>
      <trkpt lat="47.27349" lon="-2.31995">
        <ele>24</ele>
        <time>2019-06-20T09:44:48.000Z</time>
      </trkpt>
      <trkpt lat="47.27372" lon="-2.32022">
        <ele>24</ele>
        <time>2019-06-20T09:44:55.000Z</time>
      </trkpt>
      <trkpt lat="47.27395" lon="-2.32045">
        <ele>24</ele>
        <time>2019-06-20T09:45:02.000Z</time>
      </trkpt>
      <trkpt lat="47.27409" lon="-2.32058">
        <ele>24</ele>
        <time>2019-06-20T09:45:06.000Z</time>
      </trkpt>
      <trkpt lat="47.27416" lon="-2.32065">
        <ele>24</ele>
        <time>2019-06-20T09:45:08.000Z</time>
      </trkpt>
      <trkpt lat="47.27427" lon="-2.32076">
        <ele>24.39999961853</ele>
        <time>2019-06-20T09:45:11.000Z</time>
      </trkpt>
      <trkpt lat="47.2743" lon="-2.32081">
        <ele>24.799999237061</ele>
        <time>2019-06-20T09:45:12.000Z</time>
      </trkpt>
      <trkpt lat="47.27433" lon="-2.32085">
        <ele>25.200000762939</ele>
        <time>2019-06-20T09:45:13.000Z</time>
      </trkpt>
      <trkpt lat="47.27437" lon="-2.32089">
        <ele>25.60000038147</ele>
        <time>2019-06-20T09:45:14.000Z</time>
      </trkpt>
      <trkpt lat="47.2744" lon="-2.32094">
        <ele>26</ele>
        <time>2019-06-20T09:45:15.000Z</time>
      </trkpt>
      <trkpt lat="47.27467" lon="-2.32131">
        <ele>26</ele>
        <time>2019-06-20T09:45:23.000Z</time>
      </trkpt>
      <trkpt lat="47.27489" lon="-2.32161">
        <ele>26</ele>
        <time>2019-06-20T09:45:29.000Z</time>
      </trkpt>
      <trkpt lat="47.27515" lon="-2.32193">
        <ele>26</ele>
        <time>2019-06-20T09:45:36.000Z</time>
      </trkpt>
      <trkpt lat="47.27522" lon="-2.32201">
        <ele>26.39999961853</ele>
        <time>2019-06-20T09:45:38.000Z</time>
      </trkpt>
      <trkpt lat="47.27525" lon="-2.32205">
        <ele>27</ele>
        <time>2019-06-20T09:45:39.000Z</time>
      </trkpt>
      <trkpt lat="47.27529" lon="-2.32209">
        <ele>27.39999961853</ele>
        <time>2019-06-20T09:45:40.000Z</time>
      </trkpt>
      <trkpt lat="47.27532" lon="-2.32213">
        <ele>27.799999237061</ele>
        <time>2019-06-20T09:45:41.000Z</time>
      </trkpt>
      <trkpt lat="47.27536" lon="-2.32216">
        <ele>28.200000762939</ele>
        <time>2019-06-20T09:45:42.000Z</time>
      </trkpt>
      <trkpt lat="47.27543" lon="-2.32224">
        <ele>28.200000762939</ele>
        <time>2019-06-20T09:45:44.000Z</time>
      </trkpt>
      <trkpt lat="47.27554" lon="-2.32234">
        <ele>28.60000038147</ele>
        <time>2019-06-20T09:45:47.000Z</time>
      </trkpt>
      <trkpt lat="47.27558" lon="-2.32238">
        <ele>29</ele>
        <time>2019-06-20T09:45:48.000Z</time>
      </trkpt>
      <trkpt lat="47.27562" lon="-2.32241">
        <ele>29.39999961853</ele>
        <time>2019-06-20T09:45:49.000Z</time>
      </trkpt>
      <trkpt lat="47.27565" lon="-2.32244">
        <ele>30</ele>
        <time>2019-06-20T09:45:50.000Z</time>
      </trkpt>
      <trkpt lat="47.27569" lon="-2.32247">
        <ele>30.39999961853</ele>
        <time>2019-06-20T09:45:51.000Z</time>
      </trkpt>
      <trkpt lat="47.27573" lon="-2.3225">
        <ele>30.39999961853</ele>
        <time>2019-06-20T09:45:52.000Z</time>
      </trkpt>
      <trkpt lat="47.27587" lon="-2.32263">
        <ele>30.799999237061</ele>
        <time>2019-06-20T09:45:56.000Z</time>
      </trkpt>
      <trkpt lat="47.27591" lon="-2.32266">
        <ele>31.200000762939</ele>
        <time>2019-06-20T09:45:57.000Z</time>
      </trkpt>
      <trkpt lat="47.27594" lon="-2.32269">
        <ele>31.60000038147</ele>
        <time>2019-06-20T09:45:58.000Z</time>
      </trkpt>
      <trkpt lat="47.27598" lon="-2.32272">
        <ele>32</ele>
        <time>2019-06-20T09:45:59.000Z</time>
      </trkpt>
      <trkpt lat="47.27601" lon="-2.32274">
        <ele>32.400001525879</ele>
        <time>2019-06-20T09:46:00.000Z</time>
      </trkpt>
      <trkpt lat="47.27608" lon="-2.32281">
        <ele>32.400001525879</ele>
        <time>2019-06-20T09:46:03.000Z</time>
      </trkpt>
      <trkpt lat="47.27612" lon="-2.32288">
        <ele>32.400001525879</ele>
        <time>2019-06-20T09:46:05.000Z</time>
      </trkpt>
      <trkpt lat="47.27613" lon="-2.32292">
        <ele>32.400001525879</ele>
        <time>2019-06-20T09:46:06.000Z</time>
      </trkpt>
      <trkpt lat="47.27612" lon="-2.32301">
        <ele>32.400001525879</ele>
        <time>2019-06-20T09:46:08.000Z</time>
      </trkpt>
      <trkpt lat="47.27608" lon="-2.32312">
        <ele>32.400001525879</ele>
        <time>2019-06-20T09:46:10.000Z</time>
      </trkpt>
      <trkpt lat="47.27601" lon="-2.3233">
        <ele>32.400001525879</ele>
        <time>2019-06-20T09:46:13.000Z</time>
      </trkpt>
      <trkpt lat="47.27583" lon="-2.32378">
        <ele>32.400001525879</ele>
        <time>2019-06-20T09:46:21.000Z</time>
      </trkpt>
      <trkpt lat="47.27581" lon="-2.32384">
        <ele>32.400001525879</ele>
        <time>2019-06-20T09:46:22.000Z</time>
      </trkpt>
      <trkpt lat="47.27577" lon="-2.32403">
        <ele>32.400001525879</ele>
        <time>2019-06-20T09:46:26.000Z</time>
      </trkpt>
      <trkpt lat="47.27577" lon="-2.32414">
        <ele>32.400001525879</ele>
        <time>2019-06-20T09:46:31.000Z</time>
      </trkpt>
      <trkpt lat="47.27572" lon="-2.32423">
        <ele>32.400001525879</ele>
        <time>2019-06-20T09:46:36.000Z</time>
      </trkpt>
      <trkpt lat="47.27569" lon="-2.32429">
        <ele>32.400001525879</ele>
        <time>2019-06-20T09:46:38.000Z</time>
      </trkpt>
      <trkpt lat="47.27561" lon="-2.32452">
        <ele>32.400001525879</ele>
        <time>2019-06-20T09:46:43.000Z</time>
      </trkpt>
      <trkpt lat="47.27553" lon="-2.32489">
        <ele>32.400001525879</ele>
        <time>2019-06-20T09:46:50.000Z</time>
      </trkpt>
      <trkpt lat="47.27543" lon="-2.32513">
        <ele>32</ele>
        <time>2019-06-20T09:46:54.000Z</time>
      </trkpt>
      <trkpt lat="47.2754" lon="-2.3252">
        <ele>31.60000038147</ele>
        <time>2019-06-20T09:46:55.000Z</time>
      </trkpt>
      <trkpt lat="47.27538" lon="-2.32526">
        <ele>30.799999237061</ele>
        <time>2019-06-20T09:46:56.000Z</time>
      </trkpt>
      <trkpt lat="47.27537" lon="-2.32533">
        <ele>30</ele>
        <time>2019-06-20T09:46:57.000Z</time>
      </trkpt>
      <trkpt lat="47.27535" lon="-2.3254">
        <ele>29.39999961853</ele>
        <time>2019-06-20T09:46:58.000Z</time>
      </trkpt>
      <trkpt lat="47.27535" lon="-2.32547">
        <ele>28.799999237061</ele>
        <time>2019-06-20T09:46:59.000Z</time>
      </trkpt>
      <trkpt lat="47.27535" lon="-2.32553">
        <ele>28.200000762939</ele>
        <time>2019-06-20T09:47:00.000Z</time>
      </trkpt>
      <trkpt lat="47.27536" lon="-2.32558">
        <ele>27.60000038147</ele>
        <time>2019-06-20T09:47:01.000Z</time>
      </trkpt>
      <trkpt lat="47.27537" lon="-2.32564">
        <ele>27</ele>
        <time>2019-06-20T09:47:02.000Z</time>
      </trkpt>
      <trkpt lat="47.27538" lon="-2.3257">
        <ele>26.60000038147</ele>
        <time>2019-06-20T09:47:03.000Z</time>
      </trkpt>
      <trkpt lat="47.2754" lon="-2.32576">
        <ele>26</ele>
        <time>2019-06-20T09:47:04.000Z</time>
      </trkpt>
      <trkpt lat="47.27542" lon="-2.32583">
        <ele>25.39999961853</ele>
        <time>2019-06-20T09:47:05.000Z</time>
      </trkpt>
      <trkpt lat="47.27541" lon="-2.3259">
        <ele>25.39999961853</ele>
        <time>2019-06-20T09:47:06.000Z</time>
      </trkpt>
      <trkpt lat="47.27539" lon="-2.32597">
        <ele>25.39999961853</ele>
        <time>2019-06-20T09:47:07.000Z</time>
      </trkpt>
      <trkpt lat="47.27533" lon="-2.32609">
        <ele>25.39999961853</ele>
        <time>2019-06-20T09:47:09.000Z</time>
      </trkpt>
      <trkpt lat="47.27525" lon="-2.32616">
        <ele>25.39999961853</ele>
        <time>2019-06-20T09:47:11.000Z</time>
      </trkpt>
      <trkpt lat="47.2751" lon="-2.32629">
        <ele>25.39999961853</ele>
        <time>2019-06-20T09:47:14.000Z</time>
      </trkpt>
      <trkpt lat="47.27506" lon="-2.32636">
        <ele>25.39999961853</ele>
        <time>2019-06-20T09:47:15.000Z</time>
      </trkpt>
      <trkpt lat="47.27498" lon="-2.3266">
        <ele>25.39999961853</ele>
        <time>2019-06-20T09:47:18.000Z</time>
      </trkpt>
      <trkpt lat="47.27496" lon="-2.32667">
        <ele>25.39999961853</ele>
        <time>2019-06-20T09:47:19.000Z</time>
      </trkpt>
      <trkpt lat="47.27493" lon="-2.32672">
        <ele>25.39999961853</ele>
        <time>2019-06-20T09:47:20.000Z</time>
      </trkpt>
      <trkpt lat="47.27481" lon="-2.32681">
        <ele>25.39999961853</ele>
        <time>2019-06-20T09:47:23.000Z</time>
      </trkpt>
      <trkpt lat="47.27464" lon="-2.32699">
        <ele>25.39999961853</ele>
        <time>2019-06-20T09:47:27.000Z</time>
      </trkpt>
      <trkpt lat="47.27461" lon="-2.32706">
        <ele>25.39999961853</ele>
        <time>2019-06-20T09:47:28.000Z</time>
      </trkpt>
      <trkpt lat="47.27452" lon="-2.32723">
        <ele>25.39999961853</ele>
        <time>2019-06-20T09:47:31.000Z</time>
      </trkpt>
      <trkpt lat="47.2745" lon="-2.32729">
        <ele>25.39999961853</ele>
        <time>2019-06-20T09:47:32.000Z</time>
      </trkpt>
      <trkpt lat="47.27448" lon="-2.32735">
        <ele>25.799999237061</ele>
        <time>2019-06-20T09:47:33.000Z</time>
      </trkpt>
      <trkpt lat="47.27446" lon="-2.32741">
        <ele>26.200000762939</ele>
        <time>2019-06-20T09:47:34.000Z</time>
      </trkpt>
      <trkpt lat="47.27444" lon="-2.32747">
        <ele>26.60000038147</ele>
        <time>2019-06-20T09:47:35.000Z</time>
      </trkpt>
      <trkpt lat="47.27442" lon="-2.32752">
        <ele>27</ele>
        <time>2019-06-20T09:47:36.000Z</time>
      </trkpt>
      <trkpt lat="47.27441" lon="-2.32758">
        <ele>27.39999961853</ele>
        <time>2019-06-20T09:47:37.000Z</time>
      </trkpt>
      <trkpt lat="47.27439" lon="-2.32764">
        <ele>27.39999961853</ele>
        <time>2019-06-20T09:47:38.000Z</time>
      </trkpt>
      <trkpt lat="47.27437" lon="-2.3277">
        <ele>27.799999237061</ele>
        <time>2019-06-20T09:47:39.000Z</time>
      </trkpt>
      <trkpt lat="47.27435" lon="-2.32776">
        <ele>28.200000762939</ele>
        <time>2019-06-20T09:47:40.000Z</time>
      </trkpt>
      <trkpt lat="47.27433" lon="-2.32783">
        <ele>28.60000038147</ele>
        <time>2019-06-20T09:47:41.000Z</time>
      </trkpt>
      <trkpt lat="47.27432" lon="-2.32789">
        <ele>29</ele>
        <time>2019-06-20T09:47:42.000Z</time>
      </trkpt>
      <trkpt lat="47.27432" lon="-2.32797">
        <ele>29.39999961853</ele>
        <time>2019-06-20T09:47:43.000Z</time>
      </trkpt>
      <trkpt lat="47.27431" lon="-2.32804">
        <ele>29.39999961853</ele>
        <time>2019-06-20T09:47:44.000Z</time>
      </trkpt>
      <trkpt lat="47.27427" lon="-2.32835">
        <ele>30</ele>
        <time>2019-06-20T09:47:48.000Z</time>
      </trkpt>
      <trkpt lat="47.27424" lon="-2.32842">
        <ele>30.39999961853</ele>
        <time>2019-06-20T09:47:49.000Z</time>
      </trkpt>
      <trkpt lat="47.27422" lon="-2.32849">
        <ele>30.799999237061</ele>
        <time>2019-06-20T09:47:50.000Z</time>
      </trkpt>
      <trkpt lat="47.2742" lon="-2.32854">
        <ele>31.200000762939</ele>
        <time>2019-06-20T09:47:51.000Z</time>
      </trkpt>
      <trkpt lat="47.27419" lon="-2.3286">
        <ele>31.60000038147</ele>
        <time>2019-06-20T09:47:52.000Z</time>
      </trkpt>
      <trkpt lat="47.27415" lon="-2.32868">
        <ele>31.60000038147</ele>
        <time>2019-06-20T09:47:54.000Z</time>
      </trkpt>
      <trkpt lat="47.27403" lon="-2.32893">
        <ele>31.60000038147</ele>
        <time>2019-06-20T09:48:01.000Z</time>
      </trkpt>
      <trkpt lat="47.27392" lon="-2.32923">
        <ele>31.60000038147</ele>
        <time>2019-06-20T09:48:08.000Z</time>
      </trkpt>
      <trkpt lat="47.27388" lon="-2.32932">
        <ele>32</ele>
        <time>2019-06-20T09:48:10.000Z</time>
      </trkpt>
      <trkpt lat="47.27386" lon="-2.32936">
        <ele>32.400001525879</ele>
        <time>2019-06-20T09:48:11.000Z</time>
      </trkpt>
      <trkpt lat="47.27384" lon="-2.3294">
        <ele>32.799999237061</ele>
        <time>2019-06-20T09:48:12.000Z</time>
      </trkpt>
      <trkpt lat="47.27381" lon="-2.32944">
        <ele>33.400001525879</ele>
        <time>2019-06-20T09:48:13.000Z</time>
      </trkpt>
      <trkpt lat="47.27379" lon="-2.32949">
        <ele>33.799999237061</ele>
        <time>2019-06-20T09:48:14.000Z</time>
      </trkpt>
      <trkpt lat="47.27366" lon="-2.32979">
        <ele>33.799999237061</ele>
        <time>2019-06-20T09:48:20.000Z</time>
      </trkpt>
      <trkpt lat="47.27363" lon="-2.32984">
        <ele>33.799999237061</ele>
        <time>2019-06-20T09:48:21.000Z</time>
      </trkpt>
      <trkpt lat="47.27356" lon="-2.32995">
        <ele>33.799999237061</ele>
        <time>2019-06-20T09:48:23.000Z</time>
      </trkpt>
      <trkpt lat="47.27347" lon="-2.33019">
        <ele>33.799999237061</ele>
        <time>2019-06-20T09:48:27.000Z</time>
      </trkpt>
      <trkpt lat="47.27339" lon="-2.33044">
        <ele>34.200000762939</ele>
        <time>2019-06-20T09:48:31.000Z</time>
      </trkpt>
      <trkpt lat="47.27337" lon="-2.33051">
        <ele>34.599998474121</ele>
        <time>2019-06-20T09:48:32.000Z</time>
      </trkpt>
      <trkpt lat="47.27334" lon="-2.33057">
        <ele>35.400001525879</ele>
        <time>2019-06-20T09:48:33.000Z</time>
      </trkpt>
      <trkpt lat="47.27332" lon="-2.33063">
        <ele>35.799999237061</ele>
        <time>2019-06-20T09:48:34.000Z</time>
      </trkpt>
      <trkpt lat="47.27328" lon="-2.33075">
        <ele>35.799999237061</ele>
        <time>2019-06-20T09:48:36.000Z</time>
      </trkpt>
      <trkpt lat="47.27312" lon="-2.33112">
        <ele>35.799999237061</ele>
        <time>2019-06-20T09:48:44.000Z</time>
      </trkpt>
      <trkpt lat="47.27308" lon="-2.33129">
        <ele>35.799999237061</ele>
        <time>2019-06-20T09:48:48.000Z</time>
      </trkpt>
      <trkpt lat="47.27316" lon="-2.33151">
        <ele>35.799999237061</ele>
        <time>2019-06-20T09:48:53.000Z</time>
      </trkpt>
      <trkpt lat="47.27334" lon="-2.33167">
        <ele>35.799999237061</ele>
        <time>2019-06-20T09:48:58.000Z</time>
      </trkpt>
      <trkpt lat="47.27343" lon="-2.33174">
        <ele>36.200000762939</ele>
        <time>2019-06-20T09:49:00.000Z</time>
      </trkpt>
      <trkpt lat="47.27348" lon="-2.33176">
        <ele>36.799999237061</ele>
        <time>2019-06-20T09:49:01.000Z</time>
      </trkpt>
      <trkpt lat="47.27351" lon="-2.33179">
        <ele>37.200000762939</ele>
        <time>2019-06-20T09:49:02.000Z</time>
      </trkpt>
      <trkpt lat="47.27354" lon="-2.33182">
        <ele>37.599998474121</ele>
        <time>2019-06-20T09:49:03.000Z</time>
      </trkpt>
      <trkpt lat="47.27358" lon="-2.33185">
        <ele>38</ele>
        <time>2019-06-20T09:49:04.000Z</time>
      </trkpt>
      <trkpt lat="47.27364" lon="-2.33192">
        <ele>38</ele>
        <time>2019-06-20T09:49:06.000Z</time>
      </trkpt>
      <trkpt lat="47.27391" lon="-2.33217">
        <ele>38</ele>
        <time>2019-06-20T09:49:14.000Z</time>
      </trkpt>
      <trkpt lat="47.27406" lon="-2.33233">
        <ele>38.599998474121</ele>
        <time>2019-06-20T09:49:19.000Z</time>
      </trkpt>
      <trkpt lat="47.27408" lon="-2.33236">
        <ele>39</ele>
        <time>2019-06-20T09:49:20.000Z</time>
      </trkpt>
      <trkpt lat="47.2741" lon="-2.3324">
        <ele>39.400001525879</ele>
        <time>2019-06-20T09:49:21.000Z</time>
      </trkpt>
      <trkpt lat="47.27411" lon="-2.33244">
        <ele>40.200000762939</ele>
        <time>2019-06-20T09:49:22.000Z</time>
      </trkpt>
      <trkpt lat="47.27413" lon="-2.33257">
        <ele>40.200000762939</ele>
        <time>2019-06-20T09:49:25.000Z</time>
      </trkpt>
      <trkpt lat="47.27417" lon="-2.33259">
        <ele>40.200000762939</ele>
        <time>2019-06-20T09:49:29.000Z</time>
      </trkpt>
      <trkpt lat="47.27422" lon="-2.33264">
        <ele>40.200000762939</ele>
        <time>2019-06-20T09:49:32.000Z</time>
      </trkpt>
      <trkpt lat="47.27423" lon="-2.33268">
        <ele>40.200000762939</ele>
        <time>2019-06-20T09:49:33.000Z</time>
      </trkpt>
      <trkpt lat="47.27433" lon="-2.33289">
        <ele>40.200000762939</ele>
        <time>2019-06-20T09:49:38.000Z</time>
      </trkpt>
      <trkpt lat="47.27445" lon="-2.3332">
        <ele>40.599998474121</ele>
        <time>2019-06-20T09:49:44.000Z</time>
      </trkpt>
      <trkpt lat="47.27447" lon="-2.33324">
        <ele>41</ele>
        <time>2019-06-20T09:49:45.000Z</time>
      </trkpt>
      <trkpt lat="47.2745" lon="-2.33328">
        <ele>41.400001525879</ele>
        <time>2019-06-20T09:49:46.000Z</time>
      </trkpt>
      <trkpt lat="47.27454" lon="-2.3333">
        <ele>42.200000762939</ele>
        <time>2019-06-20T09:49:47.000Z</time>
      </trkpt>
      <trkpt lat="47.27461" lon="-2.33333">
        <ele>42.200000762939</ele>
        <time>2019-06-20T09:49:49.000Z</time>
      </trkpt>
      <trkpt lat="47.27465" lon="-2.33333">
        <ele>42.200000762939</ele>
        <time>2019-06-20T09:49:50.000Z</time>
      </trkpt>
      <trkpt lat="47.27478" lon="-2.33335">
        <ele>42.200000762939</ele>
        <time>2019-06-20T09:49:53.000Z</time>
      </trkpt>
      <trkpt lat="47.27482" lon="-2.33336">
        <ele>42.200000762939</ele>
        <time>2019-06-20T09:49:54.000Z</time>
      </trkpt>
      <trkpt lat="47.27506" lon="-2.33346">
        <ele>42.200000762939</ele>
        <time>2019-06-20T09:50:00.000Z</time>
      </trkpt>
      <trkpt lat="47.2751" lon="-2.33349">
        <ele>42.200000762939</ele>
        <time>2019-06-20T09:50:01.000Z</time>
      </trkpt>
      <trkpt lat="47.27532" lon="-2.33372">
        <ele>42.200000762939</ele>
        <time>2019-06-20T09:50:08.000Z</time>
      </trkpt>
      <trkpt lat="47.27538" lon="-2.3338">
        <ele>42.200000762939</ele>
        <time>2019-06-20T09:50:11.000Z</time>
      </trkpt>
      <trkpt lat="47.2754" lon="-2.33379">
        <ele>42.200000762939</ele>
        <time>2019-06-20T09:50:12.000Z</time>
      </trkpt>
      <trkpt lat="47.27553" lon="-2.33365">
        <ele>42.200000762939</ele>
        <time>2019-06-20T09:50:17.000Z</time>
      </trkpt>
      <trkpt lat="47.27555" lon="-2.33362">
        <ele>42.200000762939</ele>
        <time>2019-06-20T09:50:18.000Z</time>
      </trkpt>
      <trkpt lat="47.27562" lon="-2.33345">
        <ele>42.200000762939</ele>
        <time>2019-06-20T09:50:22.000Z</time>
      </trkpt>
      <trkpt lat="47.27562" lon="-2.33335">
        <ele>42.200000762939</ele>
        <time>2019-06-20T09:50:24.000Z</time>
      </trkpt>
      <trkpt lat="47.27559" lon="-2.33326">
        <ele>42.200000762939</ele>
        <time>2019-06-20T09:50:26.000Z</time>
      </trkpt>
      <trkpt lat="47.27554" lon="-2.33319">
        <ele>42.200000762939</ele>
        <time>2019-06-20T09:50:28.000Z</time>
      </trkpt>
      <trkpt lat="47.27547" lon="-2.33315">
        <ele>42.200000762939</ele>
        <time>2019-06-20T09:50:30.000Z</time>
      </trkpt>
      <trkpt lat="47.27537" lon="-2.33311">
        <ele>42.200000762939</ele>
        <time>2019-06-20T09:50:34.000Z</time>
      </trkpt>
      <trkpt lat="47.27536" lon="-2.33311">
        <ele>42.200000762939</ele>
        <time>2019-06-20T09:50:35.000Z</time>
      </trkpt>
      <trkpt lat="47.27534" lon="-2.3331">
        <ele>42.200000762939</ele>
        <time>2019-06-20T09:50:38.000Z</time>
      </trkpt>
      <trkpt lat="47.27522" lon="-2.33311">
        <ele>42</ele>
        <time>2019-06-20T10:51:29.000Z</time>
      </trkpt>
      <trkpt lat="47.27522" lon="-2.33309">
        <ele>42</ele>
        <time>2019-06-20T10:51:30.000Z</time>
      </trkpt>
      <trkpt lat="47.27525" lon="-2.33306">
        <ele>42</ele>
        <time>2019-06-20T10:51:34.000Z</time>
      </trkpt>
      <trkpt lat="47.27526" lon="-2.33303">
        <ele>42</ele>
        <time>2019-06-20T10:51:36.000Z</time>
      </trkpt>
      <trkpt lat="47.27527" lon="-2.33303">
        <ele>42</ele>
        <time>2019-06-20T10:51:37.000Z</time>
      </trkpt>
      <trkpt lat="47.27534" lon="-2.33306">
        <ele>42</ele>
        <time>2019-06-20T10:51:40.000Z</time>
      </trkpt>
      <trkpt lat="47.27553" lon="-2.33319">
        <ele>42</ele>
        <time>2019-06-20T10:51:46.000Z</time>
      </trkpt>
      <trkpt lat="47.27555" lon="-2.33323">
        <ele>42</ele>
        <time>2019-06-20T10:51:47.000Z</time>
      </trkpt>
      <trkpt lat="47.27559" lon="-2.33338">
        <ele>42</ele>
        <time>2019-06-20T10:51:50.000Z</time>
      </trkpt>
      <trkpt lat="47.27562" lon="-2.33353">
        <ele>42</ele>
        <time>2019-06-20T10:51:54.000Z</time>
      </trkpt>
      <trkpt lat="47.27559" lon="-2.3336">
        <ele>42</ele>
        <time>2019-06-20T10:51:56.000Z</time>
      </trkpt>
      <trkpt lat="47.27553" lon="-2.33367">
        <ele>42</ele>
        <time>2019-06-20T10:51:58.000Z</time>
      </trkpt>
      <trkpt lat="47.27532" lon="-2.33389">
        <ele>42</ele>
        <time>2019-06-20T10:52:04.000Z</time>
      </trkpt>
      <trkpt lat="47.27529" lon="-2.33393">
        <ele>42.599998474121</ele>
        <time>2019-06-20T10:52:05.000Z</time>
      </trkpt>
      <trkpt lat="47.27526" lon="-2.33397">
        <ele>43</ele>
        <time>2019-06-20T10:52:06.000Z</time>
      </trkpt>
      <trkpt lat="47.27523" lon="-2.33401">
        <ele>43.400001525879</ele>
        <time>2019-06-20T10:52:07.000Z</time>
      </trkpt>
      <trkpt lat="47.2752" lon="-2.33404">
        <ele>43.799999237061</ele>
        <time>2019-06-20T10:52:08.000Z</time>
      </trkpt>
      <trkpt lat="47.27516" lon="-2.33407">
        <ele>44.200000762939</ele>
        <time>2019-06-20T10:52:09.000Z</time>
      </trkpt>
      <trkpt lat="47.27506" lon="-2.33418">
        <ele>44.200000762939</ele>
        <time>2019-06-20T10:52:12.000Z</time>
      </trkpt>
      <trkpt lat="47.27483" lon="-2.33441">
        <ele>44.200000762939</ele>
        <time>2019-06-20T10:52:19.000Z</time>
      </trkpt>
      <trkpt lat="47.27461" lon="-2.33466">
        <ele>44.200000762939</ele>
        <time>2019-06-20T10:52:26.000Z</time>
      </trkpt>
      <trkpt lat="47.27456" lon="-2.33466">
        <ele>44.200000762939</ele>
        <time>2019-06-20T10:52:27.000Z</time>
      </trkpt>
      <trkpt lat="47.2745" lon="-2.33459">
        <ele>44.200000762939</ele>
        <time>2019-06-20T10:52:29.000Z</time>
      </trkpt>
      <trkpt lat="47.27429" lon="-2.33429">
        <ele>44.200000762939</ele>
        <time>2019-06-20T10:52:35.000Z</time>
      </trkpt>
      <trkpt lat="47.27426" lon="-2.33422">
        <ele>44.200000762939</ele>
        <time>2019-06-20T10:52:36.000Z</time>
      </trkpt>
      <trkpt lat="47.27414" lon="-2.33393">
        <ele>44.200000762939</ele>
        <time>2019-06-20T10:52:40.000Z</time>
      </trkpt>
      <trkpt lat="47.27408" lon="-2.33368">
        <ele>44.200000762939</ele>
        <time>2019-06-20T10:52:43.000Z</time>
      </trkpt>
      <trkpt lat="47.27403" lon="-2.33345">
        <ele>44.200000762939</ele>
        <time>2019-06-20T10:52:46.000Z</time>
      </trkpt>
      <trkpt lat="47.27401" lon="-2.33337">
        <ele>43.799999237061</ele>
        <time>2019-06-20T10:52:47.000Z</time>
      </trkpt>
      <trkpt lat="47.274" lon="-2.3333">
        <ele>43</ele>
        <time>2019-06-20T10:52:48.000Z</time>
      </trkpt>
      <trkpt lat="47.27399" lon="-2.33322">
        <ele>42.599998474121</ele>
        <time>2019-06-20T10:52:49.000Z</time>
      </trkpt>
      <trkpt lat="47.27399" lon="-2.33313">
        <ele>42.200000762939</ele>
        <time>2019-06-20T10:52:50.000Z</time>
      </trkpt>
      <trkpt lat="47.27398" lon="-2.33305">
        <ele>42.200000762939</ele>
        <time>2019-06-20T10:52:51.000Z</time>
      </trkpt>
      <trkpt lat="47.27399" lon="-2.33297">
        <ele>42.200000762939</ele>
        <time>2019-06-20T10:52:52.000Z</time>
      </trkpt>
      <trkpt lat="47.274" lon="-2.33281">
        <ele>42.200000762939</ele>
        <time>2019-06-20T10:52:54.000Z</time>
      </trkpt>
      <trkpt lat="47.27404" lon="-2.33266">
        <ele>42.200000762939</ele>
        <time>2019-06-20T10:52:56.000Z</time>
      </trkpt>
      <trkpt lat="47.27401" lon="-2.33233">
        <ele>42.200000762939</ele>
        <time>2019-06-20T10:53:00.000Z</time>
      </trkpt>
      <trkpt lat="47.27388" lon="-2.33215">
        <ele>42.200000762939</ele>
        <time>2019-06-20T10:53:03.000Z</time>
      </trkpt>
      <trkpt lat="47.27383" lon="-2.3321">
        <ele>42.200000762939</ele>
        <time>2019-06-20T10:53:04.000Z</time>
      </trkpt>
      <trkpt lat="47.27344" lon="-2.33176">
        <ele>42.200000762939</ele>
        <time>2019-06-20T10:53:11.000Z</time>
      </trkpt>
      <trkpt lat="47.27327" lon="-2.33159">
        <ele>41.799999237061</ele>
        <time>2019-06-20T10:53:14.000Z</time>
      </trkpt>
      <trkpt lat="47.27321" lon="-2.33153">
        <ele>41.400001525879</ele>
        <time>2019-06-20T10:53:15.000Z</time>
      </trkpt>
      <trkpt lat="47.27317" lon="-2.33147">
        <ele>40.799999237061</ele>
        <time>2019-06-20T10:53:16.000Z</time>
      </trkpt>
      <trkpt lat="47.27313" lon="-2.33138">
        <ele>40.400001525879</ele>
        <time>2019-06-20T10:53:17.000Z</time>
      </trkpt>
      <trkpt lat="47.27309" lon="-2.3313">
        <ele>40</ele>
        <time>2019-06-20T10:53:18.000Z</time>
      </trkpt>
      <trkpt lat="47.27306" lon="-2.33116">
        <ele>40</ele>
        <time>2019-06-20T10:53:20.000Z</time>
      </trkpt>
      <trkpt lat="47.27307" lon="-2.33111">
        <ele>39.599998474121</ele>
        <time>2019-06-20T10:53:21.000Z</time>
      </trkpt>
      <trkpt lat="47.2731" lon="-2.33107">
        <ele>39.200000762939</ele>
        <time>2019-06-20T10:53:22.000Z</time>
      </trkpt>
      <trkpt lat="47.27313" lon="-2.33103">
        <ele>38.599998474121</ele>
        <time>2019-06-20T10:53:23.000Z</time>
      </trkpt>
      <trkpt lat="47.27316" lon="-2.33098">
        <ele>38.200000762939</ele>
        <time>2019-06-20T10:53:24.000Z</time>
      </trkpt>
      <trkpt lat="47.27318" lon="-2.33091">
        <ele>37.799999237061</ele>
        <time>2019-06-20T10:53:25.000Z</time>
      </trkpt>
      <trkpt lat="47.27327" lon="-2.33071">
        <ele>37.799999237061</ele>
        <time>2019-06-20T10:53:28.000Z</time>
      </trkpt>
      <trkpt lat="47.27333" lon="-2.33055">
        <ele>37.799999237061</ele>
        <time>2019-06-20T10:53:30.000Z</time>
      </trkpt>
      <trkpt lat="47.27353" lon="-2.32994">
        <ele>37.799999237061</ele>
        <time>2019-06-20T10:53:37.000Z</time>
      </trkpt>
      <trkpt lat="47.2736" lon="-2.3298">
        <ele>37.799999237061</ele>
        <time>2019-06-20T10:53:39.000Z</time>
      </trkpt>
      <trkpt lat="47.27374" lon="-2.32951">
        <ele>37.799999237061</ele>
        <time>2019-06-20T10:53:43.000Z</time>
      </trkpt>
      <trkpt lat="47.2738" lon="-2.32935">
        <ele>37.799999237061</ele>
        <time>2019-06-20T10:53:45.000Z</time>
      </trkpt>
      <trkpt lat="47.27385" lon="-2.32922">
        <ele>37.799999237061</ele>
        <time>2019-06-20T10:53:47.000Z</time>
      </trkpt>
      <trkpt lat="47.27387" lon="-2.32918">
        <ele>37.400001525879</ele>
        <time>2019-06-20T10:53:48.000Z</time>
      </trkpt>
      <trkpt lat="47.27391" lon="-2.32915">
        <ele>36.799999237061</ele>
        <time>2019-06-20T10:53:49.000Z</time>
      </trkpt>
      <trkpt lat="47.27394" lon="-2.32913">
        <ele>36.400001525879</ele>
        <time>2019-06-20T10:53:50.000Z</time>
      </trkpt>
      <trkpt lat="47.27396" lon="-2.32909">
        <ele>36</ele>
        <time>2019-06-20T10:53:51.000Z</time>
      </trkpt>
      <trkpt lat="47.27397" lon="-2.32904">
        <ele>35.400001525879</ele>
        <time>2019-06-20T10:53:52.000Z</time>
      </trkpt>
      <trkpt lat="47.27398" lon="-2.32899">
        <ele>35.400001525879</ele>
        <time>2019-06-20T10:53:53.000Z</time>
      </trkpt>
      <trkpt lat="47.27403" lon="-2.32888">
        <ele>35.400001525879</ele>
        <time>2019-06-20T10:53:55.000Z</time>
      </trkpt>
      <trkpt lat="47.27408" lon="-2.32874">
        <ele>35.400001525879</ele>
        <time>2019-06-20T10:53:57.000Z</time>
      </trkpt>
      <trkpt lat="47.2742" lon="-2.32844">
        <ele>35.400001525879</ele>
        <time>2019-06-20T10:54:01.000Z</time>
      </trkpt>
      <trkpt lat="47.27424" lon="-2.32835">
        <ele>35</ele>
        <time>2019-06-20T10:54:02.000Z</time>
      </trkpt>
      <trkpt lat="47.27426" lon="-2.32826">
        <ele>34.599998474121</ele>
        <time>2019-06-20T10:54:03.000Z</time>
      </trkpt>
      <trkpt lat="47.27428" lon="-2.32816">
        <ele>34.200000762939</ele>
        <time>2019-06-20T10:54:04.000Z</time>
      </trkpt>
      <trkpt lat="47.27431" lon="-2.32806">
        <ele>33.799999237061</ele>
        <time>2019-06-20T10:54:05.000Z</time>
      </trkpt>
      <trkpt lat="47.27432" lon="-2.32795">
        <ele>33.400001525879</ele>
        <time>2019-06-20T10:54:06.000Z</time>
      </trkpt>
      <trkpt lat="47.27435" lon="-2.32786">
        <ele>33.400001525879</ele>
        <time>2019-06-20T10:54:07.000Z</time>
      </trkpt>
      <trkpt lat="47.27448" lon="-2.32737">
        <ele>33.400001525879</ele>
        <time>2019-06-20T10:54:12.000Z</time>
      </trkpt>
      <trkpt lat="47.27452" lon="-2.32727">
        <ele>33.400001525879</ele>
        <time>2019-06-20T10:54:13.000Z</time>
      </trkpt>
      <trkpt lat="47.27464" lon="-2.32698">
        <ele>32.799999237061</ele>
        <time>2019-06-20T10:54:16.000Z</time>
      </trkpt>
      <trkpt lat="47.27468" lon="-2.3269">
        <ele>32.400001525879</ele>
        <time>2019-06-20T10:54:17.000Z</time>
      </trkpt>
      <trkpt lat="47.27473" lon="-2.32685">
        <ele>31.799999237061</ele>
        <time>2019-06-20T10:54:18.000Z</time>
      </trkpt>
      <trkpt lat="47.27479" lon="-2.32682">
        <ele>31</ele>
        <time>2019-06-20T10:54:19.000Z</time>
      </trkpt>
      <trkpt lat="47.27484" lon="-2.3268">
        <ele>30.39999961853</ele>
        <time>2019-06-20T10:54:20.000Z</time>
      </trkpt>
      <trkpt lat="47.27491" lon="-2.32676">
        <ele>29.60000038147</ele>
        <time>2019-06-20T10:54:21.000Z</time>
      </trkpt>
      <trkpt lat="47.27497" lon="-2.32671">
        <ele>28.799999237061</ele>
        <time>2019-06-20T10:54:22.000Z</time>
      </trkpt>
      <trkpt lat="47.27502" lon="-2.32665">
        <ele>28.200000762939</ele>
        <time>2019-06-20T10:54:23.000Z</time>
      </trkpt>
      <trkpt lat="47.27506" lon="-2.32657">
        <ele>27.799999237061</ele>
        <time>2019-06-20T10:54:24.000Z</time>
      </trkpt>
      <trkpt lat="47.27508" lon="-2.32648">
        <ele>27.200000762939</ele>
        <time>2019-06-20T10:54:25.000Z</time>
      </trkpt>
      <trkpt lat="47.27511" lon="-2.3264">
        <ele>26</ele>
        <time>2019-06-20T10:54:26.000Z</time>
      </trkpt>
      <trkpt lat="47.27514" lon="-2.32633">
        <ele>26</ele>
        <time>2019-06-20T10:54:27.000Z</time>
      </trkpt>
      <trkpt lat="47.27518" lon="-2.32627">
        <ele>26</ele>
        <time>2019-06-20T10:54:28.000Z</time>
      </trkpt>
      <trkpt lat="47.27534" lon="-2.32617">
        <ele>26</ele>
        <time>2019-06-20T10:54:31.000Z</time>
      </trkpt>
      <trkpt lat="47.27544" lon="-2.32605">
        <ele>25.60000038147</ele>
        <time>2019-06-20T10:54:33.000Z</time>
      </trkpt>
      <trkpt lat="47.27548" lon="-2.32598">
        <ele>25.200000762939</ele>
        <time>2019-06-20T10:54:34.000Z</time>
      </trkpt>
      <trkpt lat="47.27549" lon="-2.32591">
        <ele>24.799999237061</ele>
        <time>2019-06-20T10:54:35.000Z</time>
      </trkpt>
      <trkpt lat="47.27549" lon="-2.32583">
        <ele>24.39999961853</ele>
        <time>2019-06-20T10:54:36.000Z</time>
      </trkpt>
      <trkpt lat="47.27547" lon="-2.32576">
        <ele>24</ele>
        <time>2019-06-20T10:54:37.000Z</time>
      </trkpt>
      <trkpt lat="47.27539" lon="-2.32561">
        <ele>24</ele>
        <time>2019-06-20T10:54:40.000Z</time>
      </trkpt>
      <trkpt lat="47.27532" lon="-2.32541">
        <ele>24</ele>
        <time>2019-06-20T10:54:44.000Z</time>
      </trkpt>
      <trkpt lat="47.27532" lon="-2.32537">
        <ele>24.39999961853</ele>
        <time>2019-06-20T10:54:45.000Z</time>
      </trkpt>
      <trkpt lat="47.27532" lon="-2.32532">
        <ele>24.799999237061</ele>
        <time>2019-06-20T10:54:47.000Z</time>
      </trkpt>
      <trkpt lat="47.27533" lon="-2.32529">
        <ele>25.200000762939</ele>
        <time>2019-06-20T10:54:48.000Z</time>
      </trkpt>
      <trkpt lat="47.27535" lon="-2.32525">
        <ele>25.60000038147</ele>
        <time>2019-06-20T10:54:49.000Z</time>
      </trkpt>
      <trkpt lat="47.27536" lon="-2.32522">
        <ele>26</ele>
        <time>2019-06-20T10:54:50.000Z</time>
      </trkpt>
      <trkpt lat="47.27538" lon="-2.32519">
        <ele>26.60000038147</ele>
        <time>2019-06-20T10:54:51.000Z</time>
      </trkpt>
      <trkpt lat="47.27539" lon="-2.32516">
        <ele>27.60000038147</ele>
        <time>2019-06-20T10:54:52.000Z</time>
      </trkpt>
      <trkpt lat="47.27541" lon="-2.32512">
        <ele>28</ele>
        <time>2019-06-20T10:54:53.000Z</time>
      </trkpt>
      <trkpt lat="47.27542" lon="-2.32508">
        <ele>28.60000038147</ele>
        <time>2019-06-20T10:54:54.000Z</time>
      </trkpt>
      <trkpt lat="47.27544" lon="-2.325">
        <ele>29</ele>
        <time>2019-06-20T10:54:56.000Z</time>
      </trkpt>
      <trkpt lat="47.27545" lon="-2.32496">
        <ele>29.39999961853</ele>
        <time>2019-06-20T10:54:57.000Z</time>
      </trkpt>
      <trkpt lat="47.27547" lon="-2.32493">
        <ele>29.799999237061</ele>
        <time>2019-06-20T10:54:58.000Z</time>
      </trkpt>
      <trkpt lat="47.27548" lon="-2.32488">
        <ele>30.200000762939</ele>
        <time>2019-06-20T10:54:59.000Z</time>
      </trkpt>
      <trkpt lat="47.27549" lon="-2.32484">
        <ele>30.60000038147</ele>
        <time>2019-06-20T10:55:00.000Z</time>
      </trkpt>
      <trkpt lat="47.27552" lon="-2.3247">
        <ele>31</ele>
        <time>2019-06-20T10:55:03.000Z</time>
      </trkpt>
      <trkpt lat="47.27554" lon="-2.32462">
        <ele>31.60000038147</ele>
        <time>2019-06-20T10:55:04.000Z</time>
      </trkpt>
      <trkpt lat="47.27555" lon="-2.32454">
        <ele>32</ele>
        <time>2019-06-20T10:55:05.000Z</time>
      </trkpt>
      <trkpt lat="47.27558" lon="-2.32445">
        <ele>32.400001525879</ele>
        <time>2019-06-20T10:55:06.000Z</time>
      </trkpt>
      <trkpt lat="47.2756" lon="-2.3244">
        <ele>32.799999237061</ele>
        <time>2019-06-20T10:55:07.000Z</time>
      </trkpt>
      <trkpt lat="47.27564" lon="-2.32431">
        <ele>32.799999237061</ele>
        <time>2019-06-20T10:55:09.000Z</time>
      </trkpt>
      <trkpt lat="47.27568" lon="-2.32423">
        <ele>32.799999237061</ele>
        <time>2019-06-20T10:55:11.000Z</time>
      </trkpt>
      <trkpt lat="47.27569" lon="-2.32411">
        <ele>32.799999237061</ele>
        <time>2019-06-20T10:55:13.000Z</time>
      </trkpt>
      <trkpt lat="47.27569" lon="-2.32398">
        <ele>32.799999237061</ele>
        <time>2019-06-20T10:55:15.000Z</time>
      </trkpt>
      <trkpt lat="47.27573" lon="-2.32376">
        <ele>32.799999237061</ele>
        <time>2019-06-20T10:55:18.000Z</time>
      </trkpt>
      <trkpt lat="47.27579" lon="-2.32362">
        <ele>32.799999237061</ele>
        <time>2019-06-20T10:55:20.000Z</time>
      </trkpt>
      <trkpt lat="47.27588" lon="-2.32342">
        <ele>32.799999237061</ele>
        <time>2019-06-20T10:55:23.000Z</time>
      </trkpt>
      <trkpt lat="47.27602" lon="-2.32306">
        <ele>32.799999237061</ele>
        <time>2019-06-20T10:55:29.000Z</time>
      </trkpt>
      <trkpt lat="47.27605" lon="-2.32291">
        <ele>32.799999237061</ele>
        <time>2019-06-20T10:55:32.000Z</time>
      </trkpt>
      <trkpt lat="47.27595" lon="-2.32277">
        <ele>32.799999237061</ele>
        <time>2019-06-20T10:55:35.000Z</time>
      </trkpt>
      <trkpt lat="47.27586" lon="-2.32269">
        <ele>32.799999237061</ele>
        <time>2019-06-20T10:55:37.000Z</time>
      </trkpt>
      <trkpt lat="47.27576" lon="-2.3226">
        <ele>33.200000762939</ele>
        <time>2019-06-20T10:55:39.000Z</time>
      </trkpt>
      <trkpt lat="47.2757" lon="-2.32255">
        <ele>33.799999237061</ele>
        <time>2019-06-20T10:55:40.000Z</time>
      </trkpt>
      <trkpt lat="47.27565" lon="-2.3225">
        <ele>34.599998474121</ele>
        <time>2019-06-20T10:55:41.000Z</time>
      </trkpt>
      <trkpt lat="47.27559" lon="-2.32245">
        <ele>35</ele>
        <time>2019-06-20T10:55:42.000Z</time>
      </trkpt>
      <trkpt lat="47.27542" lon="-2.32228">
        <ele>34.599998474121</ele>
        <time>2019-06-20T10:55:45.000Z</time>
      </trkpt>
      <trkpt lat="47.27536" lon="-2.32223">
        <ele>34</ele>
        <time>2019-06-20T10:55:46.000Z</time>
      </trkpt>
      <trkpt lat="47.27529" lon="-2.32216">
        <ele>33.599998474121</ele>
        <time>2019-06-20T10:55:47.000Z</time>
      </trkpt>
      <trkpt lat="47.27523" lon="-2.32209">
        <ele>33</ele>
        <time>2019-06-20T10:55:48.000Z</time>
      </trkpt>
      <trkpt lat="47.27517" lon="-2.32201">
        <ele>32.599998474121</ele>
        <time>2019-06-20T10:55:49.000Z</time>
      </trkpt>
      <trkpt lat="47.27504" lon="-2.32186">
        <ele>32.200000762939</ele>
        <time>2019-06-20T10:55:51.000Z</time>
      </trkpt>
      <trkpt lat="47.27498" lon="-2.32178">
        <ele>31.60000038147</ele>
        <time>2019-06-20T10:55:52.000Z</time>
      </trkpt>
      <trkpt lat="47.27492" lon="-2.32169">
        <ele>31.200000762939</ele>
        <time>2019-06-20T10:55:53.000Z</time>
      </trkpt>
      <trkpt lat="47.27485" lon="-2.32161">
        <ele>30.799999237061</ele>
        <time>2019-06-20T10:55:54.000Z</time>
      </trkpt>
      <trkpt lat="47.27478" lon="-2.32154">
        <ele>30.39999961853</ele>
        <time>2019-06-20T10:55:55.000Z</time>
      </trkpt>
      <trkpt lat="47.27472" lon="-2.32146">
        <ele>30.39999961853</ele>
        <time>2019-06-20T10:55:56.000Z</time>
      </trkpt>
      <trkpt lat="47.27467" lon="-2.32138">
        <ele>30.39999961853</ele>
        <time>2019-06-20T10:55:57.000Z</time>
      </trkpt>
      <trkpt lat="47.27461" lon="-2.3213">
        <ele>29.799999237061</ele>
        <time>2019-06-20T10:55:58.000Z</time>
      </trkpt>
      <trkpt lat="47.27456" lon="-2.32122">
        <ele>29.39999961853</ele>
        <time>2019-06-20T10:55:59.000Z</time>
      </trkpt>
      <trkpt lat="47.2745" lon="-2.32115">
        <ele>29</ele>
        <time>2019-06-20T10:56:00.000Z</time>
      </trkpt>
      <trkpt lat="47.27445" lon="-2.32107">
        <ele>28.60000038147</ele>
        <time>2019-06-20T10:56:01.000Z</time>
      </trkpt>
      <trkpt lat="47.27439" lon="-2.321">
        <ele>28.200000762939</ele>
        <time>2019-06-20T10:56:02.000Z</time>
      </trkpt>
      <trkpt lat="47.27428" lon="-2.32086">
        <ele>28.200000762939</ele>
        <time>2019-06-20T10:56:04.000Z</time>
      </trkpt>
      <trkpt lat="47.2739" lon="-2.32044">
        <ele>28.200000762939</ele>
        <time>2019-06-20T10:56:10.000Z</time>
      </trkpt>
      <trkpt lat="47.27353" lon="-2.32004">
        <ele>27.799999237061</ele>
        <time>2019-06-20T10:56:15.000Z</time>
      </trkpt>
      <trkpt lat="47.27346" lon="-2.31996">
        <ele>27.39999961853</ele>
        <time>2019-06-20T10:56:16.000Z</time>
      </trkpt>
      <trkpt lat="47.27339" lon="-2.31988">
        <ele>27</ele>
        <time>2019-06-20T10:56:17.000Z</time>
      </trkpt>
      <trkpt lat="47.27332" lon="-2.3198">
        <ele>26.60000038147</ele>
        <time>2019-06-20T10:56:18.000Z</time>
      </trkpt>
      <trkpt lat="47.27325" lon="-2.31972">
        <ele>26</ele>
        <time>2019-06-20T10:56:19.000Z</time>
      </trkpt>
      <trkpt lat="47.27304" lon="-2.31955">
        <ele>26</ele>
        <time>2019-06-20T10:56:22.000Z</time>
      </trkpt>
      <trkpt lat="47.27283" lon="-2.31938">
        <ele>26</ele>
        <time>2019-06-20T10:56:26.000Z</time>
      </trkpt>
      <trkpt lat="47.27249" lon="-2.31924">
        <ele>26</ele>
        <time>2019-06-20T10:56:32.000Z</time>
      </trkpt>
      <trkpt lat="47.27242" lon="-2.31923">
        <ele>26</ele>
        <time>2019-06-20T10:56:33.000Z</time>
      </trkpt>
      <trkpt lat="47.27235" lon="-2.31921">
        <ele>26</ele>
        <time>2019-06-20T10:56:34.000Z</time>
      </trkpt>
      <trkpt lat="47.27208" lon="-2.31907">
        <ele>26</ele>
        <time>2019-06-20T10:56:38.000Z</time>
      </trkpt>
      <trkpt lat="47.27174" lon="-2.31871">
        <ele>26</ele>
        <time>2019-06-20T10:56:44.000Z</time>
      </trkpt>
      <trkpt lat="47.27156" lon="-2.31847">
        <ele>26</ele>
        <time>2019-06-20T10:56:48.000Z</time>
      </trkpt>
      <trkpt lat="47.27147" lon="-2.31837">
        <ele>26</ele>
        <time>2019-06-20T10:56:50.000Z</time>
      </trkpt>
      <trkpt lat="47.27119" lon="-2.31797">
        <ele>26</ele>
        <time>2019-06-20T10:56:57.000Z</time>
      </trkpt>
      <trkpt lat="47.27115" lon="-2.31791">
        <ele>26.39999961853</ele>
        <time>2019-06-20T10:56:58.000Z</time>
      </trkpt>
      <trkpt lat="47.2711" lon="-2.31786">
        <ele>26.799999237061</ele>
        <time>2019-06-20T10:56:59.000Z</time>
      </trkpt>
      <trkpt lat="47.27106" lon="-2.31782">
        <ele>27.200000762939</ele>
        <time>2019-06-20T10:57:00.000Z</time>
      </trkpt>
      <trkpt lat="47.27102" lon="-2.31777">
        <ele>27.60000038147</ele>
        <time>2019-06-20T10:57:01.000Z</time>
      </trkpt>
      <trkpt lat="47.27098" lon="-2.31774">
        <ele>28</ele>
        <time>2019-06-20T10:57:02.000Z</time>
      </trkpt>
      <trkpt lat="47.27093" lon="-2.3177">
        <ele>28</ele>
        <time>2019-06-20T10:57:03.000Z</time>
      </trkpt>
      <trkpt lat="47.27088" lon="-2.31767">
        <ele>28</ele>
        <time>2019-06-20T10:57:04.000Z</time>
      </trkpt>
      <trkpt lat="47.27056" lon="-2.31741">
        <ele>28</ele>
        <time>2019-06-20T10:57:11.000Z</time>
      </trkpt>
      <trkpt lat="47.2703" lon="-2.31719">
        <ele>28.60000038147</ele>
        <time>2019-06-20T10:57:17.000Z</time>
      </trkpt>
      <trkpt lat="47.27027" lon="-2.31716">
        <ele>29</ele>
        <time>2019-06-20T10:57:18.000Z</time>
      </trkpt>
      <trkpt lat="47.27023" lon="-2.31713">
        <ele>29.39999961853</ele>
        <time>2019-06-20T10:57:19.000Z</time>
      </trkpt>
      <trkpt lat="47.27018" lon="-2.3171">
        <ele>30</ele>
        <time>2019-06-20T10:57:20.000Z</time>
      </trkpt>
      <trkpt lat="47.27014" lon="-2.31707">
        <ele>30.39999961853</ele>
        <time>2019-06-20T10:57:21.000Z</time>
      </trkpt>
      <trkpt lat="47.27006" lon="-2.31701">
        <ele>30.39999961853</ele>
        <time>2019-06-20T10:57:23.000Z</time>
      </trkpt>
      <trkpt lat="47.26974" lon="-2.31678">
        <ele>30.39999961853</ele>
        <time>2019-06-20T10:57:31.000Z</time>
      </trkpt>
      <trkpt lat="47.26971" lon="-2.31675">
        <ele>30.799999237061</ele>
        <time>2019-06-20T10:57:32.000Z</time>
      </trkpt>
      <trkpt lat="47.26967" lon="-2.31672">
        <ele>31.200000762939</ele>
        <time>2019-06-20T10:57:33.000Z</time>
      </trkpt>
      <trkpt lat="47.26963" lon="-2.3167">
        <ele>31.60000038147</ele>
        <time>2019-06-20T10:57:34.000Z</time>
      </trkpt>
      <trkpt lat="47.26959" lon="-2.31668">
        <ele>32</ele>
        <time>2019-06-20T10:57:35.000Z</time>
      </trkpt>
      <trkpt lat="47.26956" lon="-2.31666">
        <ele>32.400001525879</ele>
        <time>2019-06-20T10:57:36.000Z</time>
      </trkpt>
      <trkpt lat="47.26945" lon="-2.31659">
        <ele>32.400001525879</ele>
        <time>2019-06-20T10:57:39.000Z</time>
      </trkpt>
      <trkpt lat="47.26932" lon="-2.31651">
        <ele>32.799999237061</ele>
        <time>2019-06-20T10:57:43.000Z</time>
      </trkpt>
      <trkpt lat="47.26929" lon="-2.31649">
        <ele>33.200000762939</ele>
        <time>2019-06-20T10:57:44.000Z</time>
      </trkpt>
      <trkpt lat="47.26926" lon="-2.31647">
        <ele>34</ele>
        <time>2019-06-20T10:57:45.000Z</time>
      </trkpt>
      <trkpt lat="47.26922" lon="-2.31646">
        <ele>34.599998474121</ele>
        <time>2019-06-20T10:57:46.000Z</time>
      </trkpt>
      <trkpt lat="47.26919" lon="-2.31644">
        <ele>34.599998474121</ele>
        <time>2019-06-20T10:57:47.000Z</time>
      </trkpt>
      <trkpt lat="47.26902" lon="-2.31636">
        <ele>35</ele>
        <time>2019-06-20T10:57:52.000Z</time>
      </trkpt>
      <trkpt lat="47.26899" lon="-2.31635">
        <ele>35.400001525879</ele>
        <time>2019-06-20T10:57:53.000Z</time>
      </trkpt>
      <trkpt lat="47.26896" lon="-2.31635">
        <ele>35.799999237061</ele>
        <time>2019-06-20T10:57:54.000Z</time>
      </trkpt>
      <trkpt lat="47.26892" lon="-2.31635">
        <ele>36.200000762939</ele>
        <time>2019-06-20T10:57:55.000Z</time>
      </trkpt>
      <trkpt lat="47.26889" lon="-2.31635">
        <ele>36.599998474121</ele>
        <time>2019-06-20T10:57:56.000Z</time>
      </trkpt>
      <trkpt lat="47.26886" lon="-2.31638">
        <ele>36.599998474121</ele>
        <time>2019-06-20T10:57:57.000Z</time>
      </trkpt>
      <trkpt lat="47.26884" lon="-2.31641">
        <ele>36.599998474121</ele>
        <time>2019-06-20T10:57:58.000Z</time>
      </trkpt>
      <trkpt lat="47.26883" lon="-2.31646">
        <ele>37</ele>
        <time>2019-06-20T10:57:59.000Z</time>
      </trkpt>
      <trkpt lat="47.26884" lon="-2.31651">
        <ele>37.400001525879</ele>
        <time>2019-06-20T10:58:00.000Z</time>
      </trkpt>
      <trkpt lat="47.26885" lon="-2.31657">
        <ele>37.799999237061</ele>
        <time>2019-06-20T10:58:01.000Z</time>
      </trkpt>
      <trkpt lat="47.26886" lon="-2.31662">
        <ele>38.200000762939</ele>
        <time>2019-06-20T10:58:02.000Z</time>
      </trkpt>
      <trkpt lat="47.26887" lon="-2.31668">
        <ele>38.599998474121</ele>
        <time>2019-06-20T10:58:03.000Z</time>
      </trkpt>
      <trkpt lat="47.26892" lon="-2.31704">
        <ele>38.599998474121</ele>
        <time>2019-06-20T10:58:08.000Z</time>
      </trkpt>
      <trkpt lat="47.26891" lon="-2.31734">
        <ele>38.599998474121</ele>
        <time>2019-06-20T10:58:12.000Z</time>
      </trkpt>
      <trkpt lat="47.2689" lon="-2.31742">
        <ele>38.599998474121</ele>
        <time>2019-06-20T10:58:13.000Z</time>
      </trkpt>
      <trkpt lat="47.26881" lon="-2.31766">
        <ele>38.599998474121</ele>
        <time>2019-06-20T10:58:17.000Z</time>
      </trkpt>
      <trkpt lat="47.26873" lon="-2.31775">
        <ele>38.599998474121</ele>
        <time>2019-06-20T10:58:19.000Z</time>
      </trkpt>
      <trkpt lat="47.26869" lon="-2.31779">
        <ele>38.599998474121</ele>
        <time>2019-06-20T10:58:20.000Z</time>
      </trkpt>
      <trkpt lat="47.2686" lon="-2.31785">
        <ele>38.599998474121</ele>
        <time>2019-06-20T10:58:22.000Z</time>
      </trkpt>
      <trkpt lat="47.26842" lon="-2.31795">
        <ele>38.200000762939</ele>
        <time>2019-06-20T10:58:26.000Z</time>
      </trkpt>
      <trkpt lat="47.26837" lon="-2.31797">
        <ele>37.799999237061</ele>
        <time>2019-06-20T10:58:27.000Z</time>
      </trkpt>
      <trkpt lat="47.26832" lon="-2.318">
        <ele>37.200000762939</ele>
        <time>2019-06-20T10:58:28.000Z</time>
      </trkpt>
      <trkpt lat="47.26827" lon="-2.31802">
        <ele>36.799999237061</ele>
        <time>2019-06-20T10:58:29.000Z</time>
      </trkpt>
      <trkpt lat="47.26823" lon="-2.31804">
        <ele>36.400001525879</ele>
        <time>2019-06-20T10:58:30.000Z</time>
      </trkpt>
      <trkpt lat="47.26808" lon="-2.31811">
        <ele>36.400001525879</ele>
        <time>2019-06-20T10:58:33.000Z</time>
      </trkpt>
      <trkpt lat="47.26776" lon="-2.31829">
        <ele>36.400001525879</ele>
        <time>2019-06-20T10:58:40.000Z</time>
      </trkpt>
      <trkpt lat="47.26742" lon="-2.31855">
        <ele>36.400001525879</ele>
        <time>2019-06-20T10:58:48.000Z</time>
      </trkpt>
      <trkpt lat="47.2673" lon="-2.31849">
        <ele>36.400001525879</ele>
        <time>2019-06-20T10:58:51.000Z</time>
      </trkpt>
      <trkpt lat="47.26722" lon="-2.31824">
        <ele>36.400001525879</ele>
        <time>2019-06-20T10:58:55.000Z</time>
      </trkpt>
      <trkpt lat="47.26713" lon="-2.31791">
        <ele>36.799999237061</ele>
        <time>2019-06-20T10:59:00.000Z</time>
      </trkpt>
      <trkpt lat="47.26711" lon="-2.31785">
        <ele>37.200000762939</ele>
        <time>2019-06-20T10:59:01.000Z</time>
      </trkpt>
      <trkpt lat="47.26709" lon="-2.31778">
        <ele>37.599998474121</ele>
        <time>2019-06-20T10:59:02.000Z</time>
      </trkpt>
      <trkpt lat="47.26707" lon="-2.31772">
        <ele>38</ele>
        <time>2019-06-20T10:59:03.000Z</time>
      </trkpt>
      <trkpt lat="47.26705" lon="-2.31765">
        <ele>38.400001525879</ele>
        <time>2019-06-20T10:59:04.000Z</time>
      </trkpt>
      <trkpt lat="47.26692" lon="-2.31712">
        <ele>38.400001525879</ele>
        <time>2019-06-20T10:59:12.000Z</time>
      </trkpt>
      <trkpt lat="47.26675" lon="-2.31658">
        <ele>38.400001525879</ele>
        <time>2019-06-20T10:59:19.000Z</time>
      </trkpt>
      <trkpt lat="47.2666" lon="-2.3162">
        <ele>38.400001525879</ele>
        <time>2019-06-20T10:59:24.000Z</time>
      </trkpt>
      <trkpt lat="47.26654" lon="-2.31606">
        <ele>38.400001525879</ele>
        <time>2019-06-20T10:59:26.000Z</time>
      </trkpt>
      <trkpt lat="47.26634" lon="-2.3156">
        <ele>38.400001525879</ele>
        <time>2019-06-20T10:59:33.000Z</time>
      </trkpt>
      <trkpt lat="47.26625" lon="-2.31562">
        <ele>38.400001525879</ele>
        <time>2019-06-20T10:59:35.000Z</time>
      </trkpt>
      <trkpt lat="47.26614" lon="-2.31569">
        <ele>38.400001525879</ele>
        <time>2019-06-20T10:59:37.000Z</time>
      </trkpt>
      <trkpt lat="47.26596" lon="-2.31582">
        <ele>38.400001525879</ele>
        <time>2019-06-20T10:59:40.000Z</time>
      </trkpt>
      <trkpt lat="47.26589" lon="-2.31586">
        <ele>38</ele>
        <time>2019-06-20T10:59:41.000Z</time>
      </trkpt>
      <trkpt lat="47.26582" lon="-2.31591">
        <ele>37.599998474121</ele>
        <time>2019-06-20T10:59:42.000Z</time>
      </trkpt>
      <trkpt lat="47.26575" lon="-2.31596">
        <ele>37.200000762939</ele>
        <time>2019-06-20T10:59:43.000Z</time>
      </trkpt>
      <trkpt lat="47.26568" lon="-2.31602">
        <ele>36.799999237061</ele>
        <time>2019-06-20T10:59:44.000Z</time>
      </trkpt>
      <trkpt lat="47.26561" lon="-2.31607">
        <ele>36.400001525879</ele>
        <time>2019-06-20T10:59:45.000Z</time>
      </trkpt>
      <trkpt lat="47.26553" lon="-2.31612">
        <ele>36.400001525879</ele>
        <time>2019-06-20T10:59:46.000Z</time>
      </trkpt>
      <trkpt lat="47.26532" lon="-2.31626">
        <ele>35</ele>
        <time>2019-06-20T10:59:49.000Z</time>
      </trkpt>
      <trkpt lat="47.26524" lon="-2.31631">
        <ele>34.200000762939</ele>
        <time>2019-06-20T10:59:50.000Z</time>
      </trkpt>
      <trkpt lat="47.26516" lon="-2.31635">
        <ele>33.400001525879</ele>
        <time>2019-06-20T10:59:51.000Z</time>
      </trkpt>
      <trkpt lat="47.26508" lon="-2.31639">
        <ele>32.599998474121</ele>
        <time>2019-06-20T10:59:52.000Z</time>
      </trkpt>
      <trkpt lat="47.265" lon="-2.31642">
        <ele>31.799999237061</ele>
        <time>2019-06-20T10:59:53.000Z</time>
      </trkpt>
      <trkpt lat="47.26491" lon="-2.31645">
        <ele>31</ele>
        <time>2019-06-20T10:59:54.000Z</time>
      </trkpt>
      <trkpt lat="47.26483" lon="-2.31646">
        <ele>30.200000762939</ele>
        <time>2019-06-20T10:59:55.000Z</time>
      </trkpt>
      <trkpt lat="47.26465" lon="-2.3165">
        <ele>30.200000762939</ele>
        <time>2019-06-20T10:59:57.000Z</time>
      </trkpt>
      <trkpt lat="47.26457" lon="-2.31652">
        <ele>29.799999237061</ele>
        <time>2019-06-20T10:59:58.000Z</time>
      </trkpt>
      <trkpt lat="47.26448" lon="-2.31653">
        <ele>29.200000762939</ele>
        <time>2019-06-20T10:59:59.000Z</time>
      </trkpt>
      <trkpt lat="47.2644" lon="-2.31655">
        <ele>28.60000038147</ele>
        <time>2019-06-20T11:00:00.000Z</time>
      </trkpt>
      <trkpt lat="47.26432" lon="-2.31657">
        <ele>28.200000762939</ele>
        <time>2019-06-20T11:00:01.000Z</time>
      </trkpt>
      <trkpt lat="47.26424" lon="-2.31659">
        <ele>27.60000038147</ele>
        <time>2019-06-20T11:00:02.000Z</time>
      </trkpt>
      <trkpt lat="47.26416" lon="-2.31659">
        <ele>27.60000038147</ele>
        <time>2019-06-20T11:00:03.000Z</time>
      </trkpt>
      <trkpt lat="47.2641" lon="-2.31655">
        <ele>27.200000762939</ele>
        <time>2019-06-20T11:00:04.000Z</time>
      </trkpt>
      <trkpt lat="47.26405" lon="-2.31649">
        <ele>26.799999237061</ele>
        <time>2019-06-20T11:00:05.000Z</time>
      </trkpt>
      <trkpt lat="47.26402" lon="-2.31641">
        <ele>26.39999961853</ele>
        <time>2019-06-20T11:00:06.000Z</time>
      </trkpt>
      <trkpt lat="47.26401" lon="-2.31633">
        <ele>26</ele>
        <time>2019-06-20T11:00:07.000Z</time>
      </trkpt>
      <trkpt lat="47.26402" lon="-2.31623">
        <ele>25.39999961853</ele>
        <time>2019-06-20T11:00:08.000Z</time>
      </trkpt>
      <trkpt lat="47.26403" lon="-2.31615">
        <ele>25</ele>
        <time>2019-06-20T11:00:09.000Z</time>
      </trkpt>
      <trkpt lat="47.26403" lon="-2.31606">
        <ele>24.39999961853</ele>
        <time>2019-06-20T11:00:10.000Z</time>
      </trkpt>
      <trkpt lat="47.26404" lon="-2.31598">
        <ele>23.799999237061</ele>
        <time>2019-06-20T11:00:11.000Z</time>
      </trkpt>
      <trkpt lat="47.26404" lon="-2.3159">
        <ele>23.39999961853</ele>
        <time>2019-06-20T11:00:12.000Z</time>
      </trkpt>
      <trkpt lat="47.26403" lon="-2.31566">
        <ele>23.39999961853</ele>
        <time>2019-06-20T11:00:15.000Z</time>
      </trkpt>
      <trkpt lat="47.26405" lon="-2.3155">
        <ele>23.39999961853</ele>
        <time>2019-06-20T11:00:18.000Z</time>
      </trkpt>
      <trkpt lat="47.26408" lon="-2.31551">
        <ele>23.39999961853</ele>
        <time>2019-06-20T11:00:19.000Z</time>
      </trkpt>
      <trkpt lat="47.26414" lon="-2.31553">
        <ele>23.39999961853</ele>
        <time>2019-06-20T11:00:22.000Z</time>
      </trkpt>
      <trkpt lat="47.26418" lon="-2.31552">
        <ele>23.39999961853</ele>
        <time>2019-06-20T11:00:25.000Z</time>
      </trkpt>
    </trkseg>
  </trk>
</gpx>